﻿<?xml version="1.0" encoding="utf-8"?><gpx version="1.1" creator="izvne.com" xmlns="http://www.topografix.com/GPX/1/1"><trk><name>montenegro-overview</name><trkseg><trkpt lat="43.158974" lon="19.292824"><ele>829.2</ele><time>2012-04-29T09:54:05.0000000+00:00</time></trkpt><trkpt lat="43.159073" lon="19.292822"><ele>828.9</ele><time>2012-04-29T09:54:10.0000000+00:00</time></trkpt><trkpt lat="43.158947" lon="19.29373"><ele>841.3</ele><time>2012-04-29T09:57:45.0000000+00:00</time></trkpt><trkpt lat="43.15918" lon="19.294184"><ele>844.5</ele><time>2012-04-29T09:58:05.0000000+00:00</time></trkpt><trkpt lat="43.159374" lon="19.294289"><ele>845.0</ele><time>2012-04-29T09:58:30.0000000+00:00</time></trkpt><trkpt lat="43.160198" lon="19.293846"><ele>839.6</ele><time>2012-04-29T09:59:00.0000000+00:00</time></trkpt><trkpt lat="43.160431" lon="19.292475"><ele>827.8</ele><time>2012-04-29T09:59:20.0000000+00:00</time></trkpt><trkpt lat="43.160072" lon="19.291891"><ele>822.2</ele><time>2012-04-29T09:59:30.0000000+00:00</time></trkpt><trkpt lat="43.158691" lon="19.291018"><ele>821.2</ele><time>2012-04-29T10:00:10.0000000+00:00</time></trkpt><trkpt lat="43.15934" lon="19.290501"><ele>811.6</ele><time>2012-04-29T10:00:25.0000000+00:00</time></trkpt><trkpt lat="43.160435" lon="19.290474"><ele>807.4</ele><time>2012-04-29T10:00:50.0000000+00:00</time></trkpt><trkpt lat="43.160748" lon="19.289761"><ele>800.4</ele><time>2012-04-29T10:01:05.0000000+00:00</time></trkpt><trkpt lat="43.160423" lon="19.288506"><ele>777.6</ele><time>2012-04-29T10:01:30.0000000+00:00</time></trkpt><trkpt lat="43.160572" lon="19.287491"><ele>783.5</ele><time>2012-04-29T10:02:00.0000000+00:00</time></trkpt><trkpt lat="43.159836" lon="19.285238"><ele>767.7</ele><time>2012-04-29T10:02:55.0000000+00:00</time></trkpt><trkpt lat="43.159969" lon="19.284157"><ele>763.6</ele><time>2012-04-29T10:03:10.0000000+00:00</time></trkpt><trkpt lat="43.159843" lon="19.282534"><ele>748.2</ele><time>2012-04-29T10:03:30.0000000+00:00</time></trkpt><trkpt lat="43.160648" lon="19.280619"><ele>745.2</ele><time>2012-04-29T10:03:55.0000000+00:00</time></trkpt><trkpt lat="43.160507" lon="19.280188"><ele>736.2</ele><time>2012-04-29T10:04:20.0000000+00:00</time></trkpt><trkpt lat="43.160606" lon="19.278994"><ele>732.8</ele><time>2012-04-29T10:05:00.0000000+00:00</time></trkpt><trkpt lat="43.160244" lon="19.278526"><ele>725.9</ele><time>2012-04-29T10:05:15.0000000+00:00</time></trkpt><trkpt lat="43.160618" lon="19.278711"><ele>732.1</ele><time>2012-04-29T10:07:05.0000000+00:00</time></trkpt><trkpt lat="43.160656" lon="19.279245"><ele>736.2</ele><time>2012-04-29T10:08:45.0000000+00:00</time></trkpt><trkpt lat="43.160812" lon="19.279055"><ele>740.4</ele><time>2012-04-29T10:09:40.0000000+00:00</time></trkpt><trkpt lat="43.160995" lon="19.279835"><ele>751.9</ele><time>2012-04-29T10:10:55.0000000+00:00</time></trkpt><trkpt lat="43.161938" lon="19.279348"><ele>774.6</ele><time>2012-04-29T10:17:25.0000000+00:00</time></trkpt><trkpt lat="43.162334" lon="19.280043"><ele>785.1</ele><time>2012-04-29T10:18:20.0000000+00:00</time></trkpt><trkpt lat="43.162609" lon="19.280216"><ele>793.7</ele><time>2012-04-29T10:19:15.0000000+00:00</time></trkpt><trkpt lat="43.162678" lon="19.280636"><ele>800.9</ele><time>2012-04-29T10:22:10.0000000+00:00</time></trkpt><trkpt lat="43.163425" lon="19.281328"><ele>825.2</ele><time>2012-04-29T10:24:50.0000000+00:00</time></trkpt><trkpt lat="43.163654" lon="19.282032"><ele>855.8</ele><time>2012-04-29T10:29:20.0000000+00:00</time></trkpt><trkpt lat="43.163914" lon="19.282171"><ele>862.9</ele><time>2012-04-29T10:30:30.0000000+00:00</time></trkpt><trkpt lat="43.163933" lon="19.282364"><ele>866.0</ele><time>2012-04-29T10:31:10.0000000+00:00</time></trkpt><trkpt lat="43.164169" lon="19.282387"><ele>870.3</ele><time>2012-04-29T10:31:50.0000000+00:00</time></trkpt><trkpt lat="43.163994" lon="19.282604"><ele>874.2</ele><time>2012-04-29T10:33:05.0000000+00:00</time></trkpt><trkpt lat="43.164379" lon="19.282692"><ele>877.7</ele><time>2012-04-29T10:33:50.0000000+00:00</time></trkpt><trkpt lat="43.164063" lon="19.28335"><ele>887.4</ele><time>2012-04-29T10:35:55.0000000+00:00</time></trkpt><trkpt lat="43.164639" lon="19.283407"><ele>882.7</ele><time>2012-04-29T10:36:30.0000000+00:00</time></trkpt><trkpt lat="43.16486" lon="19.283215"><ele>880.4</ele><time>2012-04-29T10:36:35.0000000+00:00</time></trkpt><trkpt lat="43.164898" lon="19.282875"><ele>878.7</ele><time>2012-04-29T10:36:40.0000000+00:00</time></trkpt><trkpt lat="43.16473" lon="19.282438"><ele>884.0</ele><time>2012-04-29T10:36:55.0000000+00:00</time></trkpt><trkpt lat="43.164948" lon="19.281881"><ele>888.3</ele><time>2012-04-29T10:37:15.0000000+00:00</time></trkpt><trkpt lat="43.165829" lon="19.282097"><ele>897.0</ele><time>2012-04-29T10:38:05.0000000+00:00</time></trkpt><trkpt lat="43.166054" lon="19.28161"><ele>898.8</ele><time>2012-04-29T10:40:00.0000000+00:00</time></trkpt><trkpt lat="43.165817" lon="19.279972"><ele>895.0</ele><time>2012-04-29T10:48:10.0000000+00:00</time></trkpt><trkpt lat="43.165874" lon="19.27953"><ele>894.1</ele><time>2012-04-29T10:55:10.0000000+00:00</time></trkpt><trkpt lat="43.166241" lon="19.27844"><ele>894.1</ele><time>2012-04-29T10:55:30.0000000+00:00</time></trkpt><trkpt lat="43.168072" lon="19.275215"><ele>878.2</ele><time>2012-04-29T10:56:25.0000000+00:00</time></trkpt><trkpt lat="43.16869" lon="19.273623"><ele>871.3</ele><time>2012-04-29T10:56:55.0000000+00:00</time></trkpt><trkpt lat="43.168976" lon="19.271915"><ele>869.6</ele><time>2012-04-29T10:57:30.0000000+00:00</time></trkpt><trkpt lat="43.169342" lon="19.271019"><ele>861.1</ele><time>2012-04-29T10:57:40.0000000+00:00</time></trkpt><trkpt lat="43.169434" lon="19.269836"><ele>868.0</ele><time>2012-04-29T10:58:10.0000000+00:00</time></trkpt><trkpt lat="43.171093" lon="19.269472"><ele>861.2</ele><time>2012-04-29T10:59:45.0000000+00:00</time></trkpt><trkpt lat="43.17173" lon="19.267992"><ele>854.5</ele><time>2012-04-29T11:00:30.0000000+00:00</time></trkpt><trkpt lat="43.172642" lon="19.267229"><ele>846.0</ele><time>2012-04-29T11:00:45.0000000+00:00</time></trkpt><trkpt lat="43.173004" lon="19.265711"><ele>842.7</ele><time>2012-04-29T11:01:05.0000000+00:00</time></trkpt><trkpt lat="43.173702" lon="19.265232"><ele>838.8</ele><time>2012-04-29T11:01:20.0000000+00:00</time></trkpt><trkpt lat="43.173882" lon="19.265324"><ele>836.8</ele><time>2012-04-29T11:01:25.0000000+00:00</time></trkpt><trkpt lat="43.173931" lon="19.265854"><ele>841.8</ele><time>2012-04-29T11:01:35.0000000+00:00</time></trkpt><trkpt lat="43.174202" lon="19.265667"><ele>832.3</ele><time>2012-04-29T11:01:45.0000000+00:00</time></trkpt><trkpt lat="43.175541" lon="19.263203"><ele>802.5</ele><time>2012-04-29T11:02:30.0000000+00:00</time></trkpt><trkpt lat="43.175949" lon="19.261633"><ele>793.3</ele><time>2012-04-29T11:03:05.0000000+00:00</time></trkpt><trkpt lat="43.177113" lon="19.260149"><ele>784.2</ele><time>2012-04-29T11:03:45.0000000+00:00</time></trkpt><trkpt lat="43.178059" lon="19.259401"><ele>786.4</ele><time>2012-04-29T11:04:10.0000000+00:00</time></trkpt><trkpt lat="43.178749" lon="19.258461"><ele>777.1</ele><time>2012-04-29T11:04:30.0000000+00:00</time></trkpt><trkpt lat="43.18232" lon="19.259172"><ele>746.6</ele><time>2012-04-29T11:05:40.0000000+00:00</time></trkpt><trkpt lat="43.182541" lon="19.259335"><ele>744.0</ele><time>2012-04-29T11:05:45.0000000+00:00</time></trkpt><trkpt lat="43.182831" lon="19.260153"><ele>737.9</ele><time>2012-04-29T11:06:10.0000000+00:00</time></trkpt><trkpt lat="43.182865" lon="19.259155"><ele>724.9</ele><time>2012-04-29T11:08:35.0000000+00:00</time></trkpt><trkpt lat="43.183609" lon="19.258127"><ele>714.7</ele><time>2012-04-29T11:14:25.0000000+00:00</time></trkpt><trkpt lat="43.183632" lon="19.257498"><ele>712.9</ele><time>2012-04-29T11:14:50.0000000+00:00</time></trkpt><trkpt lat="43.183331" lon="19.256956"><ele>719.0</ele><time>2012-04-29T11:16:40.0000000+00:00</time></trkpt><trkpt lat="43.184269" lon="19.255426"><ele>745.5</ele><time>2012-04-29T11:17:55.0000000+00:00</time></trkpt><trkpt lat="43.184494" lon="19.253601"><ele>755.3</ele><time>2012-04-29T11:19:15.0000000+00:00</time></trkpt><trkpt lat="43.185196" lon="19.252628"><ele>777.9</ele><time>2012-04-29T11:21:00.0000000+00:00</time></trkpt><trkpt lat="43.184986" lon="19.251444"><ele>787.1</ele><time>2012-04-29T11:22:40.0000000+00:00</time></trkpt><trkpt lat="43.18576" lon="19.252045"><ele>807.1</ele><time>2012-04-29T11:24:15.0000000+00:00</time></trkpt><trkpt lat="43.185665" lon="19.250557"><ele>820.2</ele><time>2012-04-29T11:25:40.0000000+00:00</time></trkpt><trkpt lat="43.185814" lon="19.249125"><ele>845.3</ele><time>2012-04-29T11:34:30.0000000+00:00</time></trkpt><trkpt lat="43.18552" lon="19.247881"><ele>856.1</ele><time>2012-04-29T11:36:15.0000000+00:00</time></trkpt><trkpt lat="43.18557" lon="19.246412"><ele>865.7</ele><time>2012-04-29T11:37:20.0000000+00:00</time></trkpt><trkpt lat="43.185013" lon="19.244093"><ele>891.0</ele><time>2012-04-29T11:39:40.0000000+00:00</time></trkpt><trkpt lat="43.185078" lon="19.243639"><ele>900.1</ele><time>2012-04-29T12:00:45.0000000+00:00</time></trkpt><trkpt lat="43.18502" lon="19.244162"><ele>888.4</ele><time>2012-04-29T12:32:35.0000000+00:00</time></trkpt><trkpt lat="43.18552" lon="19.246292"><ele>864.9</ele><time>2012-04-29T12:33:15.0000000+00:00</time></trkpt><trkpt lat="43.185478" lon="19.247206"><ele>860.2</ele><time>2012-04-29T12:33:30.0000000+00:00</time></trkpt><trkpt lat="43.185791" lon="19.249184"><ele>843.1</ele><time>2012-04-29T12:36:40.0000000+00:00</time></trkpt><trkpt lat="43.185596" lon="19.251251"><ele>810.4</ele><time>2012-04-29T12:37:25.0000000+00:00</time></trkpt><trkpt lat="43.185703" lon="19.2519"><ele>806.9</ele><time>2012-04-29T12:37:40.0000000+00:00</time></trkpt><trkpt lat="43.185585" lon="19.251995"><ele>801.4</ele><time>2012-04-29T12:37:50.0000000+00:00</time></trkpt><trkpt lat="43.184967" lon="19.251371"><ele>787.5</ele><time>2012-04-29T12:38:10.0000000+00:00</time></trkpt><trkpt lat="43.185078" lon="19.252542"><ele>773.2</ele><time>2012-04-29T12:38:35.0000000+00:00</time></trkpt><trkpt lat="43.18441" lon="19.253466"><ele>753.1</ele><time>2012-04-29T12:39:05.0000000+00:00</time></trkpt><trkpt lat="43.184093" lon="19.255405"><ele>738.1</ele><time>2012-04-29T12:39:40.0000000+00:00</time></trkpt><trkpt lat="43.183224" lon="19.256987"><ele>713.9</ele><time>2012-04-29T12:40:15.0000000+00:00</time></trkpt><trkpt lat="43.183521" lon="19.257427"><ele>711.5</ele><time>2012-04-29T12:40:30.0000000+00:00</time></trkpt><trkpt lat="43.18351" lon="19.257738"><ele>709.4</ele><time>2012-04-29T12:40:35.0000000+00:00</time></trkpt><trkpt lat="43.182789" lon="19.25906"><ele>729.0</ele><time>2012-04-29T12:41:05.0000000+00:00</time></trkpt><trkpt lat="43.182819" lon="19.260069"><ele>737.6</ele><time>2012-04-29T12:42:30.0000000+00:00</time></trkpt><trkpt lat="43.182415" lon="19.259174"><ele>744.7</ele><time>2012-04-29T12:46:45.0000000+00:00</time></trkpt><trkpt lat="43.180904" lon="19.258663"><ele>758.6</ele><time>2012-04-29T12:47:55.0000000+00:00</time></trkpt><trkpt lat="43.178764" lon="19.258436"><ele>776.7</ele><time>2012-04-29T12:50:15.0000000+00:00</time></trkpt><trkpt lat="43.177902" lon="19.259672"><ele>790.0</ele><time>2012-04-29T12:51:15.0000000+00:00</time></trkpt><trkpt lat="43.177219" lon="19.260073"><ele>786.0</ele><time>2012-04-29T12:51:45.0000000+00:00</time></trkpt><trkpt lat="43.176037" lon="19.261463"><ele>787.4</ele><time>2012-04-29T12:52:40.0000000+00:00</time></trkpt><trkpt lat="43.175629" lon="19.262297"><ele>793.5</ele><time>2012-04-29T12:53:20.0000000+00:00</time></trkpt><trkpt lat="43.175716" lon="19.262962"><ele>806.7</ele><time>2012-04-29T12:53:35.0000000+00:00</time></trkpt><trkpt lat="43.175312" lon="19.263506"><ele>801.7</ele><time>2012-04-29T12:53:55.0000000+00:00</time></trkpt><trkpt lat="43.175175" lon="19.264074"><ele>809.6</ele><time>2012-04-29T12:54:15.0000000+00:00</time></trkpt><trkpt lat="43.174515" lon="19.264965"><ele>817.9</ele><time>2012-04-29T12:55:00.0000000+00:00</time></trkpt><trkpt lat="43.174355" lon="19.265644"><ele>831.9</ele><time>2012-04-29T12:55:35.0000000+00:00</time></trkpt><trkpt lat="43.173874" lon="19.266171"><ele>850.4</ele><time>2012-04-29T12:56:30.0000000+00:00</time></trkpt><trkpt lat="43.173916" lon="19.265598"><ele>840.0</ele><time>2012-04-29T12:57:05.0000000+00:00</time></trkpt><trkpt lat="43.173748" lon="19.265451"><ele>844.4</ele><time>2012-04-29T12:57:15.0000000+00:00</time></trkpt><trkpt lat="43.17345" lon="19.265516"><ele>849.8</ele><time>2012-04-29T12:57:30.0000000+00:00</time></trkpt><trkpt lat="43.172966" lon="19.26602"><ele>844.5</ele><time>2012-04-29T12:57:55.0000000+00:00</time></trkpt><trkpt lat="43.172619" lon="19.267469"><ele>852.0</ele><time>2012-04-29T12:58:50.0000000+00:00</time></trkpt><trkpt lat="43.171566" lon="19.268354"><ele>854.9</ele><time>2012-04-29T12:59:50.0000000+00:00</time></trkpt><trkpt lat="43.171234" lon="19.269531"><ele>863.7</ele><time>2012-04-29T13:00:45.0000000+00:00</time></trkpt><trkpt lat="43.170933" lon="19.269869"><ele>876.9</ele><time>2012-04-29T13:01:00.0000000+00:00</time></trkpt><trkpt lat="43.169323" lon="19.269882"><ele>864.0</ele><time>2012-04-29T13:02:00.0000000+00:00</time></trkpt><trkpt lat="43.16922" lon="19.271345"><ele>863.4</ele><time>2012-04-29T13:02:25.0000000+00:00</time></trkpt><trkpt lat="43.168919" lon="19.271902"><ele>868.2</ele><time>2012-04-29T13:02:40.0000000+00:00</time></trkpt><trkpt lat="43.168644" lon="19.273727"><ele>871.3</ele><time>2012-04-29T13:03:20.0000000+00:00</time></trkpt><trkpt lat="43.168091" lon="19.275204"><ele>878.5</ele><time>2012-04-29T13:04:10.0000000+00:00</time></trkpt><trkpt lat="43.168713" lon="19.274504"><ele>886.3</ele><time>2012-04-29T13:08:05.0000000+00:00</time></trkpt><trkpt lat="43.169544" lon="19.272774"><ele>901.4</ele><time>2012-04-29T13:09:25.0000000+00:00</time></trkpt><trkpt lat="43.169937" lon="19.272394"><ele>911.0</ele><time>2012-04-29T13:09:50.0000000+00:00</time></trkpt><trkpt lat="43.171066" lon="19.271683"><ele>921.0</ele><time>2012-04-29T13:10:50.0000000+00:00</time></trkpt><trkpt lat="43.171986" lon="19.271637"><ele>933.9</ele><time>2012-04-29T13:11:35.0000000+00:00</time></trkpt><trkpt lat="43.17247" lon="19.271067"><ele>926.8</ele><time>2012-04-29T13:12:00.0000000+00:00</time></trkpt><trkpt lat="43.173485" lon="19.270872"><ele>942.9</ele><time>2012-04-29T13:12:55.0000000+00:00</time></trkpt><trkpt lat="43.174366" lon="19.269928"><ele>955.7</ele><time>2012-04-29T13:14:05.0000000+00:00</time></trkpt><trkpt lat="43.174831" lon="19.26997"><ele>965.5</ele><time>2012-04-29T13:14:30.0000000+00:00</time></trkpt><trkpt lat="43.175713" lon="19.269449"><ele>966.2</ele><time>2012-04-29T13:15:20.0000000+00:00</time></trkpt><trkpt lat="43.1759" lon="19.26914"><ele>965.7</ele><time>2012-04-29T13:15:40.0000000+00:00</time></trkpt><trkpt lat="43.176571" lon="19.268986"><ele>978.1</ele><time>2012-04-29T13:16:05.0000000+00:00</time></trkpt><trkpt lat="43.176945" lon="19.268286"><ele>971.8</ele><time>2012-04-29T13:16:30.0000000+00:00</time></trkpt><trkpt lat="43.177834" lon="19.268673"><ele>991.1</ele><time>2012-04-29T13:17:15.0000000+00:00</time></trkpt><trkpt lat="43.178497" lon="19.269199"><ele>995.5</ele><time>2012-04-29T13:17:45.0000000+00:00</time></trkpt><trkpt lat="43.179211" lon="19.269184"><ele>992.1</ele><time>2012-04-29T13:18:15.0000000+00:00</time></trkpt><trkpt lat="43.179451" lon="19.269537"><ele>994.2</ele><time>2012-04-29T13:25:45.0000000+00:00</time></trkpt><trkpt lat="43.180626" lon="19.27002"><ele>977.0</ele><time>2012-04-29T13:26:00.0000000+00:00</time></trkpt><trkpt lat="43.180531" lon="19.270947"><ele>989.5</ele><time>2012-04-29T13:26:25.0000000+00:00</time></trkpt><trkpt lat="43.180695" lon="19.272608"><ele>988.4</ele><time>2012-04-29T13:27:00.0000000+00:00</time></trkpt><trkpt lat="43.180622" lon="19.27408"><ele>1006.6</ele><time>2012-04-29T13:27:35.0000000+00:00</time></trkpt><trkpt lat="43.181671" lon="19.274773"><ele>1009.6</ele><time>2012-04-29T13:28:30.0000000+00:00</time></trkpt><trkpt lat="43.181919" lon="19.275854"><ele>1019.7</ele><time>2012-04-29T13:29:10.0000000+00:00</time></trkpt><trkpt lat="43.182499" lon="19.276628"><ele>1034.8</ele><time>2012-04-29T13:29:55.0000000+00:00</time></trkpt><trkpt lat="43.182945" lon="19.276852"><ele>1029.0</ele><time>2012-04-29T13:30:20.0000000+00:00</time></trkpt><trkpt lat="43.183926" lon="19.276899"><ele>1023.8</ele><time>2012-04-29T13:31:05.0000000+00:00</time></trkpt><trkpt lat="43.184238" lon="19.277388"><ele>1032.3</ele><time>2012-04-29T13:31:15.0000000+00:00</time></trkpt><trkpt lat="43.184872" lon="19.277754"><ele>1014.4</ele><time>2012-04-29T13:31:30.0000000+00:00</time></trkpt><trkpt lat="43.185223" lon="19.278393"><ele>1012.1</ele><time>2012-04-29T13:32:05.0000000+00:00</time></trkpt><trkpt lat="43.185658" lon="19.277962"><ele>996.0</ele><time>2012-04-29T13:32:15.0000000+00:00</time></trkpt><trkpt lat="43.18634" lon="19.276773"><ele>992.8</ele><time>2012-04-29T13:33:05.0000000+00:00</time></trkpt><trkpt lat="43.187046" lon="19.276249"><ele>1002.9</ele><time>2012-04-29T13:52:20.0000000+00:00</time></trkpt><trkpt lat="43.186268" lon="19.276667"><ele>990.6</ele><time>2012-04-29T13:53:55.0000000+00:00</time></trkpt><trkpt lat="43.185444" lon="19.277983"><ele>998.1</ele><time>2012-04-29T13:54:35.0000000+00:00</time></trkpt><trkpt lat="43.185169" lon="19.278183"><ele>1007.7</ele><time>2012-04-29T13:55:45.0000000+00:00</time></trkpt><trkpt lat="43.185635" lon="19.27832"><ele>1005.9</ele><time>2012-04-29T13:57:10.0000000+00:00</time></trkpt><trkpt lat="43.185268" lon="19.278229"><ele>1005.9</ele><time>2012-04-29T13:57:45.0000000+00:00</time></trkpt><trkpt lat="43.185017" lon="19.277689"><ele>1009.1</ele><time>2012-04-29T13:58:25.0000000+00:00</time></trkpt><trkpt lat="43.184303" lon="19.277328"><ele>1028.0</ele><time>2012-04-29T13:59:10.0000000+00:00</time></trkpt><trkpt lat="43.183872" lon="19.276762"><ele>1021.7</ele><time>2012-04-29T13:59:55.0000000+00:00</time></trkpt><trkpt lat="43.183041" lon="19.276791"><ele>1025.8</ele><time>2012-04-29T14:01:35.0000000+00:00</time></trkpt><trkpt lat="43.182491" lon="19.276541"><ele>1029.0</ele><time>2012-04-29T14:02:40.0000000+00:00</time></trkpt><trkpt lat="43.182014" lon="19.275774"><ele>1014.8</ele><time>2012-04-29T14:03:45.0000000+00:00</time></trkpt><trkpt lat="43.181713" lon="19.274759"><ele>1008.9</ele><time>2012-04-29T14:04:40.0000000+00:00</time></trkpt><trkpt lat="43.181229" lon="19.274187"><ele>1002.0</ele><time>2012-04-29T14:05:25.0000000+00:00</time></trkpt><trkpt lat="43.180698" lon="19.273884"><ele>997.9</ele><time>2012-04-29T14:06:10.0000000+00:00</time></trkpt><trkpt lat="43.18063" lon="19.273397"><ele>992.4</ele><time>2012-04-29T14:06:35.0000000+00:00</time></trkpt><trkpt lat="43.180752" lon="19.272785"><ele>987.2</ele><time>2012-04-29T14:07:15.0000000+00:00</time></trkpt><trkpt lat="43.180607" lon="19.271692"><ele>987.6</ele><time>2012-04-29T14:08:15.0000000+00:00</time></trkpt><trkpt lat="43.180744" lon="19.270035"><ele>975.9</ele><time>2012-04-29T14:09:50.0000000+00:00</time></trkpt><trkpt lat="43.179466" lon="19.269447"><ele>991.4</ele><time>2012-04-29T14:11:45.0000000+00:00</time></trkpt><trkpt lat="43.179222" lon="19.2691"><ele>991.1</ele><time>2012-04-29T14:12:15.0000000+00:00</time></trkpt><trkpt lat="43.178596" lon="19.269197"><ele>994.1</ele><time>2012-04-29T14:13:40.0000000+00:00</time></trkpt><trkpt lat="43.17778" lon="19.268526"><ele>987.3</ele><time>2012-04-29T14:14:50.0000000+00:00</time></trkpt><trkpt lat="43.177441" lon="19.268539"><ele>990.9</ele><time>2012-04-29T14:15:15.0000000+00:00</time></trkpt><trkpt lat="43.177067" lon="19.268261"><ele>975.2</ele><time>2012-04-29T14:15:50.0000000+00:00</time></trkpt><trkpt lat="43.176861" lon="19.268339"><ele>970.4</ele><time>2012-04-29T14:16:05.0000000+00:00</time></trkpt><trkpt lat="43.176579" lon="19.268917"><ele>976.8</ele><time>2012-04-29T14:16:40.0000000+00:00</time></trkpt><trkpt lat="43.1759" lon="19.26915"><ele>965.9</ele><time>2012-04-29T14:17:40.0000000+00:00</time></trkpt><trkpt lat="43.175152" lon="19.269787"><ele>967.4</ele><time>2012-04-29T14:19:50.0000000+00:00</time></trkpt><trkpt lat="43.173958" lon="19.270082"><ele>944.2</ele><time>2012-04-29T14:22:25.0000000+00:00</time></trkpt><trkpt lat="43.173492" lon="19.270433"><ele>934.5</ele><time>2012-04-29T14:23:00.0000000+00:00</time></trkpt><trkpt lat="43.173527" lon="19.270662"><ele>940.3</ele><time>2012-04-29T14:23:20.0000000+00:00</time></trkpt><trkpt lat="43.173275" lon="19.270885"><ele>941.4</ele><time>2012-04-29T14:23:45.0000000+00:00</time></trkpt><trkpt lat="43.172432" lon="19.271013"><ele>926.0</ele><time>2012-04-29T14:25:25.0000000+00:00</time></trkpt><trkpt lat="43.171928" lon="19.271542"><ele>929.3</ele><time>2012-04-29T14:26:10.0000000+00:00</time></trkpt><trkpt lat="43.170952" lon="19.271677"><ele>917.9</ele><time>2012-04-29T14:27:20.0000000+00:00</time></trkpt><trkpt lat="43.169479" lon="19.272657"><ele>897.3</ele><time>2012-04-29T14:29:05.0000000+00:00</time></trkpt><trkpt lat="43.168991" lon="19.273945"><ele>888.3</ele><time>2012-04-29T14:30:20.0000000+00:00</time></trkpt><trkpt lat="43.167984" lon="19.275312"><ele>877.7</ele><time>2012-04-29T14:31:55.0000000+00:00</time></trkpt><trkpt lat="43.167137" lon="19.277109"><ele>887.9</ele><time>2012-04-29T14:35:15.0000000+00:00</time></trkpt><trkpt lat="43.166359" lon="19.277996"><ele>891.1</ele><time>2012-04-29T14:36:30.0000000+00:00</time></trkpt><trkpt lat="43.16589" lon="19.279213"><ele>892.6</ele><time>2012-04-29T14:37:40.0000000+00:00</time></trkpt><trkpt lat="43.165771" lon="19.280069"><ele>894.0</ele><time>2012-04-29T14:38:25.0000000+00:00</time></trkpt><trkpt lat="43.165985" lon="19.28282"><ele>893.9</ele><time>2012-04-29T14:41:20.0000000+00:00</time></trkpt><trkpt lat="43.166805" lon="19.28483"><ele>895.9</ele><time>2012-04-29T14:43:15.0000000+00:00</time></trkpt><trkpt lat="43.166454" lon="19.286095"><ele>899.5</ele><time>2012-04-29T14:44:20.0000000+00:00</time></trkpt><trkpt lat="43.165958" lon="19.286428"><ele>903.3</ele><time>2012-04-29T14:45:25.0000000+00:00</time></trkpt><trkpt lat="43.165405" lon="19.286356"><ele>910.6</ele><time>2012-04-29T14:46:10.0000000+00:00</time></trkpt><trkpt lat="43.164486" lon="19.286568"><ele>903.8</ele><time>2012-04-29T14:47:45.0000000+00:00</time></trkpt><trkpt lat="43.164082" lon="19.286999"><ele>897.6</ele><time>2012-04-29T14:48:20.0000000+00:00</time></trkpt><trkpt lat="43.163731" lon="19.287756"><ele>896.2</ele><time>2012-04-29T14:49:05.0000000+00:00</time></trkpt><trkpt lat="43.16328" lon="19.289541"><ele>887.4</ele><time>2012-04-29T14:50:35.0000000+00:00</time></trkpt><trkpt lat="43.162582" lon="19.290468"><ele>882.0</ele><time>2012-04-29T14:52:05.0000000+00:00</time></trkpt><trkpt lat="43.162277" lon="19.291706"><ele>874.5</ele><time>2012-04-29T14:53:10.0000000+00:00</time></trkpt><trkpt lat="43.161377" lon="19.292955"><ele>863.3</ele><time>2012-04-29T14:54:35.0000000+00:00</time></trkpt><trkpt lat="43.160648" lon="19.294485"><ele>854.8</ele><time>2012-04-29T14:56:05.0000000+00:00</time></trkpt><trkpt lat="43.160236" lon="19.294691"><ele>859.1</ele><time>2012-04-29T14:56:45.0000000+00:00</time></trkpt><trkpt lat="43.159859" lon="19.294638"><ele>856.4</ele><time>2012-04-29T14:57:10.0000000+00:00</time></trkpt><trkpt lat="43.159012" lon="19.293983"><ele>843.8</ele><time>2012-04-29T14:58:15.0000000+00:00</time></trkpt><trkpt lat="43.158871" lon="19.293531"><ele>839.5</ele><time>2012-04-29T14:58:45.0000000+00:00</time></trkpt><trkpt lat="43.158978" lon="19.292706"><ele>829.5</ele><time>2012-04-29T15:23:45.0000000+00:00</time></trkpt></trkseg><trkseg><trkpt lat="42.956818" lon="19.577368"><ele>809.2</ele><time>2012-04-30T11:02:52.0000000+00:00</time></trkpt><trkpt lat="42.955139" lon="19.575642"><ele>804.0</ele><time>2012-04-30T11:03:32.0000000+00:00</time></trkpt><trkpt lat="42.953495" lon="19.574648"><ele>815.3</ele><time>2012-04-30T11:04:07.0000000+00:00</time></trkpt><trkpt lat="42.953106" lon="19.574001"><ele>817.3</ele><time>2012-04-30T11:04:22.0000000+00:00</time></trkpt><trkpt lat="42.952599" lon="19.572327"><ele>822.7</ele><time>2012-04-30T11:04:57.0000000+00:00</time></trkpt><trkpt lat="42.952114" lon="19.571779"><ele>824.3</ele><time>2012-04-30T11:05:12.0000000+00:00</time></trkpt><trkpt lat="42.951427" lon="19.57148"><ele>824.0</ele><time>2012-04-30T11:05:27.0000000+00:00</time></trkpt><trkpt lat="42.950535" lon="19.57173"><ele>825.4</ele><time>2012-04-30T11:05:42.0000000+00:00</time></trkpt><trkpt lat="42.95002" lon="19.57218"><ele>825.7</ele><time>2012-04-30T11:05:52.0000000+00:00</time></trkpt><trkpt lat="42.948536" lon="19.574759"><ele>824.8</ele><time>2012-04-30T11:06:32.0000000+00:00</time></trkpt><trkpt lat="42.946693" lon="19.577185"><ele>825.9</ele><time>2012-04-30T11:07:17.0000000+00:00</time></trkpt><trkpt lat="42.945961" lon="19.577785"><ele>825.3</ele><time>2012-04-30T11:07:32.0000000+00:00</time></trkpt><trkpt lat="42.945057" lon="19.578093"><ele>821.6</ele><time>2012-04-30T11:07:47.0000000+00:00</time></trkpt><trkpt lat="42.943909" lon="19.577854"><ele>811.3</ele><time>2012-04-30T11:08:07.0000000+00:00</time></trkpt><trkpt lat="42.941303" lon="19.575876"><ele>820.9</ele><time>2012-04-30T11:08:47.0000000+00:00</time></trkpt><trkpt lat="42.94059" lon="19.57571"><ele>821.7</ele><time>2012-04-30T11:08:57.0000000+00:00</time></trkpt><trkpt lat="42.939327" lon="19.575932"><ele>815.5</ele><time>2012-04-30T11:09:12.0000000+00:00</time></trkpt><trkpt lat="42.938934" lon="19.57583"><ele>815.4</ele><time>2012-04-30T11:09:17.0000000+00:00</time></trkpt><trkpt lat="42.938129" lon="19.574951"><ele>816.1</ele><time>2012-04-30T11:09:32.0000000+00:00</time></trkpt><trkpt lat="42.936382" lon="19.572237"><ele>818.8</ele><time>2012-04-30T11:10:12.0000000+00:00</time></trkpt><trkpt lat="42.935608" lon="19.571842"><ele>822.8</ele><time>2012-04-30T11:10:22.0000000+00:00</time></trkpt><trkpt lat="42.933464" lon="19.572355"><ele>821.8</ele><time>2012-04-30T11:10:52.0000000+00:00</time></trkpt><trkpt lat="42.931976" lon="19.572252"><ele>830.4</ele><time>2012-04-30T11:11:17.0000000+00:00</time></trkpt><trkpt lat="42.931461" lon="19.572384"><ele>852.8</ele><time>2012-04-30T11:11:27.0000000+00:00</time></trkpt><trkpt lat="42.931141" lon="19.572803"><ele>841.1</ele><time>2012-04-30T11:11:37.0000000+00:00</time></trkpt><trkpt lat="42.930817" lon="19.57402"><ele>837.5</ele><time>2012-04-30T11:11:57.0000000+00:00</time></trkpt><trkpt lat="42.92989" lon="19.57564"><ele>837.1</ele><time>2012-04-30T11:12:27.0000000+00:00</time></trkpt><trkpt lat="42.929367" lon="19.576181"><ele>832.4</ele><time>2012-04-30T11:12:37.0000000+00:00</time></trkpt><trkpt lat="42.92865" lon="19.57612"><ele>830.5</ele><time>2012-04-30T11:12:47.0000000+00:00</time></trkpt><trkpt lat="42.926704" lon="19.575455"><ele>832.7</ele><time>2012-04-30T11:13:17.0000000+00:00</time></trkpt><trkpt lat="42.92577" lon="19.574602"><ele>834.5</ele><time>2012-04-30T11:13:32.0000000+00:00</time></trkpt><trkpt lat="42.925781" lon="19.573957"><ele>835.3</ele><time>2012-04-30T11:13:40.0000000+00:00</time></trkpt><trkpt lat="42.924938" lon="19.573408"><ele>838.7</ele><time>2012-04-30T11:13:55.0000000+00:00</time></trkpt><trkpt lat="42.924622" lon="19.573429"><ele>841.2</ele><time>2012-04-30T11:14:00.0000000+00:00</time></trkpt><trkpt lat="42.924088" lon="19.573847"><ele>845.2</ele><time>2012-04-30T11:14:10.0000000+00:00</time></trkpt><trkpt lat="42.922836" lon="19.576185"><ele>844.0</ele><time>2012-04-30T11:14:50.0000000+00:00</time></trkpt><trkpt lat="42.921997" lon="19.57691"><ele>846.9</ele><time>2012-04-30T11:15:15.0000000+00:00</time></trkpt><trkpt lat="42.92094" lon="19.57683"><ele>850.2</ele><time>2012-04-30T11:15:40.0000000+00:00</time></trkpt><trkpt lat="42.919674" lon="19.576401"><ele>852.1</ele><time>2012-04-30T11:16:05.0000000+00:00</time></trkpt><trkpt lat="42.918167" lon="19.575806"><ele>848.6</ele><time>2012-04-30T11:16:30.0000000+00:00</time></trkpt><trkpt lat="42.91647" lon="19.574762"><ele>850.9</ele><time>2012-04-30T11:17:05.0000000+00:00</time></trkpt><trkpt lat="42.915924" lon="19.575243"><ele>851.2</ele><time>2012-04-30T11:18:50.0000000+00:00</time></trkpt><trkpt lat="42.915829" lon="19.575563"><ele>859.6</ele><time>2012-04-30T11:19:05.0000000+00:00</time></trkpt><trkpt lat="42.914867" lon="19.575834"><ele>876.6</ele><time>2012-04-30T11:19:40.0000000+00:00</time></trkpt><trkpt lat="42.91457" lon="19.57559"><ele>864.7</ele><time>2012-04-30T11:19:50.0000000+00:00</time></trkpt><trkpt lat="42.914238" lon="19.57572"><ele>869.5</ele><time>2012-04-30T11:20:00.0000000+00:00</time></trkpt><trkpt lat="42.914814" lon="19.576147"><ele>881.4</ele><time>2012-04-30T11:20:40.0000000+00:00</time></trkpt><trkpt lat="42.916271" lon="19.576542"><ele>882.6</ele><time>2012-04-30T11:22:00.0000000+00:00</time></trkpt><trkpt lat="42.916435" lon="19.577177"><ele>878.7</ele><time>2012-04-30T11:24:15.0000000+00:00</time></trkpt><trkpt lat="42.916828" lon="19.5776"><ele>883.6</ele><time>2012-04-30T11:25:55.0000000+00:00</time></trkpt><trkpt lat="42.916763" lon="19.578072"><ele>890.3</ele><time>2012-04-30T11:26:35.0000000+00:00</time></trkpt><trkpt lat="42.916431" lon="19.577909"><ele>890.4</ele><time>2012-04-30T11:27:00.0000000+00:00</time></trkpt><trkpt lat="42.915874" lon="19.578054"><ele>907.1</ele><time>2012-04-30T11:27:25.0000000+00:00</time></trkpt><trkpt lat="42.915234" lon="19.577703"><ele>917.4</ele><time>2012-04-30T11:28:00.0000000+00:00</time></trkpt><trkpt lat="42.915157" lon="19.577925"><ele>923.1</ele><time>2012-04-30T11:28:10.0000000+00:00</time></trkpt><trkpt lat="42.915462" lon="19.577984"><ele>915.7</ele><time>2012-04-30T11:28:25.0000000+00:00</time></trkpt><trkpt lat="42.916107" lon="19.578709"><ele>920.8</ele><time>2012-04-30T11:29:10.0000000+00:00</time></trkpt><trkpt lat="42.916088" lon="19.578947"><ele>931.2</ele><time>2012-04-30T11:29:25.0000000+00:00</time></trkpt><trkpt lat="42.915318" lon="19.578423"><ele>927.6</ele><time>2012-04-30T11:30:30.0000000+00:00</time></trkpt><trkpt lat="42.914879" lon="19.577839"><ele>938.2</ele><time>2012-04-30T11:31:00.0000000+00:00</time></trkpt><trkpt lat="42.914207" lon="19.57765"><ele>933.4</ele><time>2012-04-30T11:31:40.0000000+00:00</time></trkpt><trkpt lat="42.913834" lon="19.578688"><ele>949.6</ele><time>2012-04-30T11:32:30.0000000+00:00</time></trkpt><trkpt lat="42.91341" lon="19.578905"><ele>951.0</ele><time>2012-04-30T11:32:45.0000000+00:00</time></trkpt><trkpt lat="42.912724" lon="19.579672"><ele>943.3</ele><time>2012-04-30T11:33:25.0000000+00:00</time></trkpt><trkpt lat="42.911781" lon="19.582138"><ele>973.5</ele><time>2012-04-30T11:35:10.0000000+00:00</time></trkpt><trkpt lat="42.911812" lon="19.582693"><ele>981.1</ele><time>2012-04-30T11:37:15.0000000+00:00</time></trkpt><trkpt lat="42.911407" lon="19.583035"><ele>980.2</ele><time>2012-04-30T11:37:30.0000000+00:00</time></trkpt><trkpt lat="42.911232" lon="19.583698"><ele>990.3</ele><time>2012-04-30T11:37:55.0000000+00:00</time></trkpt><trkpt lat="42.91029" lon="19.584673"><ele>1010.4</ele><time>2012-04-30T11:38:40.0000000+00:00</time></trkpt><trkpt lat="42.909473" lon="19.585024"><ele>994.7</ele><time>2012-04-30T11:39:25.0000000+00:00</time></trkpt><trkpt lat="42.909233" lon="19.586115"><ele>1027.5</ele><time>2012-04-30T11:40:15.0000000+00:00</time></trkpt><trkpt lat="42.908508" lon="19.586119"><ele>1027.3</ele><time>2012-04-30T11:41:00.0000000+00:00</time></trkpt><trkpt lat="42.907379" lon="19.586878"><ele>1029.2</ele><time>2012-04-30T11:42:10.0000000+00:00</time></trkpt><trkpt lat="42.906551" lon="19.587805"><ele>1039.8</ele><time>2012-04-30T11:43:05.0000000+00:00</time></trkpt><trkpt lat="42.905636" lon="19.588444"><ele>1036.8</ele><time>2012-04-30T11:43:50.0000000+00:00</time></trkpt><trkpt lat="42.904999" lon="19.589849"><ele>1055.4</ele><time>2012-04-30T11:44:45.0000000+00:00</time></trkpt><trkpt lat="42.903206" lon="19.590807"><ele>1061.7</ele><time>2012-04-30T11:46:00.0000000+00:00</time></trkpt><trkpt lat="42.903614" lon="19.591272"><ele>1071.9</ele><time>2012-04-30T11:46:25.0000000+00:00</time></trkpt><trkpt lat="42.903423" lon="19.591957"><ele>1090.5</ele><time>2012-04-30T11:47:00.0000000+00:00</time></trkpt><trkpt lat="42.903683" lon="19.592646"><ele>1085.7</ele><time>2012-04-30T11:47:30.0000000+00:00</time></trkpt><trkpt lat="42.903149" lon="19.592947"><ele>1099.7</ele><time>2012-04-30T11:48:00.0000000+00:00</time></trkpt><trkpt lat="42.902004" lon="19.594122"><ele>1116.4</ele><time>2012-04-30T11:49:10.0000000+00:00</time></trkpt><trkpt lat="42.900688" lon="19.594587"><ele>1128.7</ele><time>2012-04-30T11:50:30.0000000+00:00</time></trkpt><trkpt lat="42.90044" lon="19.595556"><ele>1110.0</ele><time>2012-04-30T11:54:35.0000000+00:00</time></trkpt><trkpt lat="42.900436" lon="19.595152"><ele>1123.8</ele><time>2012-04-30T12:01:30.0000000+00:00</time></trkpt><trkpt lat="42.900421" lon="19.595501"><ele>1113.0</ele><time>2012-04-30T12:05:55.0000000+00:00</time></trkpt><trkpt lat="42.900616" lon="19.595417"><ele>1115.2</ele><time>2012-04-30T12:11:55.0000000+00:00</time></trkpt><trkpt lat="42.90081" lon="19.595673"><ele>1110.7</ele><time>2012-04-30T12:13:20.0000000+00:00</time></trkpt><trkpt lat="42.901321" lon="19.595404"><ele>1134.2</ele><time>2012-04-30T12:15:30.0000000+00:00</time></trkpt><trkpt lat="42.901531" lon="19.595537"><ele>1137.7</ele><time>2012-04-30T12:15:45.0000000+00:00</time></trkpt><trkpt lat="42.901787" lon="19.596283"><ele>1143.2</ele><time>2012-04-30T12:16:25.0000000+00:00</time></trkpt><trkpt lat="42.901695" lon="19.597244"><ele>1147.8</ele><time>2012-04-30T12:17:35.0000000+00:00</time></trkpt><trkpt lat="42.901875" lon="19.597752"><ele>1153.4</ele><time>2012-04-30T12:17:55.0000000+00:00</time></trkpt><trkpt lat="42.902168" lon="19.597784"><ele>1160.3</ele><time>2012-04-30T12:18:20.0000000+00:00</time></trkpt><trkpt lat="42.902985" lon="19.596872"><ele>1169.6</ele><time>2012-04-30T12:19:45.0000000+00:00</time></trkpt><trkpt lat="42.90337" lon="19.596809"><ele>1174.3</ele><time>2012-04-30T12:20:45.0000000+00:00</time></trkpt><trkpt lat="42.902889" lon="19.597195"><ele>1169.3</ele><time>2012-04-30T12:21:35.0000000+00:00</time></trkpt><trkpt lat="42.902088" lon="19.601526"><ele>1212.0</ele><time>2012-04-30T12:25:20.0000000+00:00</time></trkpt><trkpt lat="42.902985" lon="19.60079"><ele>1207.9</ele><time>2012-04-30T12:26:25.0000000+00:00</time></trkpt><trkpt lat="42.903206" lon="19.60084"><ele>1210.7</ele><time>2012-04-30T12:26:40.0000000+00:00</time></trkpt><trkpt lat="42.902512" lon="19.601839"><ele>1238.9</ele><time>2012-04-30T12:27:40.0000000+00:00</time></trkpt><trkpt lat="42.902325" lon="19.603388"><ele>1257.0</ele><time>2012-04-30T12:28:45.0000000+00:00</time></trkpt><trkpt lat="42.902088" lon="19.603764"><ele>1270.2</ele><time>2012-04-30T12:32:55.0000000+00:00</time></trkpt><trkpt lat="42.902199" lon="19.603926"><ele>1277.0</ele><time>2012-04-30T12:34:05.0000000+00:00</time></trkpt><trkpt lat="42.901989" lon="19.603573"><ele>1261.0</ele><time>2012-04-30T12:37:40.0000000+00:00</time></trkpt><trkpt lat="42.901649" lon="19.603525"><ele>1259.5</ele><time>2012-04-30T12:38:00.0000000+00:00</time></trkpt><trkpt lat="42.901062" lon="19.604223"><ele>1265.5</ele><time>2012-04-30T12:39:20.0000000+00:00</time></trkpt><trkpt lat="42.90041" lon="19.605728"><ele>1275.9</ele><time>2012-04-30T12:40:20.0000000+00:00</time></trkpt><trkpt lat="42.900471" lon="19.606577"><ele>1289.9</ele><time>2012-04-30T12:41:00.0000000+00:00</time></trkpt><trkpt lat="42.900177" lon="19.606506"><ele>1285.0</ele><time>2012-04-30T12:41:20.0000000+00:00</time></trkpt><trkpt lat="42.899632" lon="19.607086"><ele>1292.2</ele><time>2012-04-30T12:42:05.0000000+00:00</time></trkpt><trkpt lat="42.899395" lon="19.607548"><ele>1291.8</ele><time>2012-04-30T12:42:30.0000000+00:00</time></trkpt><trkpt lat="42.899158" lon="19.608675"><ele>1294.7</ele><time>2012-04-30T12:43:25.0000000+00:00</time></trkpt><trkpt lat="42.898685" lon="19.609507"><ele>1294.1</ele><time>2012-04-30T12:44:20.0000000+00:00</time></trkpt><trkpt lat="42.898769" lon="19.609629"><ele>1300.9</ele><time>2012-04-30T12:45:40.0000000+00:00</time></trkpt><trkpt lat="42.899757" lon="19.609112"><ele>1327.0</ele><time>2012-04-30T12:53:15.0000000+00:00</time></trkpt><trkpt lat="42.900417" lon="19.608469"><ele>1334.6</ele><time>2012-04-30T12:53:55.0000000+00:00</time></trkpt><trkpt lat="42.899998" lon="19.61017"><ele>1356.3</ele><time>2012-04-30T12:55:35.0000000+00:00</time></trkpt><trkpt lat="42.899334" lon="19.610344"><ele>1359.9</ele><time>2012-04-30T12:56:45.0000000+00:00</time></trkpt><trkpt lat="42.898903" lon="19.610739"><ele>1361.3</ele><time>2012-04-30T12:57:20.0000000+00:00</time></trkpt><trkpt lat="42.898159" lon="19.612724"><ele>1392.9</ele><time>2012-04-30T12:59:20.0000000+00:00</time></trkpt><trkpt lat="42.897831" lon="19.612753"><ele>1392.3</ele><time>2012-04-30T12:59:45.0000000+00:00</time></trkpt><trkpt lat="42.897568" lon="19.613243"><ele>1410.7</ele><time>2012-04-30T13:00:15.0000000+00:00</time></trkpt><trkpt lat="42.897022" lon="19.613199"><ele>1398.7</ele><time>2012-04-30T13:00:50.0000000+00:00</time></trkpt><trkpt lat="42.896614" lon="19.615086"><ele>1400.0</ele><time>2012-04-30T13:02:30.0000000+00:00</time></trkpt><trkpt lat="42.896996" lon="19.614826"><ele>1406.2</ele><time>2012-04-30T13:03:40.0000000+00:00</time></trkpt><trkpt lat="42.897411" lon="19.614109"><ele>1425.1</ele><time>2012-04-30T13:04:30.0000000+00:00</time></trkpt><trkpt lat="42.897938" lon="19.614201"><ele>1447.4</ele><time>2012-04-30T13:05:10.0000000+00:00</time></trkpt><trkpt lat="42.89827" lon="19.613932"><ele>1442.4</ele><time>2012-04-30T13:05:30.0000000+00:00</time></trkpt><trkpt lat="42.898411" lon="19.614157"><ele>1458.7</ele><time>2012-04-30T13:06:05.0000000+00:00</time></trkpt><trkpt lat="42.89835" lon="19.614031"><ele>1450.0</ele><time>2012-04-30T13:06:10.0000000+00:00</time></trkpt><trkpt lat="42.898682" lon="19.614149"><ele>1466.4</ele><time>2012-04-30T13:06:50.0000000+00:00</time></trkpt><trkpt lat="42.899242" lon="19.613461"><ele>1458.7</ele><time>2012-04-30T13:08:10.0000000+00:00</time></trkpt><trkpt lat="42.899414" lon="19.613453"><ele>1464.8</ele><time>2012-04-30T13:08:45.0000000+00:00</time></trkpt><trkpt lat="42.89896" lon="19.613785"><ele>1452.4</ele><time>2012-04-30T13:19:10.0000000+00:00</time></trkpt><trkpt lat="42.898697" lon="19.614363"><ele>1474.5</ele><time>2012-04-30T13:19:35.0000000+00:00</time></trkpt><trkpt lat="42.897839" lon="19.615074"><ele>1470.3</ele><time>2012-04-30T13:20:40.0000000+00:00</time></trkpt><trkpt lat="42.897797" lon="19.615873"><ele>1470.4</ele><time>2012-04-30T13:21:15.0000000+00:00</time></trkpt><trkpt lat="42.898224" lon="19.615364"><ele>1497.4</ele><time>2012-04-30T13:22:05.0000000+00:00</time></trkpt><trkpt lat="42.898727" lon="19.615301"><ele>1510.5</ele><time>2012-04-30T13:22:35.0000000+00:00</time></trkpt><trkpt lat="42.899555" lon="19.614574"><ele>1510.5</ele><time>2012-04-30T13:23:45.0000000+00:00</time></trkpt><trkpt lat="42.898811" lon="19.61574"><ele>1520.9</ele><time>2012-04-30T13:25:25.0000000+00:00</time></trkpt><trkpt lat="42.898521" lon="19.615927"><ele>1519.1</ele><time>2012-04-30T13:25:45.0000000+00:00</time></trkpt><trkpt lat="42.898506" lon="19.616245"><ele>1522.1</ele><time>2012-04-30T13:26:05.0000000+00:00</time></trkpt><trkpt lat="42.899136" lon="19.61606"><ele>1545.8</ele><time>2012-04-30T13:35:20.0000000+00:00</time></trkpt><trkpt lat="42.899902" lon="19.61529"><ele>1555.5</ele><time>2012-04-30T13:36:20.0000000+00:00</time></trkpt><trkpt lat="42.899029" lon="19.616648"><ele>1556.8</ele><time>2012-04-30T13:38:05.0000000+00:00</time></trkpt><trkpt lat="42.899357" lon="19.61659"><ele>1567.6</ele><time>2012-04-30T13:38:45.0000000+00:00</time></trkpt><trkpt lat="42.900036" lon="19.615915"><ele>1578.2</ele><time>2012-04-30T13:39:45.0000000+00:00</time></trkpt><trkpt lat="42.899273" lon="19.617199"><ele>1569.5</ele><time>2012-04-30T13:40:55.0000000+00:00</time></trkpt><trkpt lat="42.899368" lon="19.617666"><ele>1571.8</ele><time>2012-04-30T13:41:15.0000000+00:00</time></trkpt><trkpt lat="42.899681" lon="19.618025"><ele>1579.3</ele><time>2012-04-30T13:42:50.0000000+00:00</time></trkpt><trkpt lat="42.899673" lon="19.617161"><ele>1580.9</ele><time>2012-04-30T13:47:00.0000000+00:00</time></trkpt><trkpt lat="42.899834" lon="19.616798"><ele>1585.0</ele><time>2012-04-30T13:47:20.0000000+00:00</time></trkpt><trkpt lat="42.900055" lon="19.616632"><ele>1592.1</ele><time>2012-04-30T13:47:40.0000000+00:00</time></trkpt><trkpt lat="42.900486" lon="19.616877"><ele>1608.4</ele><time>2012-04-30T13:48:15.0000000+00:00</time></trkpt><trkpt lat="42.900036" lon="19.61698"><ele>1592.9</ele><time>2012-04-30T13:48:45.0000000+00:00</time></trkpt><trkpt lat="42.900341" lon="19.618019"><ele>1621.4</ele><time>2012-04-30T13:49:45.0000000+00:00</time></trkpt><trkpt lat="42.900196" lon="19.618645"><ele>1627.0</ele><time>2012-04-30T13:50:35.0000000+00:00</time></trkpt><trkpt lat="42.899868" lon="19.619112"><ele>1626.6</ele><time>2012-04-30T13:51:35.0000000+00:00</time></trkpt><trkpt lat="42.900112" lon="19.618931"><ele>1630.5</ele><time>2012-04-30T13:52:10.0000000+00:00</time></trkpt><trkpt lat="42.900749" lon="19.617695"><ele>1627.5</ele><time>2012-04-30T13:54:00.0000000+00:00</time></trkpt><trkpt lat="42.900784" lon="19.617832"><ele>1634.7</ele><time>2012-04-30T13:54:30.0000000+00:00</time></trkpt><trkpt lat="42.900463" lon="19.61904"><ele>1647.7</ele><time>2012-04-30T13:56:15.0000000+00:00</time></trkpt><trkpt lat="42.900032" lon="19.619738"><ele>1641.9</ele><time>2012-04-30T13:57:55.0000000+00:00</time></trkpt><trkpt lat="42.900009" lon="19.620665"><ele>1656.8</ele><time>2012-04-30T13:59:30.0000000+00:00</time></trkpt><trkpt lat="42.899605" lon="19.621939"><ele>1655.7</ele><time>2012-04-30T14:03:15.0000000+00:00</time></trkpt><trkpt lat="42.899567" lon="19.622429"><ele>1655.7</ele><time>2012-04-30T14:03:40.0000000+00:00</time></trkpt><trkpt lat="42.89978" lon="19.623415"><ele>1671.7</ele><time>2012-04-30T14:04:30.0000000+00:00</time></trkpt><trkpt lat="42.899826" lon="19.626064"><ele>1680.4</ele><time>2012-04-30T14:12:35.0000000+00:00</time></trkpt><trkpt lat="42.899075" lon="19.626778"><ele>1669.1</ele><time>2012-04-30T14:13:10.0000000+00:00</time></trkpt><trkpt lat="42.898781" lon="19.627439"><ele>1668.6</ele><time>2012-04-30T14:17:30.0000000+00:00</time></trkpt><trkpt lat="42.898754" lon="19.628244"><ele>1669.9</ele><time>2012-04-30T14:18:30.0000000+00:00</time></trkpt><trkpt lat="42.899143" lon="19.629019"><ele>1675.7</ele><time>2012-04-30T14:20:00.0000000+00:00</time></trkpt><trkpt lat="42.898739" lon="19.62956"><ele>1673.1</ele><time>2012-04-30T14:20:35.0000000+00:00</time></trkpt><trkpt lat="42.898598" lon="19.630796"><ele>1677.1</ele><time>2012-04-30T14:22:25.0000000+00:00</time></trkpt><trkpt lat="42.8983" lon="19.630854"><ele>1678.9</ele><time>2012-04-30T14:23:15.0000000+00:00</time></trkpt><trkpt lat="42.89827" lon="19.632904"><ele>1689.3</ele><time>2012-04-30T14:25:25.0000000+00:00</time></trkpt><trkpt lat="42.898445" lon="19.633345"><ele>1690.4</ele><time>2012-04-30T14:26:05.0000000+00:00</time></trkpt><trkpt lat="42.898323" lon="19.634317"><ele>1700.6</ele><time>2012-04-30T14:28:15.0000000+00:00</time></trkpt><trkpt lat="42.898075" lon="19.634413"><ele>1709.6</ele><time>2012-04-30T14:29:45.0000000+00:00</time></trkpt><trkpt lat="42.897331" lon="19.632515"><ele>1724.5</ele><time>2012-04-30T14:36:20.0000000+00:00</time></trkpt><trkpt lat="42.897015" lon="19.632217"><ele>1732.7</ele><time>2012-04-30T14:38:10.0000000+00:00</time></trkpt><trkpt lat="42.896835" lon="19.632259"><ele>1739.8</ele><time>2012-04-30T14:39:55.0000000+00:00</time></trkpt><trkpt lat="42.897072" lon="19.633854"><ele>1748.6</ele><time>2012-04-30T14:47:05.0000000+00:00</time></trkpt><trkpt lat="42.896416" lon="19.636074"><ele>1766.2</ele><time>2012-04-30T14:53:25.0000000+00:00</time></trkpt><trkpt lat="42.896629" lon="19.636772"><ele>1770.3</ele><time>2012-04-30T14:54:50.0000000+00:00</time></trkpt><trkpt lat="42.896461" lon="19.639883"><ele>1821.4</ele><time>2012-04-30T15:06:05.0000000+00:00</time></trkpt><trkpt lat="42.896633" lon="19.6399"><ele>1824.2</ele><time>2012-04-30T15:09:05.0000000+00:00</time></trkpt><trkpt lat="42.896049" lon="19.641132"><ele>1848.4</ele><time>2012-04-30T15:14:25.0000000+00:00</time></trkpt><trkpt lat="42.895565" lon="19.641632"><ele>1852.5</ele><time>2012-04-30T15:16:15.0000000+00:00</time></trkpt><trkpt lat="42.896198" lon="19.643414"><ele>1857.0</ele><time>2012-04-30T15:32:00.0000000+00:00</time></trkpt><trkpt lat="42.896606" lon="19.643921"><ele>1863.8</ele><time>2012-04-30T15:33:25.0000000+00:00</time></trkpt><trkpt lat="42.896523" lon="19.64415"><ele>1856.5</ele><time>2012-04-30T15:34:00.0000000+00:00</time></trkpt><trkpt lat="42.896896" lon="19.645281"><ele>1863.8</ele><time>2012-04-30T15:36:00.0000000+00:00</time></trkpt><trkpt lat="42.896904" lon="19.646639"><ele>1865.4</ele><time>2012-04-30T15:37:10.0000000+00:00</time></trkpt><trkpt lat="42.896759" lon="19.64739"><ele>1865.2</ele><time>2012-04-30T15:39:10.0000000+00:00</time></trkpt><trkpt lat="42.897068" lon="19.649803"><ele>1876.0</ele><time>2012-04-30T15:42:05.0000000+00:00</time></trkpt><trkpt lat="42.896839" lon="19.650646"><ele>1881.4</ele><time>2012-04-30T15:42:40.0000000+00:00</time></trkpt><trkpt lat="42.89592" lon="19.651548"><ele>1888.8</ele><time>2012-04-30T15:43:55.0000000+00:00</time></trkpt><trkpt lat="42.895142" lon="19.65309"><ele>1897.8</ele><time>2012-04-30T15:45:20.0000000+00:00</time></trkpt><trkpt lat="42.893372" lon="19.65435"><ele>1912.2</ele><time>2012-04-30T15:49:35.0000000+00:00</time></trkpt><trkpt lat="42.892563" lon="19.655481"><ele>1918.3</ele><time>2012-04-30T15:52:25.0000000+00:00</time></trkpt><trkpt lat="42.891079" lon="19.656681"><ele>1919.7</ele><time>2012-04-30T15:56:25.0000000+00:00</time></trkpt><trkpt lat="42.890953" lon="19.657364"><ele>1917.4</ele><time>2012-04-30T15:58:00.0000000+00:00</time></trkpt><trkpt lat="42.89011" lon="19.659348"><ele>1919.1</ele><time>2012-04-30T16:02:15.0000000+00:00</time></trkpt><trkpt lat="42.889755" lon="19.659689"><ele>1922.7</ele><time>2012-04-30T16:03:05.0000000+00:00</time></trkpt><trkpt lat="42.889114" lon="19.660851"><ele>1929.3</ele><time>2012-04-30T16:05:10.0000000+00:00</time></trkpt><trkpt lat="42.888626" lon="19.661133"><ele>1932.2</ele><time>2012-04-30T16:07:05.0000000+00:00</time></trkpt><trkpt lat="42.888561" lon="19.661951"><ele>1938.9</ele><time>2012-04-30T16:08:30.0000000+00:00</time></trkpt><trkpt lat="42.888783" lon="19.662638"><ele>1945.6</ele><time>2012-04-30T16:11:45.0000000+00:00</time></trkpt><trkpt lat="42.888584" lon="19.664116"><ele>1951.9</ele><time>2012-04-30T16:13:55.0000000+00:00</time></trkpt><trkpt lat="42.887054" lon="19.667393"><ele>1960.6</ele><time>2012-04-30T16:20:00.0000000+00:00</time></trkpt><trkpt lat="42.886517" lon="19.667854"><ele>1958.7</ele><time>2012-04-30T16:21:00.0000000+00:00</time></trkpt><trkpt lat="42.886234" lon="19.668358"><ele>1952.5</ele><time>2012-04-30T16:21:50.0000000+00:00</time></trkpt><trkpt lat="42.88681" lon="19.668037"><ele>1957.0</ele><time>2012-04-30T16:26:05.0000000+00:00</time></trkpt><trkpt lat="42.887226" lon="19.668179"><ele>1949.8</ele><time>2012-04-30T16:26:50.0000000+00:00</time></trkpt><trkpt lat="42.887478" lon="19.668055"><ele>1966.4</ele><time>2012-04-30T16:27:20.0000000+00:00</time></trkpt><trkpt lat="42.886013" lon="19.668394"><ele>1959.0</ele><time>2012-04-30T16:33:55.0000000+00:00</time></trkpt><trkpt lat="42.885612" lon="19.66884"><ele>1965.2</ele><time>2012-04-30T16:34:50.0000000+00:00</time></trkpt><trkpt lat="42.885475" lon="19.66996"><ele>1952.5</ele><time>2012-04-30T16:36:20.0000000+00:00</time></trkpt><trkpt lat="42.88509" lon="19.670982"><ele>1919.8</ele><time>2012-04-30T16:41:20.0000000+00:00</time></trkpt><trkpt lat="42.884338" lon="19.671564"><ele>1882.4</ele><time>2012-04-30T16:44:30.0000000+00:00</time></trkpt><trkpt lat="42.884232" lon="19.671034"><ele>1871.3</ele><time>2012-04-30T16:45:55.0000000+00:00</time></trkpt><trkpt lat="42.884022" lon="19.670782"><ele>1862.0</ele><time>2012-04-30T16:46:50.0000000+00:00</time></trkpt><trkpt lat="42.883614" lon="19.671255"><ele>1837.2</ele><time>2012-04-30T16:48:45.0000000+00:00</time></trkpt><trkpt lat="42.883278" lon="19.671236"><ele>1824.2</ele><time>2012-04-30T16:50:05.0000000+00:00</time></trkpt><trkpt lat="42.883106" lon="19.672165"><ele>1806.1</ele><time>2012-04-30T16:52:05.0000000+00:00</time></trkpt><trkpt lat="42.883541" lon="19.673845"><ele>1787.9</ele><time>2012-04-30T16:53:30.0000000+00:00</time></trkpt><trkpt lat="42.883434" lon="19.674618"><ele>1785.1</ele><time>2012-04-30T16:54:30.0000000+00:00</time></trkpt><trkpt lat="42.88393" lon="19.674681"><ele>1774.1</ele><time>2012-04-30T16:56:40.0000000+00:00</time></trkpt><trkpt lat="42.88456" lon="19.675232"><ele>1762.4</ele><time>2012-04-30T16:58:00.0000000+00:00</time></trkpt><trkpt lat="42.884705" lon="19.676407"><ele>1753.9</ele><time>2012-04-30T16:58:25.0000000+00:00</time></trkpt><trkpt lat="42.885303" lon="19.67683"><ele>1749.8</ele><time>2012-04-30T16:59:40.0000000+00:00</time></trkpt><trkpt lat="42.885513" lon="19.677935"><ele>1738.3</ele><time>2012-04-30T17:00:05.0000000+00:00</time></trkpt><trkpt lat="42.886028" lon="19.679224"><ele>1722.7</ele><time>2012-04-30T17:01:00.0000000+00:00</time></trkpt><trkpt lat="42.886845" lon="19.680557"><ele>1704.4</ele><time>2012-04-30T17:02:40.0000000+00:00</time></trkpt><trkpt lat="42.887455" lon="19.680849"><ele>1698.9</ele><time>2012-04-30T17:03:00.0000000+00:00</time></trkpt><trkpt lat="42.887749" lon="19.681223"><ele>1689.3</ele><time>2012-04-30T17:03:40.0000000+00:00</time></trkpt><trkpt lat="42.888046" lon="19.681042"><ele>1690.5</ele><time>2012-04-30T17:04:25.0000000+00:00</time></trkpt><trkpt lat="42.888252" lon="19.681162"><ele>1687.4</ele><time>2012-04-30T17:04:40.0000000+00:00</time></trkpt><trkpt lat="42.888615" lon="19.683264"><ele>1678.2</ele><time>2012-04-30T17:05:30.0000000+00:00</time></trkpt><trkpt lat="42.888954" lon="19.683636"><ele>1676.7</ele><time>2012-04-30T17:05:45.0000000+00:00</time></trkpt><trkpt lat="42.889183" lon="19.684231"><ele>1673.7</ele><time>2012-04-30T17:06:05.0000000+00:00</time></trkpt><trkpt lat="42.889168" lon="19.684649"><ele>1667.6</ele><time>2012-04-30T17:06:40.0000000+00:00</time></trkpt><trkpt lat="42.889641" lon="19.685392"><ele>1658.7</ele><time>2012-04-30T17:09:25.0000000+00:00</time></trkpt><trkpt lat="42.890327" lon="19.685743"><ele>1660.3</ele><time>2012-04-30T17:10:10.0000000+00:00</time></trkpt><trkpt lat="42.890835" lon="19.686487"><ele>1655.2</ele><time>2012-04-30T17:10:40.0000000+00:00</time></trkpt><trkpt lat="42.89175" lon="19.687305"><ele>1666.2</ele><time>2012-04-30T17:12:30.0000000+00:00</time></trkpt><trkpt lat="42.89225" lon="19.686615"><ele>1665.3</ele><time>2012-04-30T17:13:50.0000000+00:00</time></trkpt><trkpt lat="42.892994" lon="19.686352"><ele>1650.1</ele><time>2012-04-30T17:15:00.0000000+00:00</time></trkpt><trkpt lat="42.893711" lon="19.686806"><ele>1652.3</ele><time>2012-04-30T17:16:00.0000000+00:00</time></trkpt><trkpt lat="42.894196" lon="19.686125"><ele>1655.9</ele><time>2012-04-30T17:19:05.0000000+00:00</time></trkpt><trkpt lat="42.894218" lon="19.684872"><ele>1653.4</ele><time>2012-04-30T17:19:45.0000000+00:00</time></trkpt><trkpt lat="42.894932" lon="19.68342"><ele>1664.3</ele><time>2012-04-30T17:21:25.0000000+00:00</time></trkpt><trkpt lat="42.894928" lon="19.682693"><ele>1670.3</ele><time>2012-04-30T17:22:20.0000000+00:00</time></trkpt><trkpt lat="42.89547" lon="19.681414"><ele>1671.9</ele><time>2012-04-30T17:23:25.0000000+00:00</time></trkpt><trkpt lat="42.896023" lon="19.679213"><ele>1673.7</ele><time>2012-04-30T17:24:50.0000000+00:00</time></trkpt><trkpt lat="42.896576" lon="19.678545"><ele>1677.8</ele><time>2012-04-30T17:25:55.0000000+00:00</time></trkpt><trkpt lat="42.89666" lon="19.677668"><ele>1682.9</ele><time>2012-04-30T17:27:00.0000000+00:00</time></trkpt><trkpt lat="42.897202" lon="19.675825"><ele>1677.9</ele><time>2012-04-30T17:29:25.0000000+00:00</time></trkpt><trkpt lat="42.89716" lon="19.67548"><ele>1675.4</ele><time>2012-04-30T17:30:00.0000000+00:00</time></trkpt><trkpt lat="42.89761" lon="19.674158"><ele>1663.7</ele><time>2012-04-30T17:30:40.0000000+00:00</time></trkpt><trkpt lat="42.89817" lon="19.673378"><ele>1662.1</ele><time>2012-04-30T17:32:05.0000000+00:00</time></trkpt><trkpt lat="42.898502" lon="19.672487"><ele>1664.7</ele><time>2012-04-30T17:32:45.0000000+00:00</time></trkpt><trkpt lat="42.899296" lon="19.669754"><ele>1684.8</ele><time>2012-04-30T17:36:50.0000000+00:00</time></trkpt><trkpt lat="42.89925" lon="19.669302"><ele>1685.7</ele><time>2012-04-30T17:38:00.0000000+00:00</time></trkpt><trkpt lat="42.89959" lon="19.668753"><ele>1702.6</ele><time>2012-04-30T17:39:30.0000000+00:00</time></trkpt><trkpt lat="42.899796" lon="19.668871"><ele>1708.0</ele><time>2012-04-30T17:40:20.0000000+00:00</time></trkpt><trkpt lat="42.900204" lon="19.668055"><ele>1705.4</ele><time>2012-04-30T17:40:55.0000000+00:00</time></trkpt><trkpt lat="42.900467" lon="19.667849"><ele>1706.1</ele><time>2012-04-30T17:41:20.0000000+00:00</time></trkpt><trkpt lat="42.901119" lon="19.6661"><ele>1687.6</ele><time>2012-04-30T17:44:05.0000000+00:00</time></trkpt><trkpt lat="42.901146" lon="19.66568"><ele>1684.4</ele><time>2012-04-30T17:44:40.0000000+00:00</time></trkpt><trkpt lat="42.901356" lon="19.665697"><ele>1688.7</ele><time>2012-04-30T17:45:30.0000000+00:00</time></trkpt><trkpt lat="42.90139" lon="19.665106"><ele>1682.4</ele><time>2012-04-30T17:46:30.0000000+00:00</time></trkpt><trkpt lat="42.90152" lon="19.665215"><ele>1687.9</ele><time>2012-04-30T17:47:20.0000000+00:00</time></trkpt><trkpt lat="42.901402" lon="19.664875"><ele>1679.1</ele><time>2012-04-30T17:48:55.0000000+00:00</time></trkpt><trkpt lat="42.901604" lon="19.663277"><ele>1646.9</ele><time>2012-04-30T17:52:45.0000000+00:00</time></trkpt><trkpt lat="42.901398" lon="19.663061"><ele>1639.3</ele><time>2012-04-30T17:53:10.0000000+00:00</time></trkpt><trkpt lat="42.901958" lon="19.662174"><ele>1622.8</ele><time>2012-04-30T17:54:10.0000000+00:00</time></trkpt><trkpt lat="42.902008" lon="19.66098"><ele>1621.7</ele><time>2012-04-30T17:56:15.0000000+00:00</time></trkpt><trkpt lat="42.902821" lon="19.659985"><ele>1605.9</ele><time>2012-04-30T17:57:55.0000000+00:00</time></trkpt><trkpt lat="42.903339" lon="19.658758"><ele>1602.2</ele><time>2012-04-30T17:59:15.0000000+00:00</time></trkpt><trkpt lat="42.904053" lon="19.658493"><ele>1591.3</ele><time>2012-04-30T18:00:50.0000000+00:00</time></trkpt><trkpt lat="42.904488" lon="19.657915"><ele>1571.8</ele><time>2012-04-30T18:02:25.0000000+00:00</time></trkpt><trkpt lat="42.904892" lon="19.657846"><ele>1557.8</ele><time>2012-04-30T18:04:10.0000000+00:00</time></trkpt><trkpt lat="42.905254" lon="19.657248"><ele>1546.3</ele><time>2012-04-30T18:06:25.0000000+00:00</time></trkpt><trkpt lat="42.906342" lon="19.65694"><ele>1514.8</ele><time>2012-04-30T18:09:40.0000000+00:00</time></trkpt><trkpt lat="42.906494" lon="19.656639"><ele>1504.2</ele><time>2012-04-30T18:11:05.0000000+00:00</time></trkpt><trkpt lat="42.907127" lon="19.656225"><ele>1488.7</ele><time>2012-04-30T18:11:55.0000000+00:00</time></trkpt><trkpt lat="42.908043" lon="19.656008"><ele>1470.3</ele><time>2012-04-30T18:12:45.0000000+00:00</time></trkpt><trkpt lat="42.908195" lon="19.656075"><ele>1467.5</ele><time>2012-04-30T18:12:55.0000000+00:00</time></trkpt><trkpt lat="42.908207" lon="19.656622"><ele>1470.3</ele><time>2012-04-30T18:14:10.0000000+00:00</time></trkpt><trkpt lat="42.908607" lon="19.657967"><ele>1474.2</ele><time>2012-04-30T18:15:40.0000000+00:00</time></trkpt><trkpt lat="42.909084" lon="19.657818"><ele>1469.9</ele><time>2012-04-30T18:16:40.0000000+00:00</time></trkpt><trkpt lat="42.909698" lon="19.657946"><ele>1483.9</ele><time>2012-04-30T18:17:55.0000000+00:00</time></trkpt><trkpt lat="42.910168" lon="19.657686"><ele>1492.4</ele><time>2012-04-30T18:19:05.0000000+00:00</time></trkpt><trkpt lat="42.910625" lon="19.65789"><ele>1507.6</ele><time>2012-04-30T18:22:00.0000000+00:00</time></trkpt><trkpt lat="42.910164" lon="19.657499"><ele>1488.7</ele><time>2012-04-30T18:23:40.0000000+00:00</time></trkpt><trkpt lat="42.909683" lon="19.657825"><ele>1482.4</ele><time>2012-04-30T18:25:00.0000000+00:00</time></trkpt><trkpt lat="42.909817" lon="19.657413"><ele>1479.0</ele><time>2012-04-30T18:25:35.0000000+00:00</time></trkpt><trkpt lat="42.910179" lon="19.65703"><ele>1480.3</ele><time>2012-04-30T18:26:05.0000000+00:00</time></trkpt><trkpt lat="42.912415" lon="19.654959"><ele>1435.8</ele><time>2012-04-30T18:31:05.0000000+00:00</time></trkpt><trkpt lat="42.912769" lon="19.65493"><ele>1427.4</ele><time>2012-04-30T18:31:45.0000000+00:00</time></trkpt><trkpt lat="42.913025" lon="19.655334"><ele>1429.3</ele><time>2012-04-30T18:32:40.0000000+00:00</time></trkpt><trkpt lat="42.913216" lon="19.655369"><ele>1427.2</ele><time>2012-04-30T18:32:50.0000000+00:00</time></trkpt><trkpt lat="42.914036" lon="19.654331"><ele>1409.2</ele><time>2012-04-30T18:38:55.0000000+00:00</time></trkpt><trkpt lat="42.914188" lon="19.654375"><ele>1412.7</ele><time>2012-04-30T18:39:25.0000000+00:00</time></trkpt><trkpt lat="42.914944" lon="19.65295"><ele>1381.0</ele><time>2012-04-30T18:40:45.0000000+00:00</time></trkpt><trkpt lat="42.915306" lon="19.652674"><ele>1378.4</ele><time>2012-04-30T18:41:10.0000000+00:00</time></trkpt><trkpt lat="42.915726" lon="19.651443"><ele>1356.6</ele><time>2012-04-30T18:43:15.0000000+00:00</time></trkpt><trkpt lat="42.916241" lon="19.650692"><ele>1355.3</ele><time>2012-04-30T18:43:55.0000000+00:00</time></trkpt><trkpt lat="42.916374" lon="19.650421"><ele>1358.5</ele><time>2012-04-30T18:44:05.0000000+00:00</time></trkpt><trkpt lat="42.916279" lon="19.650291"><ele>1351.3</ele><time>2012-04-30T18:44:30.0000000+00:00</time></trkpt><trkpt lat="42.916409" lon="19.650274"><ele>1357.6</ele><time>2012-04-30T18:44:55.0000000+00:00</time></trkpt><trkpt lat="42.91679" lon="19.649305"><ele>1340.8</ele><time>2012-04-30T18:46:10.0000000+00:00</time></trkpt><trkpt lat="42.917568" lon="19.648495"><ele>1335.7</ele><time>2012-04-30T18:47:10.0000000+00:00</time></trkpt><trkpt lat="42.918621" lon="19.647863"><ele>1337.6</ele><time>2012-04-30T18:49:00.0000000+00:00</time></trkpt><trkpt lat="42.919483" lon="19.647589"><ele>1367.7</ele><time>2012-04-30T18:50:40.0000000+00:00</time></trkpt><trkpt lat="42.919846" lon="19.647236"><ele>1367.4</ele><time>2012-04-30T18:51:30.0000000+00:00</time></trkpt><trkpt lat="42.919968" lon="19.647591"><ele>1379.3</ele><time>2012-04-30T18:52:15.0000000+00:00</time></trkpt><trkpt lat="42.921589" lon="19.646198"><ele>1380.6</ele><time>2012-04-30T18:55:05.0000000+00:00</time></trkpt><trkpt lat="42.921894" lon="19.645725"><ele>1373.1</ele><time>2012-04-30T18:55:50.0000000+00:00</time></trkpt><trkpt lat="42.922215" lon="19.645615"><ele>1378.6</ele><time>2012-04-30T18:56:10.0000000+00:00</time></trkpt><trkpt lat="42.922493" lon="19.645176"><ele>1377.0</ele><time>2012-04-30T18:56:35.0000000+00:00</time></trkpt><trkpt lat="42.923367" lon="19.644657"><ele>1382.9</ele><time>2012-04-30T19:01:30.0000000+00:00</time></trkpt><trkpt lat="42.924015" lon="19.643595"><ele>1376.6</ele><time>2012-04-30T19:03:00.0000000+00:00</time></trkpt><trkpt lat="42.926487" lon="19.64274"><ele>1389.3</ele><time>2012-04-30T19:06:45.0000000+00:00</time></trkpt><trkpt lat="42.927662" lon="19.641756"><ele>1385.7</ele><time>2012-04-30T19:08:00.0000000+00:00</time></trkpt><trkpt lat="42.928642" lon="19.641233"><ele>1382.9</ele><time>2012-04-30T19:08:40.0000000+00:00</time></trkpt><trkpt lat="42.929764" lon="19.640142"><ele>1380.8</ele><time>2012-04-30T19:09:40.0000000+00:00</time></trkpt><trkpt lat="42.930679" lon="19.640312"><ele>1385.2</ele><time>2012-04-30T19:11:35.0000000+00:00</time></trkpt><trkpt lat="42.931435" lon="19.640007"><ele>1388.1</ele><time>2012-04-30T19:12:15.0000000+00:00</time></trkpt><trkpt lat="42.932148" lon="19.64011"><ele>1395.2</ele><time>2012-04-30T19:12:50.0000000+00:00</time></trkpt><trkpt lat="42.933594" lon="19.639656"><ele>1383.4</ele><time>2012-04-30T19:13:50.0000000+00:00</time></trkpt><trkpt lat="42.935104" lon="19.639549"><ele>1371.5</ele><time>2012-04-30T19:14:50.0000000+00:00</time></trkpt><trkpt lat="42.936028" lon="19.638428"><ele>1367.9</ele><time>2012-04-30T19:15:50.0000000+00:00</time></trkpt><trkpt lat="42.937271" lon="19.637358"><ele>1377.5</ele><time>2012-04-30T19:17:45.0000000+00:00</time></trkpt><trkpt lat="42.937996" lon="19.636244"><ele>1376.3</ele><time>2012-04-30T19:18:35.0000000+00:00</time></trkpt><trkpt lat="42.938545" lon="19.636118"><ele>1380.5</ele><time>2012-04-30T19:18:55.0000000+00:00</time></trkpt><trkpt lat="42.939369" lon="19.636436"><ele>1386.5</ele><time>2012-04-30T19:19:30.0000000+00:00</time></trkpt><trkpt lat="42.940475" lon="19.63555"><ele>1374.6</ele><time>2012-04-30T19:20:15.0000000+00:00</time></trkpt><trkpt lat="42.941494" lon="19.635046"><ele>1359.5</ele><time>2012-04-30T19:21:05.0000000+00:00</time></trkpt><trkpt lat="42.94244" lon="19.633942"><ele>1356.7</ele><time>2012-04-30T19:22:35.0000000+00:00</time></trkpt><trkpt lat="42.943405" lon="19.632401"><ele>1331.7</ele><time>2012-04-30T19:23:30.0000000+00:00</time></trkpt><trkpt lat="42.944633" lon="19.631058"><ele>1320.8</ele><time>2012-04-30T19:24:40.0000000+00:00</time></trkpt><trkpt lat="42.94471" lon="19.630789"><ele>1314.0</ele><time>2012-04-30T19:24:55.0000000+00:00</time></trkpt><trkpt lat="42.944519" lon="19.629076"><ele>1307.3</ele><time>2012-04-30T19:27:20.0000000+00:00</time></trkpt><trkpt lat="42.944851" lon="19.628235"><ele>1303.0</ele><time>2012-04-30T19:27:40.0000000+00:00</time></trkpt><trkpt lat="42.944782" lon="19.628063"><ele>1299.8</ele><time>2012-04-30T19:27:45.0000000+00:00</time></trkpt><trkpt lat="42.944565" lon="19.628059"><ele>1296.0</ele><time>2012-04-30T19:28:30.0000000+00:00</time></trkpt><trkpt lat="42.944061" lon="19.62859"><ele>1283.7</ele><time>2012-04-30T19:28:50.0000000+00:00</time></trkpt><trkpt lat="42.943508" lon="19.629734"><ele>1279.0</ele><time>2012-04-30T19:29:20.0000000+00:00</time></trkpt><trkpt lat="42.943123" lon="19.630194"><ele>1275.1</ele><time>2012-04-30T19:30:50.0000000+00:00</time></trkpt><trkpt lat="42.942142" lon="19.630411"><ele>1258.1</ele><time>2012-04-30T19:31:20.0000000+00:00</time></trkpt><trkpt lat="42.942337" lon="19.62978"><ele>1247.6</ele><time>2012-04-30T19:31:40.0000000+00:00</time></trkpt><trkpt lat="42.943447" lon="19.627947"><ele>1239.2</ele><time>2012-04-30T19:32:25.0000000+00:00</time></trkpt><trkpt lat="42.943451" lon="19.627333"><ele>1227.3</ele><time>2012-04-30T19:32:35.0000000+00:00</time></trkpt><trkpt lat="42.944408" lon="19.625385"><ele>1220.9</ele><time>2012-04-30T19:33:20.0000000+00:00</time></trkpt><trkpt lat="42.944633" lon="19.625126"><ele>1220.6</ele><time>2012-04-30T19:33:30.0000000+00:00</time></trkpt><trkpt lat="42.945206" lon="19.625099"><ele>1223.0</ele><time>2012-04-30T19:33:55.0000000+00:00</time></trkpt><trkpt lat="42.945889" lon="19.624628"><ele>1186.5</ele><time>2012-04-30T19:34:20.0000000+00:00</time></trkpt><trkpt lat="42.946873" lon="19.625116"><ele>1203.9</ele><time>2012-04-30T19:36:05.0000000+00:00</time></trkpt><trkpt lat="42.947498" lon="19.624912"><ele>1191.1</ele><time>2012-04-30T19:36:30.0000000+00:00</time></trkpt><trkpt lat="42.94809" lon="19.623457"><ele>1187.3</ele><time>2012-04-30T19:37:05.0000000+00:00</time></trkpt><trkpt lat="42.948662" lon="19.622755"><ele>1182.1</ele><time>2012-04-30T19:37:25.0000000+00:00</time></trkpt><trkpt lat="42.948837" lon="19.621696"><ele>1177.8</ele><time>2012-04-30T19:37:40.0000000+00:00</time></trkpt><trkpt lat="42.948788" lon="19.620247"><ele>1167.8</ele><time>2012-04-30T19:38:25.0000000+00:00</time></trkpt><trkpt lat="42.948116" lon="19.619459"><ele>1154.4</ele><time>2012-04-30T19:38:50.0000000+00:00</time></trkpt><trkpt lat="42.947582" lon="19.619116"><ele>1136.6</ele><time>2012-04-30T19:39:10.0000000+00:00</time></trkpt><trkpt lat="42.947971" lon="19.618784"><ele>1130.0</ele><time>2012-04-30T19:40:55.0000000+00:00</time></trkpt><trkpt lat="42.947132" lon="19.618032"><ele>1112.1</ele><time>2012-04-30T19:41:30.0000000+00:00</time></trkpt><trkpt lat="42.947308" lon="19.617678"><ele>1110.3</ele><time>2012-04-30T19:41:45.0000000+00:00</time></trkpt><trkpt lat="42.947227" lon="19.616898"><ele>1107.4</ele><time>2012-04-30T19:42:05.0000000+00:00</time></trkpt><trkpt lat="42.946899" lon="19.616016"><ele>1099.4</ele><time>2012-04-30T19:42:30.0000000+00:00</time></trkpt><trkpt lat="42.946873" lon="19.615152"><ele>1093.1</ele><time>2012-04-30T19:42:50.0000000+00:00</time></trkpt><trkpt lat="42.94651" lon="19.613943"><ele>1084.3</ele><time>2012-04-30T19:43:15.0000000+00:00</time></trkpt><trkpt lat="42.946716" lon="19.61286"><ele>1094.4</ele><time>2012-04-30T19:44:05.0000000+00:00</time></trkpt><trkpt lat="42.947937" lon="19.611246"><ele>1102.1</ele><time>2012-04-30T19:45:35.0000000+00:00</time></trkpt><trkpt lat="42.948681" lon="19.610615"><ele>1105.5</ele><time>2012-04-30T19:46:05.0000000+00:00</time></trkpt><trkpt lat="42.948593" lon="19.610052"><ele>1113.7</ele><time>2012-04-30T19:46:25.0000000+00:00</time></trkpt><trkpt lat="42.948788" lon="19.607924"><ele>1129.7</ele><time>2012-04-30T19:47:25.0000000+00:00</time></trkpt><trkpt lat="42.949432" lon="19.606491"><ele>1110.9</ele><time>2012-04-30T19:48:00.0000000+00:00</time></trkpt><trkpt lat="42.946301" lon="19.601755"><ele>1110.1</ele><time>2012-04-30T19:52:50.0000000+00:00</time></trkpt><trkpt lat="42.946529" lon="19.601614"><ele>1104.4</ele><time>2012-04-30T19:53:00.0000000+00:00</time></trkpt><trkpt lat="42.947433" lon="19.601963"><ele>1103.6</ele><time>2012-04-30T19:53:20.0000000+00:00</time></trkpt><trkpt lat="42.947823" lon="19.602272"><ele>1102.4</ele><time>2012-04-30T19:53:30.0000000+00:00</time></trkpt><trkpt lat="42.948166" lon="19.603006"><ele>1092.7</ele><time>2012-04-30T19:53:45.0000000+00:00</time></trkpt><trkpt lat="42.949883" lon="19.604395"><ele>1076.1</ele><time>2012-04-30T19:54:40.0000000+00:00</time></trkpt><trkpt lat="42.951534" lon="19.604721"><ele>1063.6</ele><time>2012-04-30T19:55:15.0000000+00:00</time></trkpt><trkpt lat="42.951931" lon="19.606052"><ele>1056.4</ele><time>2012-04-30T19:55:45.0000000+00:00</time></trkpt><trkpt lat="42.952263" lon="19.603792"><ele>1041.1</ele><time>2012-04-30T19:56:25.0000000+00:00</time></trkpt><trkpt lat="42.952175" lon="19.603329"><ele>1036.4</ele><time>2012-04-30T19:56:40.0000000+00:00</time></trkpt><trkpt lat="42.952457" lon="19.602621"><ele>1025.7</ele><time>2012-04-30T19:56:55.0000000+00:00</time></trkpt><trkpt lat="42.952908" lon="19.602053"><ele>1028.1</ele><time>2012-04-30T19:57:10.0000000+00:00</time></trkpt><trkpt lat="42.953323" lon="19.602051"><ele>1025.7</ele><time>2012-04-30T19:57:25.0000000+00:00</time></trkpt><trkpt lat="42.953274" lon="19.601574"><ele>1011.0</ele><time>2012-04-30T19:57:35.0000000+00:00</time></trkpt><trkpt lat="42.953613" lon="19.601009"><ele>1001.6</ele><time>2012-04-30T19:57:50.0000000+00:00</time></trkpt><trkpt lat="42.953724" lon="19.600277"><ele>998.4</ele><time>2012-04-30T19:58:00.0000000+00:00</time></trkpt><trkpt lat="42.955391" lon="19.596479"><ele>963.1</ele><time>2012-04-30T19:59:30.0000000+00:00</time></trkpt><trkpt lat="42.956562" lon="19.594868"><ele>942.2</ele><time>2012-04-30T20:00:40.0000000+00:00</time></trkpt><trkpt lat="42.956944" lon="19.594898"><ele>942.7</ele><time>2012-04-30T20:00:50.0000000+00:00</time></trkpt><trkpt lat="42.957123" lon="19.594725"><ele>932.7</ele><time>2012-04-30T20:00:55.0000000+00:00</time></trkpt><trkpt lat="42.957088" lon="19.594524"><ele>927.5</ele><time>2012-04-30T20:01:00.0000000+00:00</time></trkpt><trkpt lat="42.955891" lon="19.594383"><ele>905.9</ele><time>2012-04-30T20:01:25.0000000+00:00</time></trkpt><trkpt lat="42.955963" lon="19.593493"><ele>896.6</ele><time>2012-04-30T20:01:45.0000000+00:00</time></trkpt><trkpt lat="42.956486" lon="19.591284"><ele>872.1</ele><time>2012-04-30T20:02:25.0000000+00:00</time></trkpt><trkpt lat="42.958126" lon="19.590088"><ele>855.5</ele><time>2012-04-30T20:03:15.0000000+00:00</time></trkpt><trkpt lat="42.958572" lon="19.590166"><ele>854.0</ele><time>2012-04-30T20:03:50.0000000+00:00</time></trkpt><trkpt lat="42.95919" lon="19.5909"><ele>856.3</ele><time>2012-04-30T20:04:15.0000000+00:00</time></trkpt><trkpt lat="42.959435" lon="19.592226"><ele>856.9</ele><time>2012-04-30T20:04:40.0000000+00:00</time></trkpt><trkpt lat="42.95924" lon="19.593445"><ele>858.2</ele><time>2012-04-30T20:05:00.0000000+00:00</time></trkpt><trkpt lat="42.959358" lon="19.59466"><ele>858.3</ele><time>2012-04-30T20:05:20.0000000+00:00</time></trkpt><trkpt lat="42.959278" lon="19.595612"><ele>860.0</ele><time>2012-04-30T20:05:30.0000000+00:00</time></trkpt><trkpt lat="42.958794" lon="19.597466"><ele>858.3</ele><time>2012-04-30T20:05:50.0000000+00:00</time></trkpt><trkpt lat="42.958839" lon="19.598366"><ele>845.3</ele><time>2012-04-30T20:06:00.0000000+00:00</time></trkpt><trkpt lat="42.959034" lon="19.598463"><ele>838.6</ele><time>2012-04-30T20:06:05.0000000+00:00</time></trkpt><trkpt lat="42.959396" lon="19.597851"><ele>834.6</ele><time>2012-04-30T20:06:25.0000000+00:00</time></trkpt><trkpt lat="42.96019" lon="19.595499"><ele>829.3</ele><time>2012-04-30T20:06:55.0000000+00:00</time></trkpt><trkpt lat="42.960754" lon="19.593067"><ele>827.5</ele><time>2012-04-30T20:07:25.0000000+00:00</time></trkpt><trkpt lat="42.960808" lon="19.592108"><ele>823.0</ele><time>2012-04-30T20:07:40.0000000+00:00</time></trkpt><trkpt lat="42.960316" lon="19.58976"><ele>817.2</ele><time>2012-04-30T20:08:20.0000000+00:00</time></trkpt><trkpt lat="42.96019" lon="19.587986"><ele>814.0</ele><time>2012-04-30T20:08:45.0000000+00:00</time></trkpt><trkpt lat="42.959499" lon="19.586329"><ele>810.4</ele><time>2012-04-30T20:10:35.0000000+00:00</time></trkpt><trkpt lat="42.960125" lon="19.584705"><ele>809.2</ele><time>2012-04-30T20:11:40.0000000+00:00</time></trkpt><trkpt lat="42.960358" lon="19.581425"><ele>809.1</ele><time>2012-04-30T20:12:25.0000000+00:00</time></trkpt><trkpt lat="42.959644" lon="19.579548"><ele>809.0</ele><time>2012-04-30T20:12:55.0000000+00:00</time></trkpt><trkpt lat="42.959766" lon="19.578264"><ele>808.5</ele><time>2012-04-30T20:13:15.0000000+00:00</time></trkpt><trkpt lat="42.958588" lon="19.577944"><ele>809.4</ele><time>2012-04-30T20:14:00.0000000+00:00</time></trkpt><trkpt lat="42.958408" lon="19.578255"><ele>808.8</ele><time>2012-04-30T20:15:45.0000000+00:00</time></trkpt></trkseg><trkseg><trkpt lat="43.158604" lon="19.301077"><ele>884.9</ele><time>2012-05-01T09:09:07.0000000+00:00</time></trkpt><trkpt lat="43.158665" lon="19.301252"><ele>890.0</ele><time>2012-05-01T09:09:17.0000000+00:00</time></trkpt><trkpt lat="43.158966" lon="19.293825"><ele>842.2</ele><time>2012-05-01T09:09:24.0000000+00:00</time></trkpt><trkpt lat="43.158966" lon="19.294035"><ele>844.1</ele><time>2012-05-01T09:09:34.0000000+00:00</time></trkpt><trkpt lat="43.158669" lon="19.29393"><ele>841.7</ele><time>2012-05-01T09:09:44.0000000+00:00</time></trkpt><trkpt lat="43.158127" lon="19.294188"><ele>832.2</ele><time>2012-05-01T09:09:54.0000000+00:00</time></trkpt><trkpt lat="43.15773" lon="19.294771"><ele>827.9</ele><time>2012-05-01T09:10:04.0000000+00:00</time></trkpt><trkpt lat="43.157337" lon="19.29594"><ele>816.8</ele><time>2012-05-01T09:10:19.0000000+00:00</time></trkpt><trkpt lat="43.156593" lon="19.296412"><ele>819.4</ele><time>2012-05-01T09:10:29.0000000+00:00</time></trkpt><trkpt lat="43.155781" lon="19.296343"><ele>813.5</ele><time>2012-05-01T09:10:39.0000000+00:00</time></trkpt><trkpt lat="43.154083" lon="19.295462"><ele>794.8</ele><time>2012-05-01T09:10:59.0000000+00:00</time></trkpt><trkpt lat="43.153015" lon="19.29612"><ele>787.8</ele><time>2012-05-01T09:11:14.0000000+00:00</time></trkpt><trkpt lat="43.152573" lon="19.296198"><ele>789.8</ele><time>2012-05-01T09:11:19.0000000+00:00</time></trkpt><trkpt lat="43.151184" lon="19.295967"><ele>765.1</ele><time>2012-05-01T09:11:34.0000000+00:00</time></trkpt><trkpt lat="43.150806" lon="19.29575"><ele>719.2</ele><time>2012-05-01T09:11:39.0000000+00:00</time></trkpt><trkpt lat="43.149837" lon="19.294641"><ele>715.1</ele><time>2012-05-01T09:11:59.0000000+00:00</time></trkpt><trkpt lat="43.148827" lon="19.292892"><ele>739.8</ele><time>2012-05-01T09:12:34.0000000+00:00</time></trkpt><trkpt lat="43.148628" lon="19.291943"><ele>772.1</ele><time>2012-05-01T09:12:59.0000000+00:00</time></trkpt><trkpt lat="43.148941" lon="19.290054"><ele>784.1</ele><time>2012-05-01T09:13:49.0000000+00:00</time></trkpt><trkpt lat="43.148609" lon="19.289518"><ele>790.4</ele><time>2012-05-01T09:14:14.0000000+00:00</time></trkpt><trkpt lat="43.148422" lon="19.289581"><ele>795.4</ele><time>2012-05-01T09:14:24.0000000+00:00</time></trkpt><trkpt lat="43.148418" lon="19.290445"><ele>792.9</ele><time>2012-05-01T09:14:54.0000000+00:00</time></trkpt><trkpt lat="43.148159" lon="19.290718"><ele>791.9</ele><time>2012-05-01T09:15:54.0000000+00:00</time></trkpt><trkpt lat="43.148376" lon="19.290503"><ele>792.7</ele><time>2012-05-01T09:17:09.0000000+00:00</time></trkpt><trkpt lat="43.148449" lon="19.289471"><ele>795.1</ele><time>2012-05-01T09:17:29.0000000+00:00</time></trkpt><trkpt lat="43.148918" lon="19.289873"><ele>783.9</ele><time>2012-05-01T09:17:44.0000000+00:00</time></trkpt><trkpt lat="43.149521" lon="19.289465"><ele>784.7</ele><time>2012-05-01T09:18:04.0000000+00:00</time></trkpt><trkpt lat="43.150826" lon="19.289673"><ele>788.3</ele><time>2012-05-01T09:18:54.0000000+00:00</time></trkpt><trkpt lat="43.151276" lon="19.289337"><ele>798.0</ele><time>2012-05-01T09:19:14.0000000+00:00</time></trkpt><trkpt lat="43.151978" lon="19.288055"><ele>810.6</ele><time>2012-05-01T09:20:04.0000000+00:00</time></trkpt><trkpt lat="43.151978" lon="19.287266"><ele>818.2</ele><time>2012-05-01T09:20:29.0000000+00:00</time></trkpt><trkpt lat="43.151634" lon="19.286434"><ele>829.7</ele><time>2012-05-01T09:20:59.0000000+00:00</time></trkpt><trkpt lat="43.151474" lon="19.28549"><ele>828.1</ele><time>2012-05-01T09:21:29.0000000+00:00</time></trkpt><trkpt lat="43.15184" lon="19.282547"><ele>842.3</ele><time>2012-05-01T09:23:04.0000000+00:00</time></trkpt><trkpt lat="43.151531" lon="19.280724"><ele>848.8</ele><time>2012-05-01T09:23:44.0000000+00:00</time></trkpt><trkpt lat="43.151642" lon="19.278246"><ele>857.1</ele><time>2012-05-01T09:24:34.0000000+00:00</time></trkpt><trkpt lat="43.152164" lon="19.277422"><ele>838.8</ele><time>2012-05-01T09:24:59.0000000+00:00</time></trkpt><trkpt lat="43.152012" lon="19.277157"><ele>853.2</ele><time>2012-05-01T09:25:09.0000000+00:00</time></trkpt><trkpt lat="43.151485" lon="19.277998"><ele>876.3</ele><time>2012-05-01T09:25:44.0000000+00:00</time></trkpt><trkpt lat="43.151104" lon="19.280167"><ele>891.3</ele><time>2012-05-01T09:27:04.0000000+00:00</time></trkpt><trkpt lat="43.151146" lon="19.282318"><ele>895.4</ele><time>2012-05-01T09:28:19.0000000+00:00</time></trkpt><trkpt lat="43.150566" lon="19.283571"><ele>905.4</ele><time>2012-05-01T09:29:14.0000000+00:00</time></trkpt><trkpt lat="43.150398" lon="19.284475"><ele>911.1</ele><time>2012-05-01T09:29:49.0000000+00:00</time></trkpt><trkpt lat="43.150398" lon="19.286236"><ele>911.9</ele><time>2012-05-01T09:30:49.0000000+00:00</time></trkpt><trkpt lat="43.15065" lon="19.287401"><ele>896.8</ele><time>2012-05-01T09:31:34.0000000+00:00</time></trkpt><trkpt lat="43.150284" lon="19.286015"><ele>922.9</ele><time>2012-05-01T09:32:19.0000000+00:00</time></trkpt><trkpt lat="43.150101" lon="19.284317"><ele>938.8</ele><time>2012-05-01T09:33:09.0000000+00:00</time></trkpt><trkpt lat="43.150425" lon="19.281717"><ele>948.4</ele><time>2012-05-01T09:34:19.0000000+00:00</time></trkpt><trkpt lat="43.15007" lon="19.279745"><ele>959.7</ele><time>2012-05-01T09:35:19.0000000+00:00</time></trkpt><trkpt lat="43.150089" lon="19.278595"><ele>958.4</ele><time>2012-05-01T09:35:54.0000000+00:00</time></trkpt><trkpt lat="43.149921" lon="19.27833"><ele>967.8</ele><time>2012-05-01T09:39:59.0000000+00:00</time></trkpt><trkpt lat="43.149891" lon="19.276957"><ele>972.4</ele><time>2012-05-01T09:42:14.0000000+00:00</time></trkpt><trkpt lat="43.149715" lon="19.276611"><ele>979.2</ele><time>2012-05-01T09:43:09.0000000+00:00</time></trkpt><trkpt lat="43.150043" lon="19.275724"><ele>984.6</ele><time>2012-05-01T09:44:34.0000000+00:00</time></trkpt><trkpt lat="43.14991" lon="19.275372"><ele>992.8</ele><time>2012-05-01T09:45:19.0000000+00:00</time></trkpt><trkpt lat="43.149422" lon="19.275276"><ele>998.6</ele><time>2012-05-01T09:47:29.0000000+00:00</time></trkpt><trkpt lat="43.148628" lon="19.275782"><ele>1004.7</ele><time>2012-05-01T09:48:04.0000000+00:00</time></trkpt><trkpt lat="43.148415" lon="19.276318"><ele>1013.1</ele><time>2012-05-01T09:48:24.0000000+00:00</time></trkpt><trkpt lat="43.148499" lon="19.276762"><ele>1013.9</ele><time>2012-05-01T09:48:49.0000000+00:00</time></trkpt><trkpt lat="43.148373" lon="19.277128"><ele>1019.3</ele><time>2012-05-01T09:49:29.0000000+00:00</time></trkpt><trkpt lat="43.148148" lon="19.276819"><ele>1024.5</ele><time>2012-05-01T09:49:59.0000000+00:00</time></trkpt><trkpt lat="43.14785" lon="19.276848"><ele>1035.6</ele><time>2012-05-01T09:50:19.0000000+00:00</time></trkpt><trkpt lat="43.147629" lon="19.276361"><ele>1045.3</ele><time>2012-05-01T09:51:04.0000000+00:00</time></trkpt><trkpt lat="43.148174" lon="19.274313"><ele>1044.9</ele><time>2012-05-01T09:52:19.0000000+00:00</time></trkpt><trkpt lat="43.149521" lon="19.272856"><ele>1051.0</ele><time>2012-05-01T09:53:44.0000000+00:00</time></trkpt><trkpt lat="43.150383" lon="19.272514"><ele>1065.2</ele><time>2012-05-01T09:55:54.0000000+00:00</time></trkpt><trkpt lat="43.15012" lon="19.271107"><ele>1083.8</ele><time>2012-05-01T09:57:59.0000000+00:00</time></trkpt><trkpt lat="43.149746" lon="19.270325"><ele>1096.9</ele><time>2012-05-01T10:03:44.0000000+00:00</time></trkpt><trkpt lat="43.150345" lon="19.26947"><ele>1117.9</ele><time>2012-05-01T10:05:39.0000000+00:00</time></trkpt><trkpt lat="43.150482" lon="19.2677"><ele>1147.5</ele><time>2012-05-01T10:08:44.0000000+00:00</time></trkpt><trkpt lat="43.149612" lon="19.268972"><ele>1147.9</ele><time>2012-05-01T10:09:49.0000000+00:00</time></trkpt><trkpt lat="43.148926" lon="19.269285"><ele>1149.7</ele><time>2012-05-01T10:10:14.0000000+00:00</time></trkpt><trkpt lat="43.148464" lon="19.269062"><ele>1146.3</ele><time>2012-05-01T10:10:29.0000000+00:00</time></trkpt><trkpt lat="43.14785" lon="19.268072"><ele>1158.4</ele><time>2012-05-01T10:11:04.0000000+00:00</time></trkpt><trkpt lat="43.147976" lon="19.267971"><ele>1158.6</ele><time>2012-05-01T10:11:14.0000000+00:00</time></trkpt><trkpt lat="43.148415" lon="19.268677"><ele>1154.3</ele><time>2012-05-01T10:11:39.0000000+00:00</time></trkpt><trkpt lat="43.148781" lon="19.268797"><ele>1159.1</ele><time>2012-05-01T10:11:54.0000000+00:00</time></trkpt><trkpt lat="43.149475" lon="19.268143"><ele>1173.2</ele><time>2012-05-01T10:12:34.0000000+00:00</time></trkpt><trkpt lat="43.149841" lon="19.267529"><ele>1176.0</ele><time>2012-05-01T10:12:59.0000000+00:00</time></trkpt><trkpt lat="43.150677" lon="19.263926"><ele>1194.6</ele><time>2012-05-01T10:14:54.0000000+00:00</time></trkpt><trkpt lat="43.150677" lon="19.263351"><ele>1199.8</ele><time>2012-05-01T10:15:09.0000000+00:00</time></trkpt><trkpt lat="43.150387" lon="19.262173"><ele>1205.6</ele><time>2012-05-01T10:15:49.0000000+00:00</time></trkpt><trkpt lat="43.1506" lon="19.26157"><ele>1203.6</ele><time>2012-05-01T10:16:14.0000000+00:00</time></trkpt><trkpt lat="43.151066" lon="19.261429"><ele>1208.3</ele><time>2012-05-01T10:16:34.0000000+00:00</time></trkpt><trkpt lat="43.151672" lon="19.261703"><ele>1204.8</ele><time>2012-05-01T10:16:59.0000000+00:00</time></trkpt><trkpt lat="43.15234" lon="19.262671"><ele>1218.9</ele><time>2012-05-01T10:17:44.0000000+00:00</time></trkpt><trkpt lat="43.15276" lon="19.262918"><ele>1226.6</ele><time>2012-05-01T10:18:04.0000000+00:00</time></trkpt><trkpt lat="43.153412" lon="19.26277"><ele>1232.0</ele><time>2012-05-01T10:18:34.0000000+00:00</time></trkpt><trkpt lat="43.153625" lon="19.262157"><ele>1238.0</ele><time>2012-05-01T10:18:59.0000000+00:00</time></trkpt><trkpt lat="43.153446" lon="19.261667"><ele>1245.1</ele><time>2012-05-01T10:19:19.0000000+00:00</time></trkpt><trkpt lat="43.151787" lon="19.260187"><ele>1243.4</ele><time>2012-05-01T10:21:04.0000000+00:00</time></trkpt><trkpt lat="43.151188" lon="19.258564"><ele>1242.6</ele><time>2012-05-01T10:21:59.0000000+00:00</time></trkpt><trkpt lat="43.149998" lon="19.256838"><ele>1273.4</ele><time>2012-05-01T10:23:09.0000000+00:00</time></trkpt><trkpt lat="43.150066" lon="19.256643"><ele>1271.8</ele><time>2012-05-01T10:23:19.0000000+00:00</time></trkpt><trkpt lat="43.151539" lon="19.257841"><ele>1275.5</ele><time>2012-05-01T10:24:54.0000000+00:00</time></trkpt><trkpt lat="43.152222" lon="19.258722"><ele>1284.2</ele><time>2012-05-01T10:25:44.0000000+00:00</time></trkpt><trkpt lat="43.152706" lon="19.258936"><ele>1284.3</ele><time>2012-05-01T10:26:09.0000000+00:00</time></trkpt><trkpt lat="43.152901" lon="19.258801"><ele>1288.5</ele><time>2012-05-01T10:27:04.0000000+00:00</time></trkpt><trkpt lat="43.152817" lon="19.25852"><ele>1292.3</ele><time>2012-05-01T10:28:19.0000000+00:00</time></trkpt><trkpt lat="43.152302" lon="19.25807"><ele>1293.9</ele><time>2012-05-01T10:29:19.0000000+00:00</time></trkpt><trkpt lat="43.151814" lon="19.256662"><ele>1310.6</ele><time>2012-05-01T10:30:19.0000000+00:00</time></trkpt><trkpt lat="43.151035" lon="19.255945"><ele>1312.6</ele><time>2012-05-01T10:31:09.0000000+00:00</time></trkpt><trkpt lat="43.150932" lon="19.254118"><ele>1328.2</ele><time>2012-05-01T10:32:29.0000000+00:00</time></trkpt><trkpt lat="43.150284" lon="19.252832"><ele>1340.5</ele><time>2012-05-01T10:33:29.0000000+00:00</time></trkpt><trkpt lat="43.150429" lon="19.251055"><ele>1340.4</ele><time>2012-05-01T10:48:09.0000000+00:00</time></trkpt><trkpt lat="43.150181" lon="19.250011"><ele>1341.3</ele><time>2012-05-01T10:48:34.0000000+00:00</time></trkpt><trkpt lat="43.149784" lon="19.249466"><ele>1343.5</ele><time>2012-05-01T10:48:49.0000000+00:00</time></trkpt><trkpt lat="43.148277" lon="19.248302"><ele>1336.1</ele><time>2012-05-01T10:49:14.0000000+00:00</time></trkpt><trkpt lat="43.147747" lon="19.247349"><ele>1335.1</ele><time>2012-05-01T10:49:24.0000000+00:00</time></trkpt><trkpt lat="43.147655" lon="19.245699"><ele>1336.7</ele><time>2012-05-01T10:49:39.0000000+00:00</time></trkpt><trkpt lat="43.148499" lon="19.243097"><ele>1342.9</ele><time>2012-05-01T10:50:09.0000000+00:00</time></trkpt><trkpt lat="43.148479" lon="19.241402"><ele>1346.1</ele><time>2012-05-01T10:50:29.0000000+00:00</time></trkpt><trkpt lat="43.14809" lon="19.239275"><ele>1337.4</ele><time>2012-05-01T10:50:54.0000000+00:00</time></trkpt><trkpt lat="43.148457" lon="19.236893"><ele>1333.9</ele><time>2012-05-01T10:51:19.0000000+00:00</time></trkpt><trkpt lat="43.148178" lon="19.235954"><ele>1329.9</ele><time>2012-05-01T10:51:29.0000000+00:00</time></trkpt><trkpt lat="43.147442" lon="19.23522"><ele>1326.2</ele><time>2012-05-01T10:51:39.0000000+00:00</time></trkpt><trkpt lat="43.144867" lon="19.233625"><ele>1305.4</ele><time>2012-05-01T10:52:04.0000000+00:00</time></trkpt><trkpt lat="43.144672" lon="19.233589"><ele>1305.1</ele><time>2012-05-01T10:52:09.0000000+00:00</time></trkpt><trkpt lat="43.143787" lon="19.234283"><ele>1304.8</ele><time>2012-05-01T10:54:39.0000000+00:00</time></trkpt><trkpt lat="43.142643" lon="19.234108"><ele>1304.2</ele><time>2012-05-01T10:55:04.0000000+00:00</time></trkpt><trkpt lat="43.141781" lon="19.234491"><ele>1302.6</ele><time>2012-05-01T10:55:19.0000000+00:00</time></trkpt><trkpt lat="43.141441" lon="19.234455"><ele>1300.8</ele><time>2012-05-01T10:55:24.0000000+00:00</time></trkpt><trkpt lat="43.134884" lon="19.232229"><ele>1310.6</ele><time>2012-05-01T10:57:34.0000000+00:00</time></trkpt><trkpt lat="43.132782" lon="19.231365"><ele>1316.4</ele><time>2012-05-01T10:58:34.0000000+00:00</time></trkpt><trkpt lat="43.131489" lon="19.230347"><ele>1313.4</ele><time>2012-05-01T10:59:04.0000000+00:00</time></trkpt><trkpt lat="43.130768" lon="19.230196"><ele>1309.5</ele><time>2012-05-01T10:59:14.0000000+00:00</time></trkpt><trkpt lat="43.12772" lon="19.227728"><ele>1310.6</ele><time>2012-05-01T11:00:14.0000000+00:00</time></trkpt><trkpt lat="43.127815" lon="19.227627"><ele>1310.6</ele><time>2012-05-01T11:00:29.0000000+00:00</time></trkpt><trkpt lat="43.127243" lon="19.227398"><ele>1311.0</ele><time>2012-05-01T11:00:49.0000000+00:00</time></trkpt><trkpt lat="43.123444" lon="19.224583"><ele>1316.0</ele><time>2012-05-01T11:02:24.0000000+00:00</time></trkpt><trkpt lat="43.117699" lon="19.217312"><ele>1331.5</ele><time>2012-05-01T11:07:54.0000000+00:00</time></trkpt><trkpt lat="43.116344" lon="19.214823"><ele>1342.5</ele><time>2012-05-01T11:11:44.0000000+00:00</time></trkpt><trkpt lat="43.116146" lon="19.214104"><ele>1343.4</ele><time>2012-05-01T11:11:59.0000000+00:00</time></trkpt><trkpt lat="43.116142" lon="19.213024"><ele>1347.1</ele><time>2012-05-01T11:12:39.0000000+00:00</time></trkpt><trkpt lat="43.115387" lon="19.212198"><ele>1350.9</ele><time>2012-05-01T11:13:29.0000000+00:00</time></trkpt><trkpt lat="43.115421" lon="19.210926"><ele>1356.0</ele><time>2012-05-01T11:14:19.0000000+00:00</time></trkpt><trkpt lat="43.115295" lon="19.210638"><ele>1357.5</ele><time>2012-05-01T11:14:29.0000000+00:00</time></trkpt><trkpt lat="43.114796" lon="19.210434"><ele>1365.1</ele><time>2012-05-01T11:14:54.0000000+00:00</time></trkpt><trkpt lat="43.114746" lon="19.209091"><ele>1369.9</ele><time>2012-05-01T11:15:34.0000000+00:00</time></trkpt><trkpt lat="43.115032" lon="19.20702"><ele>1370.9</ele><time>2012-05-01T11:16:19.0000000+00:00</time></trkpt><trkpt lat="43.114517" lon="19.20562"><ele>1377.0</ele><time>2012-05-01T11:16:54.0000000+00:00</time></trkpt><trkpt lat="43.115154" lon="19.202326"><ele>1386.3</ele><time>2012-05-01T11:18:09.0000000+00:00</time></trkpt><trkpt lat="43.115509" lon="19.201912"><ele>1387.2</ele><time>2012-05-01T11:18:24.0000000+00:00</time></trkpt><trkpt lat="43.115429" lon="19.200939"><ele>1387.0</ele><time>2012-05-01T11:18:49.0000000+00:00</time></trkpt><trkpt lat="43.115139" lon="19.200371"><ele>1387.4</ele><time>2012-05-01T11:19:04.0000000+00:00</time></trkpt><trkpt lat="43.11517" lon="19.199799"><ele>1391.7</ele><time>2012-05-01T11:19:19.0000000+00:00</time></trkpt><trkpt lat="43.114849" lon="19.199577"><ele>1396.7</ele><time>2012-05-01T11:19:34.0000000+00:00</time></trkpt><trkpt lat="43.114178" lon="19.199974"><ele>1399.2</ele><time>2012-05-01T11:20:04.0000000+00:00</time></trkpt><trkpt lat="43.113071" lon="19.199524"><ele>1401.4</ele><time>2012-05-01T11:20:54.0000000+00:00</time></trkpt><trkpt lat="43.112751" lon="19.19906"><ele>1403.2</ele><time>2012-05-01T11:21:14.0000000+00:00</time></trkpt><trkpt lat="43.11235" lon="19.199018"><ele>1403.1</ele><time>2012-05-01T11:21:34.0000000+00:00</time></trkpt><trkpt lat="43.111713" lon="19.198355"><ele>1410.5</ele><time>2012-05-01T11:22:04.0000000+00:00</time></trkpt><trkpt lat="43.111198" lon="19.198349"><ele>1407.2</ele><time>2012-05-01T11:22:24.0000000+00:00</time></trkpt><trkpt lat="43.110619" lon="19.197639"><ele>1417.3</ele><time>2012-05-01T11:22:54.0000000+00:00</time></trkpt><trkpt lat="43.110329" lon="19.197636"><ele>1417.6</ele><time>2012-05-01T11:23:04.0000000+00:00</time></trkpt><trkpt lat="43.109726" lon="19.196955"><ele>1425.7</ele><time>2012-05-01T11:23:34.0000000+00:00</time></trkpt><trkpt lat="43.108917" lon="19.196476"><ele>1427.2</ele><time>2012-05-01T11:24:04.0000000+00:00</time></trkpt><trkpt lat="43.108463" lon="19.195375"><ele>1421.9</ele><time>2012-05-01T11:28:04.0000000+00:00</time></trkpt><trkpt lat="43.108307" lon="19.193661"><ele>1408.3</ele><time>2012-05-01T11:29:54.0000000+00:00</time></trkpt><trkpt lat="43.108654" lon="19.191103"><ele>1402.1</ele><time>2012-05-01T11:30:14.0000000+00:00</time></trkpt><trkpt lat="43.1092" lon="19.188726"><ele>1398.5</ele><time>2012-05-01T11:30:29.0000000+00:00</time></trkpt><trkpt lat="43.109264" lon="19.186928"><ele>1393.7</ele><time>2012-05-01T11:30:39.0000000+00:00</time></trkpt><trkpt lat="43.10902" lon="19.185286"><ele>1389.4</ele><time>2012-05-01T11:30:49.0000000+00:00</time></trkpt><trkpt lat="43.108814" lon="19.184645"><ele>1391.9</ele><time>2012-05-01T11:30:54.0000000+00:00</time></trkpt><trkpt lat="43.108261" lon="19.183741"><ele>1397.3</ele><time>2012-05-01T11:31:04.0000000+00:00</time></trkpt><trkpt lat="43.108276" lon="19.182495"><ele>1400.7</ele><time>2012-05-01T11:31:29.0000000+00:00</time></trkpt><trkpt lat="43.107948" lon="19.181513"><ele>1400.8</ele><time>2012-05-01T11:31:49.0000000+00:00</time></trkpt><trkpt lat="43.109581" lon="19.176455"><ele>1393.5</ele><time>2012-05-01T11:32:44.0000000+00:00</time></trkpt><trkpt lat="43.10952" lon="19.175983"><ele>1393.5</ele><time>2012-05-01T11:32:49.0000000+00:00</time></trkpt><trkpt lat="43.108932" lon="19.174726"><ele>1394.0</ele><time>2012-05-01T11:33:49.0000000+00:00</time></trkpt><trkpt lat="43.108124" lon="19.17087"><ele>1398.0</ele><time>2012-05-01T11:34:59.0000000+00:00</time></trkpt><trkpt lat="43.108192" lon="19.169329"><ele>1406.5</ele><time>2012-05-01T11:35:44.0000000+00:00</time></trkpt><trkpt lat="43.107231" lon="19.168655"><ele>1414.4</ele><time>2012-05-01T11:36:39.0000000+00:00</time></trkpt><trkpt lat="43.107002" lon="19.166933"><ele>1420.3</ele><time>2012-05-01T11:37:34.0000000+00:00</time></trkpt><trkpt lat="43.106159" lon="19.166218"><ele>1419.9</ele><time>2012-05-01T11:41:29.0000000+00:00</time></trkpt><trkpt lat="43.106022" lon="19.165224"><ele>1416.5</ele><time>2012-05-01T11:41:39.0000000+00:00</time></trkpt><trkpt lat="43.104942" lon="19.16189"><ele>1410.1</ele><time>2012-05-01T11:42:14.0000000+00:00</time></trkpt><trkpt lat="43.103512" lon="19.159613"><ele>1411.2</ele><time>2012-05-01T11:42:49.0000000+00:00</time></trkpt><trkpt lat="43.102875" lon="19.159431"><ele>1412.7</ele><time>2012-05-01T11:43:04.0000000+00:00</time></trkpt><trkpt lat="43.101616" lon="19.15867"><ele>1410.4</ele><time>2012-05-01T11:43:34.0000000+00:00</time></trkpt><trkpt lat="43.101467" lon="19.15806"><ele>1411.2</ele><time>2012-05-01T11:43:44.0000000+00:00</time></trkpt><trkpt lat="43.101742" lon="19.157028"><ele>1409.6</ele><time>2012-05-01T11:44:04.0000000+00:00</time></trkpt><trkpt lat="43.101677" lon="19.15675"><ele>1410.4</ele><time>2012-05-01T11:44:09.0000000+00:00</time></trkpt><trkpt lat="43.100807" lon="19.155411"><ele>1410.8</ele><time>2012-05-01T11:44:39.0000000+00:00</time></trkpt><trkpt lat="43.099777" lon="19.154591"><ele>1410.1</ele><time>2012-05-01T11:44:59.0000000+00:00</time></trkpt><trkpt lat="43.098545" lon="19.153919"><ele>1409.5</ele><time>2012-05-01T11:45:24.0000000+00:00</time></trkpt><trkpt lat="43.095692" lon="19.151642"><ele>1411.3</ele><time>2012-05-01T11:46:34.0000000+00:00</time></trkpt><trkpt lat="43.094212" lon="19.151756"><ele>1413.4</ele><time>2012-05-01T11:47:09.0000000+00:00</time></trkpt><trkpt lat="43.093868" lon="19.15159"><ele>1413.6</ele><time>2012-05-01T11:47:19.0000000+00:00</time></trkpt><trkpt lat="43.093605" lon="19.149517"><ele>1412.6</ele><time>2012-05-01T11:47:59.0000000+00:00</time></trkpt><trkpt lat="43.093403" lon="19.149096"><ele>1412.6</ele><time>2012-05-01T11:48:09.0000000+00:00</time></trkpt><trkpt lat="43.092587" lon="19.148708"><ele>1413.2</ele><time>2012-05-01T11:48:29.0000000+00:00</time></trkpt><trkpt lat="43.091877" lon="19.148729"><ele>1413.2</ele><time>2012-05-01T11:48:54.0000000+00:00</time></trkpt><trkpt lat="43.091476" lon="19.14797"><ele>1415.3</ele><time>2012-05-01T11:49:09.0000000+00:00</time></trkpt><trkpt lat="43.090683" lon="19.147675"><ele>1416.9</ele><time>2012-05-01T11:49:29.0000000+00:00</time></trkpt><trkpt lat="43.089638" lon="19.146641"><ele>1419.8</ele><time>2012-05-01T11:49:59.0000000+00:00</time></trkpt><trkpt lat="43.087914" lon="19.145977"><ele>1418.2</ele><time>2012-05-01T11:50:29.0000000+00:00</time></trkpt><trkpt lat="43.087341" lon="19.145176"><ele>1413.9</ele><time>2012-05-01T11:50:44.0000000+00:00</time></trkpt><trkpt lat="43.084332" lon="19.143806"><ele>1421.4</ele><time>2012-05-01T11:52:14.0000000+00:00</time></trkpt><trkpt lat="43.081009" lon="19.141987"><ele>1433.3</ele><time>2012-05-01T11:53:59.0000000+00:00</time></trkpt><trkpt lat="43.080402" lon="19.141481"><ele>1433.8</ele><time>2012-05-01T11:54:24.0000000+00:00</time></trkpt><trkpt lat="43.080555" lon="19.141144"><ele>1433.2</ele><time>2012-05-01T11:56:24.0000000+00:00</time></trkpt><trkpt lat="43.083847" lon="19.137859"><ele>1425.1</ele><time>2012-05-01T11:57:24.0000000+00:00</time></trkpt><trkpt lat="43.084267" lon="19.137503"><ele>1423.1</ele><time>2012-05-01T11:57:29.0000000+00:00</time></trkpt><trkpt lat="43.086327" lon="19.136541"><ele>1430.4</ele><time>2012-05-01T11:58:19.0000000+00:00</time></trkpt><trkpt lat="43.092472" lon="19.131643"><ele>1438.3</ele><time>2012-05-01T12:00:29.0000000+00:00</time></trkpt><trkpt lat="43.092819" lon="19.131283"><ele>1440.4</ele><time>2012-05-01T12:00:39.0000000+00:00</time></trkpt><trkpt lat="43.093243" lon="19.130363"><ele>1439.1</ele><time>2012-05-01T12:00:54.0000000+00:00</time></trkpt><trkpt lat="43.093586" lon="19.130087"><ele>1437.4</ele><time>2012-05-01T12:00:59.0000000+00:00</time></trkpt><trkpt lat="43.095154" lon="19.129898"><ele>1437.0</ele><time>2012-05-01T12:01:19.0000000+00:00</time></trkpt><trkpt lat="43.096256" lon="19.130337"><ele>1434.9</ele><time>2012-05-01T12:01:34.0000000+00:00</time></trkpt><trkpt lat="43.096699" lon="19.130722"><ele>1433.2</ele><time>2012-05-01T12:01:39.0000000+00:00</time></trkpt><trkpt lat="43.098499" lon="19.131002"><ele>1436.8</ele><time>2012-05-01T12:01:59.0000000+00:00</time></trkpt><trkpt lat="43.0998" lon="19.130512"><ele>1434.0</ele><time>2012-05-01T12:02:19.0000000+00:00</time></trkpt><trkpt lat="43.101376" lon="19.130476"><ele>1425.6</ele><time>2012-05-01T12:02:34.0000000+00:00</time></trkpt><trkpt lat="43.102913" lon="19.129395"><ele>1424.2</ele><time>2012-05-01T12:02:54.0000000+00:00</time></trkpt><trkpt lat="43.103786" lon="19.127699"><ele>1424.2</ele><time>2012-05-01T12:03:14.0000000+00:00</time></trkpt><trkpt lat="43.104439" lon="19.125622"><ele>1431.9</ele><time>2012-05-01T12:04:14.0000000+00:00</time></trkpt><trkpt lat="43.105515" lon="19.12521"><ele>1437.7</ele><time>2012-05-01T12:04:59.0000000+00:00</time></trkpt><trkpt lat="43.105904" lon="19.124109"><ele>1445.4</ele><time>2012-05-01T12:05:34.0000000+00:00</time></trkpt><trkpt lat="43.108742" lon="19.124798"><ele>1443.4</ele><time>2012-05-01T12:06:54.0000000+00:00</time></trkpt><trkpt lat="43.108749" lon="19.124565"><ele>1444.7</ele><time>2012-05-01T12:12:39.0000000+00:00</time></trkpt><trkpt lat="43.110397" lon="19.123623"><ele>1455.7</ele><time>2012-05-01T12:14:09.0000000+00:00</time></trkpt><trkpt lat="43.113064" lon="19.120729"><ele>1481.0</ele><time>2012-05-01T12:17:34.0000000+00:00</time></trkpt><trkpt lat="43.113297" lon="19.119219"><ele>1482.8</ele><time>2012-05-01T12:18:14.0000000+00:00</time></trkpt><trkpt lat="43.1138" lon="19.118353"><ele>1484.0</ele><time>2012-05-01T12:19:34.0000000+00:00</time></trkpt><trkpt lat="43.115147" lon="19.117279"><ele>1479.9</ele><time>2012-05-01T12:21:09.0000000+00:00</time></trkpt><trkpt lat="43.115772" lon="19.116512"><ele>1486.0</ele><time>2012-05-01T12:21:39.0000000+00:00</time></trkpt><trkpt lat="43.116337" lon="19.1141"><ele>1480.0</ele><time>2012-05-01T12:22:24.0000000+00:00</time></trkpt><trkpt lat="43.117599" lon="19.11301"><ele>1482.4</ele><time>2012-05-01T12:22:59.0000000+00:00</time></trkpt><trkpt lat="43.117874" lon="19.112465"><ele>1489.8</ele><time>2012-05-01T12:23:24.0000000+00:00</time></trkpt><trkpt lat="43.118778" lon="19.111509"><ele>1493.1</ele><time>2012-05-01T12:24:04.0000000+00:00</time></trkpt><trkpt lat="43.119781" lon="19.109818"><ele>1498.2</ele><time>2012-05-01T12:25:14.0000000+00:00</time></trkpt><trkpt lat="43.121502" lon="19.10924"><ele>1512.8</ele><time>2012-05-01T12:28:44.0000000+00:00</time></trkpt><trkpt lat="43.121468" lon="19.108931"><ele>1516.3</ele><time>2012-05-01T12:29:39.0000000+00:00</time></trkpt><trkpt lat="43.120693" lon="19.108538"><ele>1519.7</ele><time>2012-05-01T12:30:44.0000000+00:00</time></trkpt><trkpt lat="43.120724" lon="19.107729"><ele>1520.4</ele><time>2012-05-01T12:31:04.0000000+00:00</time></trkpt><trkpt lat="43.121124" lon="19.107279"><ele>1518.3</ele><time>2012-05-01T12:31:14.0000000+00:00</time></trkpt><trkpt lat="43.121811" lon="19.106974"><ele>1515.4</ele><time>2012-05-01T12:31:29.0000000+00:00</time></trkpt><trkpt lat="43.122604" lon="19.105448"><ele>1510.5</ele><time>2012-05-01T12:31:49.0000000+00:00</time></trkpt><trkpt lat="43.12294" lon="19.103924"><ele>1509.2</ele><time>2012-05-01T12:32:09.0000000+00:00</time></trkpt><trkpt lat="43.123539" lon="19.102961"><ele>1511.2</ele><time>2012-05-01T12:32:54.0000000+00:00</time></trkpt><trkpt lat="43.123837" lon="19.101852"><ele>1522.6</ele><time>2012-05-01T12:33:59.0000000+00:00</time></trkpt><trkpt lat="43.124329" lon="19.101273"><ele>1535.8</ele><time>2012-05-01T12:35:34.0000000+00:00</time></trkpt><trkpt lat="43.124535" lon="19.10034"><ele>1544.0</ele><time>2012-05-01T12:36:49.0000000+00:00</time></trkpt><trkpt lat="43.125664" lon="19.09836"><ele>1551.3</ele><time>2012-05-01T12:41:19.0000000+00:00</time></trkpt><trkpt lat="43.126911" lon="19.097839"><ele>1565.0</ele><time>2012-05-01T12:45:24.0000000+00:00</time></trkpt><trkpt lat="43.128929" lon="19.097521"><ele>1582.6</ele><time>2012-05-01T12:50:44.0000000+00:00</time></trkpt><trkpt lat="43.12981" lon="19.098356"><ele>1583.2</ele><time>2012-05-01T12:53:19.0000000+00:00</time></trkpt><trkpt lat="43.131207" lon="19.099024"><ele>1577.0</ele><time>2012-05-01T12:56:19.0000000+00:00</time></trkpt><trkpt lat="43.132683" lon="19.10022"><ele>1576.0</ele><time>2012-05-01T12:59:49.0000000+00:00</time></trkpt><trkpt lat="43.134312" lon="19.100655"><ele>1566.8</ele><time>2012-05-01T13:03:04.0000000+00:00</time></trkpt><trkpt lat="43.136333" lon="19.098289"><ele>1562.4</ele><time>2012-05-01T13:10:14.0000000+00:00</time></trkpt><trkpt lat="43.137577" lon="19.098158"><ele>1554.8</ele><time>2012-05-01T13:12:59.0000000+00:00</time></trkpt><trkpt lat="43.137486" lon="19.097994"><ele>1554.7</ele><time>2012-05-01T13:13:29.0000000+00:00</time></trkpt><trkpt lat="43.137726" lon="19.098236"><ele>1553.3</ele><time>2012-05-01T13:15:19.0000000+00:00</time></trkpt><trkpt lat="43.138283" lon="19.097992"><ele>1543.5</ele><time>2012-05-01T13:15:59.0000000+00:00</time></trkpt><trkpt lat="43.140797" lon="19.096304"><ele>1503.5</ele><time>2012-05-01T13:21:04.0000000+00:00</time></trkpt><trkpt lat="43.141865" lon="19.096748"><ele>1493.8</ele><time>2012-05-01T13:23:24.0000000+00:00</time></trkpt><trkpt lat="43.142796" lon="19.096413"><ele>1474.9</ele><time>2012-05-01T13:26:14.0000000+00:00</time></trkpt><trkpt lat="43.142731" lon="19.096216"><ele>1471.9</ele><time>2012-05-01T13:27:29.0000000+00:00</time></trkpt><trkpt lat="43.142876" lon="19.096052"><ele>1467.3</ele><time>2012-05-01T13:27:54.0000000+00:00</time></trkpt><trkpt lat="43.143547" lon="19.0959"><ele>1439.0</ele><time>2012-05-01T13:29:04.0000000+00:00</time></trkpt><trkpt lat="43.143524" lon="19.09569"><ele>1432.6</ele><time>2012-05-01T13:29:29.0000000+00:00</time></trkpt><trkpt lat="43.143982" lon="19.095882"><ele>1421.8</ele><time>2012-05-01T13:29:49.0000000+00:00</time></trkpt><trkpt lat="43.144257" lon="19.095629"><ele>1421.5</ele><time>2012-05-01T13:29:59.0000000+00:00</time></trkpt><trkpt lat="43.144081" lon="19.094942"><ele>1421.5</ele><time>2012-05-01T13:30:44.0000000+00:00</time></trkpt><trkpt lat="43.14423" lon="19.094477"><ele>1422.7</ele><time>2012-05-01T13:31:34.0000000+00:00</time></trkpt><trkpt lat="43.143867" lon="19.09514"><ele>1421.5</ele><time>2012-05-01T13:49:34.0000000+00:00</time></trkpt><trkpt lat="43.143795" lon="19.095638"><ele>1421.5</ele><time>2012-05-01T13:49:54.0000000+00:00</time></trkpt><trkpt lat="43.144005" lon="19.096601"><ele>1428.7</ele><time>2012-05-01T13:50:54.0000000+00:00</time></trkpt><trkpt lat="43.145481" lon="19.097425"><ele>1429.7</ele><time>2012-05-01T13:52:34.0000000+00:00</time></trkpt><trkpt lat="43.146" lon="19.097445"><ele>1448.6</ele><time>2012-05-01T13:52:59.0000000+00:00</time></trkpt><trkpt lat="43.146381" lon="19.096998"><ele>1443.9</ele><time>2012-05-01T13:54:04.0000000+00:00</time></trkpt><trkpt lat="43.146313" lon="19.096905"><ele>1438.6</ele><time>2012-05-01T13:54:24.0000000+00:00</time></trkpt><trkpt lat="43.146526" lon="19.097006"><ele>1447.6</ele><time>2012-05-01T13:54:39.0000000+00:00</time></trkpt><trkpt lat="43.146595" lon="19.097309"><ele>1449.3</ele><time>2012-05-01T13:54:49.0000000+00:00</time></trkpt><trkpt lat="43.147015" lon="19.097513"><ele>1434.3</ele><time>2012-05-01T13:55:39.0000000+00:00</time></trkpt><trkpt lat="43.148006" lon="19.09733"><ele>1438.8</ele><time>2012-05-01T13:57:44.0000000+00:00</time></trkpt><trkpt lat="43.148773" lon="19.099072"><ele>1446.3</ele><time>2012-05-01T13:58:34.0000000+00:00</time></trkpt><trkpt lat="43.151226" lon="19.10174"><ele>1429.7</ele><time>2012-05-01T13:59:29.0000000+00:00</time></trkpt><trkpt lat="43.151577" lon="19.101698"><ele>1427.2</ele><time>2012-05-01T13:59:34.0000000+00:00</time></trkpt><trkpt lat="43.152103" lon="19.101076"><ele>1425.6</ele><time>2012-05-01T13:59:44.0000000+00:00</time></trkpt><trkpt lat="43.152714" lon="19.100916"><ele>1418.8</ele><time>2012-05-01T13:59:54.0000000+00:00</time></trkpt><trkpt lat="43.153275" lon="19.100878"><ele>1423.6</ele><time>2012-05-01T14:00:04.0000000+00:00</time></trkpt><trkpt lat="43.153854" lon="19.101286"><ele>1422.1</ele><time>2012-05-01T14:00:19.0000000+00:00</time></trkpt><trkpt lat="43.15435" lon="19.102083"><ele>1419.2</ele><time>2012-05-01T14:00:34.0000000+00:00</time></trkpt><trkpt lat="43.154472" lon="19.103088"><ele>1418.4</ele><time>2012-05-01T14:00:49.0000000+00:00</time></trkpt><trkpt lat="43.154797" lon="19.103758"><ele>1419.3</ele><time>2012-05-01T14:00:59.0000000+00:00</time></trkpt><trkpt lat="43.154884" lon="19.104431"><ele>1417.8</ele><time>2012-05-01T14:01:09.0000000+00:00</time></trkpt><trkpt lat="43.154255" lon="19.106207"><ele>1427.8</ele><time>2012-05-01T14:01:39.0000000+00:00</time></trkpt><trkpt lat="43.153255" lon="19.106878"><ele>1428.7</ele><time>2012-05-01T14:02:09.0000000+00:00</time></trkpt><trkpt lat="43.153126" lon="19.107222"><ele>1433.8</ele><time>2012-05-01T14:02:14.0000000+00:00</time></trkpt><trkpt lat="43.153221" lon="19.108238"><ele>1430.1</ele><time>2012-05-01T14:02:29.0000000+00:00</time></trkpt><trkpt lat="43.152973" lon="19.109093"><ele>1439.8</ele><time>2012-05-01T14:02:44.0000000+00:00</time></trkpt><trkpt lat="43.153042" lon="19.109688"><ele>1439.9</ele><time>2012-05-01T14:02:59.0000000+00:00</time></trkpt><trkpt lat="43.152912" lon="19.110624"><ele>1451.7</ele><time>2012-05-01T14:03:24.0000000+00:00</time></trkpt><trkpt lat="43.153488" lon="19.113096"><ele>1449.8</ele><time>2012-05-01T14:04:19.0000000+00:00</time></trkpt><trkpt lat="43.153992" lon="19.114506"><ele>1443.0</ele><time>2012-05-01T14:04:44.0000000+00:00</time></trkpt><trkpt lat="43.154369" lon="19.116957"><ele>1447.4</ele><time>2012-05-01T14:05:34.0000000+00:00</time></trkpt><trkpt lat="43.155094" lon="19.119293"><ele>1447.7</ele><time>2012-05-01T14:06:14.0000000+00:00</time></trkpt><trkpt lat="43.155098" lon="19.120623"><ele>1441.6</ele><time>2012-05-01T14:06:34.0000000+00:00</time></trkpt><trkpt lat="43.15493" lon="19.120907"><ele>1443.1</ele><time>2012-05-01T14:07:14.0000000+00:00</time></trkpt><trkpt lat="43.157059" lon="19.121485"><ele>1435.9</ele><time>2012-05-01T14:09:04.0000000+00:00</time></trkpt><trkpt lat="43.155128" lon="19.120905"><ele>1441.1</ele><time>2012-05-01T14:10:24.0000000+00:00</time></trkpt><trkpt lat="43.154797" lon="19.122229"><ele>1444.3</ele><time>2012-05-01T14:10:54.0000000+00:00</time></trkpt><trkpt lat="43.154343" lon="19.122501"><ele>1449.2</ele><time>2012-05-01T14:11:44.0000000+00:00</time></trkpt><trkpt lat="43.154411" lon="19.12224"><ele>1448.5</ele><time>2012-05-01T14:41:39.0000000+00:00</time></trkpt><trkpt lat="43.154686" lon="19.12232"><ele>1445.5</ele><time>2012-05-01T14:41:49.0000000+00:00</time></trkpt><trkpt lat="43.154812" lon="19.122166"><ele>1444.3</ele><time>2012-05-01T14:41:54.0000000+00:00</time></trkpt><trkpt lat="43.155041" lon="19.121086"><ele>1442.7</ele><time>2012-05-01T14:42:59.0000000+00:00</time></trkpt><trkpt lat="43.155346" lon="19.121046"><ele>1442.5</ele><time>2012-05-01T14:43:14.0000000+00:00</time></trkpt><trkpt lat="43.155064" lon="19.120567"><ele>1442.1</ele><time>2012-05-01T14:43:44.0000000+00:00</time></trkpt><trkpt lat="43.15522" lon="19.119448"><ele>1446.4</ele><time>2012-05-01T14:44:09.0000000+00:00</time></trkpt><trkpt lat="43.154568" lon="19.1175"><ele>1447.6</ele><time>2012-05-01T14:44:54.0000000+00:00</time></trkpt><trkpt lat="43.154408" lon="19.116564"><ele>1445.0</ele><time>2012-05-01T14:45:44.0000000+00:00</time></trkpt><trkpt lat="43.154285" lon="19.116596"><ele>1447.4</ele><time>2012-05-01T14:46:49.0000000+00:00</time></trkpt><trkpt lat="43.154453" lon="19.116699"><ele>1444.8</ele><time>2012-05-01T14:49:14.0000000+00:00</time></trkpt><trkpt lat="43.154198" lon="19.116793"><ele>1450.0</ele><time>2012-05-01T14:49:54.0000000+00:00</time></trkpt><trkpt lat="43.154362" lon="19.116625"><ele>1446.2</ele><time>2012-05-01T14:50:54.0000000+00:00</time></trkpt><trkpt lat="43.155159" lon="19.119436"><ele>1446.8</ele><time>2012-05-01T14:52:14.0000000+00:00</time></trkpt><trkpt lat="43.154728" lon="19.122192"><ele>1445.3</ele><time>2012-05-01T14:53:04.0000000+00:00</time></trkpt><trkpt lat="43.154308" lon="19.12233"><ele>1449.9</ele><time>2012-05-01T16:02:14.0000000+00:00</time></trkpt><trkpt lat="43.154678" lon="19.122231"><ele>1445.9</ele><time>2012-05-01T16:02:54.0000000+00:00</time></trkpt><trkpt lat="43.154976" lon="19.121475"><ele>1444.5</ele><time>2012-05-01T16:03:14.0000000+00:00</time></trkpt><trkpt lat="43.156521" lon="19.121984"><ele>1446.1</ele><time>2012-05-01T16:03:44.0000000+00:00</time></trkpt><trkpt lat="43.157131" lon="19.122437"><ele>1441.4</ele><time>2012-05-01T16:03:54.0000000+00:00</time></trkpt><trkpt lat="43.158054" lon="19.124105"><ele>1446.7</ele><time>2012-05-01T16:04:19.0000000+00:00</time></trkpt><trkpt lat="43.158367" lon="19.125116"><ele>1445.2</ele><time>2012-05-01T16:06:04.0000000+00:00</time></trkpt><trkpt lat="43.158188" lon="19.126053"><ele>1446.4</ele><time>2012-05-01T16:06:14.0000000+00:00</time></trkpt><trkpt lat="43.158287" lon="19.12656"><ele>1451.5</ele><time>2012-05-01T16:06:19.0000000+00:00</time></trkpt><trkpt lat="43.158443" lon="19.126991"><ele>1455.4</ele><time>2012-05-01T16:06:24.0000000+00:00</time></trkpt><trkpt lat="43.158798" lon="19.12714"><ele>1446.8</ele><time>2012-05-01T16:06:59.0000000+00:00</time></trkpt><trkpt lat="43.15913" lon="19.127684"><ele>1440.8</ele><time>2012-05-01T16:07:09.0000000+00:00</time></trkpt><trkpt lat="43.1595" lon="19.128702"><ele>1434.7</ele><time>2012-05-01T16:07:19.0000000+00:00</time></trkpt><trkpt lat="43.159271" lon="19.130388"><ele>1430.4</ele><time>2012-05-01T16:07:29.0000000+00:00</time></trkpt><trkpt lat="43.159275" lon="19.131289"><ele>1418.2</ele><time>2012-05-01T16:07:34.0000000+00:00</time></trkpt><trkpt lat="43.159462" lon="19.132082"><ele>1413.1</ele><time>2012-05-01T16:07:39.0000000+00:00</time></trkpt><trkpt lat="43.160717" lon="19.135246"><ele>1408.2</ele><time>2012-05-01T16:08:04.0000000+00:00</time></trkpt><trkpt lat="43.16156" lon="19.136448"><ele>1406.4</ele><time>2012-05-01T16:08:19.0000000+00:00</time></trkpt><trkpt lat="43.161709" lon="19.137922"><ele>1406.8</ele><time>2012-05-01T16:08:24.0000000+00:00</time></trkpt><trkpt lat="43.162888" lon="19.140091"><ele>1402.7</ele><time>2012-05-01T16:08:54.0000000+00:00</time></trkpt><trkpt lat="43.162975" lon="19.14403"><ele>1386.5</ele><time>2012-05-01T16:09:19.0000000+00:00</time></trkpt><trkpt lat="43.163876" lon="19.150175"><ele>1361.8</ele><time>2012-05-01T16:09:54.0000000+00:00</time></trkpt><trkpt lat="43.16378" lon="19.155655"><ele>1346.9</ele><time>2012-05-01T16:10:34.0000000+00:00</time></trkpt><trkpt lat="43.164463" lon="19.159407"><ele>1339.8</ele><time>2012-05-01T16:10:59.0000000+00:00</time></trkpt><trkpt lat="43.164772" lon="19.163994"><ele>1334.9</ele><time>2012-05-01T16:11:34.0000000+00:00</time></trkpt><trkpt lat="43.165154" lon="19.16691"><ele>1332.6</ele><time>2012-05-01T16:11:59.0000000+00:00</time></trkpt><trkpt lat="43.164661" lon="19.174837"><ele>1319.9</ele><time>2012-05-01T16:13:04.0000000+00:00</time></trkpt><trkpt lat="43.165176" lon="19.180279"><ele>1307.8</ele><time>2012-05-01T16:13:49.0000000+00:00</time></trkpt><trkpt lat="43.165642" lon="19.182732"><ele>1304.3</ele><time>2012-05-01T16:14:09.0000000+00:00</time></trkpt><trkpt lat="43.165134" lon="19.184381"><ele>1311.9</ele><time>2012-05-01T16:14:24.0000000+00:00</time></trkpt><trkpt lat="43.164516" lon="19.187246"><ele>1314.2</ele><time>2012-05-01T16:14:59.0000000+00:00</time></trkpt><trkpt lat="43.164001" lon="19.188782"><ele>1314.8</ele><time>2012-05-01T16:16:24.0000000+00:00</time></trkpt><trkpt lat="43.164024" lon="19.189608"><ele>1311.3</ele><time>2012-05-01T16:18:54.0000000+00:00</time></trkpt><trkpt lat="43.163692" lon="19.19099"><ele>1315.1</ele><time>2012-05-01T16:19:19.0000000+00:00</time></trkpt><trkpt lat="43.162491" lon="19.198936"><ele>1293.9</ele><time>2012-05-01T16:20:24.0000000+00:00</time></trkpt><trkpt lat="43.161453" lon="19.202839"><ele>1290.0</ele><time>2012-05-01T16:21:04.0000000+00:00</time></trkpt><trkpt lat="43.159908" lon="19.206705"><ele>1290.0</ele><time>2012-05-01T16:21:49.0000000+00:00</time></trkpt><trkpt lat="43.15934" lon="19.207529"><ele>1288.2</ele><time>2012-05-01T16:21:59.0000000+00:00</time></trkpt><trkpt lat="43.15873" lon="19.20981"><ele>1288.0</ele><time>2012-05-01T16:22:24.0000000+00:00</time></trkpt><trkpt lat="43.157944" lon="19.211164"><ele>1291.9</ele><time>2012-05-01T16:22:39.0000000+00:00</time></trkpt><trkpt lat="43.157284" lon="19.211706"><ele>1289.3</ele><time>2012-05-01T16:22:49.0000000+00:00</time></trkpt><trkpt lat="43.156643" lon="19.211691"><ele>1298.1</ele><time>2012-05-01T16:23:04.0000000+00:00</time></trkpt><trkpt lat="43.156216" lon="19.212044"><ele>1301.0</ele><time>2012-05-01T16:23:34.0000000+00:00</time></trkpt><trkpt lat="43.15575" lon="19.211983"><ele>1314.2</ele><time>2012-05-01T16:23:49.0000000+00:00</time></trkpt><trkpt lat="43.154011" lon="19.212585"><ele>1313.4</ele><time>2012-05-01T16:24:44.0000000+00:00</time></trkpt><trkpt lat="43.153027" lon="19.21475"><ele>1303.5</ele><time>2012-05-01T16:25:14.0000000+00:00</time></trkpt><trkpt lat="43.15094" lon="19.216461"><ele>1298.6</ele><time>2012-05-01T16:25:44.0000000+00:00</time></trkpt><trkpt lat="43.149345" lon="19.219166"><ele>1293.7</ele><time>2012-05-01T16:26:09.0000000+00:00</time></trkpt><trkpt lat="43.14761" lon="19.220467"><ele>1298.0</ele><time>2012-05-01T16:26:39.0000000+00:00</time></trkpt><trkpt lat="43.146751" lon="19.222433"><ele>1301.8</ele><time>2012-05-01T16:27:04.0000000+00:00</time></trkpt><trkpt lat="43.145508" lon="19.223225"><ele>1306.7</ele><time>2012-05-01T16:27:39.0000000+00:00</time></trkpt><trkpt lat="43.143948" lon="19.225386"><ele>1297.6</ele><time>2012-05-01T16:28:14.0000000+00:00</time></trkpt><trkpt lat="43.143379" lon="19.226679"><ele>1296.8</ele><time>2012-05-01T16:28:29.0000000+00:00</time></trkpt><trkpt lat="43.143257" lon="19.227793"><ele>1298.1</ele><time>2012-05-01T16:28:39.0000000+00:00</time></trkpt><trkpt lat="43.143776" lon="19.23053"><ele>1298.6</ele><time>2012-05-01T16:29:09.0000000+00:00</time></trkpt><trkpt lat="43.144341" lon="19.23266"><ele>1301.0</ele><time>2012-05-01T16:29:39.0000000+00:00</time></trkpt><trkpt lat="43.144726" lon="19.233524"><ele>1305.2</ele><time>2012-05-01T16:29:54.0000000+00:00</time></trkpt><trkpt lat="43.145348" lon="19.234213"><ele>1306.9</ele><time>2012-05-01T16:30:19.0000000+00:00</time></trkpt><trkpt lat="43.147717" lon="19.235527"><ele>1328.7</ele><time>2012-05-01T16:32:09.0000000+00:00</time></trkpt><trkpt lat="43.148273" lon="19.23638"><ele>1335.3</ele><time>2012-05-01T16:32:39.0000000+00:00</time></trkpt><trkpt lat="43.148354" lon="19.237497"><ele>1333.4</ele><time>2012-05-01T16:32:59.0000000+00:00</time></trkpt><trkpt lat="43.147915" lon="19.239632"><ele>1351.3</ele><time>2012-05-01T16:33:34.0000000+00:00</time></trkpt><trkpt lat="43.148132" lon="19.240974"><ele>1358.9</ele><time>2012-05-01T16:33:59.0000000+00:00</time></trkpt><trkpt lat="43.148628" lon="19.242079"><ele>1345.5</ele><time>2012-05-01T16:34:29.0000000+00:00</time></trkpt><trkpt lat="43.148209" lon="19.243805"><ele>1356.5</ele><time>2012-05-01T16:34:54.0000000+00:00</time></trkpt><trkpt lat="43.148239" lon="19.245874"><ele>1322.3</ele><time>2012-05-01T16:35:19.0000000+00:00</time></trkpt><trkpt lat="43.149143" lon="19.247791"><ele>1323.0</ele><time>2012-05-01T16:35:49.0000000+00:00</time></trkpt><trkpt lat="43.148628" lon="19.249487"><ele>1347.6</ele><time>2012-05-01T16:35:54.0000000+00:00</time></trkpt><trkpt lat="43.149925" lon="19.250532"><ele>1349.5</ele><time>2012-05-01T16:36:24.0000000+00:00</time></trkpt><trkpt lat="43.150093" lon="19.251619"><ele>1348.3</ele><time>2012-05-01T16:36:39.0000000+00:00</time></trkpt><trkpt lat="43.14996" lon="19.252476"><ele>1353.1</ele><time>2012-05-01T16:36:54.0000000+00:00</time></trkpt><trkpt lat="43.150005" lon="19.252802"><ele>1348.7</ele><time>2012-05-01T16:36:59.0000000+00:00</time></trkpt><trkpt lat="43.150173" lon="19.25284"><ele>1340.3</ele><time>2012-05-01T16:37:14.0000000+00:00</time></trkpt><trkpt lat="43.150009" lon="19.253119"><ele>1345.9</ele><time>2012-05-01T16:38:14.0000000+00:00</time></trkpt><trkpt lat="43.150627" lon="19.254194"><ele>1317.8</ele><time>2012-05-01T16:38:49.0000000+00:00</time></trkpt><trkpt lat="43.150764" lon="19.255718"><ele>1306.0</ele><time>2012-05-01T16:39:04.0000000+00:00</time></trkpt><trkpt lat="43.151051" lon="19.256346"><ele>1305.5</ele><time>2012-05-01T16:39:09.0000000+00:00</time></trkpt><trkpt lat="43.15155" lon="19.256771"><ele>1304.5</ele><time>2012-05-01T16:39:14.0000000+00:00</time></trkpt><trkpt lat="43.152248" lon="19.258173"><ele>1291.3</ele><time>2012-05-01T16:39:24.0000000+00:00</time></trkpt><trkpt lat="43.152798" lon="19.258837"><ele>1286.8</ele><time>2012-05-01T16:39:34.0000000+00:00</time></trkpt><trkpt lat="43.152309" lon="19.258736"><ele>1284.5</ele><time>2012-05-01T16:39:44.0000000+00:00</time></trkpt><trkpt lat="43.151726" lon="19.257896"><ele>1278.9</ele><time>2012-05-01T16:39:54.0000000+00:00</time></trkpt><trkpt lat="43.15028" lon="19.25638"><ele>1276.6</ele><time>2012-05-01T16:40:14.0000000+00:00</time></trkpt><trkpt lat="43.150372" lon="19.25709"><ele>1263.0</ele><time>2012-05-01T16:40:29.0000000+00:00</time></trkpt><trkpt lat="43.151108" lon="19.258459"><ele>1243.8</ele><time>2012-05-01T16:40:44.0000000+00:00</time></trkpt><trkpt lat="43.151539" lon="19.259924"><ele>1236.6</ele><time>2012-05-01T16:40:54.0000000+00:00</time></trkpt><trkpt lat="43.151886" lon="19.260565"><ele>1232.7</ele><time>2012-05-01T16:40:59.0000000+00:00</time></trkpt><trkpt lat="43.152409" lon="19.261179"><ele>1232.9</ele><time>2012-05-01T16:41:04.0000000+00:00</time></trkpt><trkpt lat="43.153465" lon="19.261921"><ele>1247.2</ele><time>2012-05-01T16:41:14.0000000+00:00</time></trkpt><trkpt lat="43.153584" lon="19.262522"><ele>1232.8</ele><time>2012-05-01T16:41:19.0000000+00:00</time></trkpt><trkpt lat="43.153412" lon="19.263111"><ele>1229.8</ele><time>2012-05-01T16:41:24.0000000+00:00</time></trkpt><trkpt lat="43.152977" lon="19.263046"><ele>1229.0</ele><time>2012-05-01T16:41:29.0000000+00:00</time></trkpt><trkpt lat="43.149536" lon="19.264277"><ele>1214.5</ele><time>2012-05-01T16:41:54.0000000+00:00</time></trkpt><trkpt lat="43.149708" lon="19.265074"><ele>1203.7</ele><time>2012-05-01T16:41:59.0000000+00:00</time></trkpt><trkpt lat="43.149075" lon="19.268538"><ele>1167.8</ele><time>2012-05-01T16:42:19.0000000+00:00</time></trkpt><trkpt lat="43.148621" lon="19.269087"><ele>1148.7</ele><time>2012-05-01T16:42:24.0000000+00:00</time></trkpt><trkpt lat="43.14806" lon="19.26915"><ele>1136.1</ele><time>2012-05-01T16:42:29.0000000+00:00</time></trkpt><trkpt lat="43.147579" lon="19.268269"><ele>1160.3</ele><time>2012-05-01T16:42:39.0000000+00:00</time></trkpt><trkpt lat="43.147648" lon="19.268654"><ele>1144.0</ele><time>2012-05-01T16:42:44.0000000+00:00</time></trkpt><trkpt lat="43.148281" lon="19.269403"><ele>1133.2</ele><time>2012-05-01T16:42:54.0000000+00:00</time></trkpt><trkpt lat="43.148781" lon="19.269489"><ele>1139.3</ele><time>2012-05-01T16:42:59.0000000+00:00</time></trkpt><trkpt lat="43.149796" lon="19.268885"><ele>1146.5</ele><time>2012-05-01T16:43:09.0000000+00:00</time></trkpt><trkpt lat="43.150467" lon="19.267801"><ele>1146.0</ele><time>2012-05-01T16:43:59.0000000+00:00</time></trkpt><trkpt lat="43.150303" lon="19.269627"><ele>1113.6</ele><time>2012-05-01T16:44:34.0000000+00:00</time></trkpt><trkpt lat="43.149803" lon="19.270298"><ele>1098.0</ele><time>2012-05-01T16:44:59.0000000+00:00</time></trkpt><trkpt lat="43.150249" lon="19.271648"><ele>1075.9</ele><time>2012-05-01T16:45:19.0000000+00:00</time></trkpt><trkpt lat="43.150318" lon="19.272615"><ele>1062.9</ele><time>2012-05-01T16:45:34.0000000+00:00</time></trkpt><trkpt lat="43.149574" lon="19.272821"><ele>1051.6</ele><time>2012-05-01T16:45:49.0000000+00:00</time></trkpt><trkpt lat="43.148285" lon="19.27425"><ele>1041.9</ele><time>2012-05-01T16:46:14.0000000+00:00</time></trkpt><trkpt lat="43.148109" lon="19.275013"><ele>1041.7</ele><time>2012-05-01T16:46:24.0000000+00:00</time></trkpt><trkpt lat="43.147728" lon="19.275583"><ele>1046.8</ele><time>2012-05-01T16:46:34.0000000+00:00</time></trkpt><trkpt lat="43.147602" lon="19.276331"><ele>1047.0</ele><time>2012-05-01T16:46:49.0000000+00:00</time></trkpt><trkpt lat="43.147839" lon="19.276838"><ele>1036.0</ele><time>2012-05-01T16:46:59.0000000+00:00</time></trkpt><trkpt lat="43.148094" lon="19.27681"><ele>1026.3</ele><time>2012-05-01T16:47:04.0000000+00:00</time></trkpt><trkpt lat="43.148384" lon="19.277143"><ele>1019.1</ele><time>2012-05-01T16:47:14.0000000+00:00</time></trkpt><trkpt lat="43.148571" lon="19.275841"><ele>1006.6</ele><time>2012-05-01T16:47:34.0000000+00:00</time></trkpt><trkpt lat="43.149368" lon="19.275311"><ele>998.6</ele><time>2012-05-01T16:47:49.0000000+00:00</time></trkpt><trkpt lat="43.14986" lon="19.27537"><ele>993.5</ele><time>2012-05-01T16:49:14.0000000+00:00</time></trkpt><trkpt lat="43.150032" lon="19.275642"><ele>986.1</ele><time>2012-05-01T16:49:24.0000000+00:00</time></trkpt><trkpt lat="43.149815" lon="19.276457"><ele>977.8</ele><time>2012-05-01T16:49:39.0000000+00:00</time></trkpt><trkpt lat="43.150131" lon="19.279364"><ele>952.2</ele><time>2012-05-01T16:50:24.0000000+00:00</time></trkpt><trkpt lat="43.150539" lon="19.281313"><ele>938.1</ele><time>2012-05-01T16:50:39.0000000+00:00</time></trkpt><trkpt lat="43.150558" lon="19.282143"><ele>936.1</ele><time>2012-05-01T16:50:44.0000000+00:00</time></trkpt><trkpt lat="43.150265" lon="19.28397"><ele>924.6</ele><time>2012-05-01T16:50:54.0000000+00:00</time></trkpt><trkpt lat="43.150436" lon="19.286003"><ele>907.3</ele><time>2012-05-01T16:51:04.0000000+00:00</time></trkpt><trkpt lat="43.150723" lon="19.287344"><ele>896.3</ele><time>2012-05-01T16:51:14.0000000+00:00</time></trkpt><trkpt lat="43.150906" lon="19.287127"><ele>893.2</ele><time>2012-05-01T16:51:19.0000000+00:00</time></trkpt><trkpt lat="43.15065" lon="19.286097"><ele>893.3</ele><time>2012-05-01T16:51:29.0000000+00:00</time></trkpt><trkpt lat="43.150669" lon="19.284687"><ele>886.7</ele><time>2012-05-01T16:51:39.0000000+00:00</time></trkpt><trkpt lat="43.150787" lon="19.283901"><ele>889.0</ele><time>2012-05-01T16:51:44.0000000+00:00</time></trkpt><trkpt lat="43.15136" lon="19.282475"><ele>877.3</ele><time>2012-05-01T16:51:54.0000000+00:00</time></trkpt><trkpt lat="43.151283" lon="19.280859"><ele>872.9</ele><time>2012-05-01T16:52:04.0000000+00:00</time></trkpt><trkpt lat="43.151466" lon="19.279179"><ele>861.7</ele><time>2012-05-01T16:52:14.0000000+00:00</time></trkpt><trkpt lat="43.151821" lon="19.277668"><ele>846.6</ele><time>2012-05-01T16:52:24.0000000+00:00</time></trkpt><trkpt lat="43.152107" lon="19.277287"><ele>843.6</ele><time>2012-05-01T16:52:29.0000000+00:00</time></trkpt><trkpt lat="43.152222" lon="19.277466"><ele>836.7</ele><time>2012-05-01T16:52:34.0000000+00:00</time></trkpt><trkpt lat="43.151814" lon="19.278074"><ele>841.3</ele><time>2012-05-01T16:52:44.0000000+00:00</time></trkpt><trkpt lat="43.151653" lon="19.279051"><ele>845.5</ele><time>2012-05-01T16:52:54.0000000+00:00</time></trkpt><trkpt lat="43.151546" lon="19.280764"><ele>848.1</ele><time>2012-05-01T16:53:09.0000000+00:00</time></trkpt><trkpt lat="43.151852" lon="19.282373"><ele>844.6</ele><time>2012-05-01T16:53:24.0000000+00:00</time></trkpt><trkpt lat="43.15147" lon="19.285374"><ele>828.3</ele><time>2012-05-01T16:53:49.0000000+00:00</time></trkpt><trkpt lat="43.152081" lon="19.287775"><ele>807.7</ele><time>2012-05-01T16:54:09.0000000+00:00</time></trkpt><trkpt lat="43.151237" lon="19.289375"><ele>797.3</ele><time>2012-05-01T16:54:24.0000000+00:00</time></trkpt><trkpt lat="43.15078" lon="19.28964"><ele>789.3</ele><time>2012-05-01T16:54:29.0000000+00:00</time></trkpt><trkpt lat="43.1493" lon="19.289495"><ele>784.3</ele><time>2012-05-01T16:54:44.0000000+00:00</time></trkpt><trkpt lat="43.148914" lon="19.289946"><ele>784.1</ele><time>2012-05-01T16:54:49.0000000+00:00</time></trkpt><trkpt lat="43.148506" lon="19.292002"><ele>771.2</ele><time>2012-05-01T16:55:09.0000000+00:00</time></trkpt><trkpt lat="43.148273" lon="19.292181"><ele>767.4</ele><time>2012-05-01T16:55:24.0000000+00:00</time></trkpt><trkpt lat="43.14838" lon="19.29225"><ele>766.4</ele><time>2012-05-01T16:55:39.0000000+00:00</time></trkpt><trkpt lat="43.148193" lon="19.292194"><ele>767.0</ele><time>2012-05-01T16:56:54.0000000+00:00</time></trkpt><trkpt lat="43.14854" lon="19.292234"><ele>766.8</ele><time>2012-05-01T16:57:59.0000000+00:00</time></trkpt><trkpt lat="43.149101" lon="19.291851"><ele>771.6</ele><time>2012-05-01T17:01:09.0000000+00:00</time></trkpt><trkpt lat="43.148708" lon="19.29213"><ele>768.9</ele><time>2012-05-01T17:01:29.0000000+00:00</time></trkpt><trkpt lat="43.148647" lon="19.292374"><ele>763.6</ele><time>2012-05-01T17:01:39.0000000+00:00</time></trkpt><trkpt lat="43.149082" lon="19.293516"><ele>721.8</ele><time>2012-05-01T17:01:54.0000000+00:00</time></trkpt><trkpt lat="43.149837" lon="19.294704"><ele>713.6</ele><time>2012-05-01T17:05:24.0000000+00:00</time></trkpt><trkpt lat="43.151012" lon="19.295967"><ele>754.9</ele><time>2012-05-01T17:12:29.0000000+00:00</time></trkpt><trkpt lat="43.152687" lon="19.296246"><ele>790.0</ele><time>2012-05-01T17:13:59.0000000+00:00</time></trkpt><trkpt lat="43.154171" lon="19.295527"><ele>795.9</ele><time>2012-05-01T17:15:29.0000000+00:00</time></trkpt><trkpt lat="43.155411" lon="19.296267"><ele>809.3</ele><time>2012-05-01T17:16:44.0000000+00:00</time></trkpt><trkpt lat="43.156345" lon="19.296463"><ele>819.9</ele><time>2012-05-01T17:17:34.0000000+00:00</time></trkpt><trkpt lat="43.157223" lon="19.29607"><ele>814.6</ele><time>2012-05-01T17:18:24.0000000+00:00</time></trkpt><trkpt lat="43.158031" lon="19.294235"><ele>830.4</ele><time>2012-05-01T17:19:49.0000000+00:00</time></trkpt><trkpt lat="43.158489" lon="19.293976"><ele>839.0</ele><time>2012-05-01T17:20:09.0000000+00:00</time></trkpt><trkpt lat="43.158913" lon="19.293995"><ele>843.7</ele><time>2012-05-01T17:20:29.0000000+00:00</time></trkpt><trkpt lat="43.158978" lon="19.29261"><ele>829.8</ele><time>2012-05-01T17:22:04.0000000+00:00</time></trkpt></trkseg><trkseg><trkpt lat="43.158951" lon="19.29287"><ele>829.7</ele><time>2012-05-02T04:10:35.0000000+00:00</time></trkpt><trkpt lat="43.158939" lon="19.294039"><ele>844.1</ele><time>2012-05-02T04:12:45.0000000+00:00</time></trkpt><trkpt lat="43.15844" lon="19.293936"><ele>837.6</ele><time>2012-05-02T04:12:55.0000000+00:00</time></trkpt><trkpt lat="43.158085" lon="19.294132"><ele>830.7</ele><time>2012-05-02T04:13:00.0000000+00:00</time></trkpt><trkpt lat="43.157753" lon="19.294603"><ele>827.8</ele><time>2012-05-02T04:13:05.0000000+00:00</time></trkpt><trkpt lat="43.15736" lon="19.295813"><ele>816.3</ele><time>2012-05-02T04:13:15.0000000+00:00</time></trkpt><trkpt lat="43.157001" lon="19.296246"><ele>814.2</ele><time>2012-05-02T04:13:20.0000000+00:00</time></trkpt><trkpt lat="43.156006" lon="19.296387"><ele>816.6</ele><time>2012-05-02T04:13:30.0000000+00:00</time></trkpt><trkpt lat="43.153965" lon="19.295488"><ele>794.2</ele><time>2012-05-02T04:13:50.0000000+00:00</time></trkpt><trkpt lat="43.15292" lon="19.296154"><ele>786.8</ele><time>2012-05-02T04:14:00.0000000+00:00</time></trkpt><trkpt lat="43.152355" lon="19.29615"><ele>791.1</ele><time>2012-05-02T04:14:05.0000000+00:00</time></trkpt><trkpt lat="43.151207" lon="19.295984"><ele>767.1</ele><time>2012-05-02T04:14:15.0000000+00:00</time></trkpt><trkpt lat="43.150715" lon="19.295712"><ele>712.6</ele><time>2012-05-02T04:14:20.0000000+00:00</time></trkpt><trkpt lat="43.149269" lon="19.293869"><ele>715.6</ele><time>2012-05-02T04:14:40.0000000+00:00</time></trkpt><trkpt lat="43.148556" lon="19.292133"><ele>768.8</ele><time>2012-05-02T04:14:55.0000000+00:00</time></trkpt><trkpt lat="43.148872" lon="19.289888"><ele>784.5</ele><time>2012-05-02T04:15:10.0000000+00:00</time></trkpt><trkpt lat="43.149281" lon="19.289423"><ele>785.0</ele><time>2012-05-02T04:15:15.0000000+00:00</time></trkpt><trkpt lat="43.15049" lon="19.289665"><ele>787.5</ele><time>2012-05-02T04:15:25.0000000+00:00</time></trkpt><trkpt lat="43.151131" lon="19.289375"><ele>798.1</ele><time>2012-05-02T04:15:30.0000000+00:00</time></trkpt><trkpt lat="43.15202" lon="19.287804"><ele>812.1</ele><time>2012-05-02T04:15:40.0000000+00:00</time></trkpt><trkpt lat="43.151413" lon="19.285219"><ele>832.5</ele><time>2012-05-02T04:15:55.0000000+00:00</time></trkpt><trkpt lat="43.151779" lon="19.282379"><ele>849.6</ele><time>2012-05-02T04:16:15.0000000+00:00</time></trkpt><trkpt lat="43.151451" lon="19.280834"><ele>857.0</ele><time>2012-05-02T04:16:25.0000000+00:00</time></trkpt><trkpt lat="43.151596" lon="19.27821"><ele>862.5</ele><time>2012-05-02T04:16:40.0000000+00:00</time></trkpt><trkpt lat="43.152138" lon="19.277256"><ele>843.7</ele><time>2012-05-02T04:16:50.0000000+00:00</time></trkpt><trkpt lat="43.151913" lon="19.277191"><ele>859.5</ele><time>2012-05-02T04:16:55.0000000+00:00</time></trkpt><trkpt lat="43.151459" lon="19.278063"><ele>878.3</ele><time>2012-05-02T04:17:05.0000000+00:00</time></trkpt><trkpt lat="43.15107" lon="19.280834"><ele>893.5</ele><time>2012-05-02T04:17:25.0000000+00:00</time></trkpt><trkpt lat="43.151146" lon="19.282249"><ele>896.2</ele><time>2012-05-02T04:17:35.0000000+00:00</time></trkpt><trkpt lat="43.150467" lon="19.2845"><ele>905.1</ele><time>2012-05-02T04:17:50.0000000+00:00</time></trkpt><trkpt lat="43.15041" lon="19.286467"><ele>912.8</ele><time>2012-05-02T04:18:00.0000000+00:00</time></trkpt><trkpt lat="43.15062" lon="19.287449"><ele>895.7</ele><time>2012-05-02T04:18:10.0000000+00:00</time></trkpt><trkpt lat="43.150211" lon="19.285772"><ele>930.4</ele><time>2012-05-02T04:18:25.0000000+00:00</time></trkpt><trkpt lat="43.150085" lon="19.284081"><ele>940.5</ele><time>2012-05-02T04:18:35.0000000+00:00</time></trkpt><trkpt lat="43.150391" lon="19.282406"><ele>948.0</ele><time>2012-05-02T04:18:45.0000000+00:00</time></trkpt><trkpt lat="43.150394" lon="19.281473"><ele>950.3</ele><time>2012-05-02T04:18:50.0000000+00:00</time></trkpt><trkpt lat="43.150021" lon="19.279631"><ele>962.6</ele><time>2012-05-02T04:19:00.0000000+00:00</time></trkpt><trkpt lat="43.149937" lon="19.277805"><ele>963.7</ele><time>2012-05-02T04:19:10.0000000+00:00</time></trkpt><trkpt lat="43.150372" lon="19.275867"><ele>968.6</ele><time>2012-05-02T04:19:20.0000000+00:00</time></trkpt><trkpt lat="43.152157" lon="19.272655"><ele>980.0</ele><time>2012-05-02T04:19:45.0000000+00:00</time></trkpt><trkpt lat="43.152637" lon="19.27232"><ele>975.2</ele><time>2012-05-02T04:19:50.0000000+00:00</time></trkpt><trkpt lat="43.153786" lon="19.272167"><ele>980.1</ele><time>2012-05-02T04:20:00.0000000+00:00</time></trkpt><trkpt lat="43.154392" lon="19.271719"><ele>988.5</ele><time>2012-05-02T04:20:05.0000000+00:00</time></trkpt><trkpt lat="43.15786" lon="19.26804"><ele>1021.2</ele><time>2012-05-02T04:20:35.0000000+00:00</time></trkpt><trkpt lat="43.158478" lon="19.266037"><ele>1034.3</ele><time>2012-05-02T04:20:50.0000000+00:00</time></trkpt><trkpt lat="43.158314" lon="19.264639"><ele>1044.2</ele><time>2012-05-02T04:21:00.0000000+00:00</time></trkpt><trkpt lat="43.158958" lon="19.263191"><ele>1059.7</ele><time>2012-05-02T04:21:10.0000000+00:00</time></trkpt><trkpt lat="43.15947" lon="19.262625"><ele>1055.6</ele><time>2012-05-02T04:21:15.0000000+00:00</time></trkpt><trkpt lat="43.160553" lon="19.261885"><ele>1063.1</ele><time>2012-05-02T04:21:25.0000000+00:00</time></trkpt><trkpt lat="43.160572" lon="19.261587"><ele>1070.9</ele><time>2012-05-02T04:21:30.0000000+00:00</time></trkpt><trkpt lat="43.15984" lon="19.261969"><ele>1072.8</ele><time>2012-05-02T04:21:40.0000000+00:00</time></trkpt><trkpt lat="43.15863" lon="19.262096"><ele>1089.1</ele><time>2012-05-02T04:21:50.0000000+00:00</time></trkpt><trkpt lat="43.158031" lon="19.262472"><ele>1088.1</ele><time>2012-05-02T04:21:55.0000000+00:00</time></trkpt><trkpt lat="43.156887" lon="19.263304"><ele>1106.8</ele><time>2012-05-02T04:22:05.0000000+00:00</time></trkpt><trkpt lat="43.156487" lon="19.263931"><ele>1103.8</ele><time>2012-05-02T04:22:10.0000000+00:00</time></trkpt><trkpt lat="43.155865" lon="19.264315"><ele>1111.7</ele><time>2012-05-02T04:22:15.0000000+00:00</time></trkpt><trkpt lat="43.154697" lon="19.265474"><ele>1116.6</ele><time>2012-05-02T04:22:25.0000000+00:00</time></trkpt><trkpt lat="43.153522" lon="19.26623"><ele>1121.8</ele><time>2012-05-02T04:22:35.0000000+00:00</time></trkpt><trkpt lat="43.151485" lon="19.26618"><ele>1138.7</ele><time>2012-05-02T04:22:50.0000000+00:00</time></trkpt><trkpt lat="43.15094" lon="19.266649"><ele>1144.7</ele><time>2012-05-02T04:22:55.0000000+00:00</time></trkpt><trkpt lat="43.149624" lon="19.268892"><ele>1148.9</ele><time>2012-05-02T04:23:10.0000000+00:00</time></trkpt><trkpt lat="43.148933" lon="19.269247"><ele>1150.5</ele><time>2012-05-02T04:23:15.0000000+00:00</time></trkpt><trkpt lat="43.148338" lon="19.26897"><ele>1147.0</ele><time>2012-05-02T04:23:20.0000000+00:00</time></trkpt><trkpt lat="43.147915" lon="19.268379"><ele>1151.0</ele><time>2012-05-02T04:23:25.0000000+00:00</time></trkpt><trkpt lat="43.147808" lon="19.26799"><ele>1160.2</ele><time>2012-05-02T04:23:30.0000000+00:00</time></trkpt><trkpt lat="43.148067" lon="19.268141"><ele>1158.0</ele><time>2012-05-02T04:23:35.0000000+00:00</time></trkpt><trkpt lat="43.148319" lon="19.26862"><ele>1154.2</ele><time>2012-05-02T04:23:40.0000000+00:00</time></trkpt><trkpt lat="43.148769" lon="19.268793"><ele>1159.1</ele><time>2012-05-02T04:23:45.0000000+00:00</time></trkpt><trkpt lat="43.149654" lon="19.267868"><ele>1173.3</ele><time>2012-05-02T04:23:55.0000000+00:00</time></trkpt><trkpt lat="43.149937" lon="19.267183"><ele>1184.6</ele><time>2012-05-02T04:24:00.0000000+00:00</time></trkpt><trkpt lat="43.150673" lon="19.263699"><ele>1196.6</ele><time>2012-05-02T04:24:20.0000000+00:00</time></trkpt><trkpt lat="43.150368" lon="19.262081"><ele>1205.3</ele><time>2012-05-02T04:24:30.0000000+00:00</time></trkpt><trkpt lat="43.150585" lon="19.261473"><ele>1204.1</ele><time>2012-05-02T04:24:35.0000000+00:00</time></trkpt><trkpt lat="43.151119" lon="19.261408"><ele>1208.7</ele><time>2012-05-02T04:24:40.0000000+00:00</time></trkpt><trkpt lat="43.151676" lon="19.261728"><ele>1204.5</ele><time>2012-05-02T04:24:45.0000000+00:00</time></trkpt><trkpt lat="43.152584" lon="19.262913"><ele>1222.8</ele><time>2012-05-02T04:24:55.0000000+00:00</time></trkpt><trkpt lat="43.153206" lon="19.262901"><ele>1231.8</ele><time>2012-05-02T04:25:00.0000000+00:00</time></trkpt><trkpt lat="43.153587" lon="19.26228"><ele>1237.3</ele><time>2012-05-02T04:25:05.0000000+00:00</time></trkpt><trkpt lat="43.153393" lon="19.261646"><ele>1245.8</ele><time>2012-05-02T04:25:10.0000000+00:00</time></trkpt><trkpt lat="43.151787" lon="19.260105"><ele>1244.5</ele><time>2012-05-02T04:25:25.0000000+00:00</time></trkpt><trkpt lat="43.151112" lon="19.258345"><ele>1247.5</ele><time>2012-05-02T04:25:35.0000000+00:00</time></trkpt><trkpt lat="43.149872" lon="19.256714"><ele>1280.8</ele><time>2012-05-02T04:25:50.0000000+00:00</time></trkpt><trkpt lat="43.149998" lon="19.256556"><ele>1278.0</ele><time>2012-05-02T04:25:55.0000000+00:00</time></trkpt><trkpt lat="43.151524" lon="19.257853"><ele>1274.9</ele><time>2012-05-02T04:26:15.0000000+00:00</time></trkpt><trkpt lat="43.152271" lon="19.258787"><ele>1283.7</ele><time>2012-05-02T04:26:25.0000000+00:00</time></trkpt><trkpt lat="43.15271" lon="19.258955"><ele>1284.1</ele><time>2012-05-02T04:26:30.0000000+00:00</time></trkpt><trkpt lat="43.152859" lon="19.258665"><ele>1289.6</ele><time>2012-05-02T04:26:35.0000000+00:00</time></trkpt><trkpt lat="43.152222" lon="19.257963"><ele>1293.1</ele><time>2012-05-02T04:26:45.0000000+00:00</time></trkpt><trkpt lat="43.152012" lon="19.25724"><ele>1299.6</ele><time>2012-05-02T04:26:50.0000000+00:00</time></trkpt><trkpt lat="43.151634" lon="19.256618"><ele>1309.8</ele><time>2012-05-02T04:26:55.0000000+00:00</time></trkpt><trkpt lat="43.151115" lon="19.256218"><ele>1310.0</ele><time>2012-05-02T04:27:00.0000000+00:00</time></trkpt><trkpt lat="43.150803" lon="19.255589"><ele>1309.1</ele><time>2012-05-02T04:27:05.0000000+00:00</time></trkpt><trkpt lat="43.150742" lon="19.254009"><ele>1324.5</ele><time>2012-05-02T04:27:15.0000000+00:00</time></trkpt><trkpt lat="43.150105" lon="19.252657"><ele>1343.5</ele><time>2012-05-02T04:27:25.0000000+00:00</time></trkpt><trkpt lat="43.150299" lon="19.250553"><ele>1340.8</ele><time>2012-05-02T04:27:40.0000000+00:00</time></trkpt><trkpt lat="43.150036" lon="19.249813"><ele>1342.9</ele><time>2012-05-02T04:27:45.0000000+00:00</time></trkpt><trkpt lat="43.148266" lon="19.248323"><ele>1336.1</ele><time>2012-05-02T04:28:05.0000000+00:00</time></trkpt><trkpt lat="43.14764" lon="19.247028"><ele>1333.4</ele><time>2012-05-02T04:28:15.0000000+00:00</time></trkpt><trkpt lat="43.147564" lon="19.246124"><ele>1340.2</ele><time>2012-05-02T04:28:20.0000000+00:00</time></trkpt><trkpt lat="43.147705" lon="19.245218"><ele>1342.4</ele><time>2012-05-02T04:28:25.0000000+00:00</time></trkpt><trkpt lat="43.148273" lon="19.243614"><ele>1355.0</ele><time>2012-05-02T04:28:35.0000000+00:00</time></trkpt><trkpt lat="43.148254" lon="19.241016"><ele>1353.7</ele><time>2012-05-02T04:28:50.0000000+00:00</time></trkpt><trkpt lat="43.14793" lon="19.239372"><ele>1345.3</ele><time>2012-05-02T04:29:00.0000000+00:00</time></trkpt><trkpt lat="43.148338" lon="19.237564"><ele>1333.5</ele><time>2012-05-02T04:29:10.0000000+00:00</time></trkpt><trkpt lat="43.14838" lon="19.236666"><ele>1335.1</ele><time>2012-05-02T04:29:15.0000000+00:00</time></trkpt><trkpt lat="43.14809" lon="19.235846"><ele>1329.7</ele><time>2012-05-02T04:29:20.0000000+00:00</time></trkpt><trkpt lat="43.147537" lon="19.235275"><ele>1326.8</ele><time>2012-05-02T04:29:25.0000000+00:00</time></trkpt><trkpt lat="43.145367" lon="19.234137"><ele>1307.3</ele><time>2012-05-02T04:29:40.0000000+00:00</time></trkpt><trkpt lat="43.144783" lon="19.233561"><ele>1305.3</ele><time>2012-05-02T04:29:45.0000000+00:00</time></trkpt><trkpt lat="43.144367" lon="19.232637"><ele>1301.2</ele><time>2012-05-02T04:29:50.0000000+00:00</time></trkpt><trkpt lat="43.143375" lon="19.228743"><ele>1297.6</ele><time>2012-05-02T04:30:10.0000000+00:00</time></trkpt><trkpt lat="43.143211" lon="19.227095"><ele>1296.5</ele><time>2012-05-02T04:30:20.0000000+00:00</time></trkpt><trkpt lat="43.143406" lon="19.226183"><ele>1297.6</ele><time>2012-05-02T04:30:25.0000000+00:00</time></trkpt><trkpt lat="43.143791" lon="19.225426"><ele>1297.8</ele><time>2012-05-02T04:30:30.0000000+00:00</time></trkpt><trkpt lat="43.144947" lon="19.224047"><ele>1302.4</ele><time>2012-05-02T04:30:40.0000000+00:00</time></trkpt><trkpt lat="43.146854" lon="19.222246"><ele>1302.8</ele><time>2012-05-02T04:30:55.0000000+00:00</time></trkpt><trkpt lat="43.147556" lon="19.220589"><ele>1298.2</ele><time>2012-05-02T04:31:05.0000000+00:00</time></trkpt><trkpt lat="43.149406" lon="19.219086"><ele>1293.0</ele><time>2012-05-02T04:31:20.0000000+00:00</time></trkpt><trkpt lat="43.150867" lon="19.216747"><ele>1297.9</ele><time>2012-05-02T04:31:35.0000000+00:00</time></trkpt><trkpt lat="43.152813" lon="19.215334"><ele>1301.2</ele><time>2012-05-02T04:31:50.0000000+00:00</time></trkpt><trkpt lat="43.154072" lon="19.213184"><ele>1310.3</ele><time>2012-05-02T04:32:05.0000000+00:00</time></trkpt><trkpt lat="43.155239" lon="19.212753"><ele>1307.2</ele><time>2012-05-02T04:32:15.0000000+00:00</time></trkpt><trkpt lat="43.15659" lon="19.21196"><ele>1292.6</ele><time>2012-05-02T04:32:25.0000000+00:00</time></trkpt><trkpt lat="43.157364" lon="19.211765"><ele>1288.0</ele><time>2012-05-02T04:32:30.0000000+00:00</time></trkpt><trkpt lat="43.157944" lon="19.211309"><ele>1291.7</ele><time>2012-05-02T04:32:35.0000000+00:00</time></trkpt><trkpt lat="43.158859" lon="19.209915"><ele>1287.5</ele><time>2012-05-02T04:32:45.0000000+00:00</time></trkpt><trkpt lat="43.159344" lon="19.208141"><ele>1288.7</ele><time>2012-05-02T04:32:55.0000000+00:00</time></trkpt><trkpt lat="43.161766" lon="19.2019"><ele>1291.0</ele><time>2012-05-02T04:33:30.0000000+00:00</time></trkpt><trkpt lat="43.162701" lon="19.197947"><ele>1295.4</ele><time>2012-05-02T04:33:50.0000000+00:00</time></trkpt><trkpt lat="43.163754" lon="19.191181"><ele>1311.1</ele><time>2012-05-02T04:34:20.0000000+00:00</time></trkpt><trkpt lat="43.164185" lon="19.189358"><ele>1309.6</ele><time>2012-05-02T04:34:30.0000000+00:00</time></trkpt><trkpt lat="43.164318" lon="19.187656"><ele>1316.8</ele><time>2012-05-02T04:34:40.0000000+00:00</time></trkpt><trkpt lat="43.164642" lon="19.186844"><ele>1313.1</ele><time>2012-05-02T04:34:45.0000000+00:00</time></trkpt><trkpt lat="43.165157" lon="19.184076"><ele>1311.2</ele><time>2012-05-02T04:35:00.0000000+00:00</time></trkpt><trkpt lat="43.165638" lon="19.182472"><ele>1304.5</ele><time>2012-05-02T04:35:10.0000000+00:00</time></trkpt><trkpt lat="43.164631" lon="19.174986"><ele>1319.3</ele><time>2012-05-02T04:35:50.0000000+00:00</time></trkpt><trkpt lat="43.165169" lon="19.167007"><ele>1331.3</ele><time>2012-05-02T04:36:30.0000000+00:00</time></trkpt><trkpt lat="43.16478" lon="19.163931"><ele>1334.8</ele><time>2012-05-02T04:36:45.0000000+00:00</time></trkpt><trkpt lat="43.164444" lon="19.15929"><ele>1340.0</ele><time>2012-05-02T04:37:10.0000000+00:00</time></trkpt><trkpt lat="43.163776" lon="19.155487"><ele>1347.4</ele><time>2012-05-02T04:37:30.0000000+00:00</time></trkpt><trkpt lat="43.164009" lon="19.149963"><ele>1362.4</ele><time>2012-05-02T04:38:00.0000000+00:00</time></trkpt><trkpt lat="43.163097" lon="19.14357"><ele>1382.4</ele><time>2012-05-02T04:38:40.0000000+00:00</time></trkpt><trkpt lat="43.163006" lon="19.139591"><ele>1405.2</ele><time>2012-05-02T04:39:05.0000000+00:00</time></trkpt><trkpt lat="43.162483" lon="19.138144"><ele>1405.8</ele><time>2012-05-02T04:39:15.0000000+00:00</time></trkpt><trkpt lat="43.161259" lon="19.136663"><ele>1408.4</ele><time>2012-05-02T04:39:30.0000000+00:00</time></trkpt><trkpt lat="43.160706" lon="19.135664"><ele>1406.5</ele><time>2012-05-02T04:39:40.0000000+00:00</time></trkpt><trkpt lat="43.15979" lon="19.135527"><ele>1411.7</ele><time>2012-05-02T04:39:50.0000000+00:00</time></trkpt><trkpt lat="43.158142" lon="19.134514"><ele>1413.8</ele><time>2012-05-02T04:40:05.0000000+00:00</time></trkpt><trkpt lat="43.155277" lon="19.131342"><ele>1433.6</ele><time>2012-05-02T04:40:35.0000000+00:00</time></trkpt><trkpt lat="43.153534" lon="19.131151"><ele>1438.3</ele><time>2012-05-02T04:40:50.0000000+00:00</time></trkpt><trkpt lat="43.15247" lon="19.130543"><ele>1438.6</ele><time>2012-05-02T04:41:00.0000000+00:00</time></trkpt><trkpt lat="43.150475" lon="19.126455"><ele>1458.6</ele><time>2012-05-02T04:41:35.0000000+00:00</time></trkpt><trkpt lat="43.149647" lon="19.125364"><ele>1465.3</ele><time>2012-05-02T04:41:45.0000000+00:00</time></trkpt><trkpt lat="43.147114" lon="19.122786"><ele>1472.2</ele><time>2012-05-02T04:42:10.0000000+00:00</time></trkpt><trkpt lat="43.146503" lon="19.122368"><ele>1469.8</ele><time>2012-05-02T04:42:15.0000000+00:00</time></trkpt><trkpt lat="43.1432" lon="19.121347"><ele>1478.4</ele><time>2012-05-02T04:42:35.0000000+00:00</time></trkpt><trkpt lat="43.141022" lon="19.121162"><ele>1482.3</ele><time>2012-05-02T04:42:50.0000000+00:00</time></trkpt><trkpt lat="43.137447" lon="19.121914"><ele>1465.4</ele><time>2012-05-02T04:43:10.0000000+00:00</time></trkpt><trkpt lat="43.135326" lon="19.122688"><ele>1458.2</ele><time>2012-05-02T04:43:20.0000000+00:00</time></trkpt><trkpt lat="43.131134" lon="19.124336"><ele>1451.9</ele><time>2012-05-02T04:43:40.0000000+00:00</time></trkpt><trkpt lat="43.129288" lon="19.125647"><ele>1449.7</ele><time>2012-05-02T04:43:50.0000000+00:00</time></trkpt><trkpt lat="43.128307" lon="19.125828"><ele>1451.8</ele><time>2012-05-02T04:43:55.0000000+00:00</time></trkpt><trkpt lat="43.125385" lon="19.124674"><ele>1457.5</ele><time>2012-05-02T04:44:10.0000000+00:00</time></trkpt><trkpt lat="43.124409" lon="19.124491"><ele>1457.0</ele><time>2012-05-02T04:44:15.0000000+00:00</time></trkpt><trkpt lat="43.121613" lon="19.124807"><ele>1457.4</ele><time>2012-05-02T04:44:30.0000000+00:00</time></trkpt><trkpt lat="43.120773" lon="19.12447"><ele>1456.8</ele><time>2012-05-02T04:44:35.0000000+00:00</time></trkpt><trkpt lat="43.119217" lon="19.122898"><ele>1455.6</ele><time>2012-05-02T04:44:45.0000000+00:00</time></trkpt><trkpt lat="43.11834" lon="19.12232"><ele>1459.5</ele><time>2012-05-02T04:44:50.0000000+00:00</time></trkpt><trkpt lat="43.117367" lon="19.122076"><ele>1463.2</ele><time>2012-05-02T04:44:55.0000000+00:00</time></trkpt><trkpt lat="43.112286" lon="19.122164"><ele>1470.0</ele><time>2012-05-02T04:45:20.0000000+00:00</time></trkpt><trkpt lat="43.110641" lon="19.121855"><ele>1471.1</ele><time>2012-05-02T04:45:30.0000000+00:00</time></trkpt><trkpt lat="43.103439" lon="19.117382"><ele>1493.8</ele><time>2012-05-02T04:46:10.0000000+00:00</time></trkpt><trkpt lat="43.102627" lon="19.116438"><ele>1498.4</ele><time>2012-05-02T04:46:15.0000000+00:00</time></trkpt><trkpt lat="43.099663" lon="19.111145"><ele>1515.9</ele><time>2012-05-02T04:46:40.0000000+00:00</time></trkpt><trkpt lat="43.098949" lon="19.11055"><ele>1522.6</ele><time>2012-05-02T04:46:45.0000000+00:00</time></trkpt><trkpt lat="43.095787" lon="19.110163"><ele>1524.5</ele><time>2012-05-02T04:47:05.0000000+00:00</time></trkpt><trkpt lat="43.095009" lon="19.109957"><ele>1520.4</ele><time>2012-05-02T04:47:10.0000000+00:00</time></trkpt><trkpt lat="43.094307" lon="19.109497"><ele>1521.3</ele><time>2012-05-02T04:47:15.0000000+00:00</time></trkpt><trkpt lat="43.093704" lon="19.108757"><ele>1521.8</ele><time>2012-05-02T04:47:20.0000000+00:00</time></trkpt><trkpt lat="43.092705" lon="19.106621"><ele>1504.5</ele><time>2012-05-02T04:47:30.0000000+00:00</time></trkpt><trkpt lat="43.092056" lon="19.105652"><ele>1508.1</ele><time>2012-05-02T04:47:35.0000000+00:00</time></trkpt><trkpt lat="43.091198" lon="19.105066"><ele>1505.0</ele><time>2012-05-02T04:47:40.0000000+00:00</time></trkpt><trkpt lat="43.090279" lon="19.10494"><ele>1514.2</ele><time>2012-05-02T04:47:45.0000000+00:00</time></trkpt><trkpt lat="43.08839" lon="19.105125"><ele>1506.9</ele><time>2012-05-02T04:47:55.0000000+00:00</time></trkpt><trkpt lat="43.0868" lon="19.104113"><ele>1506.8</ele><time>2012-05-02T04:48:05.0000000+00:00</time></trkpt><trkpt lat="43.084248" lon="19.103653"><ele>1504.3</ele><time>2012-05-02T04:48:20.0000000+00:00</time></trkpt><trkpt lat="43.08342" lon="19.103155"><ele>1501.8</ele><time>2012-05-02T04:48:25.0000000+00:00</time></trkpt><trkpt lat="43.082558" lon="19.102915"><ele>1507.1</ele><time>2012-05-02T04:48:30.0000000+00:00</time></trkpt><trkpt lat="43.081699" lon="19.103127"><ele>1511.1</ele><time>2012-05-02T04:48:35.0000000+00:00</time></trkpt><trkpt lat="43.080143" lon="19.104551"><ele>1512.7</ele><time>2012-05-02T04:48:45.0000000+00:00</time></trkpt><trkpt lat="43.079308" lon="19.105009"><ele>1512.3</ele><time>2012-05-02T04:48:50.0000000+00:00</time></trkpt><trkpt lat="43.078476" lon="19.104801"><ele>1514.4</ele><time>2012-05-02T04:48:55.0000000+00:00</time></trkpt><trkpt lat="43.077866" lon="19.104103"><ele>1510.2</ele><time>2012-05-02T04:49:00.0000000+00:00</time></trkpt><trkpt lat="43.076633" lon="19.101009"><ele>1486.8</ele><time>2012-05-02T04:49:15.0000000+00:00</time></trkpt><trkpt lat="43.075977" lon="19.100431"><ele>1482.7</ele><time>2012-05-02T04:49:20.0000000+00:00</time></trkpt><trkpt lat="43.075157" lon="19.100361"><ele>1477.1</ele><time>2012-05-02T04:49:25.0000000+00:00</time></trkpt><trkpt lat="43.072857" lon="19.102262"><ele>1458.7</ele><time>2012-05-02T04:49:40.0000000+00:00</time></trkpt><trkpt lat="43.070122" lon="19.10364"><ele>1438.9</ele><time>2012-05-02T04:49:55.0000000+00:00</time></trkpt><trkpt lat="43.069332" lon="19.104286"><ele>1435.9</ele><time>2012-05-02T04:50:00.0000000+00:00</time></trkpt><trkpt lat="43.068279" lon="19.106009"><ele>1435.2</ele><time>2012-05-02T04:50:10.0000000+00:00</time></trkpt><trkpt lat="43.067688" lon="19.106522"><ele>1435.4</ele><time>2012-05-02T04:50:15.0000000+00:00</time></trkpt><trkpt lat="43.064861" lon="19.108168"><ele>1430.3</ele><time>2012-05-02T04:50:35.0000000+00:00</time></trkpt><trkpt lat="43.064079" lon="19.108246"><ele>1426.3</ele><time>2012-05-02T04:50:40.0000000+00:00</time></trkpt><trkpt lat="43.062462" lon="19.107435"><ele>1428.2</ele><time>2012-05-02T04:50:50.0000000+00:00</time></trkpt><trkpt lat="43.060776" lon="19.10714"><ele>1434.8</ele><time>2012-05-02T04:51:00.0000000+00:00</time></trkpt><trkpt lat="43.059978" lon="19.106762"><ele>1440.5</ele><time>2012-05-02T04:51:05.0000000+00:00</time></trkpt><trkpt lat="43.05933" lon="19.106024"><ele>1440.0</ele><time>2012-05-02T04:51:10.0000000+00:00</time></trkpt><trkpt lat="43.058418" lon="19.104107"><ele>1443.3</ele><time>2012-05-02T04:51:20.0000000+00:00</time></trkpt><trkpt lat="43.056286" lon="19.102634"><ele>1459.4</ele><time>2012-05-02T04:51:35.0000000+00:00</time></trkpt><trkpt lat="43.055683" lon="19.101892"><ele>1460.4</ele><time>2012-05-02T04:51:40.0000000+00:00</time></trkpt><trkpt lat="43.055229" lon="19.100935"><ele>1496.8</ele><time>2012-05-02T04:51:45.0000000+00:00</time></trkpt><trkpt lat="43.054958" lon="19.099913"><ele>1552.4</ele><time>2012-05-02T04:51:50.0000000+00:00</time></trkpt><trkpt lat="43.043365" lon="19.079168"><ele>1439.9</ele><time>2012-05-02T04:53:31.0000000+00:00</time></trkpt><trkpt lat="43.041664" lon="19.07933"><ele>1417.6</ele><time>2012-05-02T04:53:41.0000000+00:00</time></trkpt><trkpt lat="43.039005" lon="19.080643"><ele>1406.8</ele><time>2012-05-02T04:53:56.0000000+00:00</time></trkpt><trkpt lat="43.035831" lon="19.081867"><ele>1375.5</ele><time>2012-05-02T04:54:11.0000000+00:00</time></trkpt><trkpt lat="43.03484" lon="19.08252"><ele>1369.7</ele><time>2012-05-02T04:54:16.0000000+00:00</time></trkpt><trkpt lat="43.032181" lon="19.085068"><ele>1342.2</ele><time>2012-05-02T04:54:31.0000000+00:00</time></trkpt><trkpt lat="43.031441" lon="19.086098"><ele>1339.3</ele><time>2012-05-02T04:54:36.0000000+00:00</time></trkpt><trkpt lat="43.030167" lon="19.088449"><ele>1323.9</ele><time>2012-05-02T04:54:46.0000000+00:00</time></trkpt><trkpt lat="43.029392" lon="19.089392"><ele>1321.0</ele><time>2012-05-02T04:54:51.0000000+00:00</time></trkpt><trkpt lat="43.028473" lon="19.089931"><ele>1324.8</ele><time>2012-05-02T04:54:56.0000000+00:00</time></trkpt><trkpt lat="43.027489" lon="19.090075"><ele>1319.3</ele><time>2012-05-02T04:55:01.0000000+00:00</time></trkpt><trkpt lat="43.026512" lon="19.089832"><ele>1322.9</ele><time>2012-05-02T04:55:06.0000000+00:00</time></trkpt><trkpt lat="43.025558" lon="19.089319"><ele>1314.0</ele><time>2012-05-02T04:55:11.0000000+00:00</time></trkpt><trkpt lat="43.018707" lon="19.085344"><ele>1281.0</ele><time>2012-05-02T04:55:46.0000000+00:00</time></trkpt><trkpt lat="43.016697" lon="19.08371"><ele>1283.7</ele><time>2012-05-02T04:56:02.0000000+00:00</time></trkpt><trkpt lat="43.016041" lon="19.083405"><ele>1264.9</ele><time>2012-05-02T04:56:07.0000000+00:00</time></trkpt><trkpt lat="43.014561" lon="19.083452"><ele>1262.9</ele><time>2012-05-02T04:56:17.0000000+00:00</time></trkpt><trkpt lat="43.013893" lon="19.083147"><ele>1276.4</ele><time>2012-05-02T04:56:22.0000000+00:00</time></trkpt><trkpt lat="43.013428" lon="19.082415"><ele>1269.7</ele><time>2012-05-02T04:56:27.0000000+00:00</time></trkpt><trkpt lat="43.013199" lon="19.079336"><ele>1258.3</ele><time>2012-05-02T04:56:42.0000000+00:00</time></trkpt><trkpt lat="43.012691" lon="19.077341"><ele>1250.9</ele><time>2012-05-02T04:56:52.0000000+00:00</time></trkpt><trkpt lat="43.01228" lon="19.0765"><ele>1252.1</ele><time>2012-05-02T04:56:57.0000000+00:00</time></trkpt><trkpt lat="43.011627" lon="19.076065"><ele>1248.5</ele><time>2012-05-02T04:57:02.0000000+00:00</time></trkpt><trkpt lat="43.010906" lon="19.076155"><ele>1235.9</ele><time>2012-05-02T04:57:07.0000000+00:00</time></trkpt><trkpt lat="43.00959" lon="19.077351"><ele>1222.4</ele><time>2012-05-02T04:57:17.0000000+00:00</time></trkpt><trkpt lat="43.008755" lon="19.077709"><ele>1233.0</ele><time>2012-05-02T04:57:22.0000000+00:00</time></trkpt><trkpt lat="43.00478" lon="19.078125"><ele>1202.4</ele><time>2012-05-02T04:57:42.0000000+00:00</time></trkpt><trkpt lat="43.003761" lon="19.07789"><ele>1195.6</ele><time>2012-05-02T04:57:47.0000000+00:00</time></trkpt><trkpt lat="43.00069" lon="19.076653"><ele>1184.3</ele><time>2012-05-02T04:58:02.0000000+00:00</time></trkpt><trkpt lat="42.997581" lon="19.076155"><ele>1167.8</ele><time>2012-05-02T04:58:17.0000000+00:00</time></trkpt><trkpt lat="42.994637" lon="19.075066"><ele>1136.6</ele><time>2012-05-02T04:58:32.0000000+00:00</time></trkpt><trkpt lat="42.993027" lon="19.073912"><ele>1122.6</ele><time>2012-05-02T04:58:42.0000000+00:00</time></trkpt><trkpt lat="42.992176" lon="19.073702"><ele>1113.6</ele><time>2012-05-02T04:58:47.0000000+00:00</time></trkpt><trkpt lat="42.990326" lon="19.073788"><ele>1098.8</ele><time>2012-05-02T04:58:57.0000000+00:00</time></trkpt><trkpt lat="42.98954" lon="19.073565"><ele>1089.8</ele><time>2012-05-02T04:59:02.0000000+00:00</time></trkpt><trkpt lat="42.988403" lon="19.071873"><ele>1076.1</ele><time>2012-05-02T04:59:12.0000000+00:00</time></trkpt><trkpt lat="42.987625" lon="19.071283"><ele>1059.2</ele><time>2012-05-02T04:59:17.0000000+00:00</time></trkpt><trkpt lat="42.986805" lon="19.071037"><ele>1052.6</ele><time>2012-05-02T04:59:22.0000000+00:00</time></trkpt><trkpt lat="42.986126" lon="19.07139"><ele>1055.7</ele><time>2012-05-02T04:59:27.0000000+00:00</time></trkpt><trkpt lat="42.98497" lon="19.072781"><ele>1037.9</ele><time>2012-05-02T04:59:37.0000000+00:00</time></trkpt><trkpt lat="42.983505" lon="19.073586"><ele>1037.5</ele><time>2012-05-02T04:59:47.0000000+00:00</time></trkpt><trkpt lat="42.98048" lon="19.075811"><ele>1009.5</ele><time>2012-05-02T05:00:07.0000000+00:00</time></trkpt><trkpt lat="42.980007" lon="19.076813"><ele>1005.3</ele><time>2012-05-02T05:00:12.0000000+00:00</time></trkpt><trkpt lat="42.979897" lon="19.078007"><ele>995.6</ele><time>2012-05-02T05:00:17.0000000+00:00</time></trkpt><trkpt lat="42.980198" lon="19.080225"><ele>999.9</ele><time>2012-05-02T05:00:27.0000000+00:00</time></trkpt><trkpt lat="42.980148" lon="19.081291"><ele>991.6</ele><time>2012-05-02T05:00:32.0000000+00:00</time></trkpt><trkpt lat="42.979736" lon="19.082272"><ele>985.8</ele><time>2012-05-02T05:00:37.0000000+00:00</time></trkpt><trkpt lat="42.978992" lon="19.082918"><ele>969.5</ele><time>2012-05-02T05:00:42.0000000+00:00</time></trkpt><trkpt lat="42.976578" lon="19.083822"><ele>956.9</ele><time>2012-05-02T05:00:57.0000000+00:00</time></trkpt><trkpt lat="42.975048" lon="19.083855"><ele>948.4</ele><time>2012-05-02T05:01:07.0000000+00:00</time></trkpt><trkpt lat="42.973534" lon="19.084686"><ele>937.3</ele><time>2012-05-02T05:01:17.0000000+00:00</time></trkpt><trkpt lat="42.972797" lon="19.085299"><ele>936.5</ele><time>2012-05-02T05:01:22.0000000+00:00</time></trkpt><trkpt lat="42.970352" lon="19.086304"><ele>920.3</ele><time>2012-05-02T05:01:37.0000000+00:00</time></trkpt><trkpt lat="42.967537" lon="19.089144"><ele>891.5</ele><time>2012-05-02T05:01:57.0000000+00:00</time></trkpt><trkpt lat="42.964897" lon="19.089993"><ele>875.0</ele><time>2012-05-02T05:02:12.0000000+00:00</time></trkpt><trkpt lat="42.963509" lon="19.09129"><ele>864.5</ele><time>2012-05-02T05:02:22.0000000+00:00</time></trkpt><trkpt lat="42.962742" lon="19.091616"><ele>859.2</ele><time>2012-05-02T05:02:27.0000000+00:00</time></trkpt><trkpt lat="42.961555" lon="19.093037"><ele>851.8</ele><time>2012-05-02T05:02:37.0000000+00:00</time></trkpt><trkpt lat="42.960098" lon="19.093363"><ele>847.0</ele><time>2012-05-02T05:02:47.0000000+00:00</time></trkpt><trkpt lat="42.957691" lon="19.095051"><ele>829.5</ele><time>2012-05-02T05:03:12.0000000+00:00</time></trkpt><trkpt lat="42.957703" lon="19.096384"><ele>829.3</ele><time>2012-05-02T05:03:27.0000000+00:00</time></trkpt><trkpt lat="42.957588" lon="19.096539"><ele>829.8</ele><time>2012-05-02T05:03:32.0000000+00:00</time></trkpt><trkpt lat="42.957371" lon="19.096617"><ele>839.3</ele><time>2012-05-02T05:03:37.0000000+00:00</time></trkpt><trkpt lat="42.957031" lon="19.096069"><ele>836.8</ele><time>2012-05-02T05:03:47.0000000+00:00</time></trkpt><trkpt lat="42.956684" lon="19.096045"><ele>833.0</ele><time>2012-05-02T05:03:52.0000000+00:00</time></trkpt><trkpt lat="42.955097" lon="19.097446"><ele>837.5</ele><time>2012-05-02T05:04:07.0000000+00:00</time></trkpt><trkpt lat="42.953922" lon="19.098021"><ele>848.0</ele><time>2012-05-02T05:04:17.0000000+00:00</time></trkpt><trkpt lat="42.953117" lon="19.098011"><ele>845.7</ele><time>2012-05-02T05:04:27.0000000+00:00</time></trkpt><trkpt lat="42.952164" lon="19.098888"><ele>854.0</ele><time>2012-05-02T05:04:42.0000000+00:00</time></trkpt><trkpt lat="42.950405" lon="19.099962"><ele>851.0</ele><time>2012-05-02T05:05:02.0000000+00:00</time></trkpt><trkpt lat="42.950039" lon="19.099861"><ele>860.6</ele><time>2012-05-02T05:05:07.0000000+00:00</time></trkpt><trkpt lat="42.949825" lon="19.099543"><ele>859.6</ele><time>2012-05-02T05:05:12.0000000+00:00</time></trkpt><trkpt lat="42.950031" lon="19.099171"><ele>846.7</ele><time>2012-05-02T05:05:17.0000000+00:00</time></trkpt><trkpt lat="42.950466" lon="19.09911"><ele>840.1</ele><time>2012-05-02T05:05:22.0000000+00:00</time></trkpt><trkpt lat="42.951595" lon="19.097931"><ele>852.3</ele><time>2012-05-02T05:05:37.0000000+00:00</time></trkpt><trkpt lat="42.95187" lon="19.096643"><ele>872.9</ele><time>2012-05-02T05:05:47.0000000+00:00</time></trkpt><trkpt lat="42.952461" lon="19.095604"><ele>873.7</ele><time>2012-05-02T05:05:57.0000000+00:00</time></trkpt><trkpt lat="42.952171" lon="19.094213"><ele>885.5</ele><time>2012-05-02T05:06:12.0000000+00:00</time></trkpt><trkpt lat="42.951962" lon="19.09429"><ele>897.5</ele><time>2012-05-02T05:06:17.0000000+00:00</time></trkpt><trkpt lat="42.951942" lon="19.095369"><ele>896.1</ele><time>2012-05-02T05:06:27.0000000+00:00</time></trkpt><trkpt lat="42.951576" lon="19.095793"><ele>894.5</ele><time>2012-05-02T05:06:32.0000000+00:00</time></trkpt><trkpt lat="42.951172" lon="19.095947"><ele>896.4</ele><time>2012-05-02T05:06:37.0000000+00:00</time></trkpt><trkpt lat="42.950752" lon="19.096861"><ele>909.8</ele><time>2012-05-02T05:06:47.0000000+00:00</time></trkpt><trkpt lat="42.948563" lon="19.097214"><ele>925.7</ele><time>2012-05-02T05:07:07.0000000+00:00</time></trkpt><trkpt lat="42.948235" lon="19.097666"><ele>934.7</ele><time>2012-05-02T05:07:12.0000000+00:00</time></trkpt><trkpt lat="42.948097" lon="19.098322"><ele>927.7</ele><time>2012-05-02T05:07:17.0000000+00:00</time></trkpt><trkpt lat="42.947426" lon="19.099152"><ele>930.4</ele><time>2012-05-02T05:07:27.0000000+00:00</time></trkpt><trkpt lat="42.947315" lon="19.099958"><ele>935.3</ele><time>2012-05-02T05:07:37.0000000+00:00</time></trkpt><trkpt lat="42.947208" lon="19.099886"><ele>938.3</ele><time>2012-05-02T05:07:42.0000000+00:00</time></trkpt><trkpt lat="42.947262" lon="19.09874"><ele>937.6</ele><time>2012-05-02T05:07:52.0000000+00:00</time></trkpt><trkpt lat="42.947483" lon="19.097469"><ele>946.5</ele><time>2012-05-02T05:08:02.0000000+00:00</time></trkpt><trkpt lat="42.948185" lon="19.09594"><ele>961.6</ele><time>2012-05-02T05:08:12.0000000+00:00</time></trkpt><trkpt lat="42.948635" lon="19.095379"><ele>954.8</ele><time>2012-05-02T05:08:17.0000000+00:00</time></trkpt><trkpt lat="42.949444" lon="19.095165"><ele>959.5</ele><time>2012-05-02T05:08:27.0000000+00:00</time></trkpt><trkpt lat="42.949505" lon="19.094902"><ele>959.4</ele><time>2012-05-02T05:08:32.0000000+00:00</time></trkpt><trkpt lat="42.948559" lon="19.094839"><ele>966.7</ele><time>2012-05-02T05:08:47.0000000+00:00</time></trkpt><trkpt lat="42.947647" lon="19.095522"><ele>982.9</ele><time>2012-05-02T05:09:02.0000000+00:00</time></trkpt><trkpt lat="42.948349" lon="19.094501"><ele>979.9</ele><time>2012-05-02T05:09:17.0000000+00:00</time></trkpt><trkpt lat="42.949043" lon="19.093891"><ele>983.8</ele><time>2012-05-02T05:09:27.0000000+00:00</time></trkpt><trkpt lat="42.949135" lon="19.093386"><ele>990.5</ele><time>2012-05-02T05:09:32.0000000+00:00</time></trkpt><trkpt lat="42.94949" lon="19.092873"><ele>987.3</ele><time>2012-05-02T05:09:42.0000000+00:00</time></trkpt><trkpt lat="42.946785" lon="19.094805"><ele>1004.1</ele><time>2012-05-02T05:10:17.0000000+00:00</time></trkpt><trkpt lat="42.947094" lon="19.094097"><ele>1006.2</ele><time>2012-05-02T05:10:27.0000000+00:00</time></trkpt><trkpt lat="42.947922" lon="19.09318"><ele>1011.7</ele><time>2012-05-02T05:10:37.0000000+00:00</time></trkpt><trkpt lat="42.948597" lon="19.091816"><ele>1024.9</ele><time>2012-05-02T05:10:47.0000000+00:00</time></trkpt><trkpt lat="42.948853" lon="19.091675"><ele>1021.5</ele><time>2012-05-02T05:10:52.0000000+00:00</time></trkpt><trkpt lat="42.948681" lon="19.091516"><ele>1028.4</ele><time>2012-05-02T05:10:57.0000000+00:00</time></trkpt><trkpt lat="42.948322" lon="19.091751"><ele>1033.0</ele><time>2012-05-02T05:11:02.0000000+00:00</time></trkpt><trkpt lat="42.947563" lon="19.092579"><ele>1031.1</ele><time>2012-05-02T05:11:12.0000000+00:00</time></trkpt><trkpt lat="42.94614" lon="19.092863"><ele>1043.3</ele><time>2012-05-02T05:11:27.0000000+00:00</time></trkpt><trkpt lat="42.945919" lon="19.093245"><ele>1042.1</ele><time>2012-05-02T05:11:32.0000000+00:00</time></trkpt><trkpt lat="42.945827" lon="19.093121"><ele>1046.6</ele><time>2012-05-02T05:11:37.0000000+00:00</time></trkpt><trkpt lat="42.946228" lon="19.092405"><ele>1052.6</ele><time>2012-05-02T05:11:47.0000000+00:00</time></trkpt><trkpt lat="42.947044" lon="19.092003"><ele>1053.7</ele><time>2012-05-02T05:11:57.0000000+00:00</time></trkpt><trkpt lat="42.94796" lon="19.090502"><ele>1060.8</ele><time>2012-05-02T05:12:12.0000000+00:00</time></trkpt><trkpt lat="42.94875" lon="19.089947"><ele>1066.7</ele><time>2012-05-02T05:12:22.0000000+00:00</time></trkpt><trkpt lat="42.948898" lon="19.089401"><ele>1069.3</ele><time>2012-05-02T05:12:27.0000000+00:00</time></trkpt><trkpt lat="42.950401" lon="19.089361"><ele>1074.8</ele><time>2012-05-02T05:12:42.0000000+00:00</time></trkpt><trkpt lat="42.950634" lon="19.088907"><ele>1077.0</ele><time>2012-05-02T05:12:47.0000000+00:00</time></trkpt><trkpt lat="42.950035" lon="19.086506"><ele>1084.2</ele><time>2012-05-02T05:13:07.0000000+00:00</time></trkpt><trkpt lat="42.949837" lon="19.085999"><ele>1084.8</ele><time>2012-05-02T05:13:12.0000000+00:00</time></trkpt><trkpt lat="42.949467" lon="19.085802"><ele>1089.3</ele><time>2012-05-02T05:13:17.0000000+00:00</time></trkpt><trkpt lat="42.949055" lon="19.081892"><ele>1084.9</ele><time>2012-05-02T05:13:47.0000000+00:00</time></trkpt><trkpt lat="42.948093" lon="19.080618"><ele>1084.9</ele><time>2012-05-02T05:14:02.0000000+00:00</time></trkpt><trkpt lat="42.947388" lon="19.078842"><ele>1083.0</ele><time>2012-05-02T05:14:17.0000000+00:00</time></trkpt><trkpt lat="42.946671" lon="19.078342"><ele>1082.6</ele><time>2012-05-02T05:14:27.0000000+00:00</time></trkpt><trkpt lat="42.94648" lon="19.077185"><ele>1072.2</ele><time>2012-05-02T05:14:37.0000000+00:00</time></trkpt><trkpt lat="42.946121" lon="19.077019"><ele>1069.5</ele><time>2012-05-02T05:14:42.0000000+00:00</time></trkpt><trkpt lat="42.945751" lon="19.077139"><ele>1072.5</ele><time>2012-05-02T05:14:47.0000000+00:00</time></trkpt><trkpt lat="42.945492" lon="19.076748"><ele>1068.0</ele><time>2012-05-02T05:14:52.0000000+00:00</time></trkpt><trkpt lat="42.945805" lon="19.074856"><ele>1063.6</ele><time>2012-05-02T05:15:07.0000000+00:00</time></trkpt><trkpt lat="42.945797" lon="19.074144"><ele>1056.9</ele><time>2012-05-02T05:15:12.0000000+00:00</time></trkpt><trkpt lat="42.945484" lon="19.073532"><ele>1054.4</ele><time>2012-05-02T05:15:17.0000000+00:00</time></trkpt><trkpt lat="42.944515" lon="19.073099"><ele>1047.5</ele><time>2012-05-02T05:15:27.0000000+00:00</time></trkpt><trkpt lat="42.944111" lon="19.073158"><ele>1048.2</ele><time>2012-05-02T05:15:32.0000000+00:00</time></trkpt><trkpt lat="42.943768" lon="19.073509"><ele>1045.8</ele><time>2012-05-02T05:15:37.0000000+00:00</time></trkpt><trkpt lat="42.943363" lon="19.073412"><ele>1041.1</ele><time>2012-05-02T05:15:42.0000000+00:00</time></trkpt><trkpt lat="42.942341" lon="19.071951"><ele>1033.7</ele><time>2012-05-02T05:15:57.0000000+00:00</time></trkpt><trkpt lat="42.941891" lon="19.071703"><ele>1031.5</ele><time>2012-05-02T05:16:02.0000000+00:00</time></trkpt><trkpt lat="42.938351" lon="19.071808"><ele>1036.5</ele><time>2012-05-02T05:16:32.0000000+00:00</time></trkpt><trkpt lat="42.93412" lon="19.069788"><ele>1038.7</ele><time>2012-05-02T05:17:07.0000000+00:00</time></trkpt><trkpt lat="42.933037" lon="19.070196"><ele>1042.5</ele><time>2012-05-02T05:17:17.0000000+00:00</time></trkpt><trkpt lat="42.931381" lon="19.070282"><ele>1048.4</ele><time>2012-05-02T05:17:32.0000000+00:00</time></trkpt><trkpt lat="42.930458" lon="19.069958"><ele>1052.3</ele><time>2012-05-02T05:17:42.0000000+00:00</time></trkpt><trkpt lat="42.930153" lon="19.06958"><ele>1060.0</ele><time>2012-05-02T05:17:47.0000000+00:00</time></trkpt><trkpt lat="42.929848" lon="19.069635"><ele>1066.4</ele><time>2012-05-02T05:17:52.0000000+00:00</time></trkpt><trkpt lat="42.928467" lon="19.070747"><ele>1077.6</ele><time>2012-05-02T05:18:07.0000000+00:00</time></trkpt><trkpt lat="42.926979" lon="19.071255"><ele>1090.3</ele><time>2012-05-02T05:18:22.0000000+00:00</time></trkpt><trkpt lat="42.926498" lon="19.07217"><ele>1105.5</ele><time>2012-05-02T05:18:32.0000000+00:00</time></trkpt><trkpt lat="42.92638" lon="19.072853"><ele>1094.2</ele><time>2012-05-02T05:18:37.0000000+00:00</time></trkpt><trkpt lat="42.925987" lon="19.073303"><ele>1096.7</ele><time>2012-05-02T05:18:42.0000000+00:00</time></trkpt><trkpt lat="42.925484" lon="19.073505"><ele>1117.3</ele><time>2012-05-02T05:18:47.0000000+00:00</time></trkpt><trkpt lat="42.925083" lon="19.07485"><ele>1114.8</ele><time>2012-05-02T05:18:57.0000000+00:00</time></trkpt><trkpt lat="42.924221" lon="19.0767"><ele>1134.7</ele><time>2012-05-02T05:19:12.0000000+00:00</time></trkpt><trkpt lat="42.924263" lon="19.078096"><ele>1136.1</ele><time>2012-05-02T05:19:22.0000000+00:00</time></trkpt><trkpt lat="42.923752" lon="19.080254"><ele>1136.5</ele><time>2012-05-02T05:19:37.0000000+00:00</time></trkpt><trkpt lat="42.922428" lon="19.081776"><ele>1131.6</ele><time>2012-05-02T05:19:52.0000000+00:00</time></trkpt><trkpt lat="42.921204" lon="19.082006"><ele>1151.0</ele><time>2012-05-02T05:20:02.0000000+00:00</time></trkpt><trkpt lat="42.920124" lon="19.082796"><ele>1160.8</ele><time>2012-05-02T05:20:12.0000000+00:00</time></trkpt><trkpt lat="42.919254" lon="19.08499"><ele>1167.3</ele><time>2012-05-02T05:20:27.0000000+00:00</time></trkpt><trkpt lat="42.918488" lon="19.086443"><ele>1168.6</ele><time>2012-05-02T05:20:37.0000000+00:00</time></trkpt><trkpt lat="42.918358" lon="19.087145"><ele>1170.1</ele><time>2012-05-02T05:20:42.0000000+00:00</time></trkpt><trkpt lat="42.917774" lon="19.088129"><ele>1176.1</ele><time>2012-05-02T05:20:52.0000000+00:00</time></trkpt><trkpt lat="42.917606" lon="19.088787"><ele>1179.7</ele><time>2012-05-02T05:20:57.0000000+00:00</time></trkpt><trkpt lat="42.91721" lon="19.089354"><ele>1183.6</ele><time>2012-05-02T05:21:02.0000000+00:00</time></trkpt><trkpt lat="42.916718" lon="19.089622"><ele>1186.0</ele><time>2012-05-02T05:21:07.0000000+00:00</time></trkpt><trkpt lat="42.916447" lon="19.090057"><ele>1186.3</ele><time>2012-05-02T05:21:12.0000000+00:00</time></trkpt><trkpt lat="42.916313" lon="19.090685"><ele>1188.4</ele><time>2012-05-02T05:21:17.0000000+00:00</time></trkpt><trkpt lat="42.915913" lon="19.090818"><ele>1190.1</ele><time>2012-05-02T05:21:22.0000000+00:00</time></trkpt><trkpt lat="42.913391" lon="19.09017"><ele>1202.1</ele><time>2012-05-02T05:21:42.0000000+00:00</time></trkpt><trkpt lat="42.912663" lon="19.09025"><ele>1205.8</ele><time>2012-05-02T05:21:47.0000000+00:00</time></trkpt><trkpt lat="42.911007" lon="19.090956"><ele>1218.4</ele><time>2012-05-02T05:22:02.0000000+00:00</time></trkpt><trkpt lat="42.910717" lon="19.090647"><ele>1221.6</ele><time>2012-05-02T05:22:07.0000000+00:00</time></trkpt><trkpt lat="42.910564" lon="19.090069"><ele>1223.4</ele><time>2012-05-02T05:22:12.0000000+00:00</time></trkpt><trkpt lat="42.909222" lon="19.090221"><ele>1233.1</ele><time>2012-05-02T05:22:27.0000000+00:00</time></trkpt><trkpt lat="42.908508" lon="19.089472"><ele>1238.8</ele><time>2012-05-02T05:22:37.0000000+00:00</time></trkpt><trkpt lat="42.907059" lon="19.089329"><ele>1252.1</ele><time>2012-05-02T05:22:52.0000000+00:00</time></trkpt><trkpt lat="42.90696" lon="19.088865"><ele>1259.7</ele><time>2012-05-02T05:22:57.0000000+00:00</time></trkpt><trkpt lat="42.907089" lon="19.088354"><ele>1260.7</ele><time>2012-05-02T05:23:02.0000000+00:00</time></trkpt><trkpt lat="42.906826" lon="19.087969"><ele>1262.0</ele><time>2012-05-02T05:23:07.0000000+00:00</time></trkpt><trkpt lat="42.906002" lon="19.088005"><ele>1269.1</ele><time>2012-05-02T05:23:17.0000000+00:00</time></trkpt><trkpt lat="42.905632" lon="19.08782"><ele>1266.2</ele><time>2012-05-02T05:23:22.0000000+00:00</time></trkpt><trkpt lat="42.905083" lon="19.088257"><ele>1276.9</ele><time>2012-05-02T05:23:32.0000000+00:00</time></trkpt><trkpt lat="42.905075" lon="19.088507"><ele>1280.9</ele><time>2012-05-02T05:23:37.0000000+00:00</time></trkpt><trkpt lat="42.905743" lon="19.088285"><ele>1271.9</ele><time>2012-05-02T05:23:47.0000000+00:00</time></trkpt><trkpt lat="42.906242" lon="19.088852"><ele>1278.9</ele><time>2012-05-02T05:23:57.0000000+00:00</time></trkpt><trkpt lat="42.905746" lon="19.090105"><ele>1296.5</ele><time>2012-05-02T05:24:12.0000000+00:00</time></trkpt><trkpt lat="42.905807" lon="19.090855"><ele>1295.3</ele><time>2012-05-02T05:24:17.0000000+00:00</time></trkpt><trkpt lat="42.906036" lon="19.091537"><ele>1298.2</ele><time>2012-05-02T05:24:22.0000000+00:00</time></trkpt><trkpt lat="42.906464" lon="19.09185"><ele>1298.7</ele><time>2012-05-02T05:24:27.0000000+00:00</time></trkpt><trkpt lat="42.906578" lon="19.092299"><ele>1303.7</ele><time>2012-05-02T05:24:32.0000000+00:00</time></trkpt><trkpt lat="42.906181" lon="19.091909"><ele>1305.7</ele><time>2012-05-02T05:24:42.0000000+00:00</time></trkpt><trkpt lat="42.905743" lon="19.091892"><ele>1313.5</ele><time>2012-05-02T05:24:47.0000000+00:00</time></trkpt><trkpt lat="42.905415" lon="19.091513"><ele>1314.0</ele><time>2012-05-02T05:24:52.0000000+00:00</time></trkpt><trkpt lat="42.904861" lon="19.090265"><ele>1319.0</ele><time>2012-05-02T05:25:02.0000000+00:00</time></trkpt><trkpt lat="42.903973" lon="19.08975"><ele>1323.9</ele><time>2012-05-02T05:25:12.0000000+00:00</time></trkpt><trkpt lat="42.903507" lon="19.090012"><ele>1320.2</ele><time>2012-05-02T05:25:17.0000000+00:00</time></trkpt><trkpt lat="42.903313" lon="19.091116"><ele>1332.8</ele><time>2012-05-02T05:25:27.0000000+00:00</time></trkpt><trkpt lat="42.90292" lon="19.091297"><ele>1341.0</ele><time>2012-05-02T05:25:32.0000000+00:00</time></trkpt><trkpt lat="42.902435" lon="19.091181"><ele>1337.7</ele><time>2012-05-02T05:25:37.0000000+00:00</time></trkpt><trkpt lat="42.902035" lon="19.091442"><ele>1339.3</ele><time>2012-05-02T05:25:42.0000000+00:00</time></trkpt><trkpt lat="42.900932" lon="19.091248"><ele>1354.7</ele><time>2012-05-02T05:25:57.0000000+00:00</time></trkpt><trkpt lat="42.90052" lon="19.090036"><ele>1357.9</ele><time>2012-05-02T05:26:07.0000000+00:00</time></trkpt><trkpt lat="42.900612" lon="19.088839"><ele>1358.3</ele><time>2012-05-02T05:26:17.0000000+00:00</time></trkpt><trkpt lat="42.90052" lon="19.088629"><ele>1367.5</ele><time>2012-05-02T05:26:22.0000000+00:00</time></trkpt><trkpt lat="42.899998" lon="19.091827"><ele>1372.9</ele><time>2012-05-02T05:26:47.0000000+00:00</time></trkpt><trkpt lat="42.900715" lon="19.092844"><ele>1376.0</ele><time>2012-05-02T05:26:57.0000000+00:00</time></trkpt><trkpt lat="42.900867" lon="19.093267"><ele>1381.0</ele><time>2012-05-02T05:27:02.0000000+00:00</time></trkpt><trkpt lat="42.900738" lon="19.093538"><ele>1389.0</ele><time>2012-05-02T05:27:12.0000000+00:00</time></trkpt><trkpt lat="42.900253" lon="19.092793"><ele>1399.4</ele><time>2012-05-02T05:27:22.0000000+00:00</time></trkpt><trkpt lat="42.899757" lon="19.092415"><ele>1386.4</ele><time>2012-05-02T05:27:27.0000000+00:00</time></trkpt><trkpt lat="42.899414" lon="19.091719"><ele>1395.3</ele><time>2012-05-02T05:27:32.0000000+00:00</time></trkpt><trkpt lat="42.899502" lon="19.089808"><ele>1402.6</ele><time>2012-05-02T05:27:42.0000000+00:00</time></trkpt><trkpt lat="42.899273" lon="19.087826"><ele>1410.0</ele><time>2012-05-02T05:27:52.0000000+00:00</time></trkpt><trkpt lat="42.899403" lon="19.084923"><ele>1429.9</ele><time>2012-05-02T05:28:07.0000000+00:00</time></trkpt><trkpt lat="42.899052" lon="19.082951"><ele>1437.0</ele><time>2012-05-02T05:28:17.0000000+00:00</time></trkpt><trkpt lat="42.898655" lon="19.082094"><ele>1446.4</ele><time>2012-05-02T05:28:22.0000000+00:00</time></trkpt><trkpt lat="42.897594" lon="19.08083"><ele>1451.6</ele><time>2012-05-02T05:28:32.0000000+00:00</time></trkpt><trkpt lat="42.894863" lon="19.079325"><ele>1457.2</ele><time>2012-05-02T05:28:57.0000000+00:00</time></trkpt><trkpt lat="42.894047" lon="19.077974"><ele>1468.2</ele><time>2012-05-02T05:29:07.0000000+00:00</time></trkpt><trkpt lat="42.893703" lon="19.076342"><ele>1456.2</ele><time>2012-05-02T05:29:17.0000000+00:00</time></trkpt><trkpt lat="42.893967" lon="19.07449"><ele>1441.6</ele><time>2012-05-02T05:29:27.0000000+00:00</time></trkpt><trkpt lat="42.894745" lon="19.072592"><ele>1435.4</ele><time>2012-05-02T05:29:37.0000000+00:00</time></trkpt><trkpt lat="42.895023" lon="19.071451"><ele>1427.3</ele><time>2012-05-02T05:29:42.0000000+00:00</time></trkpt><trkpt lat="42.894909" lon="19.067802"><ele>1435.4</ele><time>2012-05-02T05:29:57.0000000+00:00</time></trkpt><trkpt lat="42.895023" lon="19.066891"><ele>1425.0</ele><time>2012-05-02T05:30:02.0000000+00:00</time></trkpt><trkpt lat="42.89537" lon="19.066078"><ele>1422.5</ele><time>2012-05-02T05:30:07.0000000+00:00</time></trkpt><trkpt lat="42.897461" lon="19.063814"><ele>1428.8</ele><time>2012-05-02T05:30:27.0000000+00:00</time></trkpt><trkpt lat="42.898109" lon="19.063692"><ele>1430.9</ele><time>2012-05-02T05:30:32.0000000+00:00</time></trkpt><trkpt lat="42.899498" lon="19.063871"><ele>1416.7</ele><time>2012-05-02T05:30:42.0000000+00:00</time></trkpt><trkpt lat="42.900806" lon="19.062948"><ele>1421.1</ele><time>2012-05-02T05:30:52.0000000+00:00</time></trkpt><trkpt lat="42.901348" lon="19.062275"><ele>1407.8</ele><time>2012-05-02T05:30:57.0000000+00:00</time></trkpt><trkpt lat="42.901676" lon="19.061392"><ele>1408.8</ele><time>2012-05-02T05:31:02.0000000+00:00</time></trkpt><trkpt lat="42.90176" lon="19.060354"><ele>1406.0</ele><time>2012-05-02T05:31:07.0000000+00:00</time></trkpt><trkpt lat="42.901863" lon="19.054207"><ele>1387.9</ele><time>2012-05-02T05:31:32.0000000+00:00</time></trkpt><trkpt lat="42.901207" lon="19.051817"><ele>1385.0</ele><time>2012-05-02T05:31:42.0000000+00:00</time></trkpt><trkpt lat="42.901043" lon="19.049276"><ele>1380.3</ele><time>2012-05-02T05:31:52.0000000+00:00</time></trkpt><trkpt lat="42.900726" lon="19.04809"><ele>1374.1</ele><time>2012-05-02T05:31:57.0000000+00:00</time></trkpt><trkpt lat="42.899727" lon="19.045923"><ele>1366.6</ele><time>2012-05-02T05:32:07.0000000+00:00</time></trkpt><trkpt lat="42.898945" lon="19.043615"><ele>1367.0</ele><time>2012-05-02T05:32:17.0000000+00:00</time></trkpt><trkpt lat="42.8983" lon="19.042768"><ele>1365.0</ele><time>2012-05-02T05:32:22.0000000+00:00</time></trkpt><trkpt lat="42.896858" lon="19.041437"><ele>1354.8</ele><time>2012-05-02T05:32:32.0000000+00:00</time></trkpt><trkpt lat="42.896378" lon="19.040499"><ele>1343.2</ele><time>2012-05-02T05:32:37.0000000+00:00</time></trkpt><trkpt lat="42.896198" lon="19.03936"><ele>1335.4</ele><time>2012-05-02T05:32:42.0000000+00:00</time></trkpt><trkpt lat="42.896366" lon="19.038202"><ele>1336.8</ele><time>2012-05-02T05:32:47.0000000+00:00</time></trkpt><trkpt lat="42.896835" lon="19.037193"><ele>1334.8</ele><time>2012-05-02T05:32:52.0000000+00:00</time></trkpt><trkpt lat="42.897495" lon="19.03657"><ele>1335.0</ele><time>2012-05-02T05:32:57.0000000+00:00</time></trkpt><trkpt lat="42.898983" lon="19.035734"><ele>1332.8</ele><time>2012-05-02T05:33:07.0000000+00:00</time></trkpt><trkpt lat="42.899536" lon="19.034941"><ele>1314.8</ele><time>2012-05-02T05:33:12.0000000+00:00</time></trkpt><trkpt lat="42.899933" lon="19.032961"><ele>1307.1</ele><time>2012-05-02T05:33:22.0000000+00:00</time></trkpt><trkpt lat="42.900517" lon="19.03124"><ele>1303.9</ele><time>2012-05-02T05:33:32.0000000+00:00</time></trkpt><trkpt lat="42.900467" lon="19.030127"><ele>1299.5</ele><time>2012-05-02T05:33:37.0000000+00:00</time></trkpt><trkpt lat="42.899681" lon="19.026155"><ele>1290.5</ele><time>2012-05-02T05:33:52.0000000+00:00</time></trkpt><trkpt lat="42.89957" lon="19.024942"><ele>1288.7</ele><time>2012-05-02T05:33:57.0000000+00:00</time></trkpt><trkpt lat="42.899715" lon="19.023802"><ele>1278.9</ele><time>2012-05-02T05:34:02.0000000+00:00</time></trkpt><trkpt lat="42.900093" lon="19.022669"><ele>1271.0</ele><time>2012-05-02T05:34:07.0000000+00:00</time></trkpt><trkpt lat="42.900715" lon="19.021719"><ele>1265.8</ele><time>2012-05-02T05:34:12.0000000+00:00</time></trkpt><trkpt lat="42.902222" lon="19.020332"><ele>1247.8</ele><time>2012-05-02T05:34:22.0000000+00:00</time></trkpt><trkpt lat="42.903172" lon="19.01833"><ele>1232.9</ele><time>2012-05-02T05:34:32.0000000+00:00</time></trkpt><trkpt lat="42.904312" lon="19.016506"><ele>1219.2</ele><time>2012-05-02T05:34:42.0000000+00:00</time></trkpt><trkpt lat="42.904636" lon="19.01548"><ele>1210.6</ele><time>2012-05-02T05:34:47.0000000+00:00</time></trkpt><trkpt lat="42.904621" lon="19.014297"><ele>1202.0</ele><time>2012-05-02T05:34:52.0000000+00:00</time></trkpt><trkpt lat="42.904243" lon="19.013235"><ele>1203.4</ele><time>2012-05-02T05:34:57.0000000+00:00</time></trkpt><trkpt lat="42.902264" lon="19.010885"><ele>1189.7</ele><time>2012-05-02T05:35:12.0000000+00:00</time></trkpt><trkpt lat="42.901817" lon="19.00992"><ele>1184.4</ele><time>2012-05-02T05:35:17.0000000+00:00</time></trkpt><trkpt lat="42.901737" lon="19.008793"><ele>1181.5</ele><time>2012-05-02T05:35:22.0000000+00:00</time></trkpt><trkpt lat="42.901852" lon="19.00773"><ele>1175.4</ele><time>2012-05-02T05:35:27.0000000+00:00</time></trkpt><trkpt lat="42.901722" lon="19.006777"><ele>1171.7</ele><time>2012-05-02T05:35:32.0000000+00:00</time></trkpt><trkpt lat="42.900631" lon="19.005264"><ele>1158.8</ele><time>2012-05-02T05:35:42.0000000+00:00</time></trkpt><trkpt lat="42.899948" lon="19.003128"><ele>1143.3</ele><time>2012-05-02T05:35:52.0000000+00:00</time></trkpt><trkpt lat="42.899113" lon="19.001163"><ele>1127.4</ele><time>2012-05-02T05:36:02.0000000+00:00</time></trkpt><trkpt lat="42.899025" lon="19.000101"><ele>1126.7</ele><time>2012-05-02T05:36:07.0000000+00:00</time></trkpt><trkpt lat="42.900047" lon="18.996088"><ele>1111.0</ele><time>2012-05-02T05:36:27.0000000+00:00</time></trkpt><trkpt lat="42.900787" lon="18.994196"><ele>1097.8</ele><time>2012-05-02T05:36:37.0000000+00:00</time></trkpt><trkpt lat="42.90089" lon="18.993116"><ele>1094.4</ele><time>2012-05-02T05:36:42.0000000+00:00</time></trkpt><trkpt lat="42.901581" lon="18.991365"><ele>1083.1</ele><time>2012-05-02T05:36:52.0000000+00:00</time></trkpt><trkpt lat="42.901524" lon="18.990425"><ele>1075.8</ele><time>2012-05-02T05:36:57.0000000+00:00</time></trkpt><trkpt lat="42.901192" lon="18.989536"><ele>1072.7</ele><time>2012-05-02T05:37:02.0000000+00:00</time></trkpt><trkpt lat="42.901119" lon="18.988607"><ele>1072.2</ele><time>2012-05-02T05:37:07.0000000+00:00</time></trkpt><trkpt lat="42.901512" lon="18.987825"><ele>1063.1</ele><time>2012-05-02T05:37:12.0000000+00:00</time></trkpt><trkpt lat="42.902588" lon="18.986586"><ele>1054.6</ele><time>2012-05-02T05:37:22.0000000+00:00</time></trkpt><trkpt lat="42.902672" lon="18.985653"><ele>1049.0</ele><time>2012-05-02T05:37:27.0000000+00:00</time></trkpt><trkpt lat="42.90255" lon="18.984663"><ele>1043.3</ele><time>2012-05-02T05:37:32.0000000+00:00</time></trkpt><trkpt lat="42.903084" lon="18.982647"><ele>1034.4</ele><time>2012-05-02T05:37:42.0000000+00:00</time></trkpt><trkpt lat="42.903149" lon="18.981529"><ele>1028.6</ele><time>2012-05-02T05:37:47.0000000+00:00</time></trkpt><trkpt lat="42.902893" lon="18.979231"><ele>1018.6</ele><time>2012-05-02T05:37:57.0000000+00:00</time></trkpt><trkpt lat="42.903431" lon="18.976933"><ele>1010.4</ele><time>2012-05-02T05:38:07.0000000+00:00</time></trkpt><trkpt lat="42.903633" lon="18.973145"><ele>992.1</ele><time>2012-05-02T05:38:22.0000000+00:00</time></trkpt><trkpt lat="42.904205" lon="18.97069"><ele>972.5</ele><time>2012-05-02T05:38:32.0000000+00:00</time></trkpt><trkpt lat="42.904125" lon="18.969561"><ele>964.5</ele><time>2012-05-02T05:38:37.0000000+00:00</time></trkpt><trkpt lat="42.902618" lon="18.964855"><ele>940.5</ele><time>2012-05-02T05:38:57.0000000+00:00</time></trkpt><trkpt lat="42.90242" lon="18.961012"><ele>937.3</ele><time>2012-05-02T05:39:12.0000000+00:00</time></trkpt><trkpt lat="42.902054" lon="18.960293"><ele>934.7</ele><time>2012-05-02T05:39:17.0000000+00:00</time></trkpt><trkpt lat="42.90131" lon="18.959997"><ele>932.2</ele><time>2012-05-02T05:39:27.0000000+00:00</time></trkpt><trkpt lat="42.900463" lon="18.961916"><ele>928.5</ele><time>2012-05-02T05:39:42.0000000+00:00</time></trkpt><trkpt lat="42.899189" lon="18.963297"><ele>913.0</ele><time>2012-05-02T05:39:52.0000000+00:00</time></trkpt><trkpt lat="42.89843" lon="18.963732"><ele>910.9</ele><time>2012-05-02T05:39:57.0000000+00:00</time></trkpt><trkpt lat="42.896946" lon="18.964024"><ele>911.2</ele><time>2012-05-02T05:40:07.0000000+00:00</time></trkpt><trkpt lat="42.895409" lon="18.963598"><ele>903.2</ele><time>2012-05-02T05:40:17.0000000+00:00</time></trkpt><trkpt lat="42.892338" lon="18.962172"><ele>897.5</ele><time>2012-05-02T05:40:32.0000000+00:00</time></trkpt><trkpt lat="42.889343" lon="18.96134"><ele>903.3</ele><time>2012-05-02T05:40:47.0000000+00:00</time></trkpt><trkpt lat="42.888577" lon="18.960802"><ele>901.0</ele><time>2012-05-02T05:40:52.0000000+00:00</time></trkpt><trkpt lat="42.888134" lon="18.959948"><ele>904.8</ele><time>2012-05-02T05:40:57.0000000+00:00</time></trkpt><trkpt lat="42.887859" lon="18.956844"><ele>897.5</ele><time>2012-05-02T05:41:12.0000000+00:00</time></trkpt><trkpt lat="42.886238" lon="18.953562"><ele>877.5</ele><time>2012-05-02T05:41:27.0000000+00:00</time></trkpt><trkpt lat="42.885975" lon="18.952391"><ele>870.3</ele><time>2012-05-02T05:41:32.0000000+00:00</time></trkpt><trkpt lat="42.885536" lon="18.951317"><ele>862.4</ele><time>2012-05-02T05:41:37.0000000+00:00</time></trkpt><trkpt lat="42.881481" lon="18.946123"><ele>825.4</ele><time>2012-05-02T05:42:07.0000000+00:00</time></trkpt><trkpt lat="42.880901" lon="18.943851"><ele>818.1</ele><time>2012-05-02T05:42:17.0000000+00:00</time></trkpt><trkpt lat="42.880478" lon="18.942774"><ele>820.8</ele><time>2012-05-02T05:42:22.0000000+00:00</time></trkpt><trkpt lat="42.878319" lon="18.940416"><ele>810.3</ele><time>2012-05-02T05:42:37.0000000+00:00</time></trkpt><trkpt lat="42.873703" lon="18.937872"><ele>777.6</ele><time>2012-05-02T05:43:02.0000000+00:00</time></trkpt><trkpt lat="42.872887" lon="18.93714"><ele>772.3</ele><time>2012-05-02T05:43:07.0000000+00:00</time></trkpt><trkpt lat="42.871094" lon="18.936153"><ele>757.8</ele><time>2012-05-02T05:43:17.0000000+00:00</time></trkpt><trkpt lat="42.867668" lon="18.933439"><ele>746.6</ele><time>2012-05-02T05:43:37.0000000+00:00</time></trkpt><trkpt lat="42.866722" lon="18.933043"><ele>739.5</ele><time>2012-05-02T05:43:42.0000000+00:00</time></trkpt><trkpt lat="42.865746" lon="18.933134"><ele>735.0</ele><time>2012-05-02T05:43:47.0000000+00:00</time></trkpt><trkpt lat="42.863277" lon="18.934446"><ele>733.0</ele><time>2012-05-02T05:44:02.0000000+00:00</time></trkpt><trkpt lat="42.863033" lon="18.935024"><ele>728.3</ele><time>2012-05-02T05:44:07.0000000+00:00</time></trkpt><trkpt lat="42.863125" lon="18.936687"><ele>725.0</ele><time>2012-05-02T05:44:17.0000000+00:00</time></trkpt><trkpt lat="42.863014" lon="18.937525"><ele>719.1</ele><time>2012-05-02T05:44:22.0000000+00:00</time></trkpt><trkpt lat="42.86269" lon="18.938313"><ele>714.4</ele><time>2012-05-02T05:44:27.0000000+00:00</time></trkpt><trkpt lat="42.862141" lon="18.938934"><ele>713.2</ele><time>2012-05-02T05:44:32.0000000+00:00</time></trkpt><trkpt lat="42.86145" lon="18.939255"><ele>706.2</ele><time>2012-05-02T05:44:37.0000000+00:00</time></trkpt><trkpt lat="42.860039" lon="18.939478"><ele>694.3</ele><time>2012-05-02T05:44:47.0000000+00:00</time></trkpt><trkpt lat="42.859379" lon="18.940027"><ele>684.9</ele><time>2012-05-02T05:44:52.0000000+00:00</time></trkpt><trkpt lat="42.858227" lon="18.942766"><ele>669.4</ele><time>2012-05-02T05:45:07.0000000+00:00</time></trkpt><trkpt lat="42.857746" lon="18.943176"><ele>669.2</ele><time>2012-05-02T05:45:12.0000000+00:00</time></trkpt><trkpt lat="42.8568" lon="18.942837"><ele>666.7</ele><time>2012-05-02T05:45:22.0000000+00:00</time></trkpt><trkpt lat="42.856171" lon="18.943493"><ele>661.6</ele><time>2012-05-02T05:45:32.0000000+00:00</time></trkpt><trkpt lat="42.855728" lon="18.943607"><ele>656.8</ele><time>2012-05-02T05:45:37.0000000+00:00</time></trkpt><trkpt lat="42.854103" lon="18.942909"><ele>650.7</ele><time>2012-05-02T05:45:52.0000000+00:00</time></trkpt><trkpt lat="42.853722" lon="18.942432"><ele>650.9</ele><time>2012-05-02T05:45:57.0000000+00:00</time></trkpt><trkpt lat="42.85355" lon="18.940861"><ele>650.5</ele><time>2012-05-02T05:46:07.0000000+00:00</time></trkpt><trkpt lat="42.853325" lon="18.940031"><ele>650.8</ele><time>2012-05-02T05:46:12.0000000+00:00</time></trkpt><trkpt lat="42.852947" lon="18.939409"><ele>652.1</ele><time>2012-05-02T05:46:17.0000000+00:00</time></trkpt><trkpt lat="42.851398" lon="18.938435"><ele>655.8</ele><time>2012-05-02T05:46:32.0000000+00:00</time></trkpt><trkpt lat="42.850311" lon="18.936588"><ele>653.3</ele><time>2012-05-02T05:46:47.0000000+00:00</time></trkpt><trkpt lat="42.849213" lon="18.935444"><ele>651.0</ele><time>2012-05-02T05:46:57.0000000+00:00</time></trkpt><trkpt lat="42.847321" lon="18.934273"><ele>648.6</ele><time>2012-05-02T05:47:12.0000000+00:00</time></trkpt><trkpt lat="42.843483" lon="18.929031"><ele>643.2</ele><time>2012-05-02T05:47:47.0000000+00:00</time></trkpt><trkpt lat="42.839771" lon="18.925247"><ele>634.5</ele><time>2012-05-02T05:48:17.0000000+00:00</time></trkpt><trkpt lat="42.835526" lon="18.92206"><ele>631.6</ele><time>2012-05-02T05:48:47.0000000+00:00</time></trkpt><trkpt lat="42.832806" lon="18.920504"><ele>631.7</ele><time>2012-05-02T05:49:07.0000000+00:00</time></trkpt><trkpt lat="42.830627" lon="18.919596"><ele>627.0</ele><time>2012-05-02T05:49:22.0000000+00:00</time></trkpt><trkpt lat="42.823547" lon="18.915449"><ele>624.5</ele><time>2012-05-02T05:50:12.0000000+00:00</time></trkpt><trkpt lat="42.823017" lon="18.915651"><ele>623.1</ele><time>2012-05-02T05:50:17.0000000+00:00</time></trkpt><trkpt lat="42.813503" lon="18.92362"><ele>619.0</ele><time>2012-05-02T05:51:22.0000000+00:00</time></trkpt><trkpt lat="42.811405" lon="18.925907"><ele>618.5</ele><time>2012-05-02T05:51:42.0000000+00:00</time></trkpt><trkpt lat="42.810375" lon="18.925819"><ele>619.6</ele><time>2012-05-02T05:51:57.0000000+00:00</time></trkpt><trkpt lat="42.809971" lon="18.926983"><ele>619.1</ele><time>2012-05-02T05:52:07.0000000+00:00</time></trkpt><trkpt lat="42.808102" lon="18.92939"><ele>620.0</ele><time>2012-05-02T05:52:22.0000000+00:00</time></trkpt><trkpt lat="42.80706" lon="18.931252"><ele>620.0</ele><time>2012-05-02T05:52:32.0000000+00:00</time></trkpt><trkpt lat="42.806503" lon="18.931946"><ele>621.5</ele><time>2012-05-02T05:52:37.0000000+00:00</time></trkpt><trkpt lat="42.805122" lon="18.932981"><ele>620.3</ele><time>2012-05-02T05:52:47.0000000+00:00</time></trkpt><trkpt lat="42.802189" lon="18.934643"><ele>620.2</ele><time>2012-05-02T05:53:07.0000000+00:00</time></trkpt><trkpt lat="42.797897" lon="18.935595"><ele>619.1</ele><time>2012-05-02T05:53:32.0000000+00:00</time></trkpt><trkpt lat="42.796265" lon="18.935768"><ele>620.3</ele><time>2012-05-02T05:53:42.0000000+00:00</time></trkpt><trkpt lat="42.794888" lon="18.935417"><ele>619.8</ele><time>2012-05-02T05:53:52.0000000+00:00</time></trkpt><trkpt lat="42.79377" lon="18.934456"><ele>621.4</ele><time>2012-05-02T05:57:02.0000000+00:00</time></trkpt><trkpt lat="42.79277" lon="18.932934"><ele>620.0</ele><time>2012-05-02T05:57:22.0000000+00:00</time></trkpt><trkpt lat="42.792614" lon="18.932293"><ele>621.7</ele><time>2012-05-02T05:57:27.0000000+00:00</time></trkpt><trkpt lat="42.792892" lon="18.930582"><ele>621.9</ele><time>2012-05-02T05:57:37.0000000+00:00</time></trkpt><trkpt lat="42.793427" lon="18.92865"><ele>621.7</ele><time>2012-05-02T05:57:47.0000000+00:00</time></trkpt><trkpt lat="42.794529" lon="18.925611"><ele>620.7</ele><time>2012-05-02T05:58:07.0000000+00:00</time></trkpt><trkpt lat="42.794579" lon="18.925055"><ele>620.9</ele><time>2012-05-02T05:58:12.0000000+00:00</time></trkpt><trkpt lat="42.793686" lon="18.924406"><ele>620.7</ele><time>2012-05-02T05:58:32.0000000+00:00</time></trkpt><trkpt lat="42.790295" lon="18.927868"><ele>620.9</ele><time>2012-05-02T05:59:07.0000000+00:00</time></trkpt><trkpt lat="42.789692" lon="18.928219"><ele>626.6</ele><time>2012-05-02T05:59:12.0000000+00:00</time></trkpt><trkpt lat="42.788555" lon="18.928385"><ele>622.2</ele><time>2012-05-02T05:59:22.0000000+00:00</time></trkpt><trkpt lat="42.784679" lon="18.928223"><ele>624.6</ele><time>2012-05-02T05:59:47.0000000+00:00</time></trkpt><trkpt lat="42.783241" lon="18.928576"><ele>634.4</ele><time>2012-05-02T06:00:02.0000000+00:00</time></trkpt><trkpt lat="42.782375" lon="18.929455"><ele>641.9</ele><time>2012-05-02T06:00:12.0000000+00:00</time></trkpt><trkpt lat="42.782017" lon="18.930162"><ele>641.7</ele><time>2012-05-02T06:00:17.0000000+00:00</time></trkpt><trkpt lat="42.781311" lon="18.932838"><ele>639.7</ele><time>2012-05-02T06:00:32.0000000+00:00</time></trkpt><trkpt lat="42.780972" lon="18.933601"><ele>637.3</ele><time>2012-05-02T06:00:37.0000000+00:00</time></trkpt><trkpt lat="42.780354" lon="18.934387"><ele>635.3</ele><time>2012-05-02T06:00:52.0000000+00:00</time></trkpt><trkpt lat="42.781055" lon="18.933493"><ele>637.2</ele><time>2012-05-02T06:02:17.0000000+00:00</time></trkpt><trkpt lat="42.78196" lon="18.930511"><ele>639.0</ele><time>2012-05-02T06:02:32.0000000+00:00</time></trkpt><trkpt lat="42.782757" lon="18.929028"><ele>641.8</ele><time>2012-05-02T06:02:42.0000000+00:00</time></trkpt><trkpt lat="42.783886" lon="18.928389"><ele>626.8</ele><time>2012-05-02T06:02:52.0000000+00:00</time></trkpt><trkpt lat="42.78437" lon="18.928352"><ele>623.1</ele><time>2012-05-02T06:02:57.0000000+00:00</time></trkpt><trkpt lat="42.784584" lon="18.928692"><ele>623.1</ele><time>2012-05-02T06:03:02.0000000+00:00</time></trkpt><trkpt lat="42.784389" lon="18.929119"><ele>622.4</ele><time>2012-05-02T06:03:07.0000000+00:00</time></trkpt><trkpt lat="42.784054" lon="18.929186"><ele>623.1</ele><time>2012-05-02T06:03:12.0000000+00:00</time></trkpt><trkpt lat="42.783722" lon="18.927217"><ele>624.3</ele><time>2012-05-02T06:03:27.0000000+00:00</time></trkpt><trkpt lat="42.783142" lon="18.925556"><ele>621.6</ele><time>2012-05-02T06:03:37.0000000+00:00</time></trkpt><trkpt lat="42.782276" lon="18.924164"><ele>620.3</ele><time>2012-05-02T06:03:47.0000000+00:00</time></trkpt><trkpt lat="42.781216" lon="18.923103"><ele>614.8</ele><time>2012-05-02T06:03:57.0000000+00:00</time></trkpt><trkpt lat="42.780579" lon="18.921846"><ele>610.8</ele><time>2012-05-02T06:04:07.0000000+00:00</time></trkpt><trkpt lat="42.780533" lon="18.915804"><ele>618.3</ele><time>2012-05-02T06:04:42.0000000+00:00</time></trkpt><trkpt lat="42.779942" lon="18.907949"><ele>616.1</ele><time>2012-05-02T06:05:22.0000000+00:00</time></trkpt><trkpt lat="42.779232" lon="18.905272"><ele>615.1</ele><time>2012-05-02T06:05:37.0000000+00:00</time></trkpt><trkpt lat="42.776768" lon="18.899588"><ele>623.1</ele><time>2012-05-02T06:06:12.0000000+00:00</time></trkpt><trkpt lat="42.776428" lon="18.89819"><ele>623.9</ele><time>2012-05-02T06:06:22.0000000+00:00</time></trkpt><trkpt lat="42.776413" lon="18.896671"><ele>630.4</ele><time>2012-05-02T06:06:32.0000000+00:00</time></trkpt><trkpt lat="42.776848" lon="18.891109"><ele>642.7</ele><time>2012-05-02T06:07:02.0000000+00:00</time></trkpt><trkpt lat="42.778183" lon="18.886618"><ele>643.2</ele><time>2012-05-02T06:07:27.0000000+00:00</time></trkpt><trkpt lat="42.778206" lon="18.882637"><ele>651.7</ele><time>2012-05-02T06:07:47.0000000+00:00</time></trkpt><trkpt lat="42.778435" lon="18.880606"><ele>643.1</ele><time>2012-05-02T06:07:57.0000000+00:00</time></trkpt><trkpt lat="42.780216" lon="18.876417"><ele>636.3</ele><time>2012-05-02T06:08:17.0000000+00:00</time></trkpt><trkpt lat="42.780968" lon="18.872349"><ele>638.5</ele><time>2012-05-02T06:08:32.0000000+00:00</time></trkpt><trkpt lat="42.782387" lon="18.867695"><ele>637.6</ele><time>2012-05-02T06:08:52.0000000+00:00</time></trkpt><trkpt lat="42.782623" lon="18.866621"><ele>636.7</ele><time>2012-05-02T06:08:57.0000000+00:00</time></trkpt><trkpt lat="42.782673" lon="18.86553"><ele>636.9</ele><time>2012-05-02T06:09:02.0000000+00:00</time></trkpt><trkpt lat="42.782024" lon="18.863478"><ele>642.3</ele><time>2012-05-02T06:09:12.0000000+00:00</time></trkpt><trkpt lat="42.780243" lon="18.861048"><ele>648.3</ele><time>2012-05-02T06:09:27.0000000+00:00</time></trkpt><trkpt lat="42.77948" lon="18.859108"><ele>656.6</ele><time>2012-05-02T06:09:37.0000000+00:00</time></trkpt><trkpt lat="42.778336" lon="18.857653"><ele>661.2</ele><time>2012-05-02T06:09:47.0000000+00:00</time></trkpt><trkpt lat="42.778095" lon="18.856724"><ele>661.1</ele><time>2012-05-02T06:09:52.0000000+00:00</time></trkpt><trkpt lat="42.778" lon="18.85231"><ele>677.6</ele><time>2012-05-02T06:10:12.0000000+00:00</time></trkpt><trkpt lat="42.777409" lon="18.850161"><ele>672.3</ele><time>2012-05-02T06:10:27.0000000+00:00</time></trkpt><trkpt lat="42.776424" lon="18.848698"><ele>681.1</ele><time>2012-05-02T06:14:52.0000000+00:00</time></trkpt><trkpt lat="42.773109" lon="18.844782"><ele>699.1</ele><time>2012-05-02T06:15:22.0000000+00:00</time></trkpt><trkpt lat="42.7728" lon="18.843987"><ele>696.2</ele><time>2012-05-02T06:15:27.0000000+00:00</time></trkpt><trkpt lat="42.772705" lon="18.841978"><ele>701.1</ele><time>2012-05-02T06:15:37.0000000+00:00</time></trkpt><trkpt lat="42.771511" lon="18.83934"><ele>710.8</ele><time>2012-05-02T06:15:52.0000000+00:00</time></trkpt><trkpt lat="42.771248" lon="18.837414"><ele>725.2</ele><time>2012-05-02T06:16:02.0000000+00:00</time></trkpt><trkpt lat="42.770943" lon="18.836674"><ele>728.0</ele><time>2012-05-02T06:16:07.0000000+00:00</time></trkpt><trkpt lat="42.769897" lon="18.835499"><ele>737.5</ele><time>2012-05-02T06:16:17.0000000+00:00</time></trkpt><trkpt lat="42.769569" lon="18.834715"><ele>737.8</ele><time>2012-05-02T06:16:22.0000000+00:00</time></trkpt><trkpt lat="42.769726" lon="18.833803"><ele>747.8</ele><time>2012-05-02T06:16:27.0000000+00:00</time></trkpt><trkpt lat="42.770142" lon="18.833008"><ele>751.2</ele><time>2012-05-02T06:16:32.0000000+00:00</time></trkpt><trkpt lat="42.770306" lon="18.83215"><ele>761.0</ele><time>2012-05-02T06:16:37.0000000+00:00</time></trkpt><trkpt lat="42.770035" lon="18.831261"><ele>761.1</ele><time>2012-05-02T06:16:42.0000000+00:00</time></trkpt><trkpt lat="42.768795" lon="18.830103"><ele>770.2</ele><time>2012-05-02T06:16:52.0000000+00:00</time></trkpt><trkpt lat="42.766556" lon="18.8293"><ele>781.4</ele><time>2012-05-02T06:17:07.0000000+00:00</time></trkpt><trkpt lat="42.764439" lon="18.828188"><ele>788.8</ele><time>2012-05-02T06:17:22.0000000+00:00</time></trkpt><trkpt lat="42.763817" lon="18.827555"><ele>797.6</ele><time>2012-05-02T06:17:27.0000000+00:00</time></trkpt><trkpt lat="42.763367" lon="18.826775"><ele>794.8</ele><time>2012-05-02T06:17:32.0000000+00:00</time></trkpt><trkpt lat="42.762241" lon="18.82588"><ele>803.4</ele><time>2012-05-02T06:17:42.0000000+00:00</time></trkpt><trkpt lat="42.761127" lon="18.82477"><ele>807.3</ele><time>2012-05-02T06:17:52.0000000+00:00</time></trkpt><trkpt lat="42.760651" lon="18.824053"><ele>812.7</ele><time>2012-05-02T06:17:57.0000000+00:00</time></trkpt><trkpt lat="42.758911" lon="18.822424"><ele>833.7</ele><time>2012-05-02T06:18:12.0000000+00:00</time></trkpt><trkpt lat="42.755898" lon="18.820566"><ele>846.3</ele><time>2012-05-02T06:18:32.0000000+00:00</time></trkpt><trkpt lat="42.754967" lon="18.819147"><ele>853.4</ele><time>2012-05-02T06:18:42.0000000+00:00</time></trkpt><trkpt lat="42.754616" lon="18.817432"><ele>851.4</ele><time>2012-05-02T06:18:52.0000000+00:00</time></trkpt><trkpt lat="42.753628" lon="18.815016"><ele>849.5</ele><time>2012-05-02T06:19:07.0000000+00:00</time></trkpt><trkpt lat="42.752594" lon="18.814133"><ele>849.5</ele><time>2012-05-02T06:19:17.0000000+00:00</time></trkpt><trkpt lat="42.752403" lon="18.813404"><ele>844.3</ele><time>2012-05-02T06:19:22.0000000+00:00</time></trkpt><trkpt lat="42.752323" lon="18.811247"><ele>843.0</ele><time>2012-05-02T06:19:32.0000000+00:00</time></trkpt><trkpt lat="42.752567" lon="18.810291"><ele>844.7</ele><time>2012-05-02T06:19:37.0000000+00:00</time></trkpt><trkpt lat="42.752987" lon="18.809454"><ele>844.7</ele><time>2012-05-02T06:19:42.0000000+00:00</time></trkpt><trkpt lat="42.753384" lon="18.805674"><ele>844.9</ele><time>2012-05-02T06:20:02.0000000+00:00</time></trkpt><trkpt lat="42.752136" lon="18.803879"><ele>854.4</ele><time>2012-05-02T06:20:17.0000000+00:00</time></trkpt><trkpt lat="42.751545" lon="18.803322"><ele>858.6</ele><time>2012-05-02T06:20:22.0000000+00:00</time></trkpt><trkpt lat="42.751129" lon="18.802505"><ele>863.2</ele><time>2012-05-02T06:20:27.0000000+00:00</time></trkpt><trkpt lat="42.751038" lon="18.80155"><ele>861.7</ele><time>2012-05-02T06:20:32.0000000+00:00</time></trkpt><trkpt lat="42.751465" lon="18.799475"><ele>857.8</ele><time>2012-05-02T06:20:42.0000000+00:00</time></trkpt><trkpt lat="42.751465" lon="18.798523"><ele>858.9</ele><time>2012-05-02T06:20:47.0000000+00:00</time></trkpt><trkpt lat="42.751938" lon="18.795479"><ele>856.8</ele><time>2012-05-02T06:21:02.0000000+00:00</time></trkpt><trkpt lat="42.751751" lon="18.793158"><ele>851.8</ele><time>2012-05-02T06:21:12.0000000+00:00</time></trkpt><trkpt lat="42.751846" lon="18.790726"><ele>850.8</ele><time>2012-05-02T06:21:22.0000000+00:00</time></trkpt><trkpt lat="42.751213" lon="18.78816"><ele>843.3</ele><time>2012-05-02T06:21:32.0000000+00:00</time></trkpt><trkpt lat="42.750862" lon="18.786976"><ele>840.5</ele><time>2012-05-02T06:21:37.0000000+00:00</time></trkpt><trkpt lat="42.750225" lon="18.786098"><ele>839.5</ele><time>2012-05-02T06:21:42.0000000+00:00</time></trkpt><trkpt lat="42.748558" lon="18.785151"><ele>841.9</ele><time>2012-05-02T06:21:52.0000000+00:00</time></trkpt><trkpt lat="42.74659" lon="18.781399"><ele>835.2</ele><time>2012-05-02T06:22:12.0000000+00:00</time></trkpt><trkpt lat="42.744751" lon="18.7798"><ele>840.3</ele><time>2012-05-02T06:22:27.0000000+00:00</time></trkpt><trkpt lat="42.744373" lon="18.779022"><ele>837.8</ele><time>2012-05-02T06:22:32.0000000+00:00</time></trkpt><trkpt lat="42.743229" lon="18.777748"><ele>830.4</ele><time>2012-05-02T06:22:42.0000000+00:00</time></trkpt><trkpt lat="42.742691" lon="18.776846"><ele>827.7</ele><time>2012-05-02T06:22:47.0000000+00:00</time></trkpt><trkpt lat="42.74181" lon="18.773397"><ele>812.5</ele><time>2012-05-02T06:23:02.0000000+00:00</time></trkpt><trkpt lat="42.741405" lon="18.770071"><ele>802.5</ele><time>2012-05-02T06:23:17.0000000+00:00</time></trkpt><trkpt lat="42.741016" lon="18.769041"><ele>796.8</ele><time>2012-05-02T06:23:22.0000000+00:00</time></trkpt><trkpt lat="42.739265" lon="18.766594"><ele>790.0</ele><time>2012-05-02T06:23:37.0000000+00:00</time></trkpt><trkpt lat="42.738178" lon="18.761463"><ele>794.1</ele><time>2012-05-02T06:23:57.0000000+00:00</time></trkpt><trkpt lat="42.738106" lon="18.760242"><ele>793.8</ele><time>2012-05-02T06:24:02.0000000+00:00</time></trkpt><trkpt lat="42.738312" lon="18.759018"><ele>794.7</ele><time>2012-05-02T06:24:07.0000000+00:00</time></trkpt><trkpt lat="42.739143" lon="18.756918"><ele>793.9</ele><time>2012-05-02T06:24:17.0000000+00:00</time></trkpt><trkpt lat="42.739208" lon="18.754778"><ele>798.4</ele><time>2012-05-02T06:24:27.0000000+00:00</time></trkpt><trkpt lat="42.739567" lon="18.753809"><ele>797.6</ele><time>2012-05-02T06:24:32.0000000+00:00</time></trkpt><trkpt lat="42.741367" lon="18.75108"><ele>798.6</ele><time>2012-05-02T06:24:52.0000000+00:00</time></trkpt><trkpt lat="42.743275" lon="18.74971"><ele>799.7</ele><time>2012-05-02T06:25:07.0000000+00:00</time></trkpt><trkpt lat="42.743706" lon="18.749027"><ele>797.5</ele><time>2012-05-02T06:25:12.0000000+00:00</time></trkpt><trkpt lat="42.744286" lon="18.747145"><ele>796.0</ele><time>2012-05-02T06:25:22.0000000+00:00</time></trkpt><trkpt lat="42.744778" lon="18.746189"><ele>797.7</ele><time>2012-05-02T06:25:27.0000000+00:00</time></trkpt><trkpt lat="42.746231" lon="18.744371"><ele>796.7</ele><time>2012-05-02T06:25:37.0000000+00:00</time></trkpt><trkpt lat="42.746647" lon="18.74317"><ele>795.5</ele><time>2012-05-02T06:25:42.0000000+00:00</time></trkpt><trkpt lat="42.746712" lon="18.741837"><ele>792.2</ele><time>2012-05-02T06:25:47.0000000+00:00</time></trkpt><trkpt lat="42.746426" lon="18.739017"><ele>787.2</ele><time>2012-05-02T06:25:57.0000000+00:00</time></trkpt><trkpt lat="42.746315" lon="18.736063"><ele>786.2</ele><time>2012-05-02T06:26:07.0000000+00:00</time></trkpt><trkpt lat="42.745113" lon="18.732281"><ele>788.6</ele><time>2012-05-02T06:26:22.0000000+00:00</time></trkpt><trkpt lat="42.745358" lon="18.731213"><ele>791.8</ele><time>2012-05-02T06:26:27.0000000+00:00</time></trkpt><trkpt lat="42.745842" lon="18.730278"><ele>795.2</ele><time>2012-05-02T06:26:32.0000000+00:00</time></trkpt><trkpt lat="42.745975" lon="18.729254"><ele>798.9</ele><time>2012-05-02T06:26:37.0000000+00:00</time></trkpt><trkpt lat="42.745461" lon="18.727013"><ele>798.7</ele><time>2012-05-02T06:26:47.0000000+00:00</time></trkpt><trkpt lat="42.74548" lon="18.725794"><ele>798.0</ele><time>2012-05-02T06:26:52.0000000+00:00</time></trkpt><trkpt lat="42.745701" lon="18.724503"><ele>806.7</ele><time>2012-05-02T06:26:57.0000000+00:00</time></trkpt><trkpt lat="42.745598" lon="18.723282"><ele>805.2</ele><time>2012-05-02T06:27:02.0000000+00:00</time></trkpt><trkpt lat="42.744625" lon="18.721115"><ele>804.9</ele><time>2012-05-02T06:27:12.0000000+00:00</time></trkpt><trkpt lat="42.744469" lon="18.719999"><ele>803.7</ele><time>2012-05-02T06:27:17.0000000+00:00</time></trkpt><trkpt lat="42.74456" lon="18.717655"><ele>804.4</ele><time>2012-05-02T06:27:27.0000000+00:00</time></trkpt><trkpt lat="42.744457" lon="18.716322"><ele>804.1</ele><time>2012-05-02T06:27:32.0000000+00:00</time></trkpt><trkpt lat="42.744949" lon="18.712124"><ele>805.5</ele><time>2012-05-02T06:27:47.0000000+00:00</time></trkpt><trkpt lat="42.744766" lon="18.709612"><ele>808.9</ele><time>2012-05-02T06:27:57.0000000+00:00</time></trkpt><trkpt lat="42.744854" lon="18.708536"><ele>810.3</ele><time>2012-05-02T06:28:02.0000000+00:00</time></trkpt><trkpt lat="42.746632" lon="18.701632"><ele>808.8</ele><time>2012-05-02T06:28:37.0000000+00:00</time></trkpt><trkpt lat="42.746883" lon="18.698862"><ele>808.2</ele><time>2012-05-02T06:28:47.0000000+00:00</time></trkpt><trkpt lat="42.747173" lon="18.697533"><ele>809.3</ele><time>2012-05-02T06:28:52.0000000+00:00</time></trkpt><trkpt lat="42.748875" lon="18.693876"><ele>802.9</ele><time>2012-05-02T06:29:07.0000000+00:00</time></trkpt><trkpt lat="42.749542" lon="18.690937"><ele>797.3</ele><time>2012-05-02T06:29:17.0000000+00:00</time></trkpt><trkpt lat="42.750061" lon="18.689598"><ele>800.6</ele><time>2012-05-02T06:29:22.0000000+00:00</time></trkpt><trkpt lat="42.752262" lon="18.686113"><ele>803.7</ele><time>2012-05-02T06:29:37.0000000+00:00</time></trkpt><trkpt lat="42.752796" lon="18.684696"><ele>805.7</ele><time>2012-05-02T06:29:42.0000000+00:00</time></trkpt><trkpt lat="42.753128" lon="18.683086"><ele>805.9</ele><time>2012-05-02T06:29:47.0000000+00:00</time></trkpt><trkpt lat="42.7533" lon="18.679773"><ele>803.8</ele><time>2012-05-02T06:29:57.0000000+00:00</time></trkpt><trkpt lat="42.753574" lon="18.678152"><ele>803.7</ele><time>2012-05-02T06:30:02.0000000+00:00</time></trkpt><trkpt lat="42.754559" lon="18.675049"><ele>807.5</ele><time>2012-05-02T06:30:12.0000000+00:00</time></trkpt><trkpt lat="42.754692" lon="18.673471"><ele>814.7</ele><time>2012-05-02T06:30:17.0000000+00:00</time></trkpt><trkpt lat="42.754444" lon="18.670265"><ele>829.4</ele><time>2012-05-02T06:30:27.0000000+00:00</time></trkpt><trkpt lat="42.754677" lon="18.667173"><ele>839.4</ele><time>2012-05-02T06:30:37.0000000+00:00</time></trkpt><trkpt lat="42.754364" lon="18.665827"><ele>840.3</ele><time>2012-05-02T06:30:42.0000000+00:00</time></trkpt><trkpt lat="42.753704" lon="18.664658"><ele>838.0</ele><time>2012-05-02T06:30:47.0000000+00:00</time></trkpt><trkpt lat="42.753201" lon="18.663342"><ele>838.5</ele><time>2012-05-02T06:30:52.0000000+00:00</time></trkpt><trkpt lat="42.752892" lon="18.66188"><ele>847.3</ele><time>2012-05-02T06:30:57.0000000+00:00</time></trkpt><trkpt lat="42.75132" lon="18.657923"><ele>850.2</ele><time>2012-05-02T06:31:12.0000000+00:00</time></trkpt><trkpt lat="42.750942" lon="18.655313"><ele>844.3</ele><time>2012-05-02T06:31:22.0000000+00:00</time></trkpt><trkpt lat="42.751221" lon="18.650743"><ele>841.1</ele><time>2012-05-02T06:31:42.0000000+00:00</time></trkpt><trkpt lat="42.75098" lon="18.649237"><ele>843.1</ele><time>2012-05-02T06:31:52.0000000+00:00</time></trkpt><trkpt lat="42.75053" lon="18.648003"><ele>841.3</ele><time>2012-05-02T06:32:02.0000000+00:00</time></trkpt><trkpt lat="42.749977" lon="18.64702"><ele>833.5</ele><time>2012-05-02T06:32:07.0000000+00:00</time></trkpt><trkpt lat="42.749214" lon="18.646194"><ele>828.2</ele><time>2012-05-02T06:32:12.0000000+00:00</time></trkpt><trkpt lat="42.745392" lon="18.64266"><ele>828.4</ele><time>2012-05-02T06:32:37.0000000+00:00</time></trkpt><trkpt lat="42.744801" lon="18.6416"><ele>823.1</ele><time>2012-05-02T06:32:42.0000000+00:00</time></trkpt><trkpt lat="42.744362" lon="18.640251"><ele>818.5</ele><time>2012-05-02T06:32:47.0000000+00:00</time></trkpt><trkpt lat="42.743881" lon="18.637304"><ele>826.6</ele><time>2012-05-02T06:32:57.0000000+00:00</time></trkpt><trkpt lat="42.743393" lon="18.636028"><ele>831.7</ele><time>2012-05-02T06:33:02.0000000+00:00</time></trkpt><trkpt lat="42.740128" lon="18.631735"><ele>841.4</ele><time>2012-05-02T06:33:22.0000000+00:00</time></trkpt><trkpt lat="42.739513" lon="18.630585"><ele>835.1</ele><time>2012-05-02T06:33:27.0000000+00:00</time></trkpt><trkpt lat="42.739204" lon="18.629173"><ele>832.3</ele><time>2012-05-02T06:33:32.0000000+00:00</time></trkpt><trkpt lat="42.739189" lon="18.627691"><ele>835.7</ele><time>2012-05-02T06:33:37.0000000+00:00</time></trkpt><trkpt lat="42.74033" lon="18.623287"><ele>839.0</ele><time>2012-05-02T06:33:52.0000000+00:00</time></trkpt><trkpt lat="42.740498" lon="18.62191"><ele>849.4</ele><time>2012-05-02T06:33:57.0000000+00:00</time></trkpt><trkpt lat="42.740368" lon="18.620575"><ele>858.5</ele><time>2012-05-02T06:34:02.0000000+00:00</time></trkpt><trkpt lat="42.739632" lon="18.617996"><ele>865.6</ele><time>2012-05-02T06:34:12.0000000+00:00</time></trkpt><trkpt lat="42.739445" lon="18.616665"><ele>871.2</ele><time>2012-05-02T06:34:17.0000000+00:00</time></trkpt><trkpt lat="42.739708" lon="18.613823"><ele>877.2</ele><time>2012-05-02T06:34:27.0000000+00:00</time></trkpt><trkpt lat="42.739681" lon="18.612274"><ele>875.3</ele><time>2012-05-02T06:34:32.0000000+00:00</time></trkpt><trkpt lat="42.739323" lon="18.610846"><ele>873.3</ele><time>2012-05-02T06:34:37.0000000+00:00</time></trkpt><trkpt lat="42.737919" lon="18.608551"><ele>877.8</ele><time>2012-05-02T06:34:47.0000000+00:00</time></trkpt><trkpt lat="42.737053" lon="18.605934"><ele>883.0</ele><time>2012-05-02T06:34:57.0000000+00:00</time></trkpt><trkpt lat="42.735527" lon="18.604057"><ele>888.0</ele><time>2012-05-02T06:35:07.0000000+00:00</time></trkpt><trkpt lat="42.734322" lon="18.602175"><ele>886.8</ele><time>2012-05-02T06:35:17.0000000+00:00</time></trkpt><trkpt lat="42.733784" lon="18.601692"><ele>887.3</ele><time>2012-05-02T06:35:22.0000000+00:00</time></trkpt><trkpt lat="42.733391" lon="18.601522"><ele>884.6</ele><time>2012-05-02T06:35:27.0000000+00:00</time></trkpt><trkpt lat="42.732933" lon="18.602486"><ele>889.5</ele><time>2012-05-02T06:35:37.0000000+00:00</time></trkpt><trkpt lat="42.732376" lon="18.603132"><ele>890.5</ele><time>2012-05-02T06:35:42.0000000+00:00</time></trkpt><trkpt lat="42.730042" lon="18.604126"><ele>891.2</ele><time>2012-05-02T06:35:57.0000000+00:00</time></trkpt><trkpt lat="42.729336" lon="18.604637"><ele>886.8</ele><time>2012-05-02T06:36:02.0000000+00:00</time></trkpt><trkpt lat="42.728706" lon="18.605488"><ele>887.9</ele><time>2012-05-02T06:36:07.0000000+00:00</time></trkpt><trkpt lat="42.727898" lon="18.606194"><ele>890.8</ele><time>2012-05-02T06:36:12.0000000+00:00</time></trkpt><trkpt lat="42.726933" lon="18.606323"><ele>900.6</ele><time>2012-05-02T06:36:17.0000000+00:00</time></trkpt><trkpt lat="42.725185" lon="18.605757"><ele>918.6</ele><time>2012-05-02T06:36:27.0000000+00:00</time></trkpt><trkpt lat="42.723999" lon="18.604265"><ele>929.1</ele><time>2012-05-02T06:36:37.0000000+00:00</time></trkpt><trkpt lat="42.723194" lon="18.604073"><ele>932.5</ele><time>2012-05-02T06:36:42.0000000+00:00</time></trkpt><trkpt lat="42.722443" lon="18.604559"><ele>937.4</ele><time>2012-05-02T06:36:47.0000000+00:00</time></trkpt><trkpt lat="42.721245" lon="18.605999"><ele>947.1</ele><time>2012-05-02T06:36:57.0000000+00:00</time></trkpt><trkpt lat="42.72052" lon="18.606014"><ele>957.9</ele><time>2012-05-02T06:37:02.0000000+00:00</time></trkpt><trkpt lat="42.719826" lon="18.605583"><ele>963.7</ele><time>2012-05-02T06:37:07.0000000+00:00</time></trkpt><trkpt lat="42.719063" lon="18.60545"><ele>964.9</ele><time>2012-05-02T06:37:12.0000000+00:00</time></trkpt><trkpt lat="42.717552" lon="18.606476"><ele>984.6</ele><time>2012-05-02T06:37:22.0000000+00:00</time></trkpt><trkpt lat="42.716679" lon="18.606361"><ele>987.4</ele><time>2012-05-02T06:37:27.0000000+00:00</time></trkpt><trkpt lat="42.715847" lon="18.606493"><ele>989.7</ele><time>2012-05-02T06:37:32.0000000+00:00</time></trkpt><trkpt lat="42.715084" lon="18.607012"><ele>994.4</ele><time>2012-05-02T06:37:37.0000000+00:00</time></trkpt><trkpt lat="42.712467" lon="18.607145"><ele>1005.2</ele><time>2012-05-02T06:37:52.0000000+00:00</time></trkpt><trkpt lat="42.711636" lon="18.607504"><ele>1007.7</ele><time>2012-05-02T06:37:57.0000000+00:00</time></trkpt><trkpt lat="42.708389" lon="18.609787"><ele>1014.9</ele><time>2012-05-02T06:38:17.0000000+00:00</time></trkpt><trkpt lat="42.705643" lon="18.613504"><ele>1010.8</ele><time>2012-05-02T06:38:37.0000000+00:00</time></trkpt><trkpt lat="42.704632" lon="18.61586"><ele>1004.2</ele><time>2012-05-02T06:38:47.0000000+00:00</time></trkpt><trkpt lat="42.702587" lon="18.619652"><ele>1002.5</ele><time>2012-05-02T06:39:02.0000000+00:00</time></trkpt><trkpt lat="42.70171" lon="18.622297"><ele>998.8</ele><time>2012-05-02T06:39:12.0000000+00:00</time></trkpt><trkpt lat="42.700138" lon="18.626141"><ele>1009.3</ele><time>2012-05-02T06:39:27.0000000+00:00</time></trkpt><trkpt lat="42.699619" lon="18.626898"><ele>1008.5</ele><time>2012-05-02T06:39:32.0000000+00:00</time></trkpt><trkpt lat="42.698338" lon="18.627728"><ele>1004.0</ele><time>2012-05-02T06:39:42.0000000+00:00</time></trkpt><trkpt lat="42.697239" lon="18.629375"><ele>1007.8</ele><time>2012-05-02T06:39:52.0000000+00:00</time></trkpt><trkpt lat="42.696918" lon="18.631216"><ele>1008.8</ele><time>2012-05-02T06:40:02.0000000+00:00</time></trkpt><trkpt lat="42.696579" lon="18.63203"><ele>1006.2</ele><time>2012-05-02T06:40:07.0000000+00:00</time></trkpt><trkpt lat="42.695095" lon="18.63475"><ele>1006.0</ele><time>2012-05-02T06:40:22.0000000+00:00</time></trkpt><trkpt lat="42.694431" lon="18.635548"><ele>993.5</ele><time>2012-05-02T06:40:27.0000000+00:00</time></trkpt><trkpt lat="42.692802" lon="18.636646"><ele>983.1</ele><time>2012-05-02T06:40:37.0000000+00:00</time></trkpt><trkpt lat="42.690979" lon="18.636917"><ele>982.3</ele><time>2012-05-02T06:40:47.0000000+00:00</time></trkpt><trkpt lat="42.690075" lon="18.636715"><ele>976.6</ele><time>2012-05-02T06:40:52.0000000+00:00</time></trkpt><trkpt lat="42.685127" lon="18.634056"><ele>993.0</ele><time>2012-05-02T06:41:17.0000000+00:00</time></trkpt><trkpt lat="42.684269" lon="18.633814"><ele>992.2</ele><time>2012-05-02T06:41:22.0000000+00:00</time></trkpt><trkpt lat="42.683331" lon="18.633865"><ele>976.9</ele><time>2012-05-02T06:41:27.0000000+00:00</time></trkpt><trkpt lat="42.682358" lon="18.634228"><ele>973.9</ele><time>2012-05-02T06:41:32.0000000+00:00</time></trkpt><trkpt lat="42.681465" lon="18.634907"><ele>970.2</ele><time>2012-05-02T06:41:37.0000000+00:00</time></trkpt><trkpt lat="42.680706" lon="18.635897"><ele>964.1</ele><time>2012-05-02T06:41:42.0000000+00:00</time></trkpt><trkpt lat="42.678291" lon="18.640945"><ele>937.7</ele><time>2012-05-02T06:42:02.0000000+00:00</time></trkpt><trkpt lat="42.674744" lon="18.64506"><ele>904.0</ele><time>2012-05-02T06:42:22.0000000+00:00</time></trkpt><trkpt lat="42.672722" lon="18.646317"><ele>881.0</ele><time>2012-05-02T06:42:32.0000000+00:00</time></trkpt><trkpt lat="42.671814" lon="18.647104"><ele>871.4</ele><time>2012-05-02T06:42:37.0000000+00:00</time></trkpt><trkpt lat="42.671104" lon="18.648146"><ele>864.3</ele><time>2012-05-02T06:42:42.0000000+00:00</time></trkpt><trkpt lat="42.669312" lon="18.651506"><ele>852.7</ele><time>2012-05-02T06:42:57.0000000+00:00</time></trkpt><trkpt lat="42.668877" lon="18.652752"><ele>856.0</ele><time>2012-05-02T06:43:02.0000000+00:00</time></trkpt><trkpt lat="42.667915" lon="18.65694"><ele>866.1</ele><time>2012-05-02T06:43:17.0000000+00:00</time></trkpt><trkpt lat="42.66737" lon="18.658352"><ele>863.7</ele><time>2012-05-02T06:43:22.0000000+00:00</time></trkpt><trkpt lat="42.664219" lon="18.663263"><ele>818.5</ele><time>2012-05-02T06:43:42.0000000+00:00</time></trkpt><trkpt lat="42.663303" lon="18.664373"><ele>815.4</ele><time>2012-05-02T06:43:47.0000000+00:00</time></trkpt><trkpt lat="42.662247" lon="18.665247"><ele>807.4</ele><time>2012-05-02T06:43:52.0000000+00:00</time></trkpt><trkpt lat="42.658718" lon="18.666794"><ele>773.0</ele><time>2012-05-02T06:44:07.0000000+00:00</time></trkpt><trkpt lat="42.657707" lon="18.66757"><ele>754.5</ele><time>2012-05-02T06:44:12.0000000+00:00</time></trkpt><trkpt lat="42.65686" lon="18.668709"><ele>739.8</ele><time>2012-05-02T06:44:17.0000000+00:00</time></trkpt><trkpt lat="42.656254" lon="18.670099"><ele>729.1</ele><time>2012-05-02T06:44:22.0000000+00:00</time></trkpt><trkpt lat="42.655495" lon="18.67321"><ele>710.1</ele><time>2012-05-02T06:44:32.0000000+00:00</time></trkpt><trkpt lat="42.654907" lon="18.674658"><ele>696.7</ele><time>2012-05-02T06:44:37.0000000+00:00</time></trkpt><trkpt lat="42.654106" lon="18.675947"><ele>692.8</ele><time>2012-05-02T06:44:42.0000000+00:00</time></trkpt><trkpt lat="42.653149" lon="18.676977"><ele>691.3</ele><time>2012-05-02T06:44:47.0000000+00:00</time></trkpt><trkpt lat="42.652081" lon="18.677711"><ele>690.8</ele><time>2012-05-02T06:44:52.0000000+00:00</time></trkpt><trkpt lat="42.647736" lon="18.679375"><ele>689.9</ele><time>2012-05-02T06:45:12.0000000+00:00</time></trkpt><trkpt lat="42.647011" lon="18.679806"><ele>690.2</ele><time>2012-05-02T06:45:17.0000000+00:00</time></trkpt><trkpt lat="42.64484" lon="18.682993"><ele>690.2</ele><time>2012-05-02T06:45:37.0000000+00:00</time></trkpt><trkpt lat="42.644073" lon="18.683569"><ele>688.8</ele><time>2012-05-02T06:45:42.0000000+00:00</time></trkpt><trkpt lat="42.643204" lon="18.683737"><ele>690.5</ele><time>2012-05-02T06:45:47.0000000+00:00</time></trkpt><trkpt lat="42.641403" lon="18.683453"><ele>692.9</ele><time>2012-05-02T06:45:57.0000000+00:00</time></trkpt><trkpt lat="42.639614" lon="18.684053"><ele>686.6</ele><time>2012-05-02T06:46:07.0000000+00:00</time></trkpt><trkpt lat="42.638634" lon="18.684187"><ele>690.9</ele><time>2012-05-02T06:46:12.0000000+00:00</time></trkpt><trkpt lat="42.637665" lon="18.683893"><ele>691.2</ele><time>2012-05-02T06:46:17.0000000+00:00</time></trkpt><trkpt lat="42.635086" lon="18.681313"><ele>684.2</ele><time>2012-05-02T06:46:32.0000000+00:00</time></trkpt><trkpt lat="42.634068" lon="18.680754"><ele>677.7</ele><time>2012-05-02T06:46:37.0000000+00:00</time></trkpt><trkpt lat="42.632984" lon="18.680593"><ele>668.2</ele><time>2012-05-02T06:46:42.0000000+00:00</time></trkpt><trkpt lat="42.631901" lon="18.680834"><ele>673.7</ele><time>2012-05-02T06:46:47.0000000+00:00</time></trkpt><trkpt lat="42.629818" lon="18.681881"><ele>651.8</ele><time>2012-05-02T06:46:57.0000000+00:00</time></trkpt><trkpt lat="42.628773" lon="18.681984"><ele>650.4</ele><time>2012-05-02T06:47:02.0000000+00:00</time></trkpt><trkpt lat="42.626789" lon="18.681013"><ele>652.4</ele><time>2012-05-02T06:47:12.0000000+00:00</time></trkpt><trkpt lat="42.625702" lon="18.680786"><ele>625.6</ele><time>2012-05-02T06:47:17.0000000+00:00</time></trkpt><trkpt lat="42.620987" lon="18.681471"><ele>611.8</ele><time>2012-05-02T06:47:37.0000000+00:00</time></trkpt><trkpt lat="42.615303" lon="18.68181"><ele>616.4</ele><time>2012-05-02T06:48:02.0000000+00:00</time></trkpt><trkpt lat="42.614159" lon="18.682079"><ele>615.6</ele><time>2012-05-02T06:48:07.0000000+00:00</time></trkpt><trkpt lat="42.611885" lon="18.683043"><ele>615.6</ele><time>2012-05-02T06:48:17.0000000+00:00</time></trkpt><trkpt lat="42.605423" lon="18.687777"><ele>616.8</ele><time>2012-05-02T06:48:47.0000000+00:00</time></trkpt><trkpt lat="42.603233" lon="18.689037"><ele>617.0</ele><time>2012-05-02T06:48:57.0000000+00:00</time></trkpt><trkpt lat="42.599869" lon="18.690142"><ele>619.3</ele><time>2012-05-02T06:49:12.0000000+00:00</time></trkpt><trkpt lat="42.597553" lon="18.690372"><ele>620.5</ele><time>2012-05-02T06:49:22.0000000+00:00</time></trkpt><trkpt lat="42.595211" lon="18.690203"><ele>622.2</ele><time>2012-05-02T06:49:32.0000000+00:00</time></trkpt><trkpt lat="42.592892" lon="18.689606"><ele>624.2</ele><time>2012-05-02T06:49:42.0000000+00:00</time></trkpt><trkpt lat="42.59066" lon="18.688631"><ele>626.6</ele><time>2012-05-02T06:49:52.0000000+00:00</time></trkpt><trkpt lat="42.587391" lon="18.686806"><ele>626.2</ele><time>2012-05-02T06:50:07.0000000+00:00</time></trkpt><trkpt lat="42.586231" lon="18.686399"><ele>624.8</ele><time>2012-05-02T06:50:12.0000000+00:00</time></trkpt><trkpt lat="42.585033" lon="18.686272"><ele>623.0</ele><time>2012-05-02T06:50:17.0000000+00:00</time></trkpt><trkpt lat="42.581482" lon="18.68705"><ele>614.2</ele><time>2012-05-02T06:50:32.0000000+00:00</time></trkpt><trkpt lat="42.579128" lon="18.686924"><ele>610.9</ele><time>2012-05-02T06:50:42.0000000+00:00</time></trkpt><trkpt lat="42.57687" lon="18.687067"><ele>617.1</ele><time>2012-05-02T06:50:52.0000000+00:00</time></trkpt><trkpt lat="42.574974" lon="18.686518"><ele>631.1</ele><time>2012-05-02T06:51:02.0000000+00:00</time></trkpt><trkpt lat="42.574074" lon="18.686642"><ele>643.2</ele><time>2012-05-02T06:51:07.0000000+00:00</time></trkpt><trkpt lat="42.573299" lon="18.687237"><ele>643.4</ele><time>2012-05-02T06:51:12.0000000+00:00</time></trkpt><trkpt lat="42.57201" lon="18.68866"><ele>653.2</ele><time>2012-05-02T06:51:22.0000000+00:00</time></trkpt><trkpt lat="42.57037" lon="18.689215"><ele>660.7</ele><time>2012-05-02T06:51:32.0000000+00:00</time></trkpt><trkpt lat="42.569557" lon="18.689804"><ele>651.5</ele><time>2012-05-02T06:51:37.0000000+00:00</time></trkpt><trkpt lat="42.56884" lon="18.69071"><ele>666.7</ele><time>2012-05-02T06:51:42.0000000+00:00</time></trkpt><trkpt lat="42.567951" lon="18.692884"><ele>696.5</ele><time>2012-05-02T06:51:52.0000000+00:00</time></trkpt><trkpt lat="42.565945" lon="18.695465"><ele>671.1</ele><time>2012-05-02T06:52:08.0000000+00:00</time></trkpt><trkpt lat="42.565174" lon="18.697556"><ele>657.8</ele><time>2012-05-02T06:52:18.0000000+00:00</time></trkpt><trkpt lat="42.564636" lon="18.698372"><ele>653.5</ele><time>2012-05-02T06:52:23.0000000+00:00</time></trkpt><trkpt lat="42.56435" lon="18.699318"><ele>662.7</ele><time>2012-05-02T06:52:28.0000000+00:00</time></trkpt><trkpt lat="42.564453" lon="18.700356"><ele>670.0</ele><time>2012-05-02T06:52:33.0000000+00:00</time></trkpt><trkpt lat="42.564976" lon="18.701105"><ele>655.9</ele><time>2012-05-02T06:52:38.0000000+00:00</time></trkpt><trkpt lat="42.566498" lon="18.70183"><ele>654.7</ele><time>2012-05-02T06:52:48.0000000+00:00</time></trkpt><trkpt lat="42.566856" lon="18.702753"><ele>662.1</ele><time>2012-05-02T06:52:53.0000000+00:00</time></trkpt><trkpt lat="42.5662" lon="18.706112"><ele>668.7</ele><time>2012-05-02T06:53:08.0000000+00:00</time></trkpt><trkpt lat="42.565845" lon="18.707218"><ele>683.0</ele><time>2012-05-02T06:53:13.0000000+00:00</time></trkpt><trkpt lat="42.56522" lon="18.708166"><ele>683.5</ele><time>2012-05-02T06:53:18.0000000+00:00</time></trkpt><trkpt lat="42.564323" lon="18.708826"><ele>685.1</ele><time>2012-05-02T06:53:23.0000000+00:00</time></trkpt><trkpt lat="42.563274" lon="18.709042"><ele>691.7</ele><time>2012-05-02T06:53:28.0000000+00:00</time></trkpt><trkpt lat="42.558846" lon="18.709234"><ele>678.6</ele><time>2012-05-02T06:53:48.0000000+00:00</time></trkpt><trkpt lat="42.557796" lon="18.709513"><ele>675.9</ele><time>2012-05-02T06:53:53.0000000+00:00</time></trkpt><trkpt lat="42.556877" lon="18.710161"><ele>681.1</ele><time>2012-05-02T06:53:58.0000000+00:00</time></trkpt><trkpt lat="42.55534" lon="18.712069"><ele>686.2</ele><time>2012-05-02T06:54:08.0000000+00:00</time></trkpt><trkpt lat="42.55439" lon="18.712711"><ele>686.5</ele><time>2012-05-02T06:54:13.0000000+00:00</time></trkpt><trkpt lat="42.552261" lon="18.71323"><ele>688.6</ele><time>2012-05-02T06:54:23.0000000+00:00</time></trkpt><trkpt lat="42.551292" lon="18.713697"><ele>686.4</ele><time>2012-05-02T06:54:28.0000000+00:00</time></trkpt><trkpt lat="42.550377" lon="18.713812"><ele>691.5</ele><time>2012-05-02T06:54:33.0000000+00:00</time></trkpt><trkpt lat="42.54953" lon="18.713524"><ele>694.0</ele><time>2012-05-02T06:54:38.0000000+00:00</time></trkpt><trkpt lat="42.548798" lon="18.712872"><ele>695.6</ele><time>2012-05-02T06:54:43.0000000+00:00</time></trkpt><trkpt lat="42.548042" lon="18.712101"><ele>699.3</ele><time>2012-05-02T06:54:48.0000000+00:00</time></trkpt><trkpt lat="42.547386" lon="18.711113"><ele>659.4</ele><time>2012-05-02T06:54:53.0000000+00:00</time></trkpt><trkpt lat="42.546547" lon="18.71035"><ele>655.6</ele><time>2012-05-02T06:54:58.0000000+00:00</time></trkpt><trkpt lat="42.546021" lon="18.709278"><ele>653.1</ele><time>2012-05-02T06:55:03.0000000+00:00</time></trkpt><trkpt lat="42.545765" lon="18.708014"><ele>638.9</ele><time>2012-05-02T06:55:08.0000000+00:00</time></trkpt><trkpt lat="42.544895" lon="18.705795"><ele>627.1</ele><time>2012-05-02T06:55:18.0000000+00:00</time></trkpt><trkpt lat="42.544724" lon="18.7045"><ele>617.2</ele><time>2012-05-02T06:55:23.0000000+00:00</time></trkpt><trkpt lat="42.544346" lon="18.703281"><ele>611.4</ele><time>2012-05-02T06:55:28.0000000+00:00</time></trkpt><trkpt lat="42.543579" lon="18.702374"><ele>602.8</ele><time>2012-05-02T06:55:33.0000000+00:00</time></trkpt><trkpt lat="42.541676" lon="18.701353"><ele>601.7</ele><time>2012-05-02T06:55:43.0000000+00:00</time></trkpt><trkpt lat="42.541054" lon="18.700487"><ele>638.8</ele><time>2012-05-02T06:55:48.0000000+00:00</time></trkpt><trkpt lat="42.540745" lon="18.697554"><ele>589.0</ele><time>2012-05-02T06:56:04.0000000+00:00</time></trkpt><trkpt lat="42.54089" lon="18.696775"><ele>584.1</ele><time>2012-05-02T06:56:09.0000000+00:00</time></trkpt><trkpt lat="42.541561" lon="18.695124"><ele>571.8</ele><time>2012-05-02T06:56:19.0000000+00:00</time></trkpt><trkpt lat="42.541637" lon="18.694168"><ele>568.2</ele><time>2012-05-02T06:56:24.0000000+00:00</time></trkpt><trkpt lat="42.541447" lon="18.693239"><ele>571.3</ele><time>2012-05-02T06:56:29.0000000+00:00</time></trkpt><trkpt lat="42.540569" lon="18.691504"><ele>576.4</ele><time>2012-05-02T06:56:39.0000000+00:00</time></trkpt><trkpt lat="42.540215" lon="18.690468"><ele>576.7</ele><time>2012-05-02T06:56:44.0000000+00:00</time></trkpt><trkpt lat="42.539604" lon="18.689753"><ele>576.1</ele><time>2012-05-02T06:56:49.0000000+00:00</time></trkpt><trkpt lat="42.537926" lon="18.68926"><ele>575.9</ele><time>2012-05-02T06:56:59.0000000+00:00</time></trkpt><trkpt lat="42.537231" lon="18.688595"><ele>579.1</ele><time>2012-05-02T06:57:04.0000000+00:00</time></trkpt><trkpt lat="42.536846" lon="18.687616"><ele>574.9</ele><time>2012-05-02T06:57:09.0000000+00:00</time></trkpt><trkpt lat="42.536808" lon="18.686571"><ele>562.4</ele><time>2012-05-02T06:57:14.0000000+00:00</time></trkpt><trkpt lat="42.537891" lon="18.682964"><ele>555.5</ele><time>2012-05-02T06:57:34.0000000+00:00</time></trkpt><trkpt lat="42.538185" lon="18.68026"><ele>547.3</ele><time>2012-05-02T06:57:49.0000000+00:00</time></trkpt><trkpt lat="42.538738" lon="18.677589"><ele>543.4</ele><time>2012-05-02T06:58:04.0000000+00:00</time></trkpt><trkpt lat="42.538612" lon="18.676756"><ele>539.1</ele><time>2012-05-02T06:58:09.0000000+00:00</time></trkpt><trkpt lat="42.538139" lon="18.676125"><ele>535.3</ele><time>2012-05-02T06:58:14.0000000+00:00</time></trkpt><trkpt lat="42.537457" lon="18.675983"><ele>532.6</ele><time>2012-05-02T06:58:19.0000000+00:00</time></trkpt><trkpt lat="42.536831" lon="18.676437"><ele>528.3</ele><time>2012-05-02T06:58:24.0000000+00:00</time></trkpt><trkpt lat="42.536541" lon="18.677338"><ele>532.1</ele><time>2012-05-02T06:58:29.0000000+00:00</time></trkpt><trkpt lat="42.536293" lon="18.67934"><ele>513.0</ele><time>2012-05-02T06:58:39.0000000+00:00</time></trkpt><trkpt lat="42.535526" lon="18.681049"><ele>510.2</ele><time>2012-05-02T06:58:49.0000000+00:00</time></trkpt><trkpt lat="42.535091" lon="18.684145"><ele>489.0</ele><time>2012-05-02T06:59:04.0000000+00:00</time></trkpt><trkpt lat="42.534649" lon="18.685022"><ele>475.9</ele><time>2012-05-02T06:59:09.0000000+00:00</time></trkpt><trkpt lat="42.534008" lon="18.685619"><ele>472.9</ele><time>2012-05-02T06:59:14.0000000+00:00</time></trkpt><trkpt lat="42.532455" lon="18.685926"><ele>458.9</ele><time>2012-05-02T06:59:24.0000000+00:00</time></trkpt><trkpt lat="42.530968" lon="18.686491"><ele>450.0</ele><time>2012-05-02T06:59:34.0000000+00:00</time></trkpt><trkpt lat="42.530254" lon="18.686422"><ele>438.2</ele><time>2012-05-02T06:59:39.0000000+00:00</time></trkpt><trkpt lat="42.527264" lon="18.685472"><ele>418.9</ele><time>2012-05-02T06:59:59.0000000+00:00</time></trkpt><trkpt lat="42.52578" lon="18.684805"><ele>412.5</ele><time>2012-05-02T07:00:09.0000000+00:00</time></trkpt><trkpt lat="42.523441" lon="18.685308"><ele>390.9</ele><time>2012-05-02T07:00:24.0000000+00:00</time></trkpt><trkpt lat="42.522758" lon="18.685352"><ele>386.4</ele><time>2012-05-02T07:00:29.0000000+00:00</time></trkpt><trkpt lat="42.522133" lon="18.685049"><ele>371.1</ele><time>2012-05-02T07:00:34.0000000+00:00</time></trkpt><trkpt lat="42.521664" lon="18.684387"><ele>369.8</ele><time>2012-05-02T07:00:39.0000000+00:00</time></trkpt><trkpt lat="42.521061" lon="18.682831"><ele>365.1</ele><time>2012-05-02T07:00:49.0000000+00:00</time></trkpt><trkpt lat="42.519962" lon="18.681868"><ele>364.7</ele><time>2012-05-02T07:00:59.0000000+00:00</time></trkpt><trkpt lat="42.519733" lon="18.680988"><ele>351.3</ele><time>2012-05-02T07:01:04.0000000+00:00</time></trkpt><trkpt lat="42.519886" lon="18.679062"><ele>343.1</ele><time>2012-05-02T07:01:14.0000000+00:00</time></trkpt><trkpt lat="42.519646" lon="18.678154"><ele>334.6</ele><time>2012-05-02T07:01:19.0000000+00:00</time></trkpt><trkpt lat="42.519154" lon="18.677408"><ele>327.8</ele><time>2012-05-02T07:01:24.0000000+00:00</time></trkpt><trkpt lat="42.517941" lon="18.67597"><ele>321.1</ele><time>2012-05-02T07:01:34.0000000+00:00</time></trkpt><trkpt lat="42.515491" lon="18.674601"><ele>304.9</ele><time>2012-05-02T07:01:49.0000000+00:00</time></trkpt><trkpt lat="42.513905" lon="18.674269"><ele>294.4</ele><time>2012-05-02T07:01:59.0000000+00:00</time></trkpt><trkpt lat="42.51202" lon="18.672592"><ele>300.8</ele><time>2012-05-02T07:02:14.0000000+00:00</time></trkpt><trkpt lat="42.511456" lon="18.671879"><ele>332.2</ele><time>2012-05-02T07:02:19.0000000+00:00</time></trkpt><trkpt lat="42.510345" lon="18.66856"><ele>281.0</ele><time>2012-05-02T07:02:40.0000000+00:00</time></trkpt><trkpt lat="42.50967" lon="18.665918"><ele>255.8</ele><time>2012-05-02T07:02:55.0000000+00:00</time></trkpt><trkpt lat="42.509178" lon="18.665358"><ele>257.6</ele><time>2012-05-02T07:03:00.0000000+00:00</time></trkpt><trkpt lat="42.507912" lon="18.664627"><ele>267.1</ele><time>2012-05-02T07:03:10.0000000+00:00</time></trkpt><trkpt lat="42.506195" lon="18.662329"><ele>232.8</ele><time>2012-05-02T07:03:29.0000000+00:00</time></trkpt><trkpt lat="42.503525" lon="18.660027"><ele>211.3</ele><time>2012-05-02T07:03:53.0000000+00:00</time></trkpt><trkpt lat="42.503147" lon="18.659328"><ele>226.8</ele><time>2012-05-02T07:03:58.0000000+00:00</time></trkpt><trkpt lat="42.502117" lon="18.656368"><ele>193.3</ele><time>2012-05-02T07:04:15.0000000+00:00</time></trkpt><trkpt lat="42.500523" lon="18.654478"><ele>178.8</ele><time>2012-05-02T07:04:30.0000000+00:00</time></trkpt><trkpt lat="42.499577" lon="18.652821"><ele>163.3</ele><time>2012-05-02T07:04:40.0000000+00:00</time></trkpt><trkpt lat="42.498386" lon="18.651751"><ele>159.7</ele><time>2012-05-02T07:04:50.0000000+00:00</time></trkpt><trkpt lat="42.496456" lon="18.649521"><ele>146.2</ele><time>2012-05-02T07:05:05.0000000+00:00</time></trkpt><trkpt lat="42.495289" lon="18.648743"><ele>134.5</ele><time>2012-05-02T07:05:15.0000000+00:00</time></trkpt><trkpt lat="42.494019" lon="18.646608"><ele>114.4</ele><time>2012-05-02T07:05:30.0000000+00:00</time></trkpt><trkpt lat="42.492016" lon="18.645388"><ele>103.3</ele><time>2012-05-02T07:05:45.0000000+00:00</time></trkpt><trkpt lat="42.491592" lon="18.644653"><ele>95.6</ele><time>2012-05-02T07:05:50.0000000+00:00</time></trkpt><trkpt lat="42.491016" lon="18.643063"><ele>89.3</ele><time>2012-05-02T07:06:00.0000000+00:00</time></trkpt><trkpt lat="42.490192" lon="18.641945"><ele>85.3</ele><time>2012-05-02T07:06:15.0000000+00:00</time></trkpt><trkpt lat="42.489994" lon="18.642096"><ele>82.4</ele><time>2012-05-02T07:06:20.0000000+00:00</time></trkpt><trkpt lat="42.490948" lon="18.643906"><ele>72.4</ele><time>2012-05-02T07:06:35.0000000+00:00</time></trkpt><trkpt lat="42.490898" lon="18.646378"><ele>60.1</ele><time>2012-05-02T07:06:50.0000000+00:00</time></trkpt><trkpt lat="42.491196" lon="18.647099"><ele>60.6</ele><time>2012-05-02T07:06:55.0000000+00:00</time></trkpt><trkpt lat="42.492203" lon="18.647877"><ele>48.7</ele><time>2012-05-02T07:07:05.0000000+00:00</time></trkpt><trkpt lat="42.494007" lon="18.650297"><ele>30.4</ele><time>2012-05-02T07:07:20.0000000+00:00</time></trkpt><trkpt lat="42.495007" lon="18.652182"><ele>8.6</ele><time>2012-05-02T07:07:30.0000000+00:00</time></trkpt><trkpt lat="42.495625" lon="18.654644"><ele>0.5</ele><time>2012-05-02T07:07:50.0000000+00:00</time></trkpt><trkpt lat="42.495335" lon="18.654369"><ele>0.5</ele><time>2012-05-02T07:07:55.0000000+00:00</time></trkpt><trkpt lat="42.49474" lon="18.652187"><ele>1.9</ele><time>2012-05-02T07:08:10.0000000+00:00</time></trkpt><trkpt lat="42.494335" lon="18.651703"><ele>5.2</ele><time>2012-05-02T07:08:15.0000000+00:00</time></trkpt><trkpt lat="42.49382" lon="18.651766"><ele>5.1</ele><time>2012-05-02T07:08:20.0000000+00:00</time></trkpt><trkpt lat="42.493343" lon="18.651564"><ele>2.1</ele><time>2012-05-02T07:08:25.0000000+00:00</time></trkpt><trkpt lat="42.491898" lon="18.650137"><ele>2.6</ele><time>2012-05-02T07:08:40.0000000+00:00</time></trkpt><trkpt lat="42.490879" lon="18.65019"><ele>2.8</ele><time>2012-05-02T07:08:50.0000000+00:00</time></trkpt><trkpt lat="42.489994" lon="18.649162"><ele>2.3</ele><time>2012-05-02T07:09:00.0000000+00:00</time></trkpt><trkpt lat="42.489456" lon="18.648947"><ele>2.4</ele><time>2012-05-02T07:09:05.0000000+00:00</time></trkpt><trkpt lat="42.48896" lon="18.649315"><ele>3.2</ele><time>2012-05-02T07:09:10.0000000+00:00</time></trkpt><trkpt lat="42.488213" lon="18.6507"><ele>5.0</ele><time>2012-05-02T07:09:20.0000000+00:00</time></trkpt><trkpt lat="42.487148" lon="18.651741"><ele>3.5</ele><time>2012-05-02T07:09:45.0000000+00:00</time></trkpt><trkpt lat="42.486984" lon="18.652077"><ele>7.0</ele><time>2012-05-02T07:09:50.0000000+00:00</time></trkpt><trkpt lat="42.487103" lon="18.654245"><ele>12.5</ele><time>2012-05-02T07:10:10.0000000+00:00</time></trkpt><trkpt lat="42.486885" lon="18.656841"><ele>25.4</ele><time>2012-05-02T07:10:25.0000000+00:00</time></trkpt><trkpt lat="42.487106" lon="18.658604"><ele>12.1</ele><time>2012-05-02T07:10:35.0000000+00:00</time></trkpt><trkpt lat="42.486881" lon="18.659435"><ele>18.9</ele><time>2012-05-02T07:10:40.0000000+00:00</time></trkpt><trkpt lat="42.487217" lon="18.66111"><ele>7.9</ele><time>2012-05-02T07:10:50.0000000+00:00</time></trkpt><trkpt lat="42.487232" lon="18.662024"><ele>7.6</ele><time>2012-05-02T07:10:55.0000000+00:00</time></trkpt><trkpt lat="42.486362" lon="18.665428"><ele>7.2</ele><time>2012-05-02T07:11:15.0000000+00:00</time></trkpt><trkpt lat="42.486465" lon="18.666819"><ele>3.9</ele><time>2012-05-02T07:11:25.0000000+00:00</time></trkpt><trkpt lat="42.486313" lon="18.667576"><ele>3.9</ele><time>2012-05-02T07:11:30.0000000+00:00</time></trkpt><trkpt lat="42.485603" lon="18.668892"><ele>4.8</ele><time>2012-05-02T07:11:40.0000000+00:00</time></trkpt><trkpt lat="42.484669" lon="18.67135"><ele>6.2</ele><time>2012-05-02T07:11:55.0000000+00:00</time></trkpt><trkpt lat="42.484501" lon="18.673323"><ele>6.3</ele><time>2012-05-02T07:12:05.0000000+00:00</time></trkpt><trkpt lat="42.484295" lon="18.674185"><ele>5.0</ele><time>2012-05-02T07:12:10.0000000+00:00</time></trkpt><trkpt lat="42.483498" lon="18.675718"><ele>10.7</ele><time>2012-05-02T07:12:20.0000000+00:00</time></trkpt><trkpt lat="42.482609" lon="18.678305"><ele>6.1</ele><time>2012-05-02T07:12:35.0000000+00:00</time></trkpt><trkpt lat="42.47995" lon="18.684866"><ele>4.9</ele><time>2012-05-02T07:13:10.0000000+00:00</time></trkpt><trkpt lat="42.479523" lon="18.68574"><ele>6.0</ele><time>2012-05-02T07:13:15.0000000+00:00</time></trkpt><trkpt lat="42.479008" lon="18.686308"><ele>8.6</ele><time>2012-05-02T07:13:20.0000000+00:00</time></trkpt><trkpt lat="42.478531" lon="18.686338"><ele>3.1</ele><time>2012-05-02T07:13:25.0000000+00:00</time></trkpt><trkpt lat="42.47715" lon="18.684055"><ele>5.3</ele><time>2012-05-02T07:13:45.0000000+00:00</time></trkpt><trkpt lat="42.476101" lon="18.683765"><ele>4.4</ele><time>2012-05-02T07:13:55.0000000+00:00</time></trkpt><trkpt lat="42.474834" lon="18.68247"><ele>0.8</ele><time>2012-05-02T07:14:10.0000000+00:00</time></trkpt><trkpt lat="42.473537" lon="18.680807"><ele>0.0</ele><time>2012-05-02T07:14:25.0000000+00:00</time></trkpt><trkpt lat="42.472961" lon="18.680536"><ele>1.7</ele><time>2012-05-02T07:14:30.0000000+00:00</time></trkpt><trkpt lat="42.471821" lon="18.680525"><ele>1.2</ele><time>2012-05-02T07:14:40.0000000+00:00</time></trkpt><trkpt lat="42.471298" lon="18.680296"><ele>0.4</ele><time>2012-05-02T07:14:45.0000000+00:00</time></trkpt><trkpt lat="42.47097" lon="18.67968"><ele>0.0</ele><time>2012-05-02T07:14:50.0000000+00:00</time></trkpt><trkpt lat="42.470604" lon="18.678135"><ele>2.3</ele><time>2012-05-02T07:15:00.0000000+00:00</time></trkpt><trkpt lat="42.470215" lon="18.677574"><ele>1.8</ele><time>2012-05-02T07:15:05.0000000+00:00</time></trkpt><trkpt lat="42.469193" lon="18.67671"><ele>0.8</ele><time>2012-05-02T07:15:15.0000000+00:00</time></trkpt><trkpt lat="42.468456" lon="18.675543"><ele>0.8</ele><time>2012-05-02T07:15:25.0000000+00:00</time></trkpt><trkpt lat="42.467484" lon="18.675344"><ele>1.2</ele><time>2012-05-02T07:15:35.0000000+00:00</time></trkpt><trkpt lat="42.466446" lon="18.673565"><ele>1.7</ele><time>2012-05-02T07:16:00.0000000+00:00</time></trkpt><trkpt lat="42.466076" lon="18.673265"><ele>1.9</ele><time>2012-05-02T07:16:05.0000000+00:00</time></trkpt><trkpt lat="42.463612" lon="18.673306"><ele>2.8</ele><time>2012-05-02T07:16:30.0000000+00:00</time></trkpt><trkpt lat="42.462448" lon="18.67289"><ele>1.3</ele><time>2012-05-02T07:16:40.0000000+00:00</time></trkpt><trkpt lat="42.46183" lon="18.673176"><ele>1.2</ele><time>2012-05-02T07:16:45.0000000+00:00</time></trkpt><trkpt lat="42.461311" lon="18.673737"><ele>3.3</ele><time>2012-05-02T07:16:50.0000000+00:00</time></trkpt><trkpt lat="42.460728" lon="18.6751"><ele>1.8</ele><time>2012-05-02T07:17:00.0000000+00:00</time></trkpt><trkpt lat="42.460281" lon="18.675461"><ele>2.6</ele><time>2012-05-02T07:17:05.0000000+00:00</time></trkpt><trkpt lat="42.459789" lon="18.675407"><ele>0.9</ele><time>2012-05-02T07:17:10.0000000+00:00</time></trkpt><trkpt lat="42.459515" lon="18.674868"><ele>1.9</ele><time>2012-05-02T07:17:15.0000000+00:00</time></trkpt><trkpt lat="42.45945" lon="18.672235"><ele>3.9</ele><time>2012-05-02T07:17:30.0000000+00:00</time></trkpt><trkpt lat="42.459255" lon="18.671288"><ele>1.2</ele><time>2012-05-02T07:17:35.0000000+00:00</time></trkpt><trkpt lat="42.458931" lon="18.670424"><ele>3.7</ele><time>2012-05-02T07:17:40.0000000+00:00</time></trkpt><trkpt lat="42.457645" lon="18.668182"><ele>3.0</ele><time>2012-05-02T07:17:55.0000000+00:00</time></trkpt><trkpt lat="42.457443" lon="18.66375"><ele>7.7</ele><time>2012-05-02T07:18:20.0000000+00:00</time></trkpt><trkpt lat="42.457024" lon="18.661325"><ele>8.8</ele><time>2012-05-02T07:18:40.0000000+00:00</time></trkpt><trkpt lat="42.455135" lon="18.655844"><ele>9.5</ele><time>2012-05-02T07:19:20.0000000+00:00</time></trkpt><trkpt lat="42.454285" lon="18.654057"><ele>13.7</ele><time>2012-05-02T07:19:35.0000000+00:00</time></trkpt><trkpt lat="42.452526" lon="18.651056"><ele>9.9</ele><time>2012-05-02T07:20:00.0000000+00:00</time></trkpt><trkpt lat="42.450481" lon="18.64798"><ele>5.7</ele><time>2012-05-02T07:20:25.0000000+00:00</time></trkpt><trkpt lat="42.448975" lon="18.644375"><ele>8.2</ele><time>2012-05-02T07:20:50.0000000+00:00</time></trkpt><trkpt lat="42.448097" lon="18.643251"><ele>11.2</ele><time>2012-05-02T07:21:00.0000000+00:00</time></trkpt><trkpt lat="42.446541" lon="18.641932"><ele>13.3</ele><time>2012-05-02T07:21:15.0000000+00:00</time></trkpt><trkpt lat="42.444046" lon="18.637224"><ele>18.7</ele><time>2012-05-02T07:21:50.0000000+00:00</time></trkpt><trkpt lat="42.443737" lon="18.635597"><ele>13.2</ele><time>2012-05-02T07:22:00.0000000+00:00</time></trkpt><trkpt lat="42.443321" lon="18.628246"><ele>13.5</ele><time>2012-05-02T07:22:40.0000000+00:00</time></trkpt><trkpt lat="42.443092" lon="18.627453"><ele>13.2</ele><time>2012-05-02T07:22:45.0000000+00:00</time></trkpt><trkpt lat="42.44194" lon="18.625397"><ele>18.3</ele><time>2012-05-02T07:23:00.0000000+00:00</time></trkpt><trkpt lat="42.441349" lon="18.623075"><ele>20.3</ele><time>2012-05-02T07:23:20.0000000+00:00</time></trkpt><trkpt lat="42.440731" lon="18.621881"><ele>20.5</ele><time>2012-05-02T07:23:30.0000000+00:00</time></trkpt><trkpt lat="42.440292" lon="18.62031"><ele>21.6</ele><time>2012-05-02T07:23:40.0000000+00:00</time></trkpt><trkpt lat="42.44017" lon="18.618637"><ele>22.3</ele><time>2012-05-02T07:23:50.0000000+00:00</time></trkpt><trkpt lat="42.440441" lon="18.616079"><ele>23.2</ele><time>2012-05-02T07:24:05.0000000+00:00</time></trkpt><trkpt lat="42.440147" lon="18.61533"><ele>23.7</ele><time>2012-05-02T07:24:10.0000000+00:00</time></trkpt><trkpt lat="42.439705" lon="18.614723"><ele>21.1</ele><time>2012-05-02T07:24:15.0000000+00:00</time></trkpt><trkpt lat="42.439449" lon="18.613937"><ele>24.2</ele><time>2012-05-02T07:24:20.0000000+00:00</time></trkpt><trkpt lat="42.439259" lon="18.612999"><ele>23.2</ele><time>2012-05-02T07:24:25.0000000+00:00</time></trkpt><trkpt lat="42.439209" lon="18.610964"><ele>27.1</ele><time>2012-05-02T07:24:35.0000000+00:00</time></trkpt><trkpt lat="42.438984" lon="18.610149"><ele>28.4</ele><time>2012-05-02T07:24:40.0000000+00:00</time></trkpt><trkpt lat="42.438454" lon="18.609732"><ele>29.1</ele><time>2012-05-02T07:24:45.0000000+00:00</time></trkpt><trkpt lat="42.437874" lon="18.609558"><ele>30.4</ele><time>2012-05-02T07:24:50.0000000+00:00</time></trkpt><trkpt lat="42.437397" lon="18.609108"><ele>32.0</ele><time>2012-05-02T07:24:55.0000000+00:00</time></trkpt><trkpt lat="42.437267" lon="18.608349"><ele>31.7</ele><time>2012-05-02T07:25:00.0000000+00:00</time></trkpt><trkpt lat="42.437469" lon="18.607662"><ele>31.7</ele><time>2012-05-02T07:25:05.0000000+00:00</time></trkpt><trkpt lat="42.438431" lon="18.606586"><ele>34.6</ele><time>2012-05-02T07:25:30.0000000+00:00</time></trkpt><trkpt lat="42.438637" lon="18.605844"><ele>30.5</ele><time>2012-05-02T07:25:35.0000000+00:00</time></trkpt><trkpt lat="42.438232" lon="18.603472"><ele>34.7</ele><time>2012-05-02T07:25:50.0000000+00:00</time></trkpt><trkpt lat="42.437943" lon="18.598097"><ele>26.9</ele><time>2012-05-02T07:26:20.0000000+00:00</time></trkpt><trkpt lat="42.438477" lon="18.596785"><ele>31.0</ele><time>2012-05-02T07:26:30.0000000+00:00</time></trkpt><trkpt lat="42.438641" lon="18.59589"><ele>29.7</ele><time>2012-05-02T07:26:35.0000000+00:00</time></trkpt><trkpt lat="42.438381" lon="18.593958"><ele>26.3</ele><time>2012-05-02T07:26:45.0000000+00:00</time></trkpt><trkpt lat="42.438534" lon="18.593016"><ele>26.4</ele><time>2012-05-02T07:26:50.0000000+00:00</time></trkpt><trkpt lat="42.439507" lon="18.590033"><ele>23.3</ele><time>2012-05-02T07:27:05.0000000+00:00</time></trkpt><trkpt lat="42.439453" lon="18.588356"><ele>22.6</ele><time>2012-05-02T07:27:15.0000000+00:00</time></trkpt><trkpt lat="42.439659" lon="18.587688"><ele>22.2</ele><time>2012-05-02T07:27:20.0000000+00:00</time></trkpt><trkpt lat="42.440083" lon="18.587135"><ele>18.4</ele><time>2012-05-02T07:27:25.0000000+00:00</time></trkpt><trkpt lat="42.440495" lon="18.585556"><ele>19.1</ele><time>2012-05-02T07:27:35.0000000+00:00</time></trkpt><trkpt lat="42.440807" lon="18.584938"><ele>17.3</ele><time>2012-05-02T07:27:40.0000000+00:00</time></trkpt><trkpt lat="42.441261" lon="18.5846"><ele>18.5</ele><time>2012-05-02T07:27:45.0000000+00:00</time></trkpt><trkpt lat="42.442638" lon="18.584181"><ele>17.1</ele><time>2012-05-02T07:27:55.0000000+00:00</time></trkpt><trkpt lat="42.443188" lon="18.58367"><ele>19.9</ele><time>2012-05-02T07:28:00.0000000+00:00</time></trkpt><trkpt lat="42.443478" lon="18.582829"><ele>13.1</ele><time>2012-05-02T07:28:05.0000000+00:00</time></trkpt><trkpt lat="42.443645" lon="18.580751"><ele>9.7</ele><time>2012-05-02T07:28:15.0000000+00:00</time></trkpt><trkpt lat="42.443863" lon="18.579739"><ele>10.6</ele><time>2012-05-02T07:28:20.0000000+00:00</time></trkpt><trkpt lat="42.444775" lon="18.578138"><ele>9.1</ele><time>2012-05-02T07:28:30.0000000+00:00</time></trkpt><trkpt lat="42.446594" lon="18.576668"><ele>5.7</ele><time>2012-05-02T07:28:45.0000000+00:00</time></trkpt><trkpt lat="42.449081" lon="18.574106"><ele>3.3</ele><time>2012-05-02T07:29:15.0000000+00:00</time></trkpt><trkpt lat="42.450432" lon="18.573349"><ele>3.0</ele><time>2012-05-02T07:29:30.0000000+00:00</time></trkpt><trkpt lat="42.450996" lon="18.572828"><ele>2.2</ele><time>2012-05-02T07:29:40.0000000+00:00</time></trkpt><trkpt lat="42.451591" lon="18.571945"><ele>6.2</ele><time>2012-05-02T07:29:50.0000000+00:00</time></trkpt><trkpt lat="42.452168" lon="18.570663"><ele>14.1</ele><time>2012-05-02T07:30:00.0000000+00:00</time></trkpt><trkpt lat="42.454971" lon="18.567677"><ele>34.9</ele><time>2012-05-02T07:30:25.0000000+00:00</time></trkpt><trkpt lat="42.455585" lon="18.566381"><ele>22.5</ele><time>2012-05-02T07:30:33.0000000+00:00</time></trkpt><trkpt lat="42.455723" lon="18.56554"><ele>15.3</ele><time>2012-05-02T07:30:38.0000000+00:00</time></trkpt><trkpt lat="42.45525" lon="18.562216"><ele>5.5</ele><time>2012-05-02T07:30:58.0000000+00:00</time></trkpt><trkpt lat="42.455235" lon="18.558256"><ele>4.5</ele><time>2012-05-02T07:31:33.0000000+00:00</time></trkpt><trkpt lat="42.453949" lon="18.558456"><ele>9.0</ele><time>2012-05-02T07:31:53.0000000+00:00</time></trkpt><trkpt lat="42.453541" lon="18.558294"><ele>13.3</ele><time>2012-05-02T07:31:58.0000000+00:00</time></trkpt><trkpt lat="42.452904" lon="18.557598"><ele>14.3</ele><time>2012-05-02T07:32:08.0000000+00:00</time></trkpt><trkpt lat="42.452019" lon="18.555946"><ele>19.0</ele><time>2012-05-02T07:32:23.0000000+00:00</time></trkpt><trkpt lat="42.451809" lon="18.555382"><ele>19.7</ele><time>2012-05-02T07:32:28.0000000+00:00</time></trkpt><trkpt lat="42.451569" lon="18.553589"><ele>24.0</ele><time>2012-05-02T07:32:43.0000000+00:00</time></trkpt><trkpt lat="42.450897" lon="18.552603"><ele>22.6</ele><time>2012-05-02T07:32:58.0000000+00:00</time></trkpt><trkpt lat="42.450474" lon="18.551142"><ele>24.4</ele><time>2012-05-02T07:33:18.0000000+00:00</time></trkpt><trkpt lat="42.45055" lon="18.549322"><ele>26.4</ele><time>2012-05-02T07:33:38.0000000+00:00</time></trkpt><trkpt lat="42.451019" lon="18.5478"><ele>30.7</ele><time>2012-05-02T07:34:13.0000000+00:00</time></trkpt><trkpt lat="42.450928" lon="18.546833"><ele>31.1</ele><time>2012-05-02T07:34:38.0000000+00:00</time></trkpt><trkpt lat="42.451134" lon="18.544899"><ele>34.8</ele><time>2012-05-02T07:35:03.0000000+00:00</time></trkpt><trkpt lat="42.451492" lon="18.543692"><ele>37.7</ele><time>2012-05-02T07:36:03.0000000+00:00</time></trkpt><trkpt lat="42.451477" lon="18.543962"><ele>37.9</ele><time>2012-05-02T07:38:48.0000000+00:00</time></trkpt><trkpt lat="42.452099" lon="18.542685"><ele>50.5</ele><time>2012-05-02T07:39:13.0000000+00:00</time></trkpt><trkpt lat="42.452297" lon="18.54187"><ele>55.7</ele><time>2012-05-02T07:39:28.0000000+00:00</time></trkpt><trkpt lat="42.452583" lon="18.541309"><ele>59.1</ele><time>2012-05-02T07:50:23.0000000+00:00</time></trkpt><trkpt lat="42.452648" lon="18.541481"><ele>60.7</ele><time>2012-05-02T07:50:58.0000000+00:00</time></trkpt><trkpt lat="42.452274" lon="18.541325"><ele>52.8</ele><time>2012-05-02T07:51:09.0000000+00:00</time></trkpt><trkpt lat="42.452602" lon="18.541445"><ele>59.5</ele><time>2012-05-02T08:00:59.0000000+00:00</time></trkpt><trkpt lat="42.452759" lon="18.539312"><ele>67.0</ele><time>2012-05-02T08:02:24.0000000+00:00</time></trkpt><trkpt lat="42.452648" lon="18.538637"><ele>69.0</ele><time>2012-05-02T08:02:49.0000000+00:00</time></trkpt><trkpt lat="42.453232" lon="18.536758"><ele>80.9</ele><time>2012-05-02T08:05:09.0000000+00:00</time></trkpt><trkpt lat="42.453178" lon="18.534025"><ele>74.4</ele><time>2012-05-02T08:05:49.0000000+00:00</time></trkpt><trkpt lat="42.452839" lon="18.534069"><ele>73.0</ele><time>2012-05-02T08:07:09.0000000+00:00</time></trkpt><trkpt lat="42.453007" lon="18.534243"><ele>71.3</ele><time>2012-05-02T08:07:59.0000000+00:00</time></trkpt><trkpt lat="42.452827" lon="18.534252"><ele>70.2</ele><time>2012-05-02T08:08:29.0000000+00:00</time></trkpt><trkpt lat="42.453011" lon="18.534239"><ele>71.4</ele><time>2012-05-02T08:09:09.0000000+00:00</time></trkpt><trkpt lat="42.452816" lon="18.533932"><ele>73.2</ele><time>2012-05-02T08:21:54.0000000+00:00</time></trkpt><trkpt lat="42.452984" lon="18.534081"><ele>73.6</ele><time>2012-05-02T08:48:39.0000000+00:00</time></trkpt><trkpt lat="42.452888" lon="18.53443"><ele>67.2</ele><time>2012-05-02T08:51:04.0000000+00:00</time></trkpt><trkpt lat="42.453152" lon="18.534647"><ele>71.4</ele><time>2012-05-02T08:51:19.0000000+00:00</time></trkpt><trkpt lat="42.453213" lon="18.534927"><ele>74.2</ele><time>2012-05-02T08:51:39.0000000+00:00</time></trkpt><trkpt lat="42.453152" lon="18.534512"><ele>70.9</ele><time>2012-05-02T08:51:49.0000000+00:00</time></trkpt><trkpt lat="42.452927" lon="18.534437"><ele>67.1</ele><time>2012-05-02T08:51:54.0000000+00:00</time></trkpt><trkpt lat="42.452702" lon="18.534643"><ele>65.8</ele><time>2012-05-02T08:51:59.0000000+00:00</time></trkpt><trkpt lat="42.452702" lon="18.535049"><ele>62.3</ele><time>2012-05-02T08:52:19.0000000+00:00</time></trkpt><trkpt lat="42.452675" lon="18.534746"><ele>64.6</ele><time>2012-05-02T08:52:29.0000000+00:00</time></trkpt><trkpt lat="42.452915" lon="18.53447"><ele>66.8</ele><time>2012-05-02T08:52:49.0000000+00:00</time></trkpt><trkpt lat="42.452995" lon="18.534008"><ele>74.2</ele><time>2012-05-02T08:53:49.0000000+00:00</time></trkpt><trkpt lat="42.452644" lon="18.534662"><ele>65.5</ele><time>2012-05-02T08:55:39.0000000+00:00</time></trkpt><trkpt lat="42.452633" lon="18.535461"><ele>58.7</ele><time>2012-05-02T08:55:49.0000000+00:00</time></trkpt><trkpt lat="42.452206" lon="18.536472"><ele>53.9</ele><time>2012-05-02T08:56:09.0000000+00:00</time></trkpt><trkpt lat="42.452034" lon="18.536537"><ele>52.1</ele><time>2012-05-02T08:56:19.0000000+00:00</time></trkpt><trkpt lat="42.451828" lon="18.536146"><ele>49.6</ele><time>2012-05-02T08:56:39.0000000+00:00</time></trkpt><trkpt lat="42.452019" lon="18.535522"><ele>49.6</ele><time>2012-05-02T08:56:59.0000000+00:00</time></trkpt><trkpt lat="42.451965" lon="18.534761"><ele>43.5</ele><time>2012-05-02T08:57:24.0000000+00:00</time></trkpt><trkpt lat="42.451881" lon="18.535097"><ele>42.7</ele><time>2012-05-02T08:57:34.0000000+00:00</time></trkpt><trkpt lat="42.451477" lon="18.535564"><ele>37.7</ele><time>2012-05-02T08:57:49.0000000+00:00</time></trkpt><trkpt lat="42.451347" lon="18.536432"><ele>44.0</ele><time>2012-05-02T08:58:39.0000000+00:00</time></trkpt><trkpt lat="42.450268" lon="18.53632"><ele>30.7</ele><time>2012-05-02T08:59:09.0000000+00:00</time></trkpt><trkpt lat="42.45002" lon="18.537373"><ele>22.4</ele><time>2012-05-02T08:59:24.0000000+00:00</time></trkpt><trkpt lat="42.450211" lon="18.537943"><ele>19.3</ele><time>2012-05-02T08:59:34.0000000+00:00</time></trkpt><trkpt lat="42.450562" lon="18.538244"><ele>24.0</ele><time>2012-05-02T09:01:59.0000000+00:00</time></trkpt><trkpt lat="42.450893" lon="18.539209"><ele>31.2</ele><time>2012-05-02T09:02:24.0000000+00:00</time></trkpt><trkpt lat="42.451485" lon="18.541044"><ele>30.1</ele><time>2012-05-02T09:02:59.0000000+00:00</time></trkpt><trkpt lat="42.451611" lon="18.542244"><ele>33.6</ele><time>2012-05-02T09:03:29.0000000+00:00</time></trkpt><trkpt lat="42.451473" lon="18.543489"><ele>36.3</ele><time>2012-05-02T09:04:04.0000000+00:00</time></trkpt><trkpt lat="42.451054" lon="18.544861"><ele>34.2</ele><time>2012-05-02T09:04:34.0000000+00:00</time></trkpt><trkpt lat="42.450863" lon="18.546595"><ele>30.5</ele><time>2012-05-02T09:04:59.0000000+00:00</time></trkpt><trkpt lat="42.450996" lon="18.547552"><ele>30.9</ele><time>2012-05-02T09:05:14.0000000+00:00</time></trkpt><trkpt lat="42.4505" lon="18.549686"><ele>25.3</ele><time>2012-05-02T09:05:44.0000000+00:00</time></trkpt><trkpt lat="42.450439" lon="18.551025"><ele>24.0</ele><time>2012-05-02T09:05:59.0000000+00:00</time></trkpt><trkpt lat="42.450966" lon="18.552876"><ele>23.6</ele><time>2012-05-02T09:06:19.0000000+00:00</time></trkpt><trkpt lat="42.451488" lon="18.553505"><ele>24.5</ele><time>2012-05-02T09:06:34.0000000+00:00</time></trkpt><trkpt lat="42.451992" lon="18.556135"><ele>18.3</ele><time>2012-05-02T09:07:04.0000000+00:00</time></trkpt><trkpt lat="42.452843" lon="18.557728"><ele>12.9</ele><time>2012-05-02T09:07:24.0000000+00:00</time></trkpt><trkpt lat="42.453465" lon="18.55839"><ele>10.1</ele><time>2012-05-02T09:07:34.0000000+00:00</time></trkpt><trkpt lat="42.453907" lon="18.558592"><ele>7.0</ele><time>2012-05-02T09:07:39.0000000+00:00</time></trkpt><trkpt lat="42.454945" lon="18.558578"><ele>4.7</ele><time>2012-05-02T09:07:54.0000000+00:00</time></trkpt><trkpt lat="42.455246" lon="18.559025"><ele>6.5</ele><time>2012-05-02T09:08:04.0000000+00:00</time></trkpt><trkpt lat="42.455189" lon="18.562172"><ele>4.9</ele><time>2012-05-02T09:08:49.0000000+00:00</time></trkpt><trkpt lat="42.45573" lon="18.564976"><ele>16.0</ele><time>2012-05-02T09:09:39.0000000+00:00</time></trkpt><trkpt lat="42.455467" lon="18.567497"><ele>35.4</ele><time>2012-05-02T09:10:19.0000000+00:00</time></trkpt><trkpt lat="42.454372" lon="18.56827"><ele>17.4</ele><time>2012-05-02T09:10:35.0000000+00:00</time></trkpt><trkpt lat="42.452351" lon="18.57041"><ele>17.8</ele><time>2012-05-02T09:11:05.0000000+00:00</time></trkpt><trkpt lat="42.451275" lon="18.572519"><ele>5.2</ele><time>2012-05-02T09:11:30.0000000+00:00</time></trkpt><trkpt lat="42.450699" lon="18.573149"><ele>2.1</ele><time>2012-05-02T09:11:40.0000000+00:00</time></trkpt><trkpt lat="42.44939" lon="18.573858"><ele>3.1</ele><time>2012-05-02T09:12:00.0000000+00:00</time></trkpt><trkpt lat="42.445885" lon="18.57736"><ele>5.0</ele><time>2012-05-02T09:13:05.0000000+00:00</time></trkpt><trkpt lat="42.444836" lon="18.578062"><ele>9.6</ele><time>2012-05-02T09:13:30.0000000+00:00</time></trkpt><trkpt lat="42.444191" lon="18.579008"><ele>13.3</ele><time>2012-05-02T09:13:45.0000000+00:00</time></trkpt><trkpt lat="42.443859" lon="18.579874"><ele>11.2</ele><time>2012-05-02T09:14:20.0000000+00:00</time></trkpt><trkpt lat="42.443745" lon="18.579853"><ele>6.1</ele><time>2012-05-02T09:17:40.0000000+00:00</time></trkpt><trkpt lat="42.443268" lon="18.581707"><ele>3.5</ele><time>2012-05-02T09:25:15.0000000+00:00</time></trkpt><trkpt lat="42.442154" lon="18.582941"><ele>2.9</ele><time>2012-05-02T09:25:50.0000000+00:00</time></trkpt><trkpt lat="42.44091" lon="18.583828"><ele>5.0</ele><time>2012-05-02T09:26:20.0000000+00:00</time></trkpt><trkpt lat="42.438713" lon="18.587292"><ele>1.5</ele><time>2012-05-02T09:27:20.0000000+00:00</time></trkpt><trkpt lat="42.438034" lon="18.588789"><ele>5.2</ele><time>2012-05-02T09:27:55.0000000+00:00</time></trkpt><trkpt lat="42.437378" lon="18.590874"><ele>1.8</ele><time>2012-05-02T09:28:30.0000000+00:00</time></trkpt><trkpt lat="42.437397" lon="18.591225"><ele>1.4</ele><time>2012-05-02T09:28:35.0000000+00:00</time></trkpt><trkpt lat="42.438057" lon="18.591837"><ele>6.3</ele><time>2012-05-02T09:28:55.0000000+00:00</time></trkpt><trkpt lat="42.438282" lon="18.592352"><ele>11.8</ele><time>2012-05-02T09:29:10.0000000+00:00</time></trkpt><trkpt lat="42.438023" lon="18.594336"><ele>19.5</ele><time>2012-05-02T09:30:00.0000000+00:00</time></trkpt><trkpt lat="42.435612" lon="18.602633"><ele>6.0</ele><time>2012-05-02T09:31:55.0000000+00:00</time></trkpt><trkpt lat="42.435184" lon="18.602949"><ele>6.2</ele><time>2012-05-02T09:32:05.0000000+00:00</time></trkpt><trkpt lat="42.435188" lon="18.604174"><ele>2.8</ele><time>2012-05-02T09:32:20.0000000+00:00</time></trkpt><trkpt lat="42.434879" lon="18.605156"><ele>1.1</ele><time>2012-05-02T09:32:35.0000000+00:00</time></trkpt><trkpt lat="42.434872" lon="18.605515"><ele>0.1</ele><time>2012-05-02T09:32:40.0000000+00:00</time></trkpt><trkpt lat="42.4352" lon="18.606277"><ele>2.0</ele><time>2012-05-02T09:32:55.0000000+00:00</time></trkpt><trkpt lat="42.435005" lon="18.607203"><ele>2.2</ele><time>2012-05-02T09:33:10.0000000+00:00</time></trkpt><trkpt lat="42.435234" lon="18.609699"><ele>0.6</ele><time>2012-05-02T09:33:45.0000000+00:00</time></trkpt><trkpt lat="42.436344" lon="18.610971"><ele>0.8</ele><time>2012-05-02T09:34:15.0000000+00:00</time></trkpt><trkpt lat="42.437191" lon="18.613926"><ele>0.0</ele><time>2012-05-02T09:35:10.0000000+00:00</time></trkpt><trkpt lat="42.438179" lon="18.61446"><ele>0.5</ele><time>2012-05-02T09:35:30.0000000+00:00</time></trkpt><trkpt lat="42.438438" lon="18.614998"><ele>1.2</ele><time>2012-05-02T09:35:40.0000000+00:00</time></trkpt><trkpt lat="42.43824" lon="18.616104"><ele>0.3</ele><time>2012-05-02T09:35:55.0000000+00:00</time></trkpt><trkpt lat="42.438694" lon="18.618792"><ele>1.5</ele><time>2012-05-02T09:36:30.0000000+00:00</time></trkpt><trkpt lat="42.438652" lon="18.619888"><ele>0.7</ele><time>2012-05-02T09:36:45.0000000+00:00</time></trkpt><trkpt lat="42.439152" lon="18.620802"><ele>1.0</ele><time>2012-05-02T09:37:00.0000000+00:00</time></trkpt><trkpt lat="42.439655" lon="18.623001"><ele>2.2</ele><time>2012-05-02T09:37:30.0000000+00:00</time></trkpt><trkpt lat="42.439499" lon="18.624596"><ele>0.6</ele><time>2012-05-02T09:37:50.0000000+00:00</time></trkpt><trkpt lat="42.43996" lon="18.62569"><ele>0.1</ele><time>2012-05-02T09:38:05.0000000+00:00</time></trkpt><trkpt lat="42.440304" lon="18.627489"><ele>0.7</ele><time>2012-05-02T09:38:30.0000000+00:00</time></trkpt><trkpt lat="42.441158" lon="18.630363"><ele>1.8</ele><time>2012-05-02T09:39:10.0000000+00:00</time></trkpt><trkpt lat="42.44109" lon="18.631451"><ele>1.0</ele><time>2012-05-02T09:39:25.0000000+00:00</time></trkpt><trkpt lat="42.442879" lon="18.634073"><ele>0.4</ele><time>2012-05-02T09:40:15.0000000+00:00</time></trkpt><trkpt lat="42.442963" lon="18.635166"><ele>0.6</ele><time>2012-05-02T09:40:30.0000000+00:00</time></trkpt><trkpt lat="42.444077" lon="18.639074"><ele>0.7</ele><time>2012-05-02T09:41:25.0000000+00:00</time></trkpt><trkpt lat="42.447605" lon="18.644796"><ele>1.0</ele><time>2012-05-02T09:43:00.0000000+00:00</time></trkpt><trkpt lat="42.448391" lon="18.646872"><ele>0.2</ele><time>2012-05-02T09:44:10.0000000+00:00</time></trkpt><trkpt lat="42.448959" lon="18.647509"><ele>0.2</ele><time>2012-05-02T09:46:55.0000000+00:00</time></trkpt><trkpt lat="42.449383" lon="18.648371"><ele>0.6</ele><time>2012-05-02T09:47:10.0000000+00:00</time></trkpt><trkpt lat="42.450367" lon="18.651472"><ele>1.6</ele><time>2012-05-02T09:47:55.0000000+00:00</time></trkpt><trkpt lat="42.45084" lon="18.651609"><ele>5.7</ele><time>2012-05-02T09:48:05.0000000+00:00</time></trkpt><trkpt lat="42.45153" lon="18.651503"><ele>5.0</ele><time>2012-05-02T09:48:20.0000000+00:00</time></trkpt><trkpt lat="42.452381" lon="18.652534"><ele>3.8</ele><time>2012-05-02T09:48:40.0000000+00:00</time></trkpt><trkpt lat="42.453335" lon="18.65332"><ele>8.1</ele><time>2012-05-02T09:49:00.0000000+00:00</time></trkpt><trkpt lat="42.453621" lon="18.65394"><ele>9.4</ele><time>2012-05-02T09:49:10.0000000+00:00</time></trkpt><trkpt lat="42.453762" lon="18.65448"><ele>10.0</ele><time>2012-05-02T09:49:20.0000000+00:00</time></trkpt><trkpt lat="42.453491" lon="18.654915"><ele>7.3</ele><time>2012-05-02T09:49:30.0000000+00:00</time></trkpt><trkpt lat="42.453793" lon="18.655981"><ele>7.6</ele><time>2012-05-02T09:49:45.0000000+00:00</time></trkpt><trkpt lat="42.453026" lon="18.656765"><ele>3.6</ele><time>2012-05-02T09:50:00.0000000+00:00</time></trkpt><trkpt lat="42.452667" lon="18.65744"><ele>3.5</ele><time>2012-05-02T09:50:10.0000000+00:00</time></trkpt><trkpt lat="42.452553" lon="18.6581"><ele>0.3</ele><time>2012-05-02T09:50:20.0000000+00:00</time></trkpt><trkpt lat="42.454296" lon="18.659998"><ele>0.2</ele><time>2012-05-02T09:51:00.0000000+00:00</time></trkpt><trkpt lat="42.456112" lon="18.662497"><ele>0.9</ele><time>2012-05-02T09:51:50.0000000+00:00</time></trkpt><trkpt lat="42.456604" lon="18.663992"><ele>0.7</ele><time>2012-05-02T09:52:10.0000000+00:00</time></trkpt><trkpt lat="42.457302" lon="18.667944"><ele>0.4</ele><time>2012-05-02T09:53:00.0000000+00:00</time></trkpt><trkpt lat="42.458355" lon="18.6698"><ele>0.4</ele><time>2012-05-02T09:53:25.0000000+00:00</time></trkpt><trkpt lat="42.458797" lon="18.670244"><ele>1.4</ele><time>2012-05-02T09:53:35.0000000+00:00</time></trkpt><trkpt lat="42.459377" lon="18.67164"><ele>3.4</ele><time>2012-05-02T09:53:55.0000000+00:00</time></trkpt><trkpt lat="42.459549" lon="18.674685"><ele>5.9</ele><time>2012-05-02T09:54:30.0000000+00:00</time></trkpt><trkpt lat="42.459797" lon="18.675425"><ele>0.9</ele><time>2012-05-02T09:54:40.0000000+00:00</time></trkpt><trkpt lat="42.460117" lon="18.67555"><ele>2.2</ele><time>2012-05-02T09:54:45.0000000+00:00</time></trkpt><trkpt lat="42.460705" lon="18.675226"><ele>1.3</ele><time>2012-05-02T09:54:55.0000000+00:00</time></trkpt><trkpt lat="42.46133" lon="18.67388"><ele>2.6</ele><time>2012-05-02T09:56:55.0000000+00:00</time></trkpt><trkpt lat="42.462406" lon="18.673019"><ele>0.3</ele><time>2012-05-02T09:57:15.0000000+00:00</time></trkpt><trkpt lat="42.463043" lon="18.673086"><ele>0.6</ele><time>2012-05-02T09:57:25.0000000+00:00</time></trkpt><trkpt lat="42.463829" lon="18.6735"><ele>2.7</ele><time>2012-05-02T09:57:45.0000000+00:00</time></trkpt><trkpt lat="42.465065" lon="18.67346"><ele>0.9</ele><time>2012-05-02T09:58:05.0000000+00:00</time></trkpt><trkpt lat="42.466297" lon="18.673676"><ele>1.6</ele><time>2012-05-02T09:58:25.0000000+00:00</time></trkpt><trkpt lat="42.467506" lon="18.675491"><ele>1.1</ele><time>2012-05-02T10:05:40.0000000+00:00</time></trkpt><trkpt lat="42.468403" lon="18.675611"><ele>0.5</ele><time>2012-05-02T10:05:55.0000000+00:00</time></trkpt><trkpt lat="42.468693" lon="18.675821"><ele>0.0</ele><time>2012-05-02T10:06:00.0000000+00:00</time></trkpt><trkpt lat="42.469345" lon="18.677036"><ele>0.3</ele><time>2012-05-02T10:06:20.0000000+00:00</time></trkpt><trkpt lat="42.470509" lon="18.677933"><ele>2.5</ele><time>2012-05-02T10:06:40.0000000+00:00</time></trkpt><trkpt lat="42.471237" lon="18.680344"><ele>0.0</ele><time>2012-05-02T10:07:10.0000000+00:00</time></trkpt><trkpt lat="42.47155" lon="18.68058"><ele>0.8</ele><time>2012-05-02T10:07:15.0000000+00:00</time></trkpt><trkpt lat="42.472778" lon="18.680567"><ele>1.2</ele><time>2012-05-02T10:07:30.0000000+00:00</time></trkpt><trkpt lat="42.473499" lon="18.680895"><ele>0.0</ele><time>2012-05-02T10:07:40.0000000+00:00</time></trkpt><trkpt lat="42.476101" lon="18.683846"><ele>3.3</ele><time>2012-05-02T10:08:35.0000000+00:00</time></trkpt><trkpt lat="42.476864" lon="18.683886"><ele>7.0</ele><time>2012-05-02T10:08:50.0000000+00:00</time></trkpt><trkpt lat="42.477127" lon="18.68408"><ele>4.1</ele><time>2012-05-02T10:08:55.0000000+00:00</time></trkpt><trkpt lat="42.47863" lon="18.68642"><ele>4.4</ele><time>2012-05-02T10:09:30.0000000+00:00</time></trkpt><trkpt lat="42.478947" lon="18.686432"><ele>6.4</ele><time>2012-05-02T10:09:35.0000000+00:00</time></trkpt><trkpt lat="42.479675" lon="18.685335"><ele>6.4</ele><time>2012-05-02T10:09:50.0000000+00:00</time></trkpt><trkpt lat="42.480701" lon="18.683077"><ele>5.2</ele><time>2012-05-02T10:10:20.0000000+00:00</time></trkpt><trkpt lat="42.482838" lon="18.677696"><ele>8.8</ele><time>2012-05-02T10:11:30.0000000+00:00</time></trkpt><trkpt lat="42.48328" lon="18.676186"><ele>11.8</ele><time>2012-05-02T10:11:50.0000000+00:00</time></trkpt><trkpt lat="42.484287" lon="18.67417"><ele>5.2</ele><time>2012-05-02T10:12:15.0000000+00:00</time></trkpt><trkpt lat="42.484528" lon="18.673231"><ele>6.0</ele><time>2012-05-02T10:12:25.0000000+00:00</time></trkpt><trkpt lat="42.484703" lon="18.670954"><ele>12.5</ele><time>2012-05-02T10:12:50.0000000+00:00</time></trkpt><trkpt lat="42.485413" lon="18.669102"><ele>5.7</ele><time>2012-05-02T10:13:15.0000000+00:00</time></trkpt><trkpt lat="42.486298" lon="18.667336"><ele>5.4</ele><time>2012-05-02T10:13:40.0000000+00:00</time></trkpt><trkpt lat="42.486332" lon="18.665171"><ele>7.3</ele><time>2012-05-02T10:14:05.0000000+00:00</time></trkpt><trkpt lat="42.486732" lon="18.663921"><ele>5.4</ele><time>2012-05-02T10:14:20.0000000+00:00</time></trkpt><trkpt lat="42.487186" lon="18.661505"><ele>8.9</ele><time>2012-05-02T10:14:50.0000000+00:00</time></trkpt><trkpt lat="42.486805" lon="18.659601"><ele>21.9</ele><time>2012-05-02T10:15:15.0000000+00:00</time></trkpt><trkpt lat="42.487103" lon="18.657936"><ele>12.6</ele><time>2012-05-02T10:15:35.0000000+00:00</time></trkpt><trkpt lat="42.486935" lon="18.656776"><ele>22.2</ele><time>2012-05-02T10:15:50.0000000+00:00</time></trkpt><trkpt lat="42.487179" lon="18.653711"><ele>8.6</ele><time>2012-05-02T10:16:25.0000000+00:00</time></trkpt><trkpt lat="42.487068" lon="18.652086"><ele>6.1</ele><time>2012-05-02T10:16:45.0000000+00:00</time></trkpt><trkpt lat="42.487183" lon="18.651737"><ele>3.3</ele><time>2012-05-02T10:16:50.0000000+00:00</time></trkpt><trkpt lat="42.488575" lon="18.650351"><ele>2.8</ele><time>2012-05-02T10:17:15.0000000+00:00</time></trkpt><trkpt lat="42.4893" lon="18.649097"><ele>2.5</ele><time>2012-05-02T10:17:35.0000000+00:00</time></trkpt><trkpt lat="42.48954" lon="18.648987"><ele>2.0</ele><time>2012-05-02T10:17:40.0000000+00:00</time></trkpt><trkpt lat="42.489815" lon="18.649061"><ele>1.3</ele><time>2012-05-02T10:17:45.0000000+00:00</time></trkpt><trkpt lat="42.490417" lon="18.649994"><ele>0.3</ele><time>2012-05-02T10:18:05.0000000+00:00</time></trkpt><trkpt lat="42.491035" lon="18.65049"><ele>0.2</ele><time>2012-05-02T10:18:45.0000000+00:00</time></trkpt><trkpt lat="42.491676" lon="18.650309"><ele>1.4</ele><time>2012-05-02T10:37:20.0000000+00:00</time></trkpt><trkpt lat="42.493332" lon="18.651814"><ele>0.6</ele><time>2012-05-02T10:37:55.0000000+00:00</time></trkpt><trkpt lat="42.49448" lon="18.651966"><ele>0.0</ele><time>2012-05-02T10:38:15.0000000+00:00</time></trkpt><trkpt lat="42.494865" lon="18.652689"><ele>0.7</ele><time>2012-05-02T10:38:25.0000000+00:00</time></trkpt><trkpt lat="42.495403" lon="18.654667"><ele>0.0</ele><time>2012-05-02T10:38:50.0000000+00:00</time></trkpt><trkpt lat="42.496258" lon="18.655361"><ele>0.1</ele><time>2012-05-02T10:39:05.0000000+00:00</time></trkpt><trkpt lat="42.496632" lon="18.656992"><ele>1.1</ele><time>2012-05-02T10:39:25.0000000+00:00</time></trkpt><trkpt lat="42.497025" lon="18.65799"><ele>2.1</ele><time>2012-05-02T10:39:40.0000000+00:00</time></trkpt><trkpt lat="42.497959" lon="18.658672"><ele>2.5</ele><time>2012-05-02T10:40:00.0000000+00:00</time></trkpt><trkpt lat="42.499111" lon="18.660372"><ele>0.1</ele><time>2012-05-02T10:40:25.0000000+00:00</time></trkpt><trkpt lat="42.500607" lon="18.661516"><ele>1.4</ele><time>2012-05-02T10:40:55.0000000+00:00</time></trkpt><trkpt lat="42.500988" lon="18.663288"><ele>1.3</ele><time>2012-05-02T10:41:20.0000000+00:00</time></trkpt><trkpt lat="42.502621" lon="18.665167"><ele>0.0</ele><time>2012-05-02T10:41:50.0000000+00:00</time></trkpt><trkpt lat="42.50349" lon="18.667051"><ele>0.1</ele><time>2012-05-02T10:42:15.0000000+00:00</time></trkpt><trkpt lat="42.504559" lon="18.667789"><ele>1.6</ele><time>2012-05-02T10:42:35.0000000+00:00</time></trkpt><trkpt lat="42.504707" lon="18.66814"><ele>2.3</ele><time>2012-05-02T10:42:40.0000000+00:00</time></trkpt><trkpt lat="42.504551" lon="18.669453"><ele>1.4</ele><time>2012-05-02T10:42:55.0000000+00:00</time></trkpt><trkpt lat="42.504662" lon="18.670736"><ele>0.8</ele><time>2012-05-02T10:43:10.0000000+00:00</time></trkpt><trkpt lat="42.505348" lon="18.67259"><ele>2.4</ele><time>2012-05-02T10:43:35.0000000+00:00</time></trkpt><trkpt lat="42.504757" lon="18.67462"><ele>0.0</ele><time>2012-05-02T10:44:00.0000000+00:00</time></trkpt><trkpt lat="42.504887" lon="18.675446"><ele>0.6</ele><time>2012-05-02T10:44:10.0000000+00:00</time></trkpt><trkpt lat="42.505211" lon="18.676176"><ele>0.0</ele><time>2012-05-02T10:44:20.0000000+00:00</time></trkpt><trkpt lat="42.505939" lon="18.676844"><ele>1.5</ele><time>2012-05-02T10:44:35.0000000+00:00</time></trkpt><trkpt lat="42.506912" lon="18.676891"><ele>0.2</ele><time>2012-05-02T10:44:55.0000000+00:00</time></trkpt><trkpt lat="42.507847" lon="18.677235"><ele>1.0</ele><time>2012-05-02T10:45:15.0000000+00:00</time></trkpt><trkpt lat="42.509106" lon="18.678614"><ele>6.3</ele><time>2012-05-02T10:45:50.0000000+00:00</time></trkpt><trkpt lat="42.510654" lon="18.678719"><ele>17.5</ele><time>2012-05-02T10:46:15.0000000+00:00</time></trkpt><trkpt lat="42.511139" lon="18.679224"><ele>13.0</ele><time>2012-05-02T10:46:25.0000000+00:00</time></trkpt><trkpt lat="42.511642" lon="18.680742"><ele>14.1</ele><time>2012-05-02T10:46:55.0000000+00:00</time></trkpt><trkpt lat="42.512096" lon="18.681402"><ele>12.1</ele><time>2012-05-02T10:47:15.0000000+00:00</time></trkpt><trkpt lat="42.512562" lon="18.681496"><ele>22.7</ele><time>2012-05-02T10:47:30.0000000+00:00</time></trkpt><trkpt lat="42.513107" lon="18.681311"><ele>24.8</ele><time>2012-05-02T10:47:45.0000000+00:00</time></trkpt><trkpt lat="42.513744" lon="18.681648"><ele>28.1</ele><time>2012-05-02T10:48:25.0000000+00:00</time></trkpt><trkpt lat="42.514294" lon="18.682606"><ele>19.7</ele><time>2012-05-02T10:55:35.0000000+00:00</time></trkpt><trkpt lat="42.515118" lon="18.682831"><ele>18.7</ele><time>2012-05-02T10:55:45.0000000+00:00</time></trkpt><trkpt lat="42.515511" lon="18.683348"><ele>13.2</ele><time>2012-05-02T10:55:50.0000000+00:00</time></trkpt><trkpt lat="42.516079" lon="18.684858"><ele>7.5</ele><time>2012-05-02T10:56:00.0000000+00:00</time></trkpt><trkpt lat="42.516098" lon="18.685658"><ele>0.8</ele><time>2012-05-02T10:56:05.0000000+00:00</time></trkpt><trkpt lat="42.516357" lon="18.68631"><ele>0.0</ele><time>2012-05-02T10:56:10.0000000+00:00</time></trkpt><trkpt lat="42.517097" lon="18.687233"><ele>0.4</ele><time>2012-05-02T10:56:20.0000000+00:00</time></trkpt><trkpt lat="42.517284" lon="18.688288"><ele>1.8</ele><time>2012-05-02T10:56:30.0000000+00:00</time></trkpt><trkpt lat="42.517246" lon="18.689754"><ele>1.9</ele><time>2012-05-02T10:56:45.0000000+00:00</time></trkpt><trkpt lat="42.51693" lon="18.691286"><ele>3.6</ele><time>2012-05-02T10:57:05.0000000+00:00</time></trkpt><trkpt lat="42.516109" lon="18.692894"><ele>4.5</ele><time>2012-05-02T10:57:30.0000000+00:00</time></trkpt><trkpt lat="42.515373" lon="18.693722"><ele>2.5</ele><time>2012-05-02T10:57:45.0000000+00:00</time></trkpt><trkpt lat="42.513878" lon="18.694799"><ele>1.6</ele><time>2012-05-02T10:58:25.0000000+00:00</time></trkpt><trkpt lat="42.514416" lon="18.694862"><ele>3.6</ele><time>2012-05-02T10:59:15.0000000+00:00</time></trkpt><trkpt lat="42.514687" lon="18.696182"><ele>13.9</ele><time>2012-05-02T11:00:40.0000000+00:00</time></trkpt><trkpt lat="42.515057" lon="18.696472"><ele>17.0</ele><time>2012-05-02T11:02:05.0000000+00:00</time></trkpt><trkpt lat="42.514847" lon="18.696184"><ele>15.3</ele><time>2012-05-02T11:02:40.0000000+00:00</time></trkpt><trkpt lat="42.51469" lon="18.696409"><ele>14.9</ele><time>2012-05-02T11:03:55.0000000+00:00</time></trkpt><trkpt lat="42.514915" lon="18.696381"><ele>16.1</ele><time>2012-05-02T11:05:25.0000000+00:00</time></trkpt><trkpt lat="42.514736" lon="18.696373"><ele>15.0</ele><time>2012-05-02T11:06:40.0000000+00:00</time></trkpt><trkpt lat="42.514843" lon="18.696398"><ele>15.7</ele><time>2012-05-02T11:07:00.0000000+00:00</time></trkpt><trkpt lat="42.514763" lon="18.696627"><ele>16.5</ele><time>2012-05-02T11:07:35.0000000+00:00</time></trkpt><trkpt lat="42.514317" lon="18.696955"><ele>18.3</ele><time>2012-05-02T11:07:55.0000000+00:00</time></trkpt><trkpt lat="42.514061" lon="18.69692"><ele>17.1</ele><time>2012-05-02T11:08:15.0000000+00:00</time></trkpt><trkpt lat="42.514328" lon="18.697073"><ele>20.7</ele><time>2012-05-02T11:08:55.0000000+00:00</time></trkpt><trkpt lat="42.514816" lon="18.696726"><ele>17.5</ele><time>2012-05-02T11:09:25.0000000+00:00</time></trkpt><trkpt lat="42.514893" lon="18.696024"><ele>14.3</ele><time>2012-05-02T11:10:05.0000000+00:00</time></trkpt><trkpt lat="42.514736" lon="18.695717"><ele>10.6</ele><time>2012-05-02T11:10:30.0000000+00:00</time></trkpt><trkpt lat="42.514252" lon="18.69561"><ele>6.6</ele><time>2012-05-02T11:11:05.0000000+00:00</time></trkpt><trkpt lat="42.51376" lon="18.695992"><ele>8.9</ele><time>2012-05-02T11:11:45.0000000+00:00</time></trkpt><trkpt lat="42.513638" lon="18.695805"><ele>9.5</ele><time>2012-05-02T11:12:15.0000000+00:00</time></trkpt><trkpt lat="42.51339" lon="18.695917"><ele>8.6</ele><time>2012-05-02T11:13:55.0000000+00:00</time></trkpt><trkpt lat="42.513348" lon="18.695414"><ele>6.6</ele><time>2012-05-02T11:18:10.0000000+00:00</time></trkpt><trkpt lat="42.512981" lon="18.695396"><ele>2.5</ele><time>2012-05-02T11:18:20.0000000+00:00</time></trkpt><trkpt lat="42.509914" lon="18.696491"><ele>3.8</ele><time>2012-05-02T11:19:25.0000000+00:00</time></trkpt><trkpt lat="42.509155" lon="18.696545"><ele>3.2</ele><time>2012-05-02T11:19:40.0000000+00:00</time></trkpt><trkpt lat="42.50724" lon="18.695345"><ele>9.6</ele><time>2012-05-02T11:20:15.0000000+00:00</time></trkpt><trkpt lat="42.506191" lon="18.6938"><ele>8.2</ele><time>2012-05-02T11:20:50.0000000+00:00</time></trkpt><trkpt lat="42.505806" lon="18.693552"><ele>8.6</ele><time>2012-05-02T11:21:00.0000000+00:00</time></trkpt><trkpt lat="42.505306" lon="18.693638"><ele>6.4</ele><time>2012-05-02T11:21:10.0000000+00:00</time></trkpt><trkpt lat="42.50378" lon="18.694498"><ele>11.9</ele><time>2012-05-02T11:21:35.0000000+00:00</time></trkpt><trkpt lat="42.503403" lon="18.694382"><ele>17.1</ele><time>2012-05-02T11:21:40.0000000+00:00</time></trkpt><trkpt lat="42.502747" lon="18.693806"><ele>14.3</ele><time>2012-05-02T11:21:50.0000000+00:00</time></trkpt><trkpt lat="42.502487" lon="18.692545"><ele>8.7</ele><time>2012-05-02T11:22:05.0000000+00:00</time></trkpt><trkpt lat="42.502056" lon="18.692093"><ele>7.6</ele><time>2012-05-02T11:22:15.0000000+00:00</time></trkpt><trkpt lat="42.501495" lon="18.692114"><ele>8.3</ele><time>2012-05-02T11:22:25.0000000+00:00</time></trkpt><trkpt lat="42.500614" lon="18.692633"><ele>13.3</ele><time>2012-05-02T11:22:40.0000000+00:00</time></trkpt><trkpt lat="42.500271" lon="18.692616"><ele>9.5</ele><time>2012-05-02T11:22:45.0000000+00:00</time></trkpt><trkpt lat="42.497921" lon="18.692003"><ele>19.5</ele><time>2012-05-02T11:23:25.0000000+00:00</time></trkpt><trkpt lat="42.496403" lon="18.691105"><ele>19.2</ele><time>2012-05-02T11:23:55.0000000+00:00</time></trkpt><trkpt lat="42.495594" lon="18.691006"><ele>14.6</ele><time>2012-05-02T11:24:10.0000000+00:00</time></trkpt><trkpt lat="42.494522" lon="18.691507"><ele>23.3</ele><time>2012-05-02T11:24:30.0000000+00:00</time></trkpt><trkpt lat="42.492336" lon="18.6915"><ele>16.6</ele><time>2012-05-02T11:25:05.0000000+00:00</time></trkpt><trkpt lat="42.490692" lon="18.692301"><ele>8.6</ele><time>2012-05-02T11:25:55.0000000+00:00</time></trkpt><trkpt lat="42.489662" lon="18.693401"><ele>6.9</ele><time>2012-05-02T11:27:40.0000000+00:00</time></trkpt><trkpt lat="42.489361" lon="18.693996"><ele>7.9</ele><time>2012-05-02T11:30:20.0000000+00:00</time></trkpt><trkpt lat="42.488098" lon="18.695034"><ele>0.9</ele><time>2012-05-02T11:30:50.0000000+00:00</time></trkpt><trkpt lat="42.487816" lon="18.695545"><ele>0.4</ele><time>2012-05-02T11:31:25.0000000+00:00</time></trkpt><trkpt lat="42.487587" lon="18.696749"><ele>3.2</ele><time>2012-05-02T11:31:50.0000000+00:00</time></trkpt><trkpt lat="42.486286" lon="18.697756"><ele>1.9</ele><time>2012-05-02T11:32:30.0000000+00:00</time></trkpt><trkpt lat="42.485455" lon="18.699272"><ele>0.4</ele><time>2012-05-02T11:33:10.0000000+00:00</time></trkpt><trkpt lat="42.485001" lon="18.700575"><ele>1.7</ele><time>2012-05-02T11:34:30.0000000+00:00</time></trkpt><trkpt lat="42.485199" lon="18.703039"><ele>5.7</ele><time>2012-05-02T11:35:15.0000000+00:00</time></trkpt><trkpt lat="42.48436" lon="18.704035"><ele>1.3</ele><time>2012-05-02T11:35:40.0000000+00:00</time></trkpt><trkpt lat="42.484154" lon="18.705076"><ele>3.9</ele><time>2012-05-02T11:36:00.0000000+00:00</time></trkpt><trkpt lat="42.48436" lon="18.706379"><ele>2.0</ele><time>2012-05-02T11:36:20.0000000+00:00</time></trkpt><trkpt lat="42.483982" lon="18.708477"><ele>2.1</ele><time>2012-05-02T11:42:15.0000000+00:00</time></trkpt><trkpt lat="42.483707" lon="18.715912"><ele>3.9</ele><time>2012-05-02T11:43:40.0000000+00:00</time></trkpt><trkpt lat="42.48423" lon="18.721226"><ele>3.7</ele><time>2012-05-02T11:44:35.0000000+00:00</time></trkpt><trkpt lat="42.484142" lon="18.725351"><ele>3.3</ele><time>2012-05-02T11:45:25.0000000+00:00</time></trkpt><trkpt lat="42.484581" lon="18.728987"><ele>4.6</ele><time>2012-05-02T11:46:10.0000000+00:00</time></trkpt><trkpt lat="42.484474" lon="18.730154"><ele>9.3</ele><time>2012-05-02T11:46:25.0000000+00:00</time></trkpt><trkpt lat="42.483765" lon="18.731403"><ele>7.0</ele><time>2012-05-02T11:46:45.0000000+00:00</time></trkpt><trkpt lat="42.483437" lon="18.732891"><ele>3.4</ele><time>2012-05-02T11:47:05.0000000+00:00</time></trkpt><trkpt lat="42.483601" lon="18.734015"><ele>3.4</ele><time>2012-05-02T11:47:20.0000000+00:00</time></trkpt><trkpt lat="42.48423" lon="18.735348"><ele>6.4</ele><time>2012-05-02T11:47:40.0000000+00:00</time></trkpt><trkpt lat="42.484333" lon="18.738518"><ele>0.9</ele><time>2012-05-02T11:48:20.0000000+00:00</time></trkpt><trkpt lat="42.484631" lon="18.739237"><ele>3.1</ele><time>2012-05-02T11:48:30.0000000+00:00</time></trkpt><trkpt lat="42.485268" lon="18.740101"><ele>3.6</ele><time>2012-05-02T11:48:45.0000000+00:00</time></trkpt><trkpt lat="42.485634" lon="18.741535"><ele>4.0</ele><time>2012-05-02T11:49:05.0000000+00:00</time></trkpt><trkpt lat="42.485706" lon="18.743103"><ele>2.3</ele><time>2012-05-02T11:49:25.0000000+00:00</time></trkpt><trkpt lat="42.486351" lon="18.74402"><ele>3.4</ele><time>2012-05-02T11:49:40.0000000+00:00</time></trkpt><trkpt lat="42.487209" lon="18.747438"><ele>2.7</ele><time>2012-05-02T11:50:20.0000000+00:00</time></trkpt><trkpt lat="42.487686" lon="18.748522"><ele>2.1</ele><time>2012-05-02T11:50:35.0000000+00:00</time></trkpt><trkpt lat="42.487972" lon="18.749771"><ele>3.2</ele><time>2012-05-02T11:50:50.0000000+00:00</time></trkpt><trkpt lat="42.489594" lon="18.752804"><ele>1.9</ele><time>2012-05-02T11:51:30.0000000+00:00</time></trkpt><trkpt lat="42.49028" lon="18.753746"><ele>3.7</ele><time>2012-05-02T11:51:45.0000000+00:00</time></trkpt><trkpt lat="42.490318" lon="18.754177"><ele>5.1</ele><time>2012-05-02T11:51:50.0000000+00:00</time></trkpt><trkpt lat="42.489918" lon="18.755444"><ele>3.8</ele><time>2012-05-02T11:52:10.0000000+00:00</time></trkpt><trkpt lat="42.490566" lon="18.757698"><ele>9.3</ele><time>2012-05-02T11:52:40.0000000+00:00</time></trkpt><trkpt lat="42.49057" lon="18.758524"><ele>15.1</ele><time>2012-05-02T11:52:50.0000000+00:00</time></trkpt><trkpt lat="42.49028" lon="18.759512"><ele>14.8</ele><time>2012-05-02T11:53:50.0000000+00:00</time></trkpt><trkpt lat="42.490177" lon="18.759453"><ele>12.7</ele><time>2012-05-02T11:54:50.0000000+00:00</time></trkpt><trkpt lat="42.490383" lon="18.759491"><ele>17.0</ele><time>2012-05-02T11:55:55.0000000+00:00</time></trkpt><trkpt lat="42.49025" lon="18.75947"><ele>14.2</ele><time>2012-05-02T11:56:55.0000000+00:00</time></trkpt><trkpt lat="42.490341" lon="18.759613"><ele>16.2</ele><time>2012-05-02T11:57:35.0000000+00:00</time></trkpt><trkpt lat="42.490314" lon="18.759384"><ele>15.2</ele><time>2012-05-02T11:58:10.0000000+00:00</time></trkpt><trkpt lat="42.490501" lon="18.759396"><ele>18.2</ele><time>2012-05-02T12:06:15.0000000+00:00</time></trkpt><trkpt lat="42.490242" lon="18.759617"><ele>14.0</ele><time>2012-05-02T12:07:15.0000000+00:00</time></trkpt><trkpt lat="42.490116" lon="18.760393"><ele>9.7</ele><time>2012-05-02T12:07:25.0000000+00:00</time></trkpt><trkpt lat="42.490353" lon="18.762264"><ele>4.8</ele><time>2012-05-02T12:07:45.0000000+00:00</time></trkpt><trkpt lat="42.490284" lon="18.762812"><ele>4.7</ele><time>2012-05-02T12:07:50.0000000+00:00</time></trkpt><trkpt lat="42.489799" lon="18.763803"><ele>3.3</ele><time>2012-05-02T12:08:00.0000000+00:00</time></trkpt><trkpt lat="42.489056" lon="18.764252"><ele>5.8</ele><time>2012-05-02T12:08:10.0000000+00:00</time></trkpt><trkpt lat="42.48848" lon="18.764986"><ele>3.1</ele><time>2012-05-02T12:08:20.0000000+00:00</time></trkpt><trkpt lat="42.488197" lon="18.765226"><ele>5.1</ele><time>2012-05-02T12:08:25.0000000+00:00</time></trkpt><trkpt lat="42.487473" lon="18.765131"><ele>6.0</ele><time>2012-05-02T12:08:40.0000000+00:00</time></trkpt><trkpt lat="42.486813" lon="18.765404"><ele>8.4</ele><time>2012-05-02T12:08:55.0000000+00:00</time></trkpt><trkpt lat="42.486488" lon="18.765793"><ele>8.1</ele><time>2012-05-02T12:09:05.0000000+00:00</time></trkpt><trkpt lat="42.486332" lon="18.766655"><ele>9.9</ele><time>2012-05-02T12:09:20.0000000+00:00</time></trkpt><trkpt lat="42.48608" lon="18.76679"><ele>12.8</ele><time>2012-05-02T12:09:25.0000000+00:00</time></trkpt><trkpt lat="42.484959" lon="18.766373"><ele>16.9</ele><time>2012-05-02T12:09:45.0000000+00:00</time></trkpt><trkpt lat="42.483902" lon="18.765402"><ele>13.2</ele><time>2012-05-02T12:10:05.0000000+00:00</time></trkpt><trkpt lat="42.482395" lon="18.765074"><ele>13.5</ele><time>2012-05-02T12:10:25.0000000+00:00</time></trkpt><trkpt lat="42.481514" lon="18.764347"><ele>13.5</ele><time>2012-05-02T12:10:40.0000000+00:00</time></trkpt><trkpt lat="42.479786" lon="18.764383"><ele>16.1</ele><time>2012-05-02T12:11:05.0000000+00:00</time></trkpt><trkpt lat="42.479023" lon="18.763723"><ele>9.3</ele><time>2012-05-02T12:11:20.0000000+00:00</time></trkpt><trkpt lat="42.477947" lon="18.763248"><ele>3.6</ele><time>2012-05-02T12:11:35.0000000+00:00</time></trkpt><trkpt lat="42.477142" lon="18.763458"><ele>2.5</ele><time>2012-05-02T12:11:45.0000000+00:00</time></trkpt><trkpt lat="42.476124" lon="18.764681"><ele>6.5</ele><time>2012-05-02T12:12:00.0000000+00:00</time></trkpt><trkpt lat="42.475769" lon="18.764791"><ele>12.0</ele><time>2012-05-02T12:12:05.0000000+00:00</time></trkpt><trkpt lat="42.474876" lon="18.764751"><ele>7.6</ele><time>2012-05-02T12:12:15.0000000+00:00</time></trkpt><trkpt lat="42.474129" lon="18.764477"><ele>6.3</ele><time>2012-05-02T12:12:25.0000000+00:00</time></trkpt><trkpt lat="42.473114" lon="18.76461"><ele>12.3</ele><time>2012-05-02T12:12:40.0000000+00:00</time></trkpt><trkpt lat="42.472088" lon="18.763905"><ele>12.1</ele><time>2012-05-02T12:13:05.0000000+00:00</time></trkpt><trkpt lat="42.470917" lon="18.764475"><ele>12.2</ele><time>2012-05-02T12:14:30.0000000+00:00</time></trkpt><trkpt lat="42.470158" lon="18.764496"><ele>7.3</ele><time>2012-05-02T12:14:50.0000000+00:00</time></trkpt><trkpt lat="42.469322" lon="18.763742"><ele>3.2</ele><time>2012-05-02T12:15:05.0000000+00:00</time></trkpt><trkpt lat="42.467514" lon="18.762951"><ele>5.1</ele><time>2012-05-02T12:15:45.0000000+00:00</time></trkpt><trkpt lat="42.464161" lon="18.763981"><ele>5.3</ele><time>2012-05-02T12:16:50.0000000+00:00</time></trkpt><trkpt lat="42.463017" lon="18.763916"><ele>4.2</ele><time>2012-05-02T12:17:10.0000000+00:00</time></trkpt><trkpt lat="42.461712" lon="18.764227"><ele>5.8</ele><time>2012-05-02T12:17:35.0000000+00:00</time></trkpt><trkpt lat="42.460373" lon="18.764145"><ele>1.9</ele><time>2012-05-02T12:18:00.0000000+00:00</time></trkpt><trkpt lat="42.459793" lon="18.764797"><ele>6.1</ele><time>2012-05-02T12:18:15.0000000+00:00</time></trkpt><trkpt lat="42.459366" lon="18.764765"><ele>5.0</ele><time>2012-05-02T12:18:25.0000000+00:00</time></trkpt><trkpt lat="42.458767" lon="18.765127"><ele>2.6</ele><time>2012-05-02T12:18:40.0000000+00:00</time></trkpt><trkpt lat="42.457535" lon="18.764938"><ele>-0.9</ele><time>2012-05-02T12:19:05.0000000+00:00</time></trkpt><trkpt lat="42.456253" lon="18.765945"><ele>5.6</ele><time>2012-05-02T12:19:35.0000000+00:00</time></trkpt><trkpt lat="42.455196" lon="18.765938"><ele>4.5</ele><time>2012-05-02T12:19:55.0000000+00:00</time></trkpt><trkpt lat="42.454174" lon="18.765471"><ele>6.4</ele><time>2012-05-02T12:20:20.0000000+00:00</time></trkpt><trkpt lat="42.453663" lon="18.765028"><ele>3.3</ele><time>2012-05-02T12:22:15.0000000+00:00</time></trkpt><trkpt lat="42.453415" lon="18.765127"><ele>5.3</ele><time>2012-05-02T12:23:00.0000000+00:00</time></trkpt><trkpt lat="42.452988" lon="18.764936"><ele>2.6</ele><time>2012-05-02T12:24:00.0000000+00:00</time></trkpt><trkpt lat="42.450912" lon="18.765265"><ele>4.2</ele><time>2012-05-02T12:24:55.0000000+00:00</time></trkpt><trkpt lat="42.450279" lon="18.764872"><ele>6.2</ele><time>2012-05-02T12:25:15.0000000+00:00</time></trkpt><trkpt lat="42.449478" lon="18.765051"><ele>3.1</ele><time>2012-05-02T12:25:30.0000000+00:00</time></trkpt><trkpt lat="42.448959" lon="18.765633"><ele>7.0</ele><time>2012-05-02T12:26:00.0000000+00:00</time></trkpt><trkpt lat="42.448578" lon="18.765743"><ele>7.6</ele><time>2012-05-02T12:26:30.0000000+00:00</time></trkpt><trkpt lat="42.447536" lon="18.765345"><ele>2.5</ele><time>2012-05-02T12:28:05.0000000+00:00</time></trkpt><trkpt lat="42.44664" lon="18.765451"><ele>6.5</ele><time>2012-05-02T12:28:25.0000000+00:00</time></trkpt><trkpt lat="42.444984" lon="18.764591"><ele>6.3</ele><time>2012-05-02T12:29:00.0000000+00:00</time></trkpt><trkpt lat="42.443768" lon="18.763716"><ele>2.6</ele><time>2012-05-02T12:29:25.0000000+00:00</time></trkpt><trkpt lat="42.443222" lon="18.763615"><ele>3.4</ele><time>2012-05-02T12:29:35.0000000+00:00</time></trkpt><trkpt lat="42.442287" lon="18.762188"><ele>2.6</ele><time>2012-05-02T12:30:00.0000000+00:00</time></trkpt><trkpt lat="42.441784" lon="18.76189"><ele>2.6</ele><time>2012-05-02T12:30:10.0000000+00:00</time></trkpt><trkpt lat="42.440132" lon="18.762453"><ele>4.0</ele><time>2012-05-02T12:31:05.0000000+00:00</time></trkpt><trkpt lat="42.439651" lon="18.763021"><ele>5.3</ele><time>2012-05-02T12:31:20.0000000+00:00</time></trkpt><trkpt lat="42.438984" lon="18.763332"><ele>3.7</ele><time>2012-05-02T12:31:35.0000000+00:00</time></trkpt><trkpt lat="42.437737" lon="18.764362"><ele>3.1</ele><time>2012-05-02T12:32:05.0000000+00:00</time></trkpt><trkpt lat="42.436081" lon="18.764616"><ele>3.8</ele><time>2012-05-02T12:32:45.0000000+00:00</time></trkpt><trkpt lat="42.435368" lon="18.766024"><ele>2.7</ele><time>2012-05-02T12:33:10.0000000+00:00</time></trkpt><trkpt lat="42.434227" lon="18.766956"><ele>4.3</ele><time>2012-05-02T12:33:35.0000000+00:00</time></trkpt><trkpt lat="42.433197" lon="18.767372"><ele>3.3</ele><time>2012-05-02T12:33:55.0000000+00:00</time></trkpt><trkpt lat="42.432049" lon="18.767334"><ele>3.2</ele><time>2012-05-02T12:34:20.0000000+00:00</time></trkpt><trkpt lat="42.430981" lon="18.767658"><ele>3.8</ele><time>2012-05-02T12:34:45.0000000+00:00</time></trkpt><trkpt lat="42.430473" lon="18.767561"><ele>3.1</ele><time>2012-05-02T12:34:55.0000000+00:00</time></trkpt><trkpt lat="42.42963" lon="18.768099"><ele>3.9</ele><time>2012-05-02T12:35:10.0000000+00:00</time></trkpt><trkpt lat="42.428764" lon="18.769051"><ele>3.5</ele><time>2012-05-02T12:35:30.0000000+00:00</time></trkpt><trkpt lat="42.427628" lon="18.768873"><ele>5.4</ele><time>2012-05-02T12:36:35.0000000+00:00</time></trkpt><trkpt lat="42.426277" lon="18.768372"><ele>2.3</ele><time>2012-05-02T12:37:05.0000000+00:00</time></trkpt><trkpt lat="42.425224" lon="18.768353"><ele>1.1</ele><time>2012-05-02T12:37:30.0000000+00:00</time></trkpt><trkpt lat="42.424541" lon="18.769382"><ele>1.8</ele><time>2012-05-02T12:38:00.0000000+00:00</time></trkpt><trkpt lat="42.42437" lon="18.769274"><ele>0.4</ele><time>2012-05-02T12:46:35.0000000+00:00</time></trkpt><trkpt lat="42.423222" lon="18.770988"><ele>6.5</ele><time>2012-05-02T12:47:35.0000000+00:00</time></trkpt><trkpt lat="42.422905" lon="18.771204"><ele>11.3</ele><time>2012-05-02T12:48:50.0000000+00:00</time></trkpt><trkpt lat="42.424454" lon="18.769369"><ele>1.1</ele><time>2012-05-02T12:50:15.0000000+00:00</time></trkpt><trkpt lat="42.424789" lon="18.769766"><ele>5.2</ele><time>2012-05-02T12:50:45.0000000+00:00</time></trkpt><trkpt lat="42.424641" lon="18.769876"><ele>7.6</ele><time>2012-05-02T12:50:55.0000000+00:00</time></trkpt><trkpt lat="42.424694" lon="18.770172"><ele>8.8</ele><time>2012-05-02T12:51:10.0000000+00:00</time></trkpt><trkpt lat="42.424469" lon="18.770554"><ele>6.4</ele><time>2012-05-02T12:51:25.0000000+00:00</time></trkpt><trkpt lat="42.424068" lon="18.770615"><ele>7.4</ele><time>2012-05-02T12:52:25.0000000+00:00</time></trkpt><trkpt lat="42.424454" lon="18.770962"><ele>5.0</ele><time>2012-05-02T12:52:45.0000000+00:00</time></trkpt><trkpt lat="42.424126" lon="18.770937"><ele>7.8</ele><time>2012-05-02T12:53:05.0000000+00:00</time></trkpt><trkpt lat="42.424225" lon="18.770985"><ele>6.8</ele><time>2012-05-02T12:53:20.0000000+00:00</time></trkpt><trkpt lat="42.424103" lon="18.7712"><ele>11.4</ele><time>2012-05-02T12:54:35.0000000+00:00</time></trkpt><trkpt lat="42.424274" lon="18.771358"><ele>12.0</ele><time>2012-05-02T13:00:25.0000000+00:00</time></trkpt><trkpt lat="42.42421" lon="18.771832"><ele>22.2</ele><time>2012-05-02T13:00:50.0000000+00:00</time></trkpt><trkpt lat="42.424488" lon="18.771727"><ele>17.9</ele><time>2012-05-02T13:01:30.0000000+00:00</time></trkpt><trkpt lat="42.425217" lon="18.772194"><ele>19.4</ele><time>2012-05-02T13:07:25.0000000+00:00</time></trkpt><trkpt lat="42.424362" lon="18.773193"><ele>89.8</ele><time>2012-05-02T13:10:34.0000000+00:00</time></trkpt><trkpt lat="42.425213" lon="18.771971"><ele>12.9</ele><time>2012-05-02T13:12:49.0000000+00:00</time></trkpt><trkpt lat="42.425755" lon="18.771887"><ele>10.7</ele><time>2012-05-02T13:13:34.0000000+00:00</time></trkpt><trkpt lat="42.426098" lon="18.772097"><ele>9.5</ele><time>2012-05-02T13:14:19.0000000+00:00</time></trkpt><trkpt lat="42.426121" lon="18.771837"><ele>8.7</ele><time>2012-05-02T13:14:34.0000000+00:00</time></trkpt><trkpt lat="42.425808" lon="18.771919"><ele>11.3</ele><time>2012-05-02T13:15:04.0000000+00:00</time></trkpt><trkpt lat="42.426044" lon="18.771805"><ele>10.3</ele><time>2012-05-02T13:15:34.0000000+00:00</time></trkpt><trkpt lat="42.425686" lon="18.771639"><ele>8.9</ele><time>2012-05-02T13:16:14.0000000+00:00</time></trkpt><trkpt lat="42.425659" lon="18.771223"><ele>9.6</ele><time>2012-05-02T13:16:34.0000000+00:00</time></trkpt><trkpt lat="42.42535" lon="18.770979"><ele>7.8</ele><time>2012-05-02T13:17:29.0000000+00:00</time></trkpt><trkpt lat="42.425018" lon="18.771276"><ele>8.3</ele><time>2012-05-02T13:18:09.0000000+00:00</time></trkpt><trkpt lat="42.42477" lon="18.771246"><ele>8.4</ele><time>2012-05-02T13:18:29.0000000+00:00</time></trkpt><trkpt lat="42.424767" lon="18.771097"><ele>8.1</ele><time>2012-05-02T13:18:39.0000000+00:00</time></trkpt><trkpt lat="42.423923" lon="18.771278"><ele>13.7</ele><time>2012-05-02T13:19:54.0000000+00:00</time></trkpt><trkpt lat="42.423637" lon="18.771658"><ele>23.9</ele><time>2012-05-02T13:21:09.0000000+00:00</time></trkpt><trkpt lat="42.423328" lon="18.771555"><ele>21.9</ele><time>2012-05-02T13:21:14.0000000+00:00</time></trkpt><trkpt lat="42.422482" lon="18.771734"><ele>19.8</ele><time>2012-05-02T13:21:54.0000000+00:00</time></trkpt><trkpt lat="42.422798" lon="18.771841"><ele>24.7</ele><time>2012-05-02T13:22:24.0000000+00:00</time></trkpt><trkpt lat="42.422337" lon="18.77141"><ele>9.9</ele><time>2012-05-02T13:22:49.0000000+00:00</time></trkpt><trkpt lat="42.422779" lon="18.771788"><ele>23.1</ele><time>2012-05-02T13:23:34.0000000+00:00</time></trkpt><trkpt lat="42.422337" lon="18.771589"><ele>15.3</ele><time>2012-05-02T13:24:04.0000000+00:00</time></trkpt><trkpt lat="42.422466" lon="18.771545"><ele>14.3</ele><time>2012-05-02T13:24:29.0000000+00:00</time></trkpt><trkpt lat="42.422459" lon="18.772568"><ele>73.0</ele><time>2012-05-02T13:26:14.0000000+00:00</time></trkpt><trkpt lat="42.42223" lon="18.771978"><ele>30.6</ele><time>2012-05-02T13:26:39.0000000+00:00</time></trkpt><trkpt lat="42.422337" lon="18.771645"><ele>17.0</ele><time>2012-05-02T13:28:29.0000000+00:00</time></trkpt><trkpt lat="42.421791" lon="18.770052"><ele>3.3</ele><time>2012-05-02T13:29:09.0000000+00:00</time></trkpt><trkpt lat="42.421471" lon="18.765345"><ele>4.3</ele><time>2012-05-02T13:30:44.0000000+00:00</time></trkpt><trkpt lat="42.421612" lon="18.763523"><ele>3.2</ele><time>2012-05-02T13:31:09.0000000+00:00</time></trkpt><trkpt lat="42.422153" lon="18.762051"><ele>4.5</ele><time>2012-05-02T13:31:34.0000000+00:00</time></trkpt><trkpt lat="42.422962" lon="18.761696"><ele>3.6</ele><time>2012-05-02T13:31:54.0000000+00:00</time></trkpt><trkpt lat="42.424061" lon="18.760517"><ele>1.6</ele><time>2012-05-02T13:32:19.0000000+00:00</time></trkpt><trkpt lat="42.424969" lon="18.760178"><ele>2.2</ele><time>2012-05-02T13:32:34.0000000+00:00</time></trkpt><trkpt lat="42.42543" lon="18.759525"><ele>1.1</ele><time>2012-05-02T13:32:44.0000000+00:00</time></trkpt><trkpt lat="42.425934" lon="18.759155"><ele>2.6</ele><time>2012-05-02T13:32:54.0000000+00:00</time></trkpt><trkpt lat="42.427097" lon="18.758865"><ele>1.1</ele><time>2012-05-02T13:34:04.0000000+00:00</time></trkpt><trkpt lat="42.427727" lon="18.758905"><ele>0.1</ele><time>2012-05-02T13:34:19.0000000+00:00</time></trkpt><trkpt lat="42.428795" lon="18.758402"><ele>0.0</ele><time>2012-05-02T13:34:39.0000000+00:00</time></trkpt><trkpt lat="42.430393" lon="18.758356"><ele>0.0</ele><time>2012-05-02T13:35:09.0000000+00:00</time></trkpt><trkpt lat="42.431091" lon="18.757969"><ele>2.7</ele><time>2012-05-02T13:35:24.0000000+00:00</time></trkpt><trkpt lat="42.43211" lon="18.757782"><ele>0.9</ele><time>2012-05-02T13:35:44.0000000+00:00</time></trkpt><trkpt lat="42.433403" lon="18.758066"><ele>0.8</ele><time>2012-05-02T13:36:09.0000000+00:00</time></trkpt><trkpt lat="42.434643" lon="18.757023"><ele>1.6</ele><time>2012-05-02T13:36:34.0000000+00:00</time></trkpt><trkpt lat="42.435223" lon="18.756973"><ele>0.2</ele><time>2012-05-02T13:36:44.0000000+00:00</time></trkpt><trkpt lat="42.436893" lon="18.755991"><ele>1.1</ele><time>2012-05-02T13:37:19.0000000+00:00</time></trkpt><trkpt lat="42.437496" lon="18.755198"><ele>2.3</ele><time>2012-05-02T13:37:34.0000000+00:00</time></trkpt><trkpt lat="42.438786" lon="18.754507"><ele>0.0</ele><time>2012-05-02T13:38:29.0000000+00:00</time></trkpt><trkpt lat="42.439491" lon="18.75351"><ele>3.2</ele><time>2012-05-02T13:38:49.0000000+00:00</time></trkpt><trkpt lat="42.441326" lon="18.754578"><ele>0.5</ele><time>2012-05-02T13:39:24.0000000+00:00</time></trkpt><trkpt lat="42.442345" lon="18.754681"><ele>3.7</ele><time>2012-05-02T13:39:44.0000000+00:00</time></trkpt><trkpt lat="42.44302" lon="18.754084"><ele>7.4</ele><time>2012-05-02T13:39:59.0000000+00:00</time></trkpt><trkpt lat="42.443825" lon="18.752632"><ele>1.4</ele><time>2012-05-02T13:40:24.0000000+00:00</time></trkpt><trkpt lat="42.444263" lon="18.752293"><ele>1.3</ele><time>2012-05-02T13:40:34.0000000+00:00</time></trkpt><trkpt lat="42.444614" lon="18.75231"><ele>0.5</ele><time>2012-05-02T13:40:39.0000000+00:00</time></trkpt><trkpt lat="42.445496" lon="18.752789"><ele>0.1</ele><time>2012-05-02T13:40:54.0000000+00:00</time></trkpt><trkpt lat="42.446217" lon="18.753864"><ele>0.0</ele><time>2012-05-02T13:41:14.0000000+00:00</time></trkpt><trkpt lat="42.446918" lon="18.75452"><ele>0.2</ele><time>2012-05-02T13:41:29.0000000+00:00</time></trkpt><trkpt lat="42.447521" lon="18.75453"><ele>0.0</ele><time>2012-05-02T13:41:39.0000000+00:00</time></trkpt><trkpt lat="42.448875" lon="18.754091"><ele>2.3</ele><time>2012-05-02T13:42:04.0000000+00:00</time></trkpt><trkpt lat="42.449398" lon="18.753122"><ele>4.3</ele><time>2012-05-02T13:42:19.0000000+00:00</time></trkpt><trkpt lat="42.449791" lon="18.751602"><ele>3.1</ele><time>2012-05-02T13:42:39.0000000+00:00</time></trkpt><trkpt lat="42.450813" lon="18.750244"><ele>0.9</ele><time>2012-05-02T13:43:04.0000000+00:00</time></trkpt><trkpt lat="42.451542" lon="18.749893"><ele>4.3</ele><time>2012-05-02T13:43:19.0000000+00:00</time></trkpt><trkpt lat="42.452106" lon="18.749861"><ele>0.0</ele><time>2012-05-02T13:43:29.0000000+00:00</time></trkpt><trkpt lat="42.453049" lon="18.74885"><ele>2.3</ele><time>2012-05-02T13:43:49.0000000+00:00</time></trkpt><trkpt lat="42.453911" lon="18.748549"><ele>0.6</ele><time>2012-05-02T13:44:04.0000000+00:00</time></trkpt><trkpt lat="42.454399" lon="18.748085"><ele>1.8</ele><time>2012-05-02T13:44:14.0000000+00:00</time></trkpt><trkpt lat="42.455116" lon="18.747911"><ele>0.0</ele><time>2012-05-02T13:44:59.0000000+00:00</time></trkpt><trkpt lat="42.455025" lon="18.747869"><ele>0.2</ele><time>2012-05-02T13:45:09.0000000+00:00</time></trkpt><trkpt lat="42.455257" lon="18.747972"><ele>0.0</ele><time>2012-05-02T13:51:49.0000000+00:00</time></trkpt><trkpt lat="42.455132" lon="18.748188"><ele>0.0</ele><time>2012-05-02T13:53:44.0000000+00:00</time></trkpt><trkpt lat="42.45554" lon="18.747734"><ele>0.2</ele><time>2012-05-02T14:07:04.0000000+00:00</time></trkpt><trkpt lat="42.455914" lon="18.747229"><ele>1.9</ele><time>2012-05-02T14:08:14.0000000+00:00</time></trkpt><trkpt lat="42.456493" lon="18.745092"><ele>1.3</ele><time>2012-05-02T14:08:39.0000000+00:00</time></trkpt><trkpt lat="42.457741" lon="18.742569"><ele>1.3</ele><time>2012-05-02T14:09:14.0000000+00:00</time></trkpt><trkpt lat="42.459003" lon="18.741564"><ele>1.6</ele><time>2012-05-02T14:09:39.0000000+00:00</time></trkpt><trkpt lat="42.459499" lon="18.740486"><ele>4.6</ele><time>2012-05-02T14:09:54.0000000+00:00</time></trkpt><trkpt lat="42.460121" lon="18.739693"><ele>1.8</ele><time>2012-05-02T14:10:09.0000000+00:00</time></trkpt><trkpt lat="42.461239" lon="18.737705"><ele>2.4</ele><time>2012-05-02T14:10:39.0000000+00:00</time></trkpt><trkpt lat="42.463127" lon="18.736662"><ele>1.0</ele><time>2012-05-02T14:11:14.0000000+00:00</time></trkpt><trkpt lat="42.463707" lon="18.735638"><ele>1.9</ele><time>2012-05-02T14:11:29.0000000+00:00</time></trkpt><trkpt lat="42.464558" lon="18.734583"><ele>2.6</ele><time>2012-05-02T14:11:49.0000000+00:00</time></trkpt><trkpt lat="42.465263" lon="18.733433"><ele>7.6</ele><time>2012-05-02T14:12:14.0000000+00:00</time></trkpt><trkpt lat="42.465363" lon="18.731863"><ele>2.3</ele><time>2012-05-02T14:12:34.0000000+00:00</time></trkpt><trkpt lat="42.466042" lon="18.730423"><ele>1.6</ele><time>2012-05-02T14:12:54.0000000+00:00</time></trkpt><trkpt lat="42.46666" lon="18.728449"><ele>3.8</ele><time>2012-05-02T14:13:19.0000000+00:00</time></trkpt><trkpt lat="42.467175" lon="18.727379"><ele>1.0</ele><time>2012-05-02T14:13:34.0000000+00:00</time></trkpt><trkpt lat="42.468487" lon="18.725426"><ele>7.3</ele><time>2012-05-02T14:14:09.0000000+00:00</time></trkpt><trkpt lat="42.468876" lon="18.723799"><ele>8.8</ele><time>2012-05-02T14:14:29.0000000+00:00</time></trkpt><trkpt lat="42.469032" lon="18.722294"><ele>8.6</ele><time>2012-05-02T14:14:44.0000000+00:00</time></trkpt><trkpt lat="42.470158" lon="18.719744"><ele>4.0</ele><time>2012-05-02T14:15:14.0000000+00:00</time></trkpt><trkpt lat="42.470161" lon="18.718718"><ele>4.7</ele><time>2012-05-02T14:15:24.0000000+00:00</time></trkpt><trkpt lat="42.469933" lon="18.71767"><ele>8.9</ele><time>2012-05-02T14:15:34.0000000+00:00</time></trkpt><trkpt lat="42.470333" lon="18.7162"><ele>2.9</ele><time>2012-05-02T14:15:49.0000000+00:00</time></trkpt><trkpt lat="42.470879" lon="18.715487"><ele>4.9</ele><time>2012-05-02T14:15:59.0000000+00:00</time></trkpt><trkpt lat="42.472256" lon="18.71455"><ele>2.8</ele><time>2012-05-02T14:16:19.0000000+00:00</time></trkpt><trkpt lat="42.472485" lon="18.713028"><ele>3.0</ele><time>2012-05-02T14:16:39.0000000+00:00</time></trkpt><trkpt lat="42.472282" lon="18.711672"><ele>7.4</ele><time>2012-05-02T14:16:59.0000000+00:00</time></trkpt><trkpt lat="42.472729" lon="18.709335"><ele>2.9</ele><time>2012-05-02T14:17:29.0000000+00:00</time></trkpt><trkpt lat="42.472115" lon="18.707912"><ele>4.8</ele><time>2012-05-02T14:17:49.0000000+00:00</time></trkpt><trkpt lat="42.471676" lon="18.706362"><ele>7.2</ele><time>2012-05-02T14:18:09.0000000+00:00</time></trkpt><trkpt lat="42.472111" lon="18.704893"><ele>6.9</ele><time>2012-05-02T14:18:29.0000000+00:00</time></trkpt><trkpt lat="42.473034" lon="18.704226"><ele>2.1</ele><time>2012-05-02T14:18:49.0000000+00:00</time></trkpt><trkpt lat="42.473751" lon="18.701954"><ele>4.2</ele><time>2012-05-02T14:19:24.0000000+00:00</time></trkpt><trkpt lat="42.474323" lon="18.701561"><ele>1.3</ele><time>2012-05-02T14:19:34.0000000+00:00</time></trkpt><trkpt lat="42.474689" lon="18.701002"><ele>0.4</ele><time>2012-05-02T14:19:44.0000000+00:00</time></trkpt><trkpt lat="42.474716" lon="18.700151"><ele>3.8</ele><time>2012-05-02T14:19:54.0000000+00:00</time></trkpt><trkpt lat="42.475094" lon="18.698984"><ele>5.5</ele><time>2012-05-02T14:20:09.0000000+00:00</time></trkpt><trkpt lat="42.475651" lon="18.698214"><ele>3.1</ele><time>2012-05-02T14:20:24.0000000+00:00</time></trkpt><trkpt lat="42.475662" lon="18.696554"><ele>21.8</ele><time>2012-05-02T14:20:49.0000000+00:00</time></trkpt><trkpt lat="42.476852" lon="18.692602"><ele>21.4</ele><time>2012-05-02T14:21:54.0000000+00:00</time></trkpt><trkpt lat="42.477142" lon="18.691107"><ele>22.0</ele><time>2012-05-02T14:22:19.0000000+00:00</time></trkpt><trkpt lat="42.47718" lon="18.690536"><ele>21.7</ele><time>2012-05-02T14:22:29.0000000+00:00</time></trkpt><trkpt lat="42.476997" lon="18.690042"><ele>25.5</ele><time>2012-05-02T14:22:39.0000000+00:00</time></trkpt><trkpt lat="42.474899" lon="18.688505"><ele>18.5</ele><time>2012-05-02T14:23:19.0000000+00:00</time></trkpt><trkpt lat="42.474594" lon="18.68779"><ele>18.0</ele><time>2012-05-02T14:23:29.0000000+00:00</time></trkpt><trkpt lat="42.473263" lon="18.686543"><ele>15.3</ele><time>2012-05-02T14:23:54.0000000+00:00</time></trkpt><trkpt lat="42.472958" lon="18.686424"><ele>13.7</ele><time>2012-05-02T14:23:59.0000000+00:00</time></trkpt><trkpt lat="42.470871" lon="18.686979"><ele>11.4</ele><time>2012-05-02T14:24:34.0000000+00:00</time></trkpt><trkpt lat="42.469994" lon="18.686642"><ele>8.3</ele><time>2012-05-02T14:24:49.0000000+00:00</time></trkpt><trkpt lat="42.469269" lon="18.68598"><ele>5.8</ele><time>2012-05-02T14:25:04.0000000+00:00</time></trkpt><trkpt lat="42.467884" lon="18.685482"><ele>4.0</ele><time>2012-05-02T14:25:29.0000000+00:00</time></trkpt><trkpt lat="42.467022" lon="18.686443"><ele>6.4</ele><time>2012-05-02T14:25:49.0000000+00:00</time></trkpt><trkpt lat="42.465752" lon="18.686436"><ele>4.3</ele><time>2012-05-02T14:26:14.0000000+00:00</time></trkpt><trkpt lat="42.465561" lon="18.686237"><ele>3.7</ele><time>2012-05-02T14:26:19.0000000+00:00</time></trkpt><trkpt lat="42.465515" lon="18.685593"><ele>2.7</ele><time>2012-05-02T14:27:59.0000000+00:00</time></trkpt><trkpt lat="42.466122" lon="18.685478"><ele>0.6</ele><time>2012-05-02T14:35:39.0000000+00:00</time></trkpt><trkpt lat="42.466782" lon="18.684866"><ele>0.0</ele><time>2012-05-02T14:36:09.0000000+00:00</time></trkpt><trkpt lat="42.46748" lon="18.683241"><ele>0.0</ele><time>2012-05-02T14:36:54.0000000+00:00</time></trkpt><trkpt lat="42.467567" lon="18.681097"><ele>0.0</ele><time>2012-05-02T14:37:44.0000000+00:00</time></trkpt><trkpt lat="42.467468" lon="18.679794"><ele>0.0</ele><time>2012-05-02T14:38:14.0000000+00:00</time></trkpt><trkpt lat="42.467098" lon="18.677519"><ele>0.0</ele><time>2012-05-02T14:39:09.0000000+00:00</time></trkpt><trkpt lat="42.466568" lon="18.675526"><ele>0.0</ele><time>2012-05-02T14:39:59.0000000+00:00</time></trkpt><trkpt lat="42.466534" lon="18.674686"><ele>0.5</ele><time>2012-05-02T14:40:59.0000000+00:00</time></trkpt><trkpt lat="42.466732" lon="18.674379"><ele>0.2</ele><time>2012-05-02T14:42:29.0000000+00:00</time></trkpt><trkpt lat="42.466362" lon="18.673502"><ele>1.4</ele><time>2012-05-02T14:42:49.0000000+00:00</time></trkpt><trkpt lat="42.465984" lon="18.673321"><ele>1.9</ele><time>2012-05-02T14:42:59.0000000+00:00</time></trkpt><trkpt lat="42.463799" lon="18.673479"><ele>3.1</ele><time>2012-05-02T14:49:44.0000000+00:00</time></trkpt><trkpt lat="42.463051" lon="18.67296"><ele>1.8</ele><time>2012-05-02T14:50:04.0000000+00:00</time></trkpt><trkpt lat="42.462543" lon="18.672876"><ele>1.5</ele><time>2012-05-02T14:50:14.0000000+00:00</time></trkpt><trkpt lat="42.461994" lon="18.673063"><ele>0.6</ele><time>2012-05-02T14:50:24.0000000+00:00</time></trkpt><trkpt lat="42.461288" lon="18.673742"><ele>3.6</ele><time>2012-05-02T14:50:39.0000000+00:00</time></trkpt><trkpt lat="42.460823" lon="18.674856"><ele>4.6</ele><time>2012-05-02T14:50:59.0000000+00:00</time></trkpt><trkpt lat="42.460442" lon="18.675377"><ele>2.2</ele><time>2012-05-02T14:51:09.0000000+00:00</time></trkpt><trkpt lat="42.459934" lon="18.675547"><ele>1.2</ele><time>2012-05-02T14:51:19.0000000+00:00</time></trkpt><trkpt lat="42.459526" lon="18.675154"><ele>0.0</ele><time>2012-05-02T14:51:29.0000000+00:00</time></trkpt><trkpt lat="42.459404" lon="18.674074"><ele>3.1</ele><time>2012-05-02T14:51:44.0000000+00:00</time></trkpt><trkpt lat="42.459503" lon="18.672678"><ele>4.2</ele><time>2012-05-02T14:52:04.0000000+00:00</time></trkpt><trkpt lat="42.459164" lon="18.670689"><ele>9.0</ele><time>2012-05-02T14:52:34.0000000+00:00</time></trkpt><trkpt lat="42.458527" lon="18.669613"><ele>4.2</ele><time>2012-05-02T14:52:54.0000000+00:00</time></trkpt><trkpt lat="42.458149" lon="18.669514"><ele>0.2</ele><time>2012-05-02T14:53:09.0000000+00:00</time></trkpt><trkpt lat="42.457344" lon="18.668173"><ele>0.0</ele><time>2012-05-02T14:55:14.0000000+00:00</time></trkpt><trkpt lat="42.456696" lon="18.664654"><ele>0.6</ele><time>2012-05-02T14:56:09.0000000+00:00</time></trkpt><trkpt lat="42.456066" lon="18.662491"><ele>0.6</ele><time>2012-05-02T14:57:19.0000000+00:00</time></trkpt><trkpt lat="42.454575" lon="18.660378"><ele>0.0</ele><time>2012-05-02T14:58:04.0000000+00:00</time></trkpt><trkpt lat="42.452499" lon="18.658184"><ele>0.2</ele><time>2012-05-02T14:58:59.0000000+00:00</time></trkpt><trkpt lat="42.452091" lon="18.657999"><ele>0.5</ele><time>2012-05-02T14:59:14.0000000+00:00</time></trkpt><trkpt lat="42.451393" lon="18.656952"><ele>0.3</ele><time>2012-05-02T14:59:54.0000000+00:00</time></trkpt><trkpt lat="42.451454" lon="18.656719"><ele>1.1</ele><time>2012-05-02T15:00:04.0000000+00:00</time></trkpt><trkpt lat="42.451771" lon="18.656605"><ele>2.4</ele><time>2012-05-02T15:00:14.0000000+00:00</time></trkpt><trkpt lat="42.452698" lon="18.655439"><ele>5.8</ele><time>2012-05-02T15:00:44.0000000+00:00</time></trkpt><trkpt lat="42.453682" lon="18.654642"><ele>8.6</ele><time>2012-05-02T15:01:14.0000000+00:00</time></trkpt><trkpt lat="42.453732" lon="18.654203"><ele>11.0</ele><time>2012-05-02T15:01:29.0000000+00:00</time></trkpt><trkpt lat="42.453545" lon="18.653616"><ele>9.0</ele><time>2012-05-02T15:01:39.0000000+00:00</time></trkpt><trkpt lat="42.453156" lon="18.653086"><ele>6.3</ele><time>2012-05-02T15:01:49.0000000+00:00</time></trkpt><trkpt lat="42.452385" lon="18.652538"><ele>3.8</ele><time>2012-05-02T15:02:04.0000000+00:00</time></trkpt><trkpt lat="42.451485" lon="18.651363"><ele>5.1</ele><time>2012-05-02T15:02:29.0000000+00:00</time></trkpt><trkpt lat="42.45047" lon="18.651419"><ele>2.5</ele><time>2012-05-02T15:03:04.0000000+00:00</time></trkpt><trkpt lat="42.449776" lon="18.649288"><ele>0.4</ele><time>2012-05-02T15:03:39.0000000+00:00</time></trkpt><trkpt lat="42.449135" lon="18.647839"><ele>0.4</ele><time>2012-05-02T15:04:04.0000000+00:00</time></trkpt><trkpt lat="42.44828" lon="18.646702"><ele>0.3</ele><time>2012-05-02T15:04:29.0000000+00:00</time></trkpt><trkpt lat="42.447762" lon="18.645123"><ele>0.2</ele><time>2012-05-02T15:04:54.0000000+00:00</time></trkpt><trkpt lat="42.444092" lon="18.639231"><ele>0.7</ele><time>2012-05-02T15:06:39.0000000+00:00</time></trkpt><trkpt lat="42.443359" lon="18.636889"><ele>1.1</ele><time>2012-05-02T15:07:19.0000000+00:00</time></trkpt><trkpt lat="42.442787" lon="18.6339"><ele>0.0</ele><time>2012-05-02T15:38:19.0000000+00:00</time></trkpt><trkpt lat="42.441925" lon="18.632727"><ele>0.0</ele><time>2012-05-02T15:38:44.0000000+00:00</time></trkpt><trkpt lat="42.441669" lon="18.632072"><ele>0.1</ele><time>2012-05-02T15:38:54.0000000+00:00</time></trkpt><trkpt lat="42.441097" lon="18.631586"><ele>1.0</ele><time>2012-05-02T15:39:09.0000000+00:00</time></trkpt><trkpt lat="42.441124" lon="18.630268"><ele>1.8</ele><time>2012-05-02T15:39:29.0000000+00:00</time></trkpt><trkpt lat="42.440277" lon="18.627422"><ele>0.8</ele><time>2012-05-02T15:40:14.0000000+00:00</time></trkpt><trkpt lat="42.440109" lon="18.62607"><ele>-0.1</ele><time>2012-05-02T15:40:34.0000000+00:00</time></trkpt><trkpt lat="42.43948" lon="18.624636"><ele>0.3</ele><time>2012-05-02T15:40:59.0000000+00:00</time></trkpt><trkpt lat="42.439632" lon="18.6231"><ele>2.0</ele><time>2012-05-02T15:41:19.0000000+00:00</time></trkpt><trkpt lat="42.439243" lon="18.621132"><ele>1.0</ele><time>2012-05-02T15:41:44.0000000+00:00</time></trkpt><trkpt lat="42.438587" lon="18.61986"><ele>0.5</ele><time>2012-05-02T15:42:04.0000000+00:00</time></trkpt><trkpt lat="42.438515" lon="18.617212"><ele>3.8</ele><time>2012-05-02T15:42:44.0000000+00:00</time></trkpt><trkpt lat="42.438255" lon="18.616224"><ele>0.5</ele><time>2012-05-02T15:42:59.0000000+00:00</time></trkpt><trkpt lat="42.438335" lon="18.614708"><ele>1.0</ele><time>2012-05-02T15:43:19.0000000+00:00</time></trkpt><trkpt lat="42.437145" lon="18.613728"><ele>0.7</ele><time>2012-05-02T15:43:44.0000000+00:00</time></trkpt><trkpt lat="42.436237" lon="18.610611"><ele>2.9</ele><time>2012-05-02T15:44:29.0000000+00:00</time></trkpt><trkpt lat="42.435284" lon="18.609713"><ele>0.8</ele><time>2012-05-02T15:44:49.0000000+00:00</time></trkpt><trkpt lat="42.435028" lon="18.607349"><ele>2.3</ele><time>2012-05-02T15:45:24.0000000+00:00</time></trkpt><trkpt lat="42.435165" lon="18.606251"><ele>1.5</ele><time>2012-05-02T15:45:39.0000000+00:00</time></trkpt><trkpt lat="42.434837" lon="18.605209"><ele>0.8</ele><time>2012-05-02T15:45:54.0000000+00:00</time></trkpt><trkpt lat="42.435135" lon="18.604259"><ele>2.6</ele><time>2012-05-02T15:46:09.0000000+00:00</time></trkpt><trkpt lat="42.435177" lon="18.602859"><ele>6.0</ele><time>2012-05-02T15:46:24.0000000+00:00</time></trkpt><trkpt lat="42.435593" lon="18.602762"><ele>5.9</ele><time>2012-05-02T15:46:34.0000000+00:00</time></trkpt><trkpt lat="42.437996" lon="18.59428"><ele>18.4</ele><time>2012-05-02T15:48:44.0000000+00:00</time></trkpt><trkpt lat="42.438244" lon="18.592804"><ele>12.8</ele><time>2012-05-02T15:48:59.0000000+00:00</time></trkpt><trkpt lat="42.438217" lon="18.592163"><ele>10.2</ele><time>2012-05-02T15:49:04.0000000+00:00</time></trkpt><trkpt lat="42.437309" lon="18.590986"><ele>1.3</ele><time>2012-05-02T15:49:19.0000000+00:00</time></trkpt><trkpt lat="42.437881" lon="18.58919"><ele>4.6</ele><time>2012-05-02T15:49:39.0000000+00:00</time></trkpt><trkpt lat="42.438751" lon="18.587212"><ele>1.5</ele><time>2012-05-02T15:50:04.0000000+00:00</time></trkpt><trkpt lat="42.440899" lon="18.58383"><ele>4.8</ele><time>2012-05-02T15:50:54.0000000+00:00</time></trkpt><trkpt lat="42.441978" lon="18.583132"><ele>3.3</ele><time>2012-05-02T15:51:14.0000000+00:00</time></trkpt><trkpt lat="42.443245" lon="18.581665"><ele>2.8</ele><time>2012-05-02T15:51:44.0000000+00:00</time></trkpt><trkpt lat="42.443699" lon="18.580021"><ele>5.5</ele><time>2012-05-02T15:52:29.0000000+00:00</time></trkpt><trkpt lat="42.444836" lon="18.578098"><ele>10.1</ele><time>2012-05-02T15:55:39.0000000+00:00</time></trkpt><trkpt lat="42.447262" lon="18.576206"><ele>3.4</ele><time>2012-05-02T15:56:14.0000000+00:00</time></trkpt><trkpt lat="42.449242" lon="18.574041"><ele>3.8</ele><time>2012-05-02T15:56:54.0000000+00:00</time></trkpt><trkpt lat="42.450386" lon="18.573412"><ele>3.1</ele><time>2012-05-02T15:57:14.0000000+00:00</time></trkpt><trkpt lat="42.451115" lon="18.572729"><ele>3.3</ele><time>2012-05-02T15:57:29.0000000+00:00</time></trkpt><trkpt lat="42.451687" lon="18.571947"><ele>10.2</ele><time>2012-05-02T15:57:44.0000000+00:00</time></trkpt><trkpt lat="42.451912" lon="18.571205"><ele>11.7</ele><time>2012-05-02T15:58:44.0000000+00:00</time></trkpt><trkpt lat="42.452507" lon="18.57032"><ele>17.5</ele><time>2012-05-02T15:58:59.0000000+00:00</time></trkpt><trkpt lat="42.454655" lon="18.568134"><ele>23.9</ele><time>2012-05-02T15:59:59.0000000+00:00</time></trkpt><trkpt lat="42.455692" lon="18.566133"><ele>17.3</ele><time>2012-05-02T16:00:38.0000000+00:00</time></trkpt><trkpt lat="42.455776" lon="18.564684"><ele>17.4</ele><time>2012-05-02T16:00:58.0000000+00:00</time></trkpt><trkpt lat="42.455235" lon="18.561943"><ele>4.6</ele><time>2012-05-02T16:01:23.0000000+00:00</time></trkpt><trkpt lat="42.455261" lon="18.558357"><ele>4.9</ele><time>2012-05-02T16:02:03.0000000+00:00</time></trkpt><trkpt lat="42.45504" lon="18.558212"><ele>4.4</ele><time>2012-05-02T16:02:08.0000000+00:00</time></trkpt><trkpt lat="42.45446" lon="18.558569"><ele>6.3</ele><time>2012-05-02T16:02:18.0000000+00:00</time></trkpt><trkpt lat="42.453735" lon="18.558491"><ele>10.2</ele><time>2012-05-02T16:02:28.0000000+00:00</time></trkpt><trkpt lat="42.452801" lon="18.557732"><ele>12.5</ele><time>2012-05-02T16:02:58.0000000+00:00</time></trkpt><trkpt lat="42.451851" lon="18.555868"><ele>17.2</ele><time>2012-05-02T16:03:38.0000000+00:00</time></trkpt><trkpt lat="42.4515" lon="18.553638"><ele>21.6</ele><time>2012-05-02T16:04:23.0000000+00:00</time></trkpt><trkpt lat="42.450867" lon="18.552704"><ele>21.5</ele><time>2012-05-02T16:04:43.0000000+00:00</time></trkpt><trkpt lat="42.450493" lon="18.551311"><ele>24.6</ele><time>2012-05-02T16:05:03.0000000+00:00</time></trkpt><trkpt lat="42.450512" lon="18.549557"><ele>25.7</ele><time>2012-05-02T16:05:33.0000000+00:00</time></trkpt><trkpt lat="42.450848" lon="18.548079"><ele>30.8</ele><time>2012-05-02T16:06:03.0000000+00:00</time></trkpt><trkpt lat="42.450916" lon="18.54652"><ele>31.7</ele><time>2012-05-02T16:06:38.0000000+00:00</time></trkpt><trkpt lat="42.450943" lon="18.547174"><ele>30.8</ele><time>2012-05-02T16:06:53.0000000+00:00</time></trkpt><trkpt lat="42.451237" lon="18.547331"><ele>34.7</ele><time>2012-05-02T16:13:13.0000000+00:00</time></trkpt><trkpt lat="42.451046" lon="18.546375"><ele>33.7</ele><time>2012-05-02T16:13:38.0000000+00:00</time></trkpt><trkpt lat="42.451141" lon="18.545164"><ele>34.1</ele><time>2012-05-02T16:13:58.0000000+00:00</time></trkpt><trkpt lat="42.451672" lon="18.543076"><ele>38.0</ele><time>2012-05-02T16:14:43.0000000+00:00</time></trkpt><trkpt lat="42.451416" lon="18.54097"><ele>30.0</ele><time>2012-05-02T16:16:18.0000000+00:00</time></trkpt><trkpt lat="42.450783" lon="18.539602"><ele>24.5</ele><time>2012-05-02T16:16:48.0000000+00:00</time></trkpt><trkpt lat="42.451363" lon="18.540638"><ele>30.3</ele><time>2012-05-02T16:17:13.0000000+00:00</time></trkpt><trkpt lat="42.451553" lon="18.541914"><ele>30.5</ele><time>2012-05-02T16:17:28.0000000+00:00</time></trkpt><trkpt lat="42.451511" lon="18.542767"><ele>33.7</ele><time>2012-05-02T16:17:43.0000000+00:00</time></trkpt><trkpt lat="42.451641" lon="18.543032"><ele>37.2</ele><time>2012-05-02T16:17:48.0000000+00:00</time></trkpt><trkpt lat="42.451073" lon="18.544931"><ele>34.1</ele><time>2012-05-02T16:19:08.0000000+00:00</time></trkpt><trkpt lat="42.451572" lon="18.542995"><ele>35.7</ele><time>2012-05-02T16:20:03.0000000+00:00</time></trkpt><trkpt lat="42.45153" lon="18.541485"><ele>29.6</ele><time>2012-05-02T16:21:33.0000000+00:00</time></trkpt><trkpt lat="42.451324" lon="18.540569"><ele>30.3</ele><time>2012-05-02T16:21:43.0000000+00:00</time></trkpt><trkpt lat="42.450806" lon="18.539644"><ele>24.5</ele><time>2012-05-02T16:22:03.0000000+00:00</time></trkpt><trkpt lat="42.450695" lon="18.538488"><ele>26.1</ele><time>2012-05-02T16:22:23.0000000+00:00</time></trkpt><trkpt lat="42.450268" lon="18.538025"><ele>19.1</ele><time>2012-05-02T16:22:33.0000000+00:00</time></trkpt><trkpt lat="42.450001" lon="18.537228"><ele>23.4</ele><time>2012-05-02T16:22:48.0000000+00:00</time></trkpt><trkpt lat="42.450363" lon="18.536394"><ele>35.3</ele><time>2012-05-02T16:23:28.0000000+00:00</time></trkpt><trkpt lat="42.451027" lon="18.536709"><ele>50.3</ele><time>2012-05-02T16:23:48.0000000+00:00</time></trkpt><trkpt lat="42.451221" lon="18.536554"><ele>45.7</ele><time>2012-05-02T16:23:53.0000000+00:00</time></trkpt><trkpt lat="42.451378" lon="18.535812"><ele>36.7</ele><time>2012-05-02T16:24:08.0000000+00:00</time></trkpt><trkpt lat="42.45179" lon="18.535175"><ele>41.4</ele><time>2012-05-02T16:24:28.0000000+00:00</time></trkpt><trkpt lat="42.451885" lon="18.534132"><ele>39.8</ele><time>2012-05-02T16:24:48.0000000+00:00</time></trkpt><trkpt lat="42.452892" lon="18.532417"><ele>47.6</ele><time>2012-05-02T16:25:38.0000000+00:00</time></trkpt><trkpt lat="42.451939" lon="18.533857"><ele>42.0</ele><time>2012-05-02T16:26:08.0000000+00:00</time></trkpt><trkpt lat="42.451782" lon="18.534565"><ele>37.6</ele><time>2012-05-02T16:26:18.0000000+00:00</time></trkpt><trkpt lat="42.451904" lon="18.53508"><ele>43.1</ele><time>2012-05-02T16:26:33.0000000+00:00</time></trkpt><trkpt lat="42.451744" lon="18.536516"><ele>49.4</ele><time>2012-05-02T16:26:58.0000000+00:00</time></trkpt><trkpt lat="42.45192" lon="18.536581"><ele>51.2</ele><time>2012-05-02T16:27:13.0000000+00:00</time></trkpt><trkpt lat="42.452564" lon="18.535595"><ele>56.8</ele><time>2012-05-02T16:27:38.0000000+00:00</time></trkpt><trkpt lat="42.452633" lon="18.534798"><ele>63.5</ele><time>2012-05-02T16:27:58.0000000+00:00</time></trkpt><trkpt lat="42.453014" lon="18.534126"><ele>73.1</ele><time>2012-05-02T16:29:18.0000000+00:00</time></trkpt><trkpt lat="42.453129" lon="18.536531"><ele>76.3</ele><time>2012-05-02T16:29:58.0000000+00:00</time></trkpt><trkpt lat="42.452946" lon="18.537836"><ele>79.0</ele><time>2012-05-02T16:30:18.0000000+00:00</time></trkpt><trkpt lat="42.453114" lon="18.538704"><ele>80.3</ele><time>2012-05-02T16:30:48.0000000+00:00</time></trkpt><trkpt lat="42.453148" lon="18.538311"><ele>82.5</ele><time>2012-05-02T16:30:58.0000000+00:00</time></trkpt><trkpt lat="42.453331" lon="18.538088"><ele>86.9</ele><time>2012-05-02T16:31:18.0000000+00:00</time></trkpt><trkpt lat="42.453186" lon="18.538633"><ele>82.2</ele><time>2012-05-02T16:31:33.0000000+00:00</time></trkpt><trkpt lat="42.453503" lon="18.540401"><ele>85.5</ele><time>2012-05-02T16:32:18.0000000+00:00</time></trkpt><trkpt lat="42.454166" lon="18.541199"><ele>79.1</ele><time>2012-05-02T16:32:38.0000000+00:00</time></trkpt><trkpt lat="42.454609" lon="18.541201"><ele>73.1</ele><time>2012-05-02T16:32:53.0000000+00:00</time></trkpt><trkpt lat="42.454952" lon="18.540895"><ele>74.5</ele><time>2012-05-02T16:33:13.0000000+00:00</time></trkpt><trkpt lat="42.453899" lon="18.540976"><ele>81.8</ele><time>2012-05-02T16:35:43.0000000+00:00</time></trkpt><trkpt lat="42.45414" lon="18.542015"><ele>80.0</ele><time>2012-05-02T16:35:58.0000000+00:00</time></trkpt><trkpt lat="42.453754" lon="18.544203"><ele>72.0</ele><time>2012-05-02T16:36:18.0000000+00:00</time></trkpt><trkpt lat="42.454166" lon="18.546072"><ele>62.2</ele><time>2012-05-02T16:36:48.0000000+00:00</time></trkpt><trkpt lat="42.454849" lon="18.547792"><ele>54.4</ele><time>2012-05-02T16:37:38.0000000+00:00</time></trkpt><trkpt lat="42.455025" lon="18.549673"><ele>44.0</ele><time>2012-05-02T16:37:53.0000000+00:00</time></trkpt><trkpt lat="42.455589" lon="18.551334"><ele>36.5</ele><time>2012-05-02T16:38:08.0000000+00:00</time></trkpt><trkpt lat="42.455563" lon="18.552029"><ele>29.0</ele><time>2012-05-02T16:38:13.0000000+00:00</time></trkpt><trkpt lat="42.454899" lon="18.553907"><ele>25.9</ele><time>2012-05-02T16:38:28.0000000+00:00</time></trkpt><trkpt lat="42.454506" lon="18.55608"><ele>19.0</ele><time>2012-05-02T16:38:48.0000000+00:00</time></trkpt><trkpt lat="42.454964" lon="18.557983"><ele>4.5</ele><time>2012-05-02T16:39:13.0000000+00:00</time></trkpt><trkpt lat="42.45491" lon="18.558352"><ele>4.7</ele><time>2012-05-02T16:39:18.0000000+00:00</time></trkpt><trkpt lat="42.454609" lon="18.558521"><ele>4.7</ele><time>2012-05-02T16:39:23.0000000+00:00</time></trkpt><trkpt lat="42.453995" lon="18.558544"><ele>7.4</ele><time>2012-05-02T16:39:33.0000000+00:00</time></trkpt><trkpt lat="42.45327" lon="18.558071"><ele>15.5</ele><time>2012-05-02T16:39:48.0000000+00:00</time></trkpt><trkpt lat="42.451916" lon="18.555763"><ele>18.8</ele><time>2012-05-02T16:40:33.0000000+00:00</time></trkpt><trkpt lat="42.451801" lon="18.555292"><ele>20.0</ele><time>2012-05-02T16:40:43.0000000+00:00</time></trkpt><trkpt lat="42.451828" lon="18.554379"><ele>24.0</ele><time>2012-05-02T16:41:13.0000000+00:00</time></trkpt><trkpt lat="42.4515" lon="18.552029"><ele>42.0</ele><time>2012-05-02T16:42:28.0000000+00:00</time></trkpt><trkpt lat="42.45174" lon="18.549519"><ele>57.1</ele><time>2012-05-02T16:43:28.0000000+00:00</time></trkpt><trkpt lat="42.451347" lon="18.549139"><ele>45.6</ele><time>2012-05-02T16:43:58.0000000+00:00</time></trkpt><trkpt lat="42.451542" lon="18.548733"><ele>46.7</ele><time>2012-05-02T16:44:13.0000000+00:00</time></trkpt><trkpt lat="42.451298" lon="18.549192"><ele>45.1</ele><time>2012-05-02T16:44:28.0000000+00:00</time></trkpt><trkpt lat="42.451721" lon="18.549494"><ele>56.9</ele><time>2012-05-02T16:44:58.0000000+00:00</time></trkpt><trkpt lat="42.451817" lon="18.549383"><ele>58.3</ele><time>2012-05-02T16:45:03.0000000+00:00</time></trkpt><trkpt lat="42.452175" lon="18.547764"><ele>58.2</ele><time>2012-05-02T16:45:43.0000000+00:00</time></trkpt><trkpt lat="42.451923" lon="18.548349"><ele>53.6</ele><time>2012-05-02T16:46:03.0000000+00:00</time></trkpt><trkpt lat="42.451965" lon="18.547911"><ele>52.0</ele><time>2012-05-02T16:46:08.0000000+00:00</time></trkpt><trkpt lat="42.451633" lon="18.546608"><ele>44.5</ele><time>2012-05-02T16:46:28.0000000+00:00</time></trkpt><trkpt lat="42.451111" lon="18.546383"><ele>34.4</ele><time>2012-05-02T16:46:48.0000000+00:00</time></trkpt><trkpt lat="42.45097" lon="18.546684"><ele>32.3</ele><time>2012-05-02T16:46:58.0000000+00:00</time></trkpt><trkpt lat="42.450909" lon="18.546532"><ele>31.5</ele><time>2012-05-02T16:47:08.0000000+00:00</time></trkpt><trkpt lat="42.451256" lon="18.544476"><ele>35.9</ele><time>2012-05-02T16:47:58.0000000+00:00</time></trkpt><trkpt lat="42.452156" lon="18.542707"><ele>52.5</ele><time>2012-05-02T16:49:03.0000000+00:00</time></trkpt><trkpt lat="42.45232" lon="18.541939"><ele>56.5</ele><time>2012-05-02T16:49:23.0000000+00:00</time></trkpt><trkpt lat="42.452644" lon="18.541506"><ele>60.4</ele><time>2012-05-02T16:50:53.0000000+00:00</time></trkpt></trkseg><trkseg><trkpt lat="42.666775" lon="18.97587"><ele>379.8</ele><time>2012-05-02T22:48:05.0000000+00:00</time></trkpt><trkpt lat="42.668098" lon="18.97431"><ele>392.6</ele><time>2012-05-02T22:48:15.0000000+00:00</time></trkpt><trkpt lat="42.66885" lon="18.973841"><ele>400.8</ele><time>2012-05-02T22:48:20.0000000+00:00</time></trkpt><trkpt lat="42.669601" lon="18.973663"><ele>396.7</ele><time>2012-05-02T22:48:25.0000000+00:00</time></trkpt><trkpt lat="42.670391" lon="18.973747"><ele>395.1</ele><time>2012-05-02T22:48:30.0000000+00:00</time></trkpt><trkpt lat="42.673752" lon="18.975636"><ele>406.5</ele><time>2012-05-02T22:48:50.0000000+00:00</time></trkpt><trkpt lat="42.674686" lon="18.975832"><ele>420.2</ele><time>2012-05-02T22:48:55.0000000+00:00</time></trkpt><trkpt lat="42.675659" lon="18.975807"><ele>408.8</ele><time>2012-05-02T22:49:00.0000000+00:00</time></trkpt><trkpt lat="42.676605" lon="18.975521"><ele>410.8</ele><time>2012-05-02T22:49:05.0000000+00:00</time></trkpt><trkpt lat="42.677422" lon="18.975018"><ele>404.5</ele><time>2012-05-02T22:49:10.0000000+00:00</time></trkpt><trkpt lat="42.678638" lon="18.973602"><ele>411.5</ele><time>2012-05-02T22:49:20.0000000+00:00</time></trkpt><trkpt lat="42.679127" lon="18.972591"><ele>412.4</ele><time>2012-05-02T22:49:25.0000000+00:00</time></trkpt><trkpt lat="42.680038" lon="18.968763"><ele>427.1</ele><time>2012-05-02T22:49:40.0000000+00:00</time></trkpt><trkpt lat="42.680931" lon="18.966326"><ele>435.9</ele><time>2012-05-02T22:49:50.0000000+00:00</time></trkpt><trkpt lat="42.68158" lon="18.965258"><ele>436.5</ele><time>2012-05-02T22:49:55.0000000+00:00</time></trkpt><trkpt lat="42.682369" lon="18.964394"><ele>444.1</ele><time>2012-05-02T22:50:00.0000000+00:00</time></trkpt><trkpt lat="42.684151" lon="18.963285"><ele>459.6</ele><time>2012-05-02T22:50:10.0000000+00:00</time></trkpt><trkpt lat="42.687267" lon="18.962791"><ele>456.3</ele><time>2012-05-02T22:50:25.0000000+00:00</time></trkpt><trkpt lat="42.689117" lon="18.961794"><ele>465.0</ele><time>2012-05-02T22:50:35.0000000+00:00</time></trkpt><trkpt lat="42.691044" lon="18.961155"><ele>485.6</ele><time>2012-05-02T22:50:45.0000000+00:00</time></trkpt><trkpt lat="42.69294" lon="18.961124"><ele>478.5</ele><time>2012-05-02T22:50:55.0000000+00:00</time></trkpt><trkpt lat="42.694916" lon="18.961596"><ele>498.9</ele><time>2012-05-02T22:51:05.0000000+00:00</time></trkpt><trkpt lat="42.697403" lon="18.961775"><ele>495.2</ele><time>2012-05-02T22:51:17.0000000+00:00</time></trkpt><trkpt lat="42.699558" lon="18.96147"><ele>502.4</ele><time>2012-05-02T22:51:27.0000000+00:00</time></trkpt><trkpt lat="42.701576" lon="18.960815"><ele>517.0</ele><time>2012-05-02T22:51:37.0000000+00:00</time></trkpt><trkpt lat="42.704689" lon="18.960545"><ele>536.4</ele><time>2012-05-02T22:51:52.0000000+00:00</time></trkpt><trkpt lat="42.705715" lon="18.960081"><ele>543.4</ele><time>2012-05-02T22:51:57.0000000+00:00</time></trkpt><trkpt lat="42.706596" lon="18.959215"><ele>537.8</ele><time>2012-05-02T22:52:02.0000000+00:00</time></trkpt><trkpt lat="42.708584" lon="18.955544"><ele>550.3</ele><time>2012-05-02T22:52:17.0000000+00:00</time></trkpt><trkpt lat="42.710068" lon="18.953247"><ele>559.4</ele><time>2012-05-02T22:52:27.0000000+00:00</time></trkpt><trkpt lat="42.71088" lon="18.952295"><ele>562.8</ele><time>2012-05-02T22:52:32.0000000+00:00</time></trkpt><trkpt lat="42.714546" lon="18.949131"><ele>580.7</ele><time>2012-05-02T22:52:52.0000000+00:00</time></trkpt><trkpt lat="42.716969" lon="18.94573"><ele>593.5</ele><time>2012-05-02T22:53:07.0000000+00:00</time></trkpt><trkpt lat="42.719601" lon="18.942791"><ele>610.1</ele><time>2012-05-02T22:53:22.0000000+00:00</time></trkpt><trkpt lat="42.722351" lon="18.940533"><ele>679.8</ele><time>2012-05-02T22:53:37.0000000+00:00</time></trkpt><trkpt lat="42.730865" lon="18.936895"><ele>637.2</ele><time>2012-05-02T22:54:33.0000000+00:00</time></trkpt><trkpt lat="42.731995" lon="18.937204"><ele>616.5</ele><time>2012-05-02T22:54:38.0000000+00:00</time></trkpt><trkpt lat="42.738041" lon="18.937407"><ele>608.0</ele><time>2012-05-02T22:55:08.0000000+00:00</time></trkpt><trkpt lat="42.741032" lon="18.937773"><ele>608.9</ele><time>2012-05-02T22:55:23.0000000+00:00</time></trkpt><trkpt lat="42.743687" lon="18.938396"><ele>611.4</ele><time>2012-05-02T22:55:38.0000000+00:00</time></trkpt><trkpt lat="42.749619" lon="18.940239"><ele>612.0</ele><time>2012-05-02T22:56:18.0000000+00:00</time></trkpt><trkpt lat="42.753399" lon="18.940924"><ele>617.2</ele><time>2012-05-02T22:56:43.0000000+00:00</time></trkpt><trkpt lat="42.754883" lon="18.940809"><ele>619.8</ele><time>2012-05-02T22:56:53.0000000+00:00</time></trkpt><trkpt lat="42.757847" lon="18.939709"><ele>622.1</ele><time>2012-05-02T22:57:13.0000000+00:00</time></trkpt><trkpt lat="42.759987" lon="18.939381"><ele>628.0</ele><time>2012-05-02T22:57:28.0000000+00:00</time></trkpt><trkpt lat="42.761406" lon="18.939537"><ele>632.5</ele><time>2012-05-02T22:57:38.0000000+00:00</time></trkpt><trkpt lat="42.766441" lon="18.940975"><ele>642.1</ele><time>2012-05-02T22:58:13.0000000+00:00</time></trkpt><trkpt lat="42.769058" lon="18.940958"><ele>654.3</ele><time>2012-05-02T22:58:28.0000000+00:00</time></trkpt><trkpt lat="42.77179" lon="18.940399"><ele>656.2</ele><time>2012-05-02T22:58:43.0000000+00:00</time></trkpt><trkpt lat="42.773506" lon="18.939793"><ele>645.6</ele><time>2012-05-02T22:58:53.0000000+00:00</time></trkpt><trkpt lat="42.776798" lon="18.936832"><ele>641.1</ele><time>2012-05-02T22:59:13.0000000+00:00</time></trkpt><trkpt lat="42.780273" lon="18.934523"><ele>634.7</ele><time>2012-05-02T22:59:33.0000000+00:00</time></trkpt><trkpt lat="42.780956" lon="18.933638"><ele>637.3</ele><time>2012-05-02T22:59:38.0000000+00:00</time></trkpt><trkpt lat="42.781418" lon="18.932528"><ele>640.6</ele><time>2012-05-02T22:59:43.0000000+00:00</time></trkpt><trkpt lat="42.782085" lon="18.930155"><ele>640.8</ele><time>2012-05-02T22:59:53.0000000+00:00</time></trkpt><trkpt lat="42.782593" lon="18.92923"><ele>643.0</ele><time>2012-05-02T22:59:58.0000000+00:00</time></trkpt><trkpt lat="42.783184" lon="18.928656"><ele>635.1</ele><time>2012-05-02T23:00:03.0000000+00:00</time></trkpt><trkpt lat="42.784683" lon="18.928288"><ele>624.3</ele><time>2012-05-02T23:00:13.0000000+00:00</time></trkpt><trkpt lat="42.789436" lon="18.928347"><ele>625.4</ele><time>2012-05-02T23:00:43.0000000+00:00</time></trkpt><trkpt lat="42.790188" lon="18.928026"><ele>621.6</ele><time>2012-05-02T23:00:48.0000000+00:00</time></trkpt><trkpt lat="42.793587" lon="18.924738"><ele>620.3</ele><time>2012-05-02T23:01:18.0000000+00:00</time></trkpt><trkpt lat="42.794296" lon="18.925035"><ele>620.3</ele><time>2012-05-02T23:01:28.0000000+00:00</time></trkpt><trkpt lat="42.79451" lon="18.925579"><ele>620.7</ele><time>2012-05-02T23:01:38.0000000+00:00</time></trkpt><trkpt lat="42.793331" lon="18.929064"><ele>622.4</ele><time>2012-05-02T23:02:03.0000000+00:00</time></trkpt><trkpt lat="42.79261" lon="18.932207"><ele>621.9</ele><time>2012-05-02T23:02:23.0000000+00:00</time></trkpt><trkpt lat="42.792736" lon="18.932932"><ele>619.9</ele><time>2012-05-02T23:02:28.0000000+00:00</time></trkpt><trkpt lat="42.793564" lon="18.934013"><ele>620.8</ele><time>2012-05-02T23:02:38.0000000+00:00</time></trkpt><trkpt lat="42.793781" lon="18.934559"><ele>621.0</ele><time>2012-05-02T23:02:48.0000000+00:00</time></trkpt><trkpt lat="42.794098" lon="18.934656"><ele>621.1</ele><time>2012-05-02T23:02:53.0000000+00:00</time></trkpt><trkpt lat="42.794853" lon="18.93544"><ele>619.3</ele><time>2012-05-02T23:03:03.0000000+00:00</time></trkpt><trkpt lat="42.796146" lon="18.935801"><ele>619.4</ele><time>2012-05-02T23:03:13.0000000+00:00</time></trkpt><trkpt lat="42.797543" lon="18.935747"><ele>619.3</ele><time>2012-05-02T23:03:23.0000000+00:00</time></trkpt><trkpt lat="42.801517" lon="18.934927"><ele>619.8</ele><time>2012-05-02T23:03:53.0000000+00:00</time></trkpt><trkpt lat="42.80278" lon="18.934433"><ele>620.6</ele><time>2012-05-02T23:04:03.0000000+00:00</time></trkpt><trkpt lat="42.80632" lon="18.932077"><ele>621.4</ele><time>2012-05-02T23:04:38.0000000+00:00</time></trkpt><trkpt lat="42.806866" lon="18.931555"><ele>620.7</ele><time>2012-05-02T23:04:43.0000000+00:00</time></trkpt><trkpt lat="42.80822" lon="18.929213"><ele>619.6</ele><time>2012-05-02T23:04:58.0000000+00:00</time></trkpt><trkpt lat="42.809742" lon="18.927359"><ele>618.7</ele><time>2012-05-02T23:05:13.0000000+00:00</time></trkpt><trkpt lat="42.810307" lon="18.926105"><ele>618.9</ele><time>2012-05-02T23:05:23.0000000+00:00</time></trkpt><trkpt lat="42.810589" lon="18.925793"><ele>619.2</ele><time>2012-05-02T23:05:28.0000000+00:00</time></trkpt><trkpt lat="42.811401" lon="18.925842"><ele>618.6</ele><time>2012-05-02T23:05:38.0000000+00:00</time></trkpt><trkpt lat="42.813454" lon="18.923668"><ele>619.1</ele><time>2012-05-02T23:05:58.0000000+00:00</time></trkpt><trkpt lat="42.823326" lon="18.915529"><ele>624.6</ele><time>2012-05-02T23:07:13.0000000+00:00</time></trkpt><trkpt lat="42.823971" lon="18.915613"><ele>624.5</ele><time>2012-05-02T23:07:18.0000000+00:00</time></trkpt><trkpt lat="42.83041" lon="18.919495"><ele>626.6</ele><time>2012-05-02T23:08:08.0000000+00:00</time></trkpt><trkpt lat="42.833942" lon="18.921175"><ele>631.0</ele><time>2012-05-02T23:08:38.0000000+00:00</time></trkpt><trkpt lat="42.836452" lon="18.922762"><ele>631.3</ele><time>2012-05-02T23:08:58.0000000+00:00</time></trkpt><trkpt lat="42.839664" lon="18.925268"><ele>634.1</ele><time>2012-05-02T23:09:23.0000000+00:00</time></trkpt><trkpt lat="42.843151" lon="18.928829"><ele>641.0</ele><time>2012-05-02T23:09:53.0000000+00:00</time></trkpt><trkpt lat="42.847248" lon="18.934326"><ele>648.5</ele><time>2012-05-02T23:10:33.0000000+00:00</time></trkpt><trkpt lat="42.849251" lon="18.935587"><ele>651.2</ele><time>2012-05-02T23:10:48.0000000+00:00</time></trkpt><trkpt lat="42.850403" lon="18.936869"><ele>655.0</ele><time>2012-05-02T23:10:58.0000000+00:00</time></trkpt><trkpt lat="42.851254" lon="18.938351"><ele>656.6</ele><time>2012-05-02T23:11:08.0000000+00:00</time></trkpt><trkpt lat="42.852894" lon="18.939491"><ele>652.9</ele><time>2012-05-02T23:11:23.0000000+00:00</time></trkpt><trkpt lat="42.853436" lon="18.940638"><ele>650.8</ele><time>2012-05-02T23:11:33.0000000+00:00</time></trkpt><trkpt lat="42.853592" lon="18.942179"><ele>653.6</ele><time>2012-05-02T23:11:43.0000000+00:00</time></trkpt><trkpt lat="42.853889" lon="18.942795"><ele>651.0</ele><time>2012-05-02T23:11:48.0000000+00:00</time></trkpt><trkpt lat="42.854416" lon="18.94311"><ele>652.1</ele><time>2012-05-02T23:11:53.0000000+00:00</time></trkpt><trkpt lat="42.855988" lon="18.943594"><ele>659.8</ele><time>2012-05-02T23:12:08.0000000+00:00</time></trkpt><trkpt lat="42.856564" lon="18.942984"><ele>664.3</ele><time>2012-05-02T23:12:18.0000000+00:00</time></trkpt><trkpt lat="42.856918" lon="18.942928"><ele>667.2</ele><time>2012-05-02T23:12:23.0000000+00:00</time></trkpt><trkpt lat="42.857388" lon="18.943167"><ele>669.6</ele><time>2012-05-02T23:12:28.0000000+00:00</time></trkpt><trkpt lat="42.857891" lon="18.943066"><ele>668.4</ele><time>2012-05-02T23:12:33.0000000+00:00</time></trkpt><trkpt lat="42.858292" lon="18.942513"><ele>670.4</ele><time>2012-05-02T23:12:38.0000000+00:00</time></trkpt><trkpt lat="42.859207" lon="18.940193"><ele>682.4</ele><time>2012-05-02T23:12:53.0000000+00:00</time></trkpt><trkpt lat="42.859711" lon="18.939648"><ele>689.7</ele><time>2012-05-02T23:12:58.0000000+00:00</time></trkpt><trkpt lat="42.861694" lon="18.939129"><ele>708.5</ele><time>2012-05-02T23:13:13.0000000+00:00</time></trkpt><trkpt lat="42.862335" lon="18.938675"><ele>712.8</ele><time>2012-05-02T23:13:18.0000000+00:00</time></trkpt><trkpt lat="42.862808" lon="18.937912"><ele>715.9</ele><time>2012-05-02T23:13:23.0000000+00:00</time></trkpt><trkpt lat="42.863071" lon="18.936991"><ele>722.6</ele><time>2012-05-02T23:13:28.0000000+00:00</time></trkpt><trkpt lat="42.863071" lon="18.935022"><ele>728.5</ele><time>2012-05-02T23:13:38.0000000+00:00</time></trkpt><trkpt lat="42.863365" lon="18.93446"><ele>733.9</ele><time>2012-05-02T23:13:43.0000000+00:00</time></trkpt><trkpt lat="42.866001" lon="18.93314"><ele>733.3</ele><time>2012-05-02T23:14:03.0000000+00:00</time></trkpt><trkpt lat="42.866798" lon="18.933132"><ele>739.2</ele><time>2012-05-02T23:14:08.0000000+00:00</time></trkpt><trkpt lat="42.867584" lon="18.93343"><ele>744.7</ele><time>2012-05-02T23:14:13.0000000+00:00</time></trkpt><trkpt lat="42.870617" lon="18.935827"><ele>756.4</ele><time>2012-05-02T23:14:33.0000000+00:00</time></trkpt><trkpt lat="42.872261" lon="18.936749"><ele>773.4</ele><time>2012-05-02T23:14:43.0000000+00:00</time></trkpt><trkpt lat="42.873631" lon="18.937862"><ele>775.5</ele><time>2012-05-02T23:14:53.0000000+00:00</time></trkpt><trkpt lat="42.876163" lon="18.939379"><ele>794.5</ele><time>2012-05-02T23:15:13.0000000+00:00</time></trkpt><trkpt lat="42.878078" lon="18.940264"><ele>808.6</ele><time>2012-05-02T23:15:28.0000000+00:00</time></trkpt><trkpt lat="42.880375" lon="18.94278"><ele>816.5</ele><time>2012-05-02T23:15:48.0000000+00:00</time></trkpt><trkpt lat="42.880791" lon="18.943617"><ele>816.1</ele><time>2012-05-02T23:15:53.0000000+00:00</time></trkpt><trkpt lat="42.88131" lon="18.94574"><ele>822.1</ele><time>2012-05-02T23:16:03.0000000+00:00</time></trkpt><trkpt lat="42.881718" lon="18.946674"><ele>827.2</ele><time>2012-05-02T23:16:08.0000000+00:00</time></trkpt><trkpt lat="42.885376" lon="18.951216"><ele>855.4</ele><time>2012-05-02T23:16:38.0000000+00:00</time></trkpt><trkpt lat="42.885872" lon="18.952175"><ele>864.9</ele><time>2012-05-02T23:16:43.0000000+00:00</time></trkpt><trkpt lat="42.886467" lon="18.954193"><ele>873.7</ele><time>2012-05-02T23:16:53.0000000+00:00</time></trkpt><trkpt lat="42.887821" lon="18.956766"><ele>896.5</ele><time>2012-05-02T23:17:08.0000000+00:00</time></trkpt><trkpt lat="42.888039" lon="18.95776"><ele>904.2</ele><time>2012-05-02T23:17:13.0000000+00:00</time></trkpt><trkpt lat="42.888142" lon="18.95981"><ele>906.8</ele><time>2012-05-02T23:17:23.0000000+00:00</time></trkpt><trkpt lat="42.888554" lon="18.960714"><ele>900.8</ele><time>2012-05-02T23:17:28.0000000+00:00</time></trkpt><trkpt lat="42.889275" lon="18.961334"><ele>903.3</ele><time>2012-05-02T23:17:33.0000000+00:00</time></trkpt><trkpt lat="42.892014" lon="18.962059"><ele>897.7</ele><time>2012-05-02T23:17:48.0000000+00:00</time></trkpt><trkpt lat="42.896404" lon="18.963882"><ele>908.3</ele><time>2012-05-02T23:18:13.0000000+00:00</time></trkpt><trkpt lat="42.897282" lon="18.963959"><ele>909.8</ele><time>2012-05-02T23:18:18.0000000+00:00</time></trkpt><trkpt lat="42.89904" lon="18.963377"><ele>913.4</ele><time>2012-05-02T23:18:28.0000000+00:00</time></trkpt><trkpt lat="42.899769" lon="18.962765"><ele>916.6</ele><time>2012-05-02T23:18:33.0000000+00:00</time></trkpt><trkpt lat="42.900753" lon="18.961346"><ele>927.1</ele><time>2012-05-02T23:18:43.0000000+00:00</time></trkpt><trkpt lat="42.90126" lon="18.960133"><ele>930.7</ele><time>2012-05-02T23:18:53.0000000+00:00</time></trkpt><trkpt lat="42.901958" lon="18.960333"><ele>933.2</ele><time>2012-05-02T23:19:03.0000000+00:00</time></trkpt><trkpt lat="42.902332" lon="18.960922"><ele>936.6</ele><time>2012-05-02T23:19:08.0000000+00:00</time></trkpt><trkpt lat="42.90255" lon="18.96431"><ele>937.4</ele><time>2012-05-02T23:19:23.0000000+00:00</time></trkpt><trkpt lat="42.902763" lon="18.965576"><ele>943.4</ele><time>2012-05-02T23:19:28.0000000+00:00</time></trkpt><trkpt lat="42.903889" lon="18.968925"><ele>963.7</ele><time>2012-05-02T23:19:43.0000000+00:00</time></trkpt><trkpt lat="42.904137" lon="18.969849"><ele>965.8</ele><time>2012-05-02T23:19:48.0000000+00:00</time></trkpt><trkpt lat="42.904186" lon="18.970844"><ele>973.1</ele><time>2012-05-02T23:19:53.0000000+00:00</time></trkpt><trkpt lat="42.903503" lon="18.973957"><ele>991.1</ele><time>2012-05-02T23:20:08.0000000+00:00</time></trkpt><trkpt lat="42.903519" lon="18.976049"><ele>1004.9</ele><time>2012-05-02T23:20:18.0000000+00:00</time></trkpt><trkpt lat="42.902924" lon="18.979008"><ele>1017.1</ele><time>2012-05-02T23:20:33.0000000+00:00</time></trkpt><trkpt lat="42.902847" lon="18.979971"><ele>1022.3</ele><time>2012-05-02T23:20:38.0000000+00:00</time></trkpt><trkpt lat="42.903145" lon="18.981878"><ele>1029.1</ele><time>2012-05-02T23:20:48.0000000+00:00</time></trkpt><trkpt lat="42.903027" lon="18.982893"><ele>1035.5</ele><time>2012-05-02T23:20:53.0000000+00:00</time></trkpt><trkpt lat="42.902542" lon="18.984739"><ele>1043.2</ele><time>2012-05-02T23:21:03.0000000+00:00</time></trkpt><trkpt lat="42.902672" lon="18.98568"><ele>1049.1</ele><time>2012-05-02T23:21:08.0000000+00:00</time></trkpt><trkpt lat="42.902584" lon="18.986643"><ele>1055.3</ele><time>2012-05-02T23:21:13.0000000+00:00</time></trkpt><trkpt lat="42.90115" lon="18.988556"><ele>1072.5</ele><time>2012-05-02T23:21:28.0000000+00:00</time></trkpt><trkpt lat="42.901161" lon="18.989454"><ele>1072.1</ele><time>2012-05-02T23:21:33.0000000+00:00</time></trkpt><trkpt lat="42.901493" lon="18.990351"><ele>1075.2</ele><time>2012-05-02T23:21:38.0000000+00:00</time></trkpt><trkpt lat="42.901615" lon="18.991293"><ele>1082.8</ele><time>2012-05-02T23:21:43.0000000+00:00</time></trkpt><trkpt lat="42.900925" lon="18.993036"><ele>1094.6</ele><time>2012-05-02T23:21:53.0000000+00:00</time></trkpt><trkpt lat="42.900574" lon="18.995045"><ele>1105.6</ele><time>2012-05-02T23:22:03.0000000+00:00</time></trkpt><trkpt lat="42.899857" lon="18.996843"><ele>1110.6</ele><time>2012-05-02T23:22:13.0000000+00:00</time></trkpt><trkpt lat="42.899105" lon="18.999828"><ele>1128.8</ele><time>2012-05-02T23:22:28.0000000+00:00</time></trkpt><trkpt lat="42.899101" lon="19.000847"><ele>1127.3</ele><time>2012-05-02T23:22:33.0000000+00:00</time></trkpt><trkpt lat="42.900398" lon="19.004738"><ele>1156.0</ele><time>2012-05-02T23:22:53.0000000+00:00</time></trkpt><trkpt lat="42.900848" lon="19.005638"><ele>1161.1</ele><time>2012-05-02T23:22:58.0000000+00:00</time></trkpt><trkpt lat="42.90144" lon="19.006378"><ele>1169.8</ele><time>2012-05-02T23:23:03.0000000+00:00</time></trkpt><trkpt lat="42.901825" lon="19.007278"><ele>1170.9</ele><time>2012-05-02T23:23:08.0000000+00:00</time></trkpt><trkpt lat="42.901756" lon="19.009405"><ele>1184.6</ele><time>2012-05-02T23:23:18.0000000+00:00</time></trkpt><trkpt lat="42.901974" lon="19.01041"><ele>1185.8</ele><time>2012-05-02T23:23:23.0000000+00:00</time></trkpt><trkpt lat="42.904263" lon="19.013437"><ele>1203.4</ele><time>2012-05-02T23:23:43.0000000+00:00</time></trkpt><trkpt lat="42.904587" lon="19.014339"><ele>1202.1</ele><time>2012-05-02T23:23:48.0000000+00:00</time></trkpt><trkpt lat="42.904629" lon="19.015373"><ele>1209.6</ele><time>2012-05-02T23:23:53.0000000+00:00</time></trkpt><trkpt lat="42.904392" lon="19.016329"><ele>1218.8</ele><time>2012-05-02T23:23:58.0000000+00:00</time></trkpt><trkpt lat="42.903397" lon="19.017849"><ele>1228.8</ele><time>2012-05-02T23:24:08.0000000+00:00</time></trkpt><trkpt lat="42.902626" lon="19.019644"><ele>1241.5</ele><time>2012-05-02T23:24:18.0000000+00:00</time></trkpt><trkpt lat="42.902134" lon="19.020426"><ele>1249.1</ele><time>2012-05-02T23:24:23.0000000+00:00</time></trkpt><trkpt lat="42.900284" lon="19.022345"><ele>1269.5</ele><time>2012-05-02T23:24:38.0000000+00:00</time></trkpt><trkpt lat="42.89986" lon="19.023233"><ele>1273.3</ele><time>2012-05-02T23:24:43.0000000+00:00</time></trkpt><trkpt lat="42.899536" lon="19.025259"><ele>1288.6</ele><time>2012-05-02T23:24:53.0000000+00:00</time></trkpt><trkpt lat="42.900528" lon="19.03091"><ele>1303.6</ele><time>2012-05-02T23:25:18.0000000+00:00</time></trkpt><trkpt lat="42.900368" lon="19.031944"><ele>1303.5</ele><time>2012-05-02T23:25:23.0000000+00:00</time></trkpt><trkpt lat="42.89994" lon="19.032917"><ele>1307.1</ele><time>2012-05-02T23:25:28.0000000+00:00</time></trkpt><trkpt lat="42.899467" lon="19.035038"><ele>1314.8</ele><time>2012-05-02T23:25:38.0000000+00:00</time></trkpt><trkpt lat="42.898979" lon="19.035742"><ele>1333.0</ele><time>2012-05-02T23:25:43.0000000+00:00</time></trkpt><trkpt lat="42.897499" lon="19.036661"><ele>1340.2</ele><time>2012-05-02T23:25:53.0000000+00:00</time></trkpt><trkpt lat="42.89682" lon="19.037354"><ele>1339.7</ele><time>2012-05-02T23:25:58.0000000+00:00</time></trkpt><trkpt lat="42.896381" lon="19.038332"><ele>1337.0</ele><time>2012-05-02T23:26:03.0000000+00:00</time></trkpt><trkpt lat="42.896236" lon="19.039469"><ele>1337.7</ele><time>2012-05-02T23:26:08.0000000+00:00</time></trkpt><trkpt lat="42.896385" lon="19.040508"><ele>1343.4</ele><time>2012-05-02T23:26:13.0000000+00:00</time></trkpt><trkpt lat="42.896793" lon="19.041422"><ele>1355.0</ele><time>2012-05-02T23:26:18.0000000+00:00</time></trkpt><trkpt lat="42.898762" lon="19.043444"><ele>1364.7</ele><time>2012-05-02T23:26:33.0000000+00:00</time></trkpt><trkpt lat="42.899246" lon="19.044306"><ele>1368.3</ele><time>2012-05-02T23:26:38.0000000+00:00</time></trkpt><trkpt lat="42.899887" lon="19.046431"><ele>1366.1</ele><time>2012-05-02T23:26:48.0000000+00:00</time></trkpt><trkpt lat="42.900829" lon="19.048414"><ele>1373.4</ele><time>2012-05-02T23:26:58.0000000+00:00</time></trkpt><trkpt lat="42.90107" lon="19.049528"><ele>1382.6</ele><time>2012-05-02T23:27:03.0000000+00:00</time></trkpt><trkpt lat="42.901199" lon="19.051815"><ele>1384.9</ele><time>2012-05-02T23:27:13.0000000+00:00</time></trkpt><trkpt lat="42.901806" lon="19.054008"><ele>1387.9</ele><time>2012-05-02T23:27:23.0000000+00:00</time></trkpt><trkpt lat="42.901913" lon="19.055117"><ele>1396.0</ele><time>2012-05-02T23:27:28.0000000+00:00</time></trkpt><trkpt lat="42.901691" lon="19.060877"><ele>1405.3</ele><time>2012-05-02T23:27:53.0000000+00:00</time></trkpt><trkpt lat="42.901493" lon="19.061947"><ele>1408.6</ele><time>2012-05-02T23:27:58.0000000+00:00</time></trkpt><trkpt lat="42.901039" lon="19.062716"><ele>1418.3</ele><time>2012-05-02T23:28:03.0000000+00:00</time></trkpt><trkpt lat="42.900452" lon="19.063286"><ele>1425.0</ele><time>2012-05-02T23:28:08.0000000+00:00</time></trkpt><trkpt lat="42.899776" lon="19.063797"><ele>1424.7</ele><time>2012-05-02T23:28:13.0000000+00:00</time></trkpt><trkpt lat="42.899036" lon="19.064001"><ele>1418.7</ele><time>2012-05-02T23:28:18.0000000+00:00</time></trkpt><trkpt lat="42.898232" lon="19.063805"><ele>1430.5</ele><time>2012-05-02T23:28:23.0000000+00:00</time></trkpt><trkpt lat="42.897457" lon="19.063951"><ele>1431.8</ele><time>2012-05-02T23:28:28.0000000+00:00</time></trkpt><trkpt lat="42.89558" lon="19.065966"><ele>1429.4</ele><time>2012-05-02T23:28:43.0000000+00:00</time></trkpt><trkpt lat="42.895084" lon="19.066843"><ele>1426.6</ele><time>2012-05-02T23:28:48.0000000+00:00</time></trkpt><trkpt lat="42.894878" lon="19.067905"><ele>1437.0</ele><time>2012-05-02T23:28:53.0000000+00:00</time></trkpt><trkpt lat="42.895031" lon="19.071295"><ele>1427.1</ele><time>2012-05-02T23:29:08.0000000+00:00</time></trkpt><trkpt lat="42.894829" lon="19.07242"><ele>1431.8</ele><time>2012-05-02T23:29:13.0000000+00:00</time></trkpt><trkpt lat="42.893764" lon="19.075377"><ele>1451.5</ele><time>2012-05-02T23:29:28.0000000+00:00</time></trkpt><trkpt lat="42.893707" lon="19.07638"><ele>1456.9</ele><time>2012-05-02T23:29:33.0000000+00:00</time></trkpt><trkpt lat="42.894157" lon="19.078239"><ele>1462.9</ele><time>2012-05-02T23:29:43.0000000+00:00</time></trkpt><trkpt lat="42.894642" lon="19.079029"><ele>1457.7</ele><time>2012-05-02T23:29:48.0000000+00:00</time></trkpt><trkpt lat="42.895233" lon="19.079647"><ele>1461.1</ele><time>2012-05-02T23:29:53.0000000+00:00</time></trkpt><trkpt lat="42.897442" lon="19.080818"><ele>1461.6</ele><time>2012-05-02T23:30:09.0000000+00:00</time></trkpt><trkpt lat="42.898067" lon="19.081364"><ele>1449.1</ele><time>2012-05-02T23:30:14.0000000+00:00</time></trkpt><trkpt lat="42.898994" lon="19.082853"><ele>1438.1</ele><time>2012-05-02T23:30:24.0000000+00:00</time></trkpt><trkpt lat="42.89941" lon="19.084702"><ele>1431.2</ele><time>2012-05-02T23:30:34.0000000+00:00</time></trkpt><trkpt lat="42.899281" lon="19.087517"><ele>1410.5</ele><time>2012-05-02T23:30:49.0000000+00:00</time></trkpt><trkpt lat="42.899509" lon="19.089354"><ele>1403.4</ele><time>2012-05-02T23:30:59.0000000+00:00</time></trkpt><trkpt lat="42.899422" lon="19.091183"><ele>1390.8</ele><time>2012-05-02T23:31:09.0000000+00:00</time></trkpt><trkpt lat="42.899548" lon="19.091995"><ele>1391.1</ele><time>2012-05-02T23:31:14.0000000+00:00</time></trkpt><trkpt lat="42.900742" lon="19.093487"><ele>1387.1</ele><time>2012-05-02T23:31:29.0000000+00:00</time></trkpt><trkpt lat="42.901031" lon="19.093311"><ele>1382.4</ele><time>2012-05-02T23:31:34.0000000+00:00</time></trkpt><trkpt lat="42.899933" lon="19.091764"><ele>1374.7</ele><time>2012-05-02T23:31:59.0000000+00:00</time></trkpt><trkpt lat="42.900501" lon="19.088688"><ele>1367.5</ele><time>2012-05-02T23:32:29.0000000+00:00</time></trkpt><trkpt lat="42.90057" lon="19.090219"><ele>1356.0</ele><time>2012-05-02T23:32:49.0000000+00:00</time></trkpt><trkpt lat="42.900902" lon="19.091202"><ele>1354.7</ele><time>2012-05-02T23:32:59.0000000+00:00</time></trkpt><trkpt lat="42.901897" lon="19.09145"><ele>1345.4</ele><time>2012-05-02T23:33:14.0000000+00:00</time></trkpt><trkpt lat="42.902523" lon="19.091135"><ele>1336.6</ele><time>2012-05-02T23:33:24.0000000+00:00</time></trkpt><trkpt lat="42.903263" lon="19.091127"><ele>1332.8</ele><time>2012-05-02T23:33:34.0000000+00:00</time></trkpt><trkpt lat="42.903431" lon="19.090252"><ele>1318.8</ele><time>2012-05-02T23:33:44.0000000+00:00</time></trkpt><trkpt lat="42.904018" lon="19.089737"><ele>1323.7</ele><time>2012-05-02T23:33:54.0000000+00:00</time></trkpt><trkpt lat="42.904831" lon="19.090189"><ele>1318.5</ele><time>2012-05-02T23:34:04.0000000+00:00</time></trkpt><trkpt lat="42.905567" lon="19.091734"><ele>1313.4</ele><time>2012-05-02T23:34:19.0000000+00:00</time></trkpt><trkpt lat="42.906239" lon="19.091902"><ele>1304.7</ele><time>2012-05-02T23:34:29.0000000+00:00</time></trkpt><trkpt lat="42.906445" lon="19.092197"><ele>1306.5</ele><time>2012-05-02T23:34:34.0000000+00:00</time></trkpt><trkpt lat="42.906597" lon="19.092142"><ele>1300.5</ele><time>2012-05-02T23:34:39.0000000+00:00</time></trkpt><trkpt lat="42.906506" lon="19.091833"><ele>1297.5</ele><time>2012-05-02T23:34:44.0000000+00:00</time></trkpt><trkpt lat="42.905972" lon="19.091375"><ele>1297.9</ele><time>2012-05-02T23:34:54.0000000+00:00</time></trkpt><trkpt lat="42.905754" lon="19.090324"><ele>1296.0</ele><time>2012-05-02T23:35:04.0000000+00:00</time></trkpt><trkpt lat="42.90583" lon="19.089708"><ele>1291.3</ele><time>2012-05-02T23:35:09.0000000+00:00</time></trkpt><trkpt lat="42.906219" lon="19.088743"><ele>1278.1</ele><time>2012-05-02T23:35:19.0000000+00:00</time></trkpt><trkpt lat="42.905754" lon="19.088287"><ele>1272.0</ele><time>2012-05-02T23:35:29.0000000+00:00</time></trkpt><trkpt lat="42.905048" lon="19.088436"><ele>1281.0</ele><time>2012-05-02T23:35:44.0000000+00:00</time></trkpt><trkpt lat="42.905647" lon="19.087866"><ele>1266.6</ele><time>2012-05-02T23:35:59.0000000+00:00</time></trkpt><trkpt lat="42.906235" lon="19.088125"><ele>1267.8</ele><time>2012-05-02T23:36:09.0000000+00:00</time></trkpt><trkpt lat="42.906975" lon="19.088104"><ele>1261.1</ele><time>2012-05-02T23:36:19.0000000+00:00</time></trkpt><trkpt lat="42.907112" lon="19.088509"><ele>1261.0</ele><time>2012-05-02T23:36:24.0000000+00:00</time></trkpt><trkpt lat="42.907104" lon="19.089304"><ele>1250.0</ele><time>2012-05-02T23:36:34.0000000+00:00</time></trkpt><trkpt lat="42.908524" lon="19.089458"><ele>1238.5</ele><time>2012-05-02T23:36:49.0000000+00:00</time></trkpt><trkpt lat="42.909267" lon="19.090204"><ele>1232.2</ele><time>2012-05-02T23:36:59.0000000+00:00</time></trkpt><trkpt lat="42.90976" lon="19.090256"><ele>1229.5</ele><time>2012-05-02T23:37:04.0000000+00:00</time></trkpt><trkpt lat="42.910553" lon="19.090002"><ele>1223.3</ele><time>2012-05-02T23:37:14.0000000+00:00</time></trkpt><trkpt lat="42.910828" lon="19.090807"><ele>1220.2</ele><time>2012-05-02T23:37:24.0000000+00:00</time></trkpt><trkpt lat="42.911274" lon="19.090906"><ele>1216.0</ele><time>2012-05-02T23:37:29.0000000+00:00</time></trkpt><trkpt lat="42.913265" lon="19.090214"><ele>1202.7</ele><time>2012-05-02T23:37:49.0000000+00:00</time></trkpt><trkpt lat="42.916203" lon="19.090841"><ele>1188.9</ele><time>2012-05-02T23:38:14.0000000+00:00</time></trkpt><trkpt lat="42.916576" lon="19.089882"><ele>1186.1</ele><time>2012-05-02T23:38:24.0000000+00:00</time></trkpt><trkpt lat="42.917328" lon="19.089302"><ele>1183.1</ele><time>2012-05-02T23:38:34.0000000+00:00</time></trkpt><trkpt lat="42.917656" lon="19.088793"><ele>1180.2</ele><time>2012-05-02T23:38:39.0000000+00:00</time></trkpt><trkpt lat="42.917812" lon="19.088167"><ele>1176.9</ele><time>2012-05-02T23:38:44.0000000+00:00</time></trkpt><trkpt lat="42.918407" lon="19.087238"><ele>1170.8</ele><time>2012-05-02T23:38:54.0000000+00:00</time></trkpt><trkpt lat="42.918438" lon="19.086721"><ele>1169.1</ele><time>2012-05-02T23:38:59.0000000+00:00</time></trkpt><trkpt lat="42.91943" lon="19.084808"><ele>1164.1</ele><time>2012-05-02T23:39:14.0000000+00:00</time></trkpt><trkpt lat="42.919914" lon="19.083273"><ele>1168.2</ele><time>2012-05-02T23:39:24.0000000+00:00</time></trkpt><trkpt lat="42.920235" lon="19.082806"><ele>1157.6</ele><time>2012-05-02T23:39:29.0000000+00:00</time></trkpt><trkpt lat="42.92141" lon="19.081945"><ele>1149.4</ele><time>2012-05-02T23:39:44.0000000+00:00</time></trkpt><trkpt lat="42.922382" lon="19.081783"><ele>1132.0</ele><time>2012-05-02T23:39:54.0000000+00:00</time></trkpt><trkpt lat="42.922852" lon="19.08148"><ele>1137.3</ele><time>2012-05-02T23:39:59.0000000+00:00</time></trkpt><trkpt lat="42.923615" lon="19.080563"><ele>1135.7</ele><time>2012-05-02T23:40:09.0000000+00:00</time></trkpt><trkpt lat="42.924313" lon="19.078262"><ele>1131.9</ele><time>2012-05-02T23:40:29.0000000+00:00</time></trkpt><trkpt lat="42.924255" lon="19.076923"><ele>1133.7</ele><time>2012-05-02T23:40:39.0000000+00:00</time></trkpt><trkpt lat="42.92503" lon="19.075113"><ele>1113.2</ele><time>2012-05-02T23:40:54.0000000+00:00</time></trkpt><trkpt lat="42.925411" lon="19.073757"><ele>1113.7</ele><time>2012-05-02T23:41:04.0000000+00:00</time></trkpt><trkpt lat="42.926212" lon="19.073204"><ele>1093.0</ele><time>2012-05-02T23:41:14.0000000+00:00</time></trkpt><trkpt lat="42.926849" lon="19.071581"><ele>1089.6</ele><time>2012-05-02T23:41:29.0000000+00:00</time></trkpt><trkpt lat="42.927147" lon="19.071249"><ele>1084.9</ele><time>2012-05-02T23:41:34.0000000+00:00</time></trkpt><trkpt lat="42.928661" lon="19.070717"><ele>1073.1</ele><time>2012-05-02T23:41:49.0000000+00:00</time></trkpt><trkpt lat="42.930061" lon="19.069611"><ele>1061.5</ele><time>2012-05-02T23:42:04.0000000+00:00</time></trkpt><trkpt lat="42.930595" lon="19.070093"><ele>1051.7</ele><time>2012-05-02T23:42:14.0000000+00:00</time></trkpt><trkpt lat="42.931393" lon="19.070314"><ele>1047.9</ele><time>2012-05-02T23:42:24.0000000+00:00</time></trkpt><trkpt lat="42.932285" lon="19.070148"><ele>1045.9</ele><time>2012-05-02T23:42:34.0000000+00:00</time></trkpt><trkpt lat="42.93325" lon="19.07023"><ele>1041.8</ele><time>2012-05-02T23:42:44.0000000+00:00</time></trkpt><trkpt lat="42.934155" lon="19.069872"><ele>1038.2</ele><time>2012-05-02T23:42:54.0000000+00:00</time></trkpt><trkpt lat="42.938362" lon="19.071842"><ele>1036.6</ele><time>2012-05-02T23:43:29.0000000+00:00</time></trkpt><trkpt lat="42.942013" lon="19.071787"><ele>1032.1</ele><time>2012-05-02T23:43:54.0000000+00:00</time></trkpt><trkpt lat="42.942558" lon="19.072208"><ele>1034.6</ele><time>2012-05-02T23:43:59.0000000+00:00</time></trkpt><trkpt lat="42.943428" lon="19.073483"><ele>1041.4</ele><time>2012-05-02T23:44:09.0000000+00:00</time></trkpt><trkpt lat="42.943901" lon="19.073513"><ele>1045.6</ele><time>2012-05-02T23:44:14.0000000+00:00</time></trkpt><trkpt lat="42.94421" lon="19.073191"><ele>1046.8</ele><time>2012-05-02T23:44:19.0000000+00:00</time></trkpt><trkpt lat="42.944588" lon="19.073221"><ele>1046.7</ele><time>2012-05-02T23:44:24.0000000+00:00</time></trkpt><trkpt lat="42.945538" lon="19.073658"><ele>1054.4</ele><time>2012-05-02T23:44:34.0000000+00:00</time></trkpt><trkpt lat="42.945786" lon="19.074156"><ele>1056.8</ele><time>2012-05-02T23:44:39.0000000+00:00</time></trkpt><trkpt lat="42.945816" lon="19.074797"><ele>1063.2</ele><time>2012-05-02T23:44:44.0000000+00:00</time></trkpt><trkpt lat="42.945511" lon="19.076796"><ele>1068.5</ele><time>2012-05-02T23:44:59.0000000+00:00</time></trkpt><trkpt lat="42.945789" lon="19.077213"><ele>1073.0</ele><time>2012-05-02T23:45:04.0000000+00:00</time></trkpt><trkpt lat="42.946198" lon="19.077108"><ele>1071.2</ele><time>2012-05-02T23:45:09.0000000+00:00</time></trkpt><trkpt lat="42.946522" lon="19.077314"><ele>1073.2</ele><time>2012-05-02T23:45:14.0000000+00:00</time></trkpt><trkpt lat="42.946743" lon="19.078472"><ele>1081.2</ele><time>2012-05-02T23:45:24.0000000+00:00</time></trkpt><trkpt lat="42.947453" lon="19.079056"><ele>1084.2</ele><time>2012-05-02T23:45:34.0000000+00:00</time></trkpt><trkpt lat="42.948215" lon="19.080853"><ele>1084.4</ele><time>2012-05-02T23:45:49.0000000+00:00</time></trkpt><trkpt lat="42.949074" lon="19.081968"><ele>1085.3</ele><time>2012-05-02T23:45:59.0000000+00:00</time></trkpt><trkpt lat="42.949394" lon="19.085573"><ele>1089.8</ele><time>2012-05-02T23:46:24.0000000+00:00</time></trkpt><trkpt lat="42.949978" lon="19.086266"><ele>1084.5</ele><time>2012-05-02T23:46:34.0000000+00:00</time></trkpt><trkpt lat="42.950596" lon="19.08884"><ele>1077.8</ele><time>2012-05-02T23:46:54.0000000+00:00</time></trkpt><trkpt lat="42.950424" lon="19.089319"><ele>1075.5</ele><time>2012-05-02T23:46:59.0000000+00:00</time></trkpt><trkpt lat="42.949112" lon="19.089291"><ele>1071.2</ele><time>2012-05-02T23:47:14.0000000+00:00</time></trkpt><trkpt lat="42.948784" lon="19.089598"><ele>1068.2</ele><time>2012-05-02T23:47:19.0000000+00:00</time></trkpt><trkpt lat="42.948616" lon="19.090115"><ele>1064.1</ele><time>2012-05-02T23:47:24.0000000+00:00</time></trkpt><trkpt lat="42.947819" lon="19.090658"><ele>1060.7</ele><time>2012-05-02T23:47:34.0000000+00:00</time></trkpt><trkpt lat="42.946938" lon="19.092201"><ele>1052.3</ele><time>2012-05-02T23:47:49.0000000+00:00</time></trkpt><trkpt lat="42.946117" lon="19.092546"><ele>1050.6</ele><time>2012-05-02T23:47:59.0000000+00:00</time></trkpt><trkpt lat="42.945919" lon="19.093021"><ele>1045.3</ele><time>2012-05-02T23:48:04.0000000+00:00</time></trkpt><trkpt lat="42.945919" lon="19.093359"><ele>1040.5</ele><time>2012-05-02T23:48:09.0000000+00:00</time></trkpt><trkpt lat="42.946308" lon="19.092899"><ele>1041.8</ele><time>2012-05-02T23:48:19.0000000+00:00</time></trkpt><trkpt lat="42.947472" lon="19.092684"><ele>1030.3</ele><time>2012-05-02T23:48:34.0000000+00:00</time></trkpt><trkpt lat="42.948597" lon="19.091591"><ele>1029.1</ele><time>2012-05-02T23:48:49.0000000+00:00</time></trkpt><trkpt lat="42.948818" lon="19.091652"><ele>1021.6</ele><time>2012-05-02T23:48:54.0000000+00:00</time></trkpt><trkpt lat="42.948433" lon="19.092066"><ele>1024.9</ele><time>2012-05-02T23:49:04.0000000+00:00</time></trkpt><trkpt lat="42.948009" lon="19.093"><ele>1015.1</ele><time>2012-05-02T23:49:14.0000000+00:00</time></trkpt><trkpt lat="42.947262" lon="19.093861"><ele>1008.1</ele><time>2012-05-02T23:49:24.0000000+00:00</time></trkpt><trkpt lat="42.946815" lon="19.094734"><ele>1003.5</ele><time>2012-05-02T23:49:34.0000000+00:00</time></trkpt><trkpt lat="42.946968" lon="19.094809"><ele>1002.2</ele><time>2012-05-02T23:49:39.0000000+00:00</time></trkpt><trkpt lat="42.947098" lon="19.094542"><ele>1002.5</ele><time>2012-05-02T23:49:44.0000000+00:00</time></trkpt><trkpt lat="42.949505" lon="19.092962"><ele>986.9</ele><time>2012-05-02T23:50:19.0000000+00:00</time></trkpt><trkpt lat="42.947678" lon="19.095539"><ele>981.6</ele><time>2012-05-02T23:50:59.0000000+00:00</time></trkpt><trkpt lat="42.948692" lon="19.094866"><ele>962.0</ele><time>2012-05-02T23:51:19.0000000+00:00</time></trkpt><trkpt lat="42.949497" lon="19.095041"><ele>959.3</ele><time>2012-05-02T23:51:34.0000000+00:00</time></trkpt><trkpt lat="42.948467" lon="19.095598"><ele>954.2</ele><time>2012-05-02T23:51:54.0000000+00:00</time></trkpt><trkpt lat="42.947475" lon="19.097496"><ele>946.0</ele><time>2012-05-02T23:52:14.0000000+00:00</time></trkpt><trkpt lat="42.947281" lon="19.0987"><ele>937.6</ele><time>2012-05-02T23:52:24.0000000+00:00</time></trkpt><trkpt lat="42.94725" lon="19.09981"><ele>936.5</ele><time>2012-05-02T23:52:34.0000000+00:00</time></trkpt><trkpt lat="42.947372" lon="19.099936"><ele>933.2</ele><time>2012-05-02T23:52:39.0000000+00:00</time></trkpt><trkpt lat="42.94743" lon="19.099308"><ele>929.6</ele><time>2012-05-02T23:52:49.0000000+00:00</time></trkpt><trkpt lat="42.948208" lon="19.098251"><ele>924.3</ele><time>2012-05-02T23:53:04.0000000+00:00</time></trkpt><trkpt lat="42.948322" lon="19.097719"><ele>928.3</ele><time>2012-05-02T23:53:09.0000000+00:00</time></trkpt><trkpt lat="42.948597" lon="19.097342"><ele>921.0</ele><time>2012-05-02T23:53:14.0000000+00:00</time></trkpt><trkpt lat="42.950737" lon="19.096802"><ele>913.4</ele><time>2012-05-02T23:53:39.0000000+00:00</time></trkpt><trkpt lat="42.951134" lon="19.09602"><ele>898.2</ele><time>2012-05-02T23:53:49.0000000+00:00</time></trkpt><trkpt lat="42.951721" lon="19.095659"><ele>898.2</ele><time>2012-05-02T23:53:59.0000000+00:00</time></trkpt><trkpt lat="42.952015" lon="19.095236"><ele>893.8</ele><time>2012-05-02T23:54:04.0000000+00:00</time></trkpt><trkpt lat="42.952" lon="19.09429"><ele>894.4</ele><time>2012-05-02T23:54:14.0000000+00:00</time></trkpt><trkpt lat="42.952175" lon="19.094362"><ele>884.0</ele><time>2012-05-02T23:54:19.0000000+00:00</time></trkpt><trkpt lat="42.952412" lon="19.095734"><ele>870.7</ele><time>2012-05-02T23:54:34.0000000+00:00</time></trkpt><trkpt lat="42.951912" lon="19.096611"><ele>871.7</ele><time>2012-05-02T23:54:44.0000000+00:00</time></trkpt><trkpt lat="42.95163" lon="19.097809"><ele>854.3</ele><time>2012-05-02T23:54:54.0000000+00:00</time></trkpt><trkpt lat="42.951366" lon="19.09823"><ele>847.8</ele><time>2012-05-02T23:54:59.0000000+00:00</time></trkpt><trkpt lat="42.950527" lon="19.099146"><ele>839.6</ele><time>2012-05-02T23:55:14.0000000+00:00</time></trkpt><trkpt lat="42.949913" lon="19.099363"><ele>851.8</ele><time>2012-05-02T23:55:24.0000000+00:00</time></trkpt><trkpt lat="42.949917" lon="19.099733"><ele>859.7</ele><time>2012-05-02T23:55:29.0000000+00:00</time></trkpt><trkpt lat="42.950245" lon="19.099964"><ele>858.7</ele><time>2012-05-02T23:55:34.0000000+00:00</time></trkpt><trkpt lat="42.950672" lon="19.09989"><ele>849.4</ele><time>2012-05-02T23:55:39.0000000+00:00</time></trkpt><trkpt lat="42.952183" lon="19.098925"><ele>856.0</ele><time>2012-05-02T23:55:54.0000000+00:00</time></trkpt><trkpt lat="42.953354" lon="19.097954"><ele>848.5</ele><time>2012-05-02T23:56:09.0000000+00:00</time></trkpt><trkpt lat="42.953781" lon="19.098061"><ele>851.4</ele><time>2012-05-02T23:56:14.0000000+00:00</time></trkpt><trkpt lat="42.954685" lon="19.097769"><ele>847.0</ele><time>2012-05-02T23:56:24.0000000+00:00</time></trkpt><trkpt lat="42.956619" lon="19.096163"><ele>833.8</ele><time>2012-05-02T23:56:49.0000000+00:00</time></trkpt><trkpt lat="42.957008" lon="19.096121"><ele>837.8</ele><time>2012-05-02T23:56:54.0000000+00:00</time></trkpt><trkpt lat="42.957466" lon="19.096603"><ele>835.2</ele><time>2012-05-02T23:57:04.0000000+00:00</time></trkpt><trkpt lat="42.95771" lon="19.096378"><ele>829.6</ele><time>2012-05-02T23:57:09.0000000+00:00</time></trkpt><trkpt lat="42.957687" lon="19.095341"><ele>828.5</ele><time>2012-05-02T23:57:19.0000000+00:00</time></trkpt><trkpt lat="42.957802" lon="19.094988"><ele>834.9</ele><time>2012-05-02T23:57:24.0000000+00:00</time></trkpt><trkpt lat="42.959827" lon="19.093515"><ele>847.3</ele><time>2012-05-02T23:57:49.0000000+00:00</time></trkpt><trkpt lat="42.961697" lon="19.092957"><ele>852.5</ele><time>2012-05-02T23:58:04.0000000+00:00</time></trkpt><trkpt lat="42.962708" lon="19.09173"><ele>858.6</ele><time>2012-05-02T23:58:14.0000000+00:00</time></trkpt><trkpt lat="42.963982" lon="19.091059"><ele>866.1</ele><time>2012-05-02T23:58:24.0000000+00:00</time></trkpt><trkpt lat="42.965202" lon="19.089867"><ele>874.6</ele><time>2012-05-02T23:58:34.0000000+00:00</time></trkpt><trkpt lat="42.967567" lon="19.089205"><ele>889.6</ele><time>2012-05-02T23:58:49.0000000+00:00</time></trkpt><trkpt lat="42.970894" lon="19.086077"><ele>917.4</ele><time>2012-05-02T23:59:14.0000000+00:00</time></trkpt><trkpt lat="42.97245" lon="19.08559"><ele>927.0</ele><time>2012-05-02T23:59:24.0000000+00:00</time></trkpt><trkpt lat="42.975174" lon="19.083891"><ele>944.7</ele><time>2012-05-02T23:59:44.0000000+00:00</time></trkpt><trkpt lat="42.977062" lon="19.083729"><ele>962.5</ele><time>2012-05-02T23:59:59.0000000+00:00</time></trkpt><trkpt lat="42.979115" lon="19.082844"><ele>970.6</ele><time>2012-05-03T00:00:14.0000000+00:00</time></trkpt><trkpt lat="42.979656" lon="19.082384"><ele>984.7</ele><time>2012-05-03T00:00:19.0000000+00:00</time></trkpt><trkpt lat="42.980049" lon="19.081696"><ele>988.5</ele><time>2012-05-03T00:00:24.0000000+00:00</time></trkpt><trkpt lat="42.980247" lon="19.080807"><ele>993.3</ele><time>2012-05-03T00:00:29.0000000+00:00</time></trkpt><trkpt lat="42.979958" lon="19.077929"><ele>996.0</ele><time>2012-05-03T00:00:44.0000000+00:00</time></trkpt><trkpt lat="42.980038" lon="19.076958"><ele>1003.5</ele><time>2012-05-03T00:00:49.0000000+00:00</time></trkpt><trkpt lat="42.980385" lon="19.076067"><ele>1007.2</ele><time>2012-05-03T00:00:54.0000000+00:00</time></trkpt><trkpt lat="42.981609" lon="19.074932"><ele>1013.3</ele><time>2012-05-03T00:01:04.0000000+00:00</time></trkpt><trkpt lat="42.985008" lon="19.072792"><ele>1037.2</ele><time>2012-05-03T00:01:29.0000000+00:00</time></trkpt><trkpt lat="42.986603" lon="19.071159"><ele>1052.4</ele><time>2012-05-03T00:01:44.0000000+00:00</time></trkpt><trkpt lat="42.987278" lon="19.071182"><ele>1054.0</ele><time>2012-05-03T00:01:49.0000000+00:00</time></trkpt><trkpt lat="42.987957" lon="19.071503"><ele>1066.1</ele><time>2012-05-03T00:01:54.0000000+00:00</time></trkpt><trkpt lat="42.988552" lon="19.072058"><ele>1075.3</ele><time>2012-05-03T00:01:59.0000000+00:00</time></trkpt><trkpt lat="42.989563" lon="19.073565"><ele>1089.7</ele><time>2012-05-03T00:02:09.0000000+00:00</time></trkpt><trkpt lat="42.990292" lon="19.073839"><ele>1100.1</ele><time>2012-05-03T00:02:14.0000000+00:00</time></trkpt><trkpt lat="42.992802" lon="19.073841"><ele>1121.2</ele><time>2012-05-03T00:02:29.0000000+00:00</time></trkpt><trkpt lat="42.994259" lon="19.074886"><ele>1139.7</ele><time>2012-05-03T00:02:39.0000000+00:00</time></trkpt><trkpt lat="42.997284" lon="19.076057"><ele>1165.6</ele><time>2012-05-03T00:02:59.0000000+00:00</time></trkpt><trkpt lat="42.998055" lon="19.076326"><ele>1171.6</ele><time>2012-05-03T00:03:04.0000000+00:00</time></trkpt><trkpt lat="43.00042" lon="19.076582"><ele>1182.4</ele><time>2012-05-03T00:03:19.0000000+00:00</time></trkpt><trkpt lat="43.004547" lon="19.078075"><ele>1201.5</ele><time>2012-05-03T00:03:44.0000000+00:00</time></trkpt><trkpt lat="43.005421" lon="19.078138"><ele>1203.3</ele><time>2012-05-03T00:03:49.0000000+00:00</time></trkpt><trkpt lat="43.009113" lon="19.077671"><ele>1234.5</ele><time>2012-05-03T00:04:09.0000000+00:00</time></trkpt><trkpt lat="43.009926" lon="19.07724"><ele>1230.5</ele><time>2012-05-03T00:04:14.0000000+00:00</time></trkpt><trkpt lat="43.011204" lon="19.076199"><ele>1245.6</ele><time>2012-05-03T00:04:24.0000000+00:00</time></trkpt><trkpt lat="43.011845" lon="19.076231"><ele>1249.7</ele><time>2012-05-03T00:04:29.0000000+00:00</time></trkpt><trkpt lat="43.012444" lon="19.076773"><ele>1253.3</ele><time>2012-05-03T00:04:34.0000000+00:00</time></trkpt><trkpt lat="43.012856" lon="19.077793"><ele>1259.6</ele><time>2012-05-03T00:04:39.0000000+00:00</time></trkpt><trkpt lat="43.013165" lon="19.078897"><ele>1257.1</ele><time>2012-05-03T00:04:44.0000000+00:00</time></trkpt><trkpt lat="43.013485" lon="19.082493"><ele>1268.9</ele><time>2012-05-03T00:04:59.0000000+00:00</time></trkpt><trkpt lat="43.013966" lon="19.083298"><ele>1278.7</ele><time>2012-05-03T00:05:04.0000000+00:00</time></trkpt><trkpt lat="43.014767" lon="19.083614"><ele>1269.0</ele><time>2012-05-03T00:05:09.0000000+00:00</time></trkpt><trkpt lat="43.016468" lon="19.08363"><ele>1276.2</ele><time>2012-05-03T00:05:19.0000000+00:00</time></trkpt><trkpt lat="43.017227" lon="19.083925"><ele>1301.4</ele><time>2012-05-03T00:05:24.0000000+00:00</time></trkpt><trkpt lat="43.01807" lon="19.084574"><ele>1283.4</ele><time>2012-05-03T00:05:30.0000000+00:00</time></trkpt><trkpt lat="43.018738" lon="19.085365"><ele>1280.8</ele><time>2012-05-03T00:05:35.0000000+00:00</time></trkpt><trkpt lat="43.026199" lon="19.089663"><ele>1321.2</ele><time>2012-05-03T00:06:15.0000000+00:00</time></trkpt><trkpt lat="43.027138" lon="19.090036"><ele>1322.4</ele><time>2012-05-03T00:06:20.0000000+00:00</time></trkpt><trkpt lat="43.028111" lon="19.090048"><ele>1323.8</ele><time>2012-05-03T00:06:25.0000000+00:00</time></trkpt><trkpt lat="43.029003" lon="19.089748"><ele>1334.6</ele><time>2012-05-03T00:06:30.0000000+00:00</time></trkpt><trkpt lat="43.029785" lon="19.089119"><ele>1320.5</ele><time>2012-05-03T00:06:35.0000000+00:00</time></trkpt><trkpt lat="43.03207" lon="19.08543"><ele>1343.9</ele><time>2012-05-03T00:06:55.0000000+00:00</time></trkpt><trkpt lat="43.034138" lon="19.083307"><ele>1372.6</ele><time>2012-05-03T00:07:10.0000000+00:00</time></trkpt><trkpt lat="43.035618" lon="19.082129"><ele>1376.2</ele><time>2012-05-03T00:07:20.0000000+00:00</time></trkpt><trkpt lat="43.04174" lon="19.079515"><ele>1438.1</ele><time>2012-05-03T00:07:55.0000000+00:00</time></trkpt><trkpt lat="43.043304" lon="19.079393"><ele>1453.4</ele><time>2012-05-03T00:08:05.0000000+00:00</time></trkpt><trkpt lat="43.044907" lon="19.079939"><ele>1530.8</ele><time>2012-05-03T00:08:15.0000000+00:00</time></trkpt><trkpt lat="43.056091" lon="19.102453"><ele>1458.6</ele><time>2012-05-03T00:09:50.0000000+00:00</time></trkpt><trkpt lat="43.058514" lon="19.104118"><ele>1444.2</ele><time>2012-05-03T00:10:05.0000000+00:00</time></trkpt><trkpt lat="43.059608" lon="19.106304"><ele>1442.1</ele><time>2012-05-03T00:10:15.0000000+00:00</time></trkpt><trkpt lat="43.06041" lon="19.10701"><ele>1434.3</ele><time>2012-05-03T00:10:20.0000000+00:00</time></trkpt><trkpt lat="43.062229" lon="19.107355"><ele>1430.0</ele><time>2012-05-03T00:10:30.0000000+00:00</time></trkpt><trkpt lat="43.063877" lon="19.108139"><ele>1425.4</ele><time>2012-05-03T00:10:40.0000000+00:00</time></trkpt><trkpt lat="43.064686" lon="19.108221"><ele>1430.7</ele><time>2012-05-03T00:10:45.0000000+00:00</time></trkpt><trkpt lat="43.068024" lon="19.10631"><ele>1435.2</ele><time>2012-05-03T00:11:05.0000000+00:00</time></trkpt><trkpt lat="43.069725" lon="19.103937"><ele>1435.0</ele><time>2012-05-03T00:11:20.0000000+00:00</time></trkpt><trkpt lat="43.072971" lon="19.102238"><ele>1459.1</ele><time>2012-05-03T00:11:40.0000000+00:00</time></trkpt><trkpt lat="43.075142" lon="19.100418"><ele>1476.7</ele><time>2012-05-03T00:11:55.0000000+00:00</time></trkpt><trkpt lat="43.075996" lon="19.100437"><ele>1482.8</ele><time>2012-05-03T00:12:00.0000000+00:00</time></trkpt><trkpt lat="43.076729" lon="19.101082"><ele>1489.3</ele><time>2012-05-03T00:12:05.0000000+00:00</time></trkpt><trkpt lat="43.078056" lon="19.104296"><ele>1512.9</ele><time>2012-05-03T00:12:20.0000000+00:00</time></trkpt><trkpt lat="43.078732" lon="19.104933"><ele>1512.9</ele><time>2012-05-03T00:12:25.0000000+00:00</time></trkpt><trkpt lat="43.079556" lon="19.105001"><ele>1509.8</ele><time>2012-05-03T00:12:30.0000000+00:00</time></trkpt><trkpt lat="43.080345" lon="19.104507"><ele>1511.5</ele><time>2012-05-03T00:12:35.0000000+00:00</time></trkpt><trkpt lat="43.081757" lon="19.103186"><ele>1510.0</ele><time>2012-05-03T00:12:45.0000000+00:00</time></trkpt><trkpt lat="43.082481" lon="19.102942"><ele>1507.5</ele><time>2012-05-03T00:12:50.0000000+00:00</time></trkpt><trkpt lat="43.083221" lon="19.103058"><ele>1501.6</ele><time>2012-05-03T00:12:55.0000000+00:00</time></trkpt><trkpt lat="43.084782" lon="19.103857"><ele>1501.4</ele><time>2012-05-03T00:13:05.0000000+00:00</time></trkpt><trkpt lat="43.086475" lon="19.104017"><ele>1508.6</ele><time>2012-05-03T00:13:15.0000000+00:00</time></trkpt><trkpt lat="43.088005" lon="19.104994"><ele>1508.9</ele><time>2012-05-03T00:13:25.0000000+00:00</time></trkpt><trkpt lat="43.088818" lon="19.105204"><ele>1506.9</ele><time>2012-05-03T00:13:30.0000000+00:00</time></trkpt><trkpt lat="43.090603" lon="19.105026"><ele>1506.0</ele><time>2012-05-03T00:13:40.0000000+00:00</time></trkpt><trkpt lat="43.091442" lon="19.105207"><ele>1506.4</ele><time>2012-05-03T00:13:45.0000000+00:00</time></trkpt><trkpt lat="43.092186" lon="19.10577"><ele>1507.2</ele><time>2012-05-03T00:13:50.0000000+00:00</time></trkpt><trkpt lat="43.09277" lon="19.106659"><ele>1505.8</ele><time>2012-05-03T00:13:55.0000000+00:00</time></trkpt><trkpt lat="43.093765" lon="19.108803"><ele>1523.0</ele><time>2012-05-03T00:14:05.0000000+00:00</time></trkpt><trkpt lat="43.09444" lon="19.109623"><ele>1520.6</ele><time>2012-05-03T00:14:10.0000000+00:00</time></trkpt><trkpt lat="43.095287" lon="19.110119"><ele>1523.7</ele><time>2012-05-03T00:14:15.0000000+00:00</time></trkpt><trkpt lat="43.098949" lon="19.11063"><ele>1520.1</ele><time>2012-05-03T00:14:35.0000000+00:00</time></trkpt><trkpt lat="43.099712" lon="19.111189"><ele>1516.1</ele><time>2012-05-03T00:14:40.0000000+00:00</time></trkpt><trkpt lat="43.102654" lon="19.11644"><ele>1498.6</ele><time>2012-05-03T00:15:05.0000000+00:00</time></trkpt><trkpt lat="43.103394" lon="19.117373"><ele>1493.8</ele><time>2012-05-03T00:15:10.0000000+00:00</time></trkpt><trkpt lat="43.110756" lon="19.121902"><ele>1471.3</ele><time>2012-05-03T00:15:50.0000000+00:00</time></trkpt><trkpt lat="43.111771" lon="19.122164"><ele>1470.5</ele><time>2012-05-03T00:15:55.0000000+00:00</time></trkpt><trkpt lat="43.118076" lon="19.122246"><ele>1460.7</ele><time>2012-05-03T00:16:25.0000000+00:00</time></trkpt><trkpt lat="43.119026" lon="19.122715"><ele>1457.0</ele><time>2012-05-03T00:16:30.0000000+00:00</time></trkpt><trkpt lat="43.120766" lon="19.124405"><ele>1456.8</ele><time>2012-05-03T00:16:40.0000000+00:00</time></trkpt><trkpt lat="43.121723" lon="19.124844"><ele>1457.0</ele><time>2012-05-03T00:16:45.0000000+00:00</time></trkpt><trkpt lat="43.124825" lon="19.12455"><ele>1457.9</ele><time>2012-05-03T00:17:00.0000000+00:00</time></trkpt><trkpt lat="43.127766" lon="19.125668"><ele>1453.8</ele><time>2012-05-03T00:17:15.0000000+00:00</time></trkpt><trkpt lat="43.128723" lon="19.125805"><ele>1450.5</ele><time>2012-05-03T00:17:20.0000000+00:00</time></trkpt><trkpt lat="43.129616" lon="19.125523"><ele>1448.7</ele><time>2012-05-03T00:17:25.0000000+00:00</time></trkpt><trkpt lat="43.131897" lon="19.123997"><ele>1454.9</ele><time>2012-05-03T00:17:40.0000000+00:00</time></trkpt><trkpt lat="43.138515" lon="19.121634"><ele>1469.4</ele><time>2012-05-03T00:18:15.0000000+00:00</time></trkpt><trkpt lat="43.142216" lon="19.12118"><ele>1484.2</ele><time>2012-05-03T00:18:35.0000000+00:00</time></trkpt><trkpt lat="43.146336" lon="19.122353"><ele>1469.9</ele><time>2012-05-03T00:19:00.0000000+00:00</time></trkpt><trkpt lat="43.147106" lon="19.122757"><ele>1471.1</ele><time>2012-05-03T00:19:05.0000000+00:00</time></trkpt><trkpt lat="43.15015" lon="19.125961"><ele>1464.2</ele><time>2012-05-03T00:19:30.0000000+00:00</time></trkpt><trkpt lat="43.15078" lon="19.126986"><ele>1446.5</ele><time>2012-05-03T00:19:40.0000000+00:00</time></trkpt><trkpt lat="43.152016" lon="19.12978"><ele>1436.5</ele><time>2012-05-03T00:20:00.0000000+00:00</time></trkpt><trkpt lat="43.152691" lon="19.130768"><ele>1440.1</ele><time>2012-05-03T00:20:10.0000000+00:00</time></trkpt><trkpt lat="43.153828" lon="19.131237"><ele>1436.0</ele><time>2012-05-03T00:20:20.0000000+00:00</time></trkpt><trkpt lat="43.155128" lon="19.131327"><ele>1433.6</ele><time>2012-05-03T00:20:30.0000000+00:00</time></trkpt><trkpt lat="43.155708" lon="19.131744"><ele>1428.9</ele><time>2012-05-03T00:20:35.0000000+00:00</time></trkpt><trkpt lat="43.158325" lon="19.134638"><ele>1413.8</ele><time>2012-05-03T00:21:00.0000000+00:00</time></trkpt><trkpt lat="43.160107" lon="19.135675"><ele>1410.0</ele><time>2012-05-03T00:21:15.0000000+00:00</time></trkpt><trkpt lat="43.160778" lon="19.135775"><ele>1406.2</ele><time>2012-05-03T00:21:25.0000000+00:00</time></trkpt><trkpt lat="43.161335" lon="19.136778"><ele>1408.3</ele><time>2012-05-03T00:21:35.0000000+00:00</time></trkpt><trkpt lat="43.16254" lon="19.1383"><ele>1406.5</ele><time>2012-05-03T00:21:50.0000000+00:00</time></trkpt><trkpt lat="43.163052" lon="19.139851"><ele>1401.8</ele><time>2012-05-03T00:22:00.0000000+00:00</time></trkpt><trkpt lat="43.163136" lon="19.143835"><ele>1381.6</ele><time>2012-05-03T00:22:20.0000000+00:00</time></trkpt><trkpt lat="43.164032" lon="19.150269"><ele>1360.7</ele><time>2012-05-03T00:22:50.0000000+00:00</time></trkpt><trkpt lat="43.163799" lon="19.155451"><ele>1347.5</ele><time>2012-05-03T00:23:15.0000000+00:00</time></trkpt><trkpt lat="43.164516" lon="19.159754"><ele>1339.3</ele><time>2012-05-03T00:23:35.0000000+00:00</time></trkpt><trkpt lat="43.164822" lon="19.164223"><ele>1334.5</ele><time>2012-05-03T00:23:55.0000000+00:00</time></trkpt><trkpt lat="43.165199" lon="19.167431"><ele>1327.9</ele><time>2012-05-03T00:24:10.0000000+00:00</time></trkpt><trkpt lat="43.164646" lon="19.175476"><ele>1316.4</ele><time>2012-05-03T00:24:50.0000000+00:00</time></trkpt><trkpt lat="43.165623" lon="19.182508"><ele>1304.4</ele><time>2012-05-03T00:25:25.0000000+00:00</time></trkpt><trkpt lat="43.16415" lon="19.188618"><ele>1313.5</ele><time>2012-05-03T00:26:00.0000000+00:00</time></trkpt><trkpt lat="43.164158" lon="19.189564"><ele>1309.6</ele><time>2012-05-03T00:26:05.0000000+00:00</time></trkpt><trkpt lat="43.163704" lon="19.191446"><ele>1311.2</ele><time>2012-05-03T00:26:15.0000000+00:00</time></trkpt><trkpt lat="43.162579" lon="19.19865"><ele>1295.3</ele><time>2012-05-03T00:26:50.0000000+00:00</time></trkpt><trkpt lat="43.161579" lon="19.20265"><ele>1289.2</ele><time>2012-05-03T00:27:10.0000000+00:00</time></trkpt><trkpt lat="43.159622" lon="19.207409"><ele>1290.5</ele><time>2012-05-03T00:27:35.0000000+00:00</time></trkpt><trkpt lat="43.159073" lon="19.20936"><ele>1290.2</ele><time>2012-05-03T00:27:45.0000000+00:00</time></trkpt><trkpt lat="43.158688" lon="19.210194"><ele>1285.5</ele><time>2012-05-03T00:27:50.0000000+00:00</time></trkpt><trkpt lat="43.157661" lon="19.211641"><ele>1291.4</ele><time>2012-05-03T00:28:00.0000000+00:00</time></trkpt><trkpt lat="43.154026" lon="19.213219"><ele>1310.3</ele><time>2012-05-03T00:28:30.0000000+00:00</time></trkpt><trkpt lat="43.152718" lon="19.21545"><ele>1301.1</ele><time>2012-05-03T00:28:45.0000000+00:00</time></trkpt><trkpt lat="43.150852" lon="19.216801"><ele>1297.9</ele><time>2012-05-03T00:29:00.0000000+00:00</time></trkpt><trkpt lat="43.148949" lon="19.219612"><ele>1297.2</ele><time>2012-05-03T00:29:20.0000000+00:00</time></trkpt><trkpt lat="43.147675" lon="19.220459"><ele>1297.9</ele><time>2012-05-03T00:29:30.0000000+00:00</time></trkpt><trkpt lat="43.146507" lon="19.222738"><ele>1302.6</ele><time>2012-05-03T00:29:45.0000000+00:00</time></trkpt><trkpt lat="43.145329" lon="19.223671"><ele>1303.9</ele><time>2012-05-03T00:29:55.0000000+00:00</time></trkpt><trkpt lat="43.144165" lon="19.225042"><ele>1299.6</ele><time>2012-05-03T00:30:05.0000000+00:00</time></trkpt><trkpt lat="43.143631" lon="19.225828"><ele>1298.1</ele><time>2012-05-03T00:30:10.0000000+00:00</time></trkpt><trkpt lat="43.143307" lon="19.226782"><ele>1296.6</ele><time>2012-05-03T00:30:15.0000000+00:00</time></trkpt><trkpt lat="43.143227" lon="19.227867"><ele>1297.8</ele><time>2012-05-03T00:30:20.0000000+00:00</time></trkpt><trkpt lat="43.144268" lon="19.232119"><ele>1301.0</ele><time>2012-05-03T00:30:40.0000000+00:00</time></trkpt><trkpt lat="43.144897" lon="19.233725"><ele>1305.3</ele><time>2012-05-03T00:30:50.0000000+00:00</time></trkpt><trkpt lat="43.145458" lon="19.23424"><ele>1308.0</ele><time>2012-05-03T00:30:55.0000000+00:00</time></trkpt><trkpt lat="43.147438" lon="19.235281"><ele>1326.8</ele><time>2012-05-03T00:31:10.0000000+00:00</time></trkpt><trkpt lat="43.147995" lon="19.235725"><ele>1329.3</ele><time>2012-05-03T00:31:15.0000000+00:00</time></trkpt><trkpt lat="43.148357" lon="19.236452"><ele>1334.7</ele><time>2012-05-03T00:31:20.0000000+00:00</time></trkpt><trkpt lat="43.148422" lon="19.237303"><ele>1332.9</ele><time>2012-05-03T00:31:25.0000000+00:00</time></trkpt><trkpt lat="43.148033" lon="19.23905"><ele>1335.0</ele><time>2012-05-03T00:31:35.0000000+00:00</time></trkpt><trkpt lat="43.148003" lon="19.239954"><ele>1351.1</ele><time>2012-05-03T00:31:40.0000000+00:00</time></trkpt><trkpt lat="43.1483" lon="19.241768"><ele>1356.6</ele><time>2012-05-03T00:31:50.0000000+00:00</time></trkpt><trkpt lat="43.1483" lon="19.2437"><ele>1352.9</ele><time>2012-05-03T00:32:00.0000000+00:00</time></trkpt><trkpt lat="43.14777" lon="19.245253"><ele>1340.1</ele><time>2012-05-03T00:32:10.0000000+00:00</time></trkpt><trkpt lat="43.147652" lon="19.246941"><ele>1334.2</ele><time>2012-05-03T00:32:20.0000000+00:00</time></trkpt><trkpt lat="43.147892" lon="19.247747"><ele>1337.6</ele><time>2012-05-03T00:32:25.0000000+00:00</time></trkpt><trkpt lat="43.148315" lon="19.248417"><ele>1335.2</ele><time>2012-05-03T00:32:30.0000000+00:00</time></trkpt><trkpt lat="43.150089" lon="19.249937"><ele>1342.6</ele><time>2012-05-03T00:32:45.0000000+00:00</time></trkpt><trkpt lat="43.150356" lon="19.250771"><ele>1341.1</ele><time>2012-05-03T00:32:50.0000000+00:00</time></trkpt><trkpt lat="43.150154" lon="19.25248"><ele>1342.7</ele><time>2012-05-03T00:33:00.0000000+00:00</time></trkpt><trkpt lat="43.150238" lon="19.253214"><ele>1336.0</ele><time>2012-05-03T00:33:05.0000000+00:00</time></trkpt><trkpt lat="43.150845" lon="19.25444"><ele>1320.9</ele><time>2012-05-03T00:33:15.0000000+00:00</time></trkpt><trkpt lat="43.150829" lon="19.255693"><ele>1308.8</ele><time>2012-05-03T00:33:25.0000000+00:00</time></trkpt><trkpt lat="43.151058" lon="19.256203"><ele>1308.6</ele><time>2012-05-03T00:33:30.0000000+00:00</time></trkpt><trkpt lat="43.151791" lon="19.25684"><ele>1307.0</ele><time>2012-05-03T00:33:40.0000000+00:00</time></trkpt><trkpt lat="43.152191" lon="19.257874"><ele>1293.3</ele><time>2012-05-03T00:33:50.0000000+00:00</time></trkpt><trkpt lat="43.152447" lon="19.258318"><ele>1293.0</ele><time>2012-05-03T00:33:55.0000000+00:00</time></trkpt><trkpt lat="43.152782" lon="19.25853"><ele>1291.8</ele><time>2012-05-03T00:34:00.0000000+00:00</time></trkpt><trkpt lat="43.152847" lon="19.25882"><ele>1287.6</ele><time>2012-05-03T00:34:05.0000000+00:00</time></trkpt><trkpt lat="43.152256" lon="19.258684"><ele>1284.8</ele><time>2012-05-03T00:34:15.0000000+00:00</time></trkpt><trkpt lat="43.151596" lon="19.25786"><ele>1276.5</ele><time>2012-05-03T00:34:25.0000000+00:00</time></trkpt><trkpt lat="43.15015" lon="19.256693"><ele>1266.5</ele><time>2012-05-03T00:34:40.0000000+00:00</time></trkpt><trkpt lat="43.149929" lon="19.256769"><ele>1277.4</ele><time>2012-05-03T00:34:45.0000000+00:00</time></trkpt><trkpt lat="43.151291" lon="19.258671"><ele>1243.3</ele><time>2012-05-03T00:35:05.0000000+00:00</time></trkpt><trkpt lat="43.151821" lon="19.260105"><ele>1245.7</ele><time>2012-05-03T00:35:15.0000000+00:00</time></trkpt><trkpt lat="43.153599" lon="19.262016"><ele>1240.6</ele><time>2012-05-03T00:35:35.0000000+00:00</time></trkpt><trkpt lat="43.153526" lon="19.262548"><ele>1233.0</ele><time>2012-05-03T00:35:40.0000000+00:00</time></trkpt><trkpt lat="43.153168" lon="19.262894"><ele>1231.7</ele><time>2012-05-03T00:35:45.0000000+00:00</time></trkpt><trkpt lat="43.152699" lon="19.262871"><ele>1225.6</ele><time>2012-05-03T00:35:50.0000000+00:00</time></trkpt><trkpt lat="43.151436" lon="19.261562"><ele>1206.1</ele><time>2012-05-03T00:36:05.0000000+00:00</time></trkpt><trkpt lat="43.150894" lon="19.261379"><ele>1207.4</ele><time>2012-05-03T00:36:10.0000000+00:00</time></trkpt><trkpt lat="43.150433" lon="19.261786"><ele>1203.1</ele><time>2012-05-03T00:36:15.0000000+00:00</time></trkpt><trkpt lat="43.150669" lon="19.263365"><ele>1199.9</ele><time>2012-05-03T00:36:25.0000000+00:00</time></trkpt><trkpt lat="43.150635" lon="19.264214"><ele>1192.2</ele><time>2012-05-03T00:36:30.0000000+00:00</time></trkpt><trkpt lat="43.150154" lon="19.265835"><ele>1187.4</ele><time>2012-05-03T00:36:40.0000000+00:00</time></trkpt><trkpt lat="43.149849" lon="19.267529"><ele>1175.8</ele><time>2012-05-03T00:36:50.0000000+00:00</time></trkpt><trkpt lat="43.149006" lon="19.268667"><ele>1164.9</ele><time>2012-05-03T00:37:00.0000000+00:00</time></trkpt><trkpt lat="43.148495" lon="19.268661"><ele>1156.0</ele><time>2012-05-03T00:37:05.0000000+00:00</time></trkpt><trkpt lat="43.148163" lon="19.268124"><ele>1159.0</ele><time>2012-05-03T00:37:10.0000000+00:00</time></trkpt><trkpt lat="43.147888" lon="19.268"><ele>1158.5</ele><time>2012-05-03T00:37:15.0000000+00:00</time></trkpt><trkpt lat="43.14793" lon="19.268324"><ele>1152.9</ele><time>2012-05-03T00:37:20.0000000+00:00</time></trkpt><trkpt lat="43.14859" lon="19.269129"><ele>1147.0</ele><time>2012-05-03T00:37:30.0000000+00:00</time></trkpt><trkpt lat="43.149082" lon="19.269255"><ele>1151.3</ele><time>2012-05-03T00:37:35.0000000+00:00</time></trkpt><trkpt lat="43.149582" lon="19.269005"><ele>1147.7</ele><time>2012-05-03T00:37:40.0000000+00:00</time></trkpt><trkpt lat="43.150021" lon="19.268553"><ele>1145.9</ele><time>2012-05-03T00:37:45.0000000+00:00</time></trkpt><trkpt lat="43.151039" lon="19.266647"><ele>1139.5</ele><time>2012-05-03T00:38:00.0000000+00:00</time></trkpt><trkpt lat="43.151524" lon="19.26622"><ele>1136.0</ele><time>2012-05-03T00:38:05.0000000+00:00</time></trkpt><trkpt lat="43.151993" lon="19.266134"><ele>1128.7</ele><time>2012-05-03T00:38:10.0000000+00:00</time></trkpt><trkpt lat="43.153137" lon="19.266361"><ele>1121.7</ele><time>2012-05-03T00:38:20.0000000+00:00</time></trkpt><trkpt lat="43.153717" lon="19.266197"><ele>1119.4</ele><time>2012-05-03T00:38:25.0000000+00:00</time></trkpt><trkpt lat="43.154888" lon="19.26548"><ele>1113.3</ele><time>2012-05-03T00:38:35.0000000+00:00</time></trkpt><trkpt lat="43.15588" lon="19.264387"><ele>1107.9</ele><time>2012-05-03T00:38:45.0000000+00:00</time></trkpt><trkpt lat="43.156487" lon="19.264019"><ele>1102.1</ele><time>2012-05-03T00:38:50.0000000+00:00</time></trkpt><trkpt lat="43.156849" lon="19.263441"><ele>1104.7</ele><time>2012-05-03T00:38:55.0000000+00:00</time></trkpt><trkpt lat="43.158298" lon="19.262375"><ele>1086.2</ele><time>2012-05-03T00:39:10.0000000+00:00</time></trkpt><trkpt lat="43.158821" lon="19.262108"><ele>1084.2</ele><time>2012-05-03T00:39:15.0000000+00:00</time></trkpt><trkpt lat="43.15992" lon="19.262026"><ele>1070.6</ele><time>2012-05-03T00:39:25.0000000+00:00</time></trkpt><trkpt lat="43.160629" lon="19.261597"><ele>1068.8</ele><time>2012-05-03T00:39:35.0000000+00:00</time></trkpt><trkpt lat="43.160591" lon="19.261892"><ele>1062.5</ele><time>2012-05-03T00:39:40.0000000+00:00</time></trkpt><trkpt lat="43.159134" lon="19.262949"><ele>1058.4</ele><time>2012-05-03T00:39:55.0000000+00:00</time></trkpt><trkpt lat="43.158409" lon="19.264376"><ele>1043.5</ele><time>2012-05-03T00:40:05.0000000+00:00</time></trkpt><trkpt lat="43.158516" lon="19.265976"><ele>1034.5</ele><time>2012-05-03T00:40:15.0000000+00:00</time></trkpt><trkpt lat="43.158344" lon="19.2668"><ele>1031.9</ele><time>2012-05-03T00:40:20.0000000+00:00</time></trkpt><trkpt lat="43.157764" lon="19.268221"><ele>1020.5</ele><time>2012-05-03T00:40:30.0000000+00:00</time></trkpt><trkpt lat="43.154514" lon="19.271664"><ele>988.3</ele><time>2012-05-03T00:41:00.0000000+00:00</time></trkpt><trkpt lat="43.153885" lon="19.272104"><ele>984.3</ele><time>2012-05-03T00:41:05.0000000+00:00</time></trkpt><trkpt lat="43.152237" lon="19.27261"><ele>977.2</ele><time>2012-05-03T00:41:20.0000000+00:00</time></trkpt><trkpt lat="43.151459" lon="19.273796"><ele>981.6</ele><time>2012-05-03T00:41:30.0000000+00:00</time></trkpt><trkpt lat="43.150917" lon="19.275152"><ele>970.8</ele><time>2012-05-03T00:41:40.0000000+00:00</time></trkpt><trkpt lat="43.150524" lon="19.275646"><ele>966.2</ele><time>2012-05-03T00:41:45.0000000+00:00</time></trkpt><trkpt lat="43.149994" lon="19.277956"><ele>960.4</ele><time>2012-05-03T00:42:00.0000000+00:00</time></trkpt><trkpt lat="43.150078" lon="19.279615"><ele>958.0</ele><time>2012-05-03T00:42:10.0000000+00:00</time></trkpt><trkpt lat="43.150528" lon="19.281973"><ele>939.6</ele><time>2012-05-03T00:42:25.0000000+00:00</time></trkpt><trkpt lat="43.150188" lon="19.284534"><ele>931.8</ele><time>2012-05-03T00:42:40.0000000+00:00</time></trkpt><trkpt lat="43.150604" lon="19.287434"><ele>896.9</ele><time>2012-05-03T00:43:00.0000000+00:00</time></trkpt><trkpt lat="43.15073" lon="19.287146"><ele>896.5</ele><time>2012-05-03T00:43:05.0000000+00:00</time></trkpt><trkpt lat="43.150513" lon="19.286091"><ele>902.6</ele><time>2012-05-03T00:43:15.0000000+00:00</time></trkpt><trkpt lat="43.150524" lon="19.284756"><ele>898.1</ele><time>2012-05-03T00:43:25.0000000+00:00</time></trkpt><trkpt lat="43.150852" lon="19.283318"><ele>890.6</ele><time>2012-05-03T00:43:35.0000000+00:00</time></trkpt><trkpt lat="43.151154" lon="19.282696"><ele>883.6</ele><time>2012-05-03T00:43:40.0000000+00:00</time></trkpt><trkpt lat="43.151314" lon="19.279699"><ele>875.1</ele><time>2012-05-03T00:44:00.0000000+00:00</time></trkpt><trkpt lat="43.151566" lon="19.278114"><ele>866.7</ele><time>2012-05-03T00:44:10.0000000+00:00</time></trkpt><trkpt lat="43.152031" lon="19.277241"><ele>848.9</ele><time>2012-05-03T00:44:20.0000000+00:00</time></trkpt><trkpt lat="43.152191" lon="19.277365"><ele>839.7</ele><time>2012-05-03T00:44:25.0000000+00:00</time></trkpt><trkpt lat="43.151695" lon="19.27803"><ele>853.8</ele><time>2012-05-03T00:44:35.0000000+00:00</time></trkpt><trkpt lat="43.151485" lon="19.280264"><ele>854.9</ele><time>2012-05-03T00:44:50.0000000+00:00</time></trkpt><trkpt lat="43.151474" lon="19.281012"><ele>856.8</ele><time>2012-05-03T00:44:55.0000000+00:00</time></trkpt><trkpt lat="43.15176" lon="19.282534"><ele>848.1</ele><time>2012-05-03T00:45:05.0000000+00:00</time></trkpt><trkpt lat="43.151604" lon="19.283173"><ele>844.0</ele><time>2012-05-03T00:45:10.0000000+00:00</time></trkpt><trkpt lat="43.1516" lon="19.284533"><ele>831.7</ele><time>2012-05-03T00:45:20.0000000+00:00</time></trkpt><trkpt lat="43.151409" lon="19.285225"><ele>832.9</ele><time>2012-05-03T00:45:25.0000000+00:00</time></trkpt><trkpt lat="43.151485" lon="19.28595"><ele>831.0</ele><time>2012-05-03T00:45:30.0000000+00:00</time></trkpt><trkpt lat="43.151955" lon="19.287319"><ele>820.1</ele><time>2012-05-03T00:45:40.0000000+00:00</time></trkpt><trkpt lat="43.151958" lon="19.287985"><ele>813.1</ele><time>2012-05-03T00:45:45.0000000+00:00</time></trkpt><trkpt lat="43.15131" lon="19.289139"><ele>802.0</ele><time>2012-05-03T00:45:55.0000000+00:00</time></trkpt><trkpt lat="43.150871" lon="19.289564"><ele>792.3</ele><time>2012-05-03T00:46:00.0000000+00:00</time></trkpt><trkpt lat="43.149246" lon="19.289474"><ele>784.6</ele><time>2012-05-03T00:46:15.0000000+00:00</time></trkpt><trkpt lat="43.148907" lon="19.289921"><ele>784.2</ele><time>2012-05-03T00:46:20.0000000+00:00</time></trkpt><trkpt lat="43.148548" lon="19.291862"><ele>773.4</ele><time>2012-05-03T00:46:35.0000000+00:00</time></trkpt><trkpt lat="43.148624" lon="19.292381"><ele>763.6</ele><time>2012-05-03T00:46:40.0000000+00:00</time></trkpt><trkpt lat="43.149227" lon="19.293777"><ele>716.8</ele><time>2012-05-03T00:46:50.0000000+00:00</time></trkpt><trkpt lat="43.149693" lon="19.294468"><ele>718.0</ele><time>2012-05-03T00:46:55.0000000+00:00</time></trkpt><trkpt lat="43.150696" lon="19.295664"><ele>706.9</ele><time>2012-05-03T00:47:05.0000000+00:00</time></trkpt><trkpt lat="43.15123" lon="19.296005"><ele>769.2</ele><time>2012-05-03T00:47:10.0000000+00:00</time></trkpt><trkpt lat="43.152573" lon="19.296242"><ele>791.0</ele><time>2012-05-03T00:47:20.0000000+00:00</time></trkpt><trkpt lat="43.154278" lon="19.295502"><ele>794.6</ele><time>2012-05-03T00:47:35.0000000+00:00</time></trkpt><trkpt lat="43.15535" lon="19.296129"><ele>807.8</ele><time>2012-05-03T00:47:45.0000000+00:00</time></trkpt><trkpt lat="43.156479" lon="19.296415"><ele>819.2</ele><time>2012-05-03T00:47:55.0000000+00:00</time></trkpt><trkpt lat="43.157017" lon="19.296261"><ele>814.4</ele><time>2012-05-03T00:48:00.0000000+00:00</time></trkpt><trkpt lat="43.157444" lon="19.295742"><ele>817.9</ele><time>2012-05-03T00:48:05.0000000+00:00</time></trkpt><trkpt lat="43.157921" lon="19.294395"><ele>829.2</ele><time>2012-05-03T00:48:15.0000000+00:00</time></trkpt><trkpt lat="43.158344" lon="19.293978"><ele>835.6</ele><time>2012-05-03T00:48:20.0000000+00:00</time></trkpt><trkpt lat="43.158985" lon="19.293913"><ele>843.1</ele><time>2012-05-03T00:48:35.0000000+00:00</time></trkpt><trkpt lat="43.159004" lon="19.292671"><ele>829.9</ele><time>2012-05-03T00:50:50.0000000+00:00</time></trkpt></trkseg><trkseg><trkpt lat="43.146038" lon="19.298264"><ele>660.7</ele><time>2012-05-03T10:34:31.0000000+00:00</time></trkpt><trkpt lat="43.149395" lon="19.299833"><ele>751.2</ele><time>2012-05-03T10:34:36.0000000+00:00</time></trkpt><trkpt lat="43.148903" lon="19.299736"><ele>747.5</ele><time>2012-05-03T10:36:36.0000000+00:00</time></trkpt><trkpt lat="43.148926" lon="19.299471"><ele>746.0</ele><time>2012-05-03T10:37:01.0000000+00:00</time></trkpt><trkpt lat="43.149078" lon="19.299713"><ele>748.0</ele><time>2012-05-03T10:40:21.0000000+00:00</time></trkpt><trkpt lat="43.14896" lon="19.299805"><ele>748.1</ele><time>2012-05-03T10:40:41.0000000+00:00</time></trkpt><trkpt lat="43.148914" lon="19.299526"><ele>746.2</ele><time>2012-05-03T10:42:16.0000000+00:00</time></trkpt><trkpt lat="43.148865" lon="19.299654"><ele>746.8</ele><time>2012-05-03T10:42:31.0000000+00:00</time></trkpt><trkpt lat="43.148956" lon="19.299774"><ele>747.9</ele><time>2012-05-03T10:43:01.0000000+00:00</time></trkpt><trkpt lat="43.148964" lon="19.299549"><ele>746.7</ele><time>2012-05-03T10:43:26.0000000+00:00</time></trkpt><trkpt lat="43.149052" lon="19.29973"><ele>747.9</ele><time>2012-05-03T10:44:31.0000000+00:00</time></trkpt><trkpt lat="43.149097" lon="19.299501"><ele>747.0</ele><time>2012-05-03T10:47:11.0000000+00:00</time></trkpt><trkpt lat="43.148972" lon="19.299732"><ele>747.6</ele><time>2012-05-03T10:48:56.0000000+00:00</time></trkpt><trkpt lat="43.149101" lon="19.299538"><ele>747.2</ele><time>2012-05-03T10:49:21.0000000+00:00</time></trkpt><trkpt lat="43.148991" lon="19.299505"><ele>746.6</ele><time>2012-05-03T10:49:31.0000000+00:00</time></trkpt><trkpt lat="43.149033" lon="19.299637"><ele>747.4</ele><time>2012-05-03T10:49:46.0000000+00:00</time></trkpt><trkpt lat="43.149307" lon="19.299446"><ele>746.9</ele><time>2012-05-03T10:49:56.0000000+00:00</time></trkpt><trkpt lat="43.149982" lon="19.298521"><ele>747.3</ele><time>2012-05-03T10:50:16.0000000+00:00</time></trkpt><trkpt lat="43.150818" lon="19.296007"><ele>745.6</ele><time>2012-05-03T10:51:21.0000000+00:00</time></trkpt><trkpt lat="43.150528" lon="19.29541"><ele>679.8</ele><time>2012-05-03T10:51:36.0000000+00:00</time></trkpt><trkpt lat="43.149437" lon="19.294073"><ele>715.5</ele><time>2012-05-03T10:51:56.0000000+00:00</time></trkpt><trkpt lat="43.148582" lon="19.292086"><ele>769.8</ele><time>2012-05-03T10:52:21.0000000+00:00</time></trkpt><trkpt lat="43.146969" lon="19.291948"><ele>765.4</ele><time>2012-05-03T10:52:51.0000000+00:00</time></trkpt><trkpt lat="43.146206" lon="19.292093"><ele>769.1</ele><time>2012-05-03T10:53:01.0000000+00:00</time></trkpt><trkpt lat="43.144627" lon="19.293316"><ele>752.4</ele><time>2012-05-03T10:53:21.0000000+00:00</time></trkpt><trkpt lat="43.143547" lon="19.294735"><ele>747.4</ele><time>2012-05-03T10:53:36.0000000+00:00</time></trkpt><trkpt lat="43.142475" lon="19.295559"><ele>753.7</ele><time>2012-05-03T10:53:46.0000000+00:00</time></trkpt><trkpt lat="43.141537" lon="19.297203"><ele>730.6</ele><time>2012-05-03T10:54:01.0000000+00:00</time></trkpt><trkpt lat="43.140526" lon="19.298536"><ele>715.3</ele><time>2012-05-03T10:54:16.0000000+00:00</time></trkpt><trkpt lat="43.140011" lon="19.298977"><ele>709.0</ele><time>2012-05-03T10:54:21.0000000+00:00</time></trkpt><trkpt lat="43.139103" lon="19.299219"><ele>707.5</ele><time>2012-05-03T10:54:31.0000000+00:00</time></trkpt><trkpt lat="43.138306" lon="19.299698"><ele>741.4</ele><time>2012-05-03T10:54:46.0000000+00:00</time></trkpt><trkpt lat="43.134289" lon="19.307655"><ele>645.2</ele><time>2012-05-03T10:55:59.0000000+00:00</time></trkpt><trkpt lat="43.133671" lon="19.308575"><ele>653.9</ele><time>2012-05-03T10:56:09.0000000+00:00</time></trkpt><trkpt lat="43.132221" lon="19.309195"><ele>648.6</ele><time>2012-05-03T10:56:19.0000000+00:00</time></trkpt><trkpt lat="43.130989" lon="19.308952"><ele>640.5</ele><time>2012-05-03T10:56:29.0000000+00:00</time></trkpt><trkpt lat="43.129585" lon="19.309053"><ele>644.8</ele><time>2012-05-03T10:56:39.0000000+00:00</time></trkpt><trkpt lat="43.129002" lon="19.30941"><ele>642.3</ele><time>2012-05-03T10:56:44.0000000+00:00</time></trkpt><trkpt lat="43.127792" lon="19.310644"><ele>646.7</ele><time>2012-05-03T10:57:19.0000000+00:00</time></trkpt><trkpt lat="43.128365" lon="19.30986"><ele>645.9</ele><time>2012-05-03T10:57:44.0000000+00:00</time></trkpt><trkpt lat="43.128468" lon="19.310078"><ele>638.1</ele><time>2012-05-03T10:58:14.0000000+00:00</time></trkpt><trkpt lat="43.128338" lon="19.310148"><ele>639.9</ele><time>2012-05-03T10:59:04.0000000+00:00</time></trkpt><trkpt lat="43.128548" lon="19.309927"><ele>640.5</ele><time>2012-05-03T10:59:54.0000000+00:00</time></trkpt><trkpt lat="43.129032" lon="19.310461"><ele>661.9</ele><time>2012-05-03T11:02:49.0000000+00:00</time></trkpt><trkpt lat="43.128544" lon="19.310019"><ele>639.2</ele><time>2012-05-03T11:04:54.0000000+00:00</time></trkpt><trkpt lat="43.1287" lon="19.310221"><ele>641.4</ele><time>2012-05-03T11:05:14.0000000+00:00</time></trkpt><trkpt lat="43.128819" lon="19.31016"><ele>643.5</ele><time>2012-05-03T11:05:24.0000000+00:00</time></trkpt><trkpt lat="43.128674" lon="19.310043"><ele>639.2</ele><time>2012-05-03T11:05:39.0000000+00:00</time></trkpt><trkpt lat="43.12886" lon="19.309923"><ele>641.4</ele><time>2012-05-03T11:06:29.0000000+00:00</time></trkpt><trkpt lat="43.128788" lon="19.310099"><ele>641.0</ele><time>2012-05-03T11:06:54.0000000+00:00</time></trkpt><trkpt lat="43.129021" lon="19.310349"><ele>657.5</ele><time>2012-05-03T11:07:19.0000000+00:00</time></trkpt><trkpt lat="43.129021" lon="19.309982"><ele>646.1</ele><time>2012-05-03T11:07:59.0000000+00:00</time></trkpt><trkpt lat="43.128532" lon="19.309971"><ele>639.9</ele><time>2012-05-03T11:08:49.0000000+00:00</time></trkpt><trkpt lat="43.12883" lon="19.310125"><ele>643.1</ele><time>2012-05-03T11:10:29.0000000+00:00</time></trkpt><trkpt lat="43.129272" lon="19.309799"><ele>649.0</ele><time>2012-05-03T11:11:04.0000000+00:00</time></trkpt><trkpt lat="43.129292" lon="19.309978"><ele>655.8</ele><time>2012-05-03T11:11:59.0000000+00:00</time></trkpt><trkpt lat="43.128971" lon="19.309786"><ele>641.1</ele><time>2012-05-03T11:13:29.0000000+00:00</time></trkpt><trkpt lat="43.130157" lon="19.309002"><ele>638.6</ele><time>2012-05-03T11:14:44.0000000+00:00</time></trkpt><trkpt lat="43.130474" lon="19.308985"><ele>637.9</ele><time>2012-05-03T11:14:54.0000000+00:00</time></trkpt><trkpt lat="43.131481" lon="19.30954"><ele>657.6</ele><time>2012-05-03T11:15:34.0000000+00:00</time></trkpt><trkpt lat="43.132084" lon="19.309177"><ele>649.4</ele><time>2012-05-03T11:16:09.0000000+00:00</time></trkpt><trkpt lat="43.133625" lon="19.308817"><ele>645.4</ele><time>2012-05-03T11:17:04.0000000+00:00</time></trkpt><trkpt lat="43.134003" lon="19.308079"><ele>648.8</ele><time>2012-05-03T11:17:34.0000000+00:00</time></trkpt><trkpt lat="43.134682" lon="19.307446"><ele>636.4</ele><time>2012-05-03T11:18:09.0000000+00:00</time></trkpt><trkpt lat="43.13625" lon="19.304621"><ele>641.9</ele><time>2012-05-03T11:19:44.0000000+00:00</time></trkpt><trkpt lat="43.138237" lon="19.302109"><ele>626.8</ele><time>2012-05-03T11:21:39.0000000+00:00</time></trkpt><trkpt lat="43.138313" lon="19.301796"><ele>628.9</ele><time>2012-05-03T11:22:04.0000000+00:00</time></trkpt><trkpt lat="43.138382" lon="19.30208"><ele>631.7</ele><time>2012-05-03T11:23:34.0000000+00:00</time></trkpt><trkpt lat="43.138157" lon="19.30201"><ele>626.7</ele><time>2012-05-03T11:23:59.0000000+00:00</time></trkpt><trkpt lat="43.137817" lon="19.301325"><ele>656.1</ele><time>2012-05-03T11:24:49.0000000+00:00</time></trkpt><trkpt lat="43.137936" lon="19.301109"><ele>658.2</ele><time>2012-05-03T11:25:19.0000000+00:00</time></trkpt><trkpt lat="43.137756" lon="19.30093"><ele>678.6</ele><time>2012-05-03T11:25:49.0000000+00:00</time></trkpt><trkpt lat="43.138302" lon="19.300924"><ele>661.1</ele><time>2012-05-03T11:26:14.0000000+00:00</time></trkpt><trkpt lat="43.137897" lon="19.301241"><ele>653.4</ele><time>2012-05-03T11:26:27.0000000+00:00</time></trkpt><trkpt lat="43.138149" lon="19.30088"><ele>664.3</ele><time>2012-05-03T11:26:47.0000000+00:00</time></trkpt><trkpt lat="43.139763" lon="19.300703"><ele>655.2</ele><time>2012-05-03T11:30:03.0000000+00:00</time></trkpt><trkpt lat="43.136883" lon="19.301996"><ele>697.3</ele><time>2012-05-03T11:30:19.0000000+00:00</time></trkpt><trkpt lat="43.136784" lon="19.301815"><ele>702.1</ele><time>2012-05-03T11:30:39.0000000+00:00</time></trkpt><trkpt lat="43.137859" lon="19.300987"><ele>668.7</ele><time>2012-05-03T11:31:17.0000000+00:00</time></trkpt><trkpt lat="43.137848" lon="19.301216"><ele>658.1</ele><time>2012-05-03T11:31:42.0000000+00:00</time></trkpt><trkpt lat="43.138332" lon="19.302076"><ele>629.9</ele><time>2012-05-03T11:34:07.0000000+00:00</time></trkpt><trkpt lat="43.138577" lon="19.301842"><ele>636.2</ele><time>2012-05-03T11:35:42.0000000+00:00</time></trkpt><trkpt lat="43.138321" lon="19.301802"><ele>629.1</ele><time>2012-05-03T11:36:27.0000000+00:00</time></trkpt><trkpt lat="43.138424" lon="19.302048"><ele>632.6</ele><time>2012-05-03T11:36:57.0000000+00:00</time></trkpt><trkpt lat="43.139256" lon="19.301321"><ele>643.3</ele><time>2012-05-03T11:37:37.0000000+00:00</time></trkpt><trkpt lat="43.141163" lon="19.300467"><ele>642.3</ele><time>2012-05-03T11:38:47.0000000+00:00</time></trkpt><trkpt lat="43.142437" lon="19.298971"><ele>637.2</ele><time>2012-05-03T11:39:42.0000000+00:00</time></trkpt><trkpt lat="43.143223" lon="19.298811"><ele>642.2</ele><time>2012-05-03T11:40:17.0000000+00:00</time></trkpt><trkpt lat="43.143726" lon="19.299034"><ele>649.9</ele><time>2012-05-03T11:40:52.0000000+00:00</time></trkpt><trkpt lat="43.144054" lon="19.298103"><ele>637.7</ele><time>2012-05-03T11:41:17.0000000+00:00</time></trkpt><trkpt lat="43.145126" lon="19.297483"><ele>633.7</ele><time>2012-05-03T11:42:12.0000000+00:00</time></trkpt><trkpt lat="43.14632" lon="19.296274"><ele>625.7</ele><time>2012-05-03T11:43:02.0000000+00:00</time></trkpt><trkpt lat="43.146748" lon="19.296333"><ele>627.1</ele><time>2012-05-03T11:43:17.0000000+00:00</time></trkpt><trkpt lat="43.147587" lon="19.297071"><ele>632.3</ele><time>2012-05-03T11:43:52.0000000+00:00</time></trkpt><trkpt lat="43.149612" lon="19.296474"><ele>665.3</ele><time>2012-05-03T11:45:02.0000000+00:00</time></trkpt><trkpt lat="43.150013" lon="19.29612"><ele>682.7</ele><time>2012-05-03T11:45:17.0000000+00:00</time></trkpt><trkpt lat="43.150219" lon="19.295525"><ele>678.2</ele><time>2012-05-03T11:45:32.0000000+00:00</time></trkpt><trkpt lat="43.150684" lon="19.295095"><ele>664.7</ele><time>2012-05-03T11:45:47.0000000+00:00</time></trkpt><trkpt lat="43.151043" lon="19.294342"><ele>630.1</ele><time>2012-05-03T11:46:07.0000000+00:00</time></trkpt><trkpt lat="43.152203" lon="19.293484"><ele>649.8</ele><time>2012-05-03T11:46:52.0000000+00:00</time></trkpt><trkpt lat="43.152725" lon="19.292738"><ele>658.3</ele><time>2012-05-03T11:47:12.0000000+00:00</time></trkpt><trkpt lat="43.153328" lon="19.292595"><ele>651.3</ele><time>2012-05-03T11:47:27.0000000+00:00</time></trkpt><trkpt lat="43.15432" lon="19.2917"><ele>645.5</ele><time>2012-05-03T11:48:02.0000000+00:00</time></trkpt><trkpt lat="43.155693" lon="19.291136"><ele>644.7</ele><time>2012-05-03T11:48:42.0000000+00:00</time></trkpt><trkpt lat="43.155972" lon="19.290497"><ele>644.7</ele><time>2012-05-03T11:48:57.0000000+00:00</time></trkpt><trkpt lat="43.156132" lon="19.289354"><ele>622.0</ele><time>2012-05-03T11:49:22.0000000+00:00</time></trkpt><trkpt lat="43.155384" lon="19.285648"><ele>621.2</ele><time>2012-05-03T11:50:57.0000000+00:00</time></trkpt><trkpt lat="43.156208" lon="19.284254"><ele>631.5</ele><time>2012-05-03T11:51:37.0000000+00:00</time></trkpt><trkpt lat="43.156677" lon="19.28273"><ele>622.4</ele><time>2012-05-03T11:52:27.0000000+00:00</time></trkpt><trkpt lat="43.157188" lon="19.281937"><ele>628.7</ele><time>2012-05-03T11:52:57.0000000+00:00</time></trkpt><trkpt lat="43.157681" lon="19.280312"><ele>618.0</ele><time>2012-05-03T11:53:52.0000000+00:00</time></trkpt><trkpt lat="43.157814" lon="19.277185"><ele>614.8</ele><time>2012-05-03T11:55:07.0000000+00:00</time></trkpt><trkpt lat="43.158421" lon="19.275072"><ele>623.5</ele><time>2012-05-03T11:56:02.0000000+00:00</time></trkpt><trkpt lat="43.158741" lon="19.274477"><ele>633.0</ele><time>2012-05-03T11:56:17.0000000+00:00</time></trkpt><trkpt lat="43.159527" lon="19.273964"><ele>633.5</ele><time>2012-05-03T11:56:37.0000000+00:00</time></trkpt><trkpt lat="43.16103" lon="19.271927"><ele>628.1</ele><time>2012-05-03T11:57:52.0000000+00:00</time></trkpt><trkpt lat="43.162682" lon="19.270948"><ele>622.2</ele><time>2012-05-03T11:59:02.0000000+00:00</time></trkpt><trkpt lat="43.163784" lon="19.268398"><ele>617.3</ele><time>2012-05-03T12:00:02.0000000+00:00</time></trkpt><trkpt lat="43.164036" lon="19.26656"><ele>618.3</ele><time>2012-05-03T12:00:47.0000000+00:00</time></trkpt><trkpt lat="43.164806" lon="19.264065"><ele>626.7</ele><time>2012-05-03T12:01:57.0000000+00:00</time></trkpt><trkpt lat="43.165546" lon="19.26292"><ele>615.6</ele><time>2012-05-03T12:02:52.0000000+00:00</time></trkpt><trkpt lat="43.166302" lon="19.262384"><ele>620.7</ele><time>2012-05-03T12:03:27.0000000+00:00</time></trkpt><trkpt lat="43.166973" lon="19.262362"><ele>625.8</ele><time>2012-05-03T12:03:52.0000000+00:00</time></trkpt><trkpt lat="43.169083" lon="19.261366"><ele>634.3</ele><time>2012-05-03T12:05:12.0000000+00:00</time></trkpt><trkpt lat="43.170315" lon="19.261072"><ele>622.1</ele><time>2012-05-03T12:05:52.0000000+00:00</time></trkpt><trkpt lat="43.171257" lon="19.259991"><ele>635.8</ele><time>2012-05-03T12:06:42.0000000+00:00</time></trkpt><trkpt lat="43.172394" lon="19.259378"><ele>622.9</ele><time>2012-05-03T12:07:32.0000000+00:00</time></trkpt><trkpt lat="43.172058" lon="19.259182"><ele>644.8</ele><time>2012-05-03T12:07:37.0000000+00:00</time></trkpt><trkpt lat="43.1721" lon="19.258963"><ele>658.5</ele><time>2012-05-03T12:07:42.0000000+00:00</time></trkpt><trkpt lat="43.172722" lon="19.258244"><ele>682.6</ele><time>2012-05-03T12:08:32.0000000+00:00</time></trkpt><trkpt lat="43.173744" lon="19.259092"><ele>626.6</ele><time>2012-05-03T12:08:37.0000000+00:00</time></trkpt><trkpt lat="43.173996" lon="19.258202"><ele>626.5</ele><time>2012-05-03T12:08:47.0000000+00:00</time></trkpt><trkpt lat="43.174644" lon="19.257147"><ele>628.9</ele><time>2012-05-03T12:09:22.0000000+00:00</time></trkpt><trkpt lat="43.175179" lon="19.256504"><ele>647.2</ele><time>2012-05-03T12:09:57.0000000+00:00</time></trkpt><trkpt lat="43.175808" lon="19.256197"><ele>624.9</ele><time>2012-05-03T12:10:27.0000000+00:00</time></trkpt><trkpt lat="43.175938" lon="19.25564"><ele>632.3</ele><time>2012-05-03T12:10:47.0000000+00:00</time></trkpt><trkpt lat="43.176804" lon="19.25486"><ele>606.4</ele><time>2012-05-03T12:11:22.0000000+00:00</time></trkpt><trkpt lat="43.176994" lon="19.254181"><ele>598.7</ele><time>2012-05-03T12:11:42.0000000+00:00</time></trkpt><trkpt lat="43.176449" lon="19.252926"><ele>602.8</ele><time>2012-05-03T12:12:17.0000000+00:00</time></trkpt><trkpt lat="43.176987" lon="19.253254"><ele>600.3</ele><time>2012-05-03T12:13:52.0000000+00:00</time></trkpt><trkpt lat="43.17683" lon="19.253279"><ele>598.0</ele><time>2012-05-03T12:14:12.0000000+00:00</time></trkpt><trkpt lat="43.176727" lon="19.252787"><ele>599.2</ele><time>2012-05-03T12:15:47.0000000+00:00</time></trkpt><trkpt lat="43.176758" lon="19.253029"><ele>598.6</ele><time>2012-05-03T12:15:57.0000000+00:00</time></trkpt><trkpt lat="43.177113" lon="19.253016"><ele>604.9</ele><time>2012-05-03T12:16:22.0000000+00:00</time></trkpt><trkpt lat="43.177006" lon="19.25275"><ele>605.0</ele><time>2012-05-03T12:16:42.0000000+00:00</time></trkpt><trkpt lat="43.176811" lon="19.252735"><ele>600.0</ele><time>2012-05-03T12:17:02.0000000+00:00</time></trkpt><trkpt lat="43.176727" lon="19.25288"><ele>598.9</ele><time>2012-05-03T12:17:07.0000000+00:00</time></trkpt><trkpt lat="43.17659" lon="19.252783"><ele>598.5</ele><time>2012-05-03T12:17:32.0000000+00:00</time></trkpt><trkpt lat="43.176563" lon="19.253019"><ele>598.7</ele><time>2012-05-03T12:22:57.0000000+00:00</time></trkpt></trkseg></trk></gpx>